# Wetter Temperatur Luftdruck Luftfeuchtigkeit Sichtweite Windgeschwindigkeit Windrichtung Zeit
1 Clear 11 1018 53 10000 8.93 303 12:54 22.04.2021
2 Clear 10 1018 53 10000 8.93 303 12:36 22.04.2021
3 Clear 10 1018 54 10000 9.38 296 12:18 22.04.2021
4 Clear 10 1018 54 10000 9.38 296 11:40 22.04.2021
5 Clear 10 1017 55 10000 10.11 296 11:19 22.04.2021
6 Clear 9 1017 55 10000 10.11 296 10:40 22.04.2021
7 Clear 9 1017 56 10000 10.36 298 10:19 22.04.2021
8 Clear 8 1016 57 10000 10.36 298 09:36 22.04.2021
9 Clear 8 1016 56 10000 11.09 296 08:52 22.04.2021
10 Clear 6 1017 78 10000 0.45 202 08:23 22.04.2021
11 Clear 6 1017 80 10000 11.41 293 07:54 22.04.2021
12 Clear 6 1017 81 10000 1.79 315 07:31 22.04.2021
13 Clear 4 1017 83 10000 10.71 290 06:57 22.04.2021
14 Clear 4 1016 83 10000 10.47 292 06:19 22.04.2021
15 Clouds 4 1016 82 10000 0.45 292 05:23 22.04.2021
16 Clear 5 1016 77 10000 0.89 315 02:28 22.04.2021
17 Clear 5 1016 68 10000 12.88 283 00:25 22.04.2021
18 Clear 6 1016 67 10000 0.45 315 23:41 21.04.2021
19 Clear 6 1016 66 10000 0.89 292 23:21 21.04.2021
20 Clear 6 1016 68 10000 0.89 315 22:41 21.04.2021
21 Clear 6 1016 70 10000 1.79 315 22:21 21.04.2021
22 Clear 7 1016 68 10000 0.45 0 21:41 21.04.2021
23 Clear 7 1016 66 10000 1.34 292 21:23 21.04.2021
24 Clear 8 1016 63 10000 1.34 315 20:38 21.04.2021
25 Clouds 8 1015 60 10000 2.68 292 20:18 21.04.2021
26 Clouds 7 1011 64 10000 13.73 283 19:38 21.04.2021
27 Clouds 7 1011 64 10000 12.82 282 19:20 21.04.2021
28 Clouds 7 1011 64 10000 12.82 282 18:44 21.04.2021
29 Clouds 11 1015 50 10000 0.89 0 18:22 21.04.2021
30 Clouds 11 1015 48 10000 2.24 292 17:46 21.04.2021
31 Clouds 11 1015 56 10000 2.24 292 17:24 21.04.2021
32 Clouds 11 1015 61 10000 2.24 292 16:42 21.04.2021
33 Clouds 12 1016 60 10000 2.68 292 15:56 21.04.2021
34 Clouds 11 1016 70 10000 0.89 90 15:37 21.04.2021
35 Clouds 11 1016 76 10000 1.79 337 14:47 21.04.2021
36 Clouds 11 1016 74 10000 2.24 315 14:29 21.04.2021
37 Clouds 12 1016 74 10000 8.1 275 13:51 21.04.2021
38 Clouds 12 1016 73 10000 8.22 284 13:24 21.04.2021
39 Clouds 13 1016 72 10000 0.45 0 12:58 21.04.2021
40 Clouds 13 1016 70 10000 7.06 278 12:29 21.04.2021
41 Clouds 13 1016 69 10000 0.45 67 11:49 21.04.2021
42 Clouds 13 1016 69 10000 1.34 0 11:29 21.04.2021
43 Clouds 12 1016 74 10000 0.89 22 10:48 21.04.2021
44 Clouds 12 1016 76 10000 6.46 278 10:18 21.04.2021
45 Clouds 10 1016 80 10000 6.46 278 09:41 21.04.2021
46 Clouds 8 1016 84 10000 0.45 292 08:56 21.04.2021
47 Clouds 8 1016 84 10000 6.19 286 08:37 21.04.2021
48 Clouds 6 1016 85 10000 5.48 283 08:18 21.04.2021
49 Clouds 5 1016 85 10000 5.35 279 07:31 21.04.2021
50 Clouds 3 1016 82 10000 5.04 268 06:42 21.04.2021
51 Clear 3 1016 81 10000 3.99 253 04:54 21.04.2021
52 Clear 4 1017 80 10000 2.16 265 00:53 21.04.2021
53 Clear 5 1017 79 10000 2.54 288 23:49 20.04.2021
54 Clear 5 1018 79 10000 3.06 284 23:24 20.04.2021
55 Clear 6 1018 78 10000 3.06 284 22:41 20.04.2021
56 Clear 6 1018 77 10000 2.52 278 22:19 20.04.2021
57 Clear 7 1018 77 10000 2.52 278 21:47 20.04.2021
58 Clear 8 1018 76 10000 1.33 300 21:25 20.04.2021
59 Clear 8 1018 76 10000 1.33 300 20:43 20.04.2021
60 Clear 9 1018 75 10000 1.24 359 20:23 20.04.2021
61 Clear 6 1015 83 10000 1.49 4 19:55 20.04.2021
62 Clear 6 1015 83 10000 1.49 4 19:37 20.04.2021
63 Clear 11 1018 76 10000 2.04 16 19:18 20.04.2021
64 Clear 11 1018 74 10000 0.45 45 18:35 20.04.2021
65 Clouds 12 1018 70 10000 0.45 45 17:46 20.04.2021
66 Clear 12 1019 69 10000 3.1 18 17:27 20.04.2021
67 Clear 12 1019 68 10000 3.1 18 16:48 20.04.2021
68 Clear 12 1019 68 10000 3.36 17 15:53 20.04.2021
69 Clear 12 1019 68 10000 3.73 18 15:29 20.04.2021
70 Clear 12 1020 71 10000 3.73 18 14:58 20.04.2021
71 Clear 11 1020 73 10000 3.73 18 14:33 20.04.2021
72 Clear 11 1020 70 10000 4.14 18 13:48 20.04.2021
73 Clear 11 1020 71 10000 4.38 20 13:22 20.04.2021
74 Clear 11 1021 73 10000 0.45 22 12:41 20.04.2021
75 Clear 11 1021 72 10000 0.45 22 12:20 20.04.2021
76 Clear 10 1021 73 10000 4.6 22 11:44 20.04.2021
77 Clear 10 1021 73 10000 4.6 22 11:44 20.04.2021
78 Clear 9 1021 74 10000 4.67 25 11:21 20.04.2021
79 Clear 9 1021 75 10000 4.67 25 10:43 20.04.2021
80 Clear 9 1021 75 10000 4.67 25 10:43 20.04.2021
81 Clear 9 1021 77 10000 4.69 27 10:23 20.04.2021
82 Clear 8 1021 79 10000 0.89 45 09:36 20.04.2021
83 Clear 8 1021 81 10000 0.45 22 08:56 20.04.2021
84 Clear 8 1021 82 10000 0.89 22 08:22 20.04.2021
85 Clear 8 1021 84 10000 0.89 45 07:47 20.04.2021
86 Clear 6 1021 87 10000 0.89 22 06:47 20.04.2021
87 Clear 6 1022 87 10000 5.12 44 05:40 20.04.2021
88 Clear 6 1022 87 10000 0.45 45 04:42 20.04.2021
89 Clear 6 1023 87 10000 0.45 45 01:48 20.04.2021
90 Clear 6 1023 87 10000 1.34 45 00:38 20.04.2021
91 Clear 6 1023 86 10000 0.89 67 23:37 19.04.2021
92 Clear 7 1023 84 10000 5.99 58 22:58 19.04.2021
93 Clear 7 1023 83 10000 0.89 45 22:36 19.04.2021
94 Clear 7 1024 82 10000 6.02 57 21:51 19.04.2021
95 Clear 7 1024 82 10000 6.02 57 21:33 19.04.2021
96 Clear 7 1024 81 10000 1.34 45 20:56 19.04.2021
97 Clear 7 1024 79 10000 0.45 45 20:38 19.04.2021
98 Clear 7 1024 78 10000 0.89 45 20:19 19.04.2021
99 Clear 9 1024 76 10000 6.31 55 19:41 19.04.2021
100 Clear 9 1024 75 10000 0.45 45 19:23 19.04.2021
101 Clear 9 1024 75 10000 0.45 22 18:47 19.04.2021
102 Clear 9 1024 75 10000 0.89 45 18:22 19.04.2021
103 Clear 9 1024 75 10000 0.89 45 18:22 19.04.2021
104 Clear 9 1024 75 10000 0.45 45 17:54 19.04.2021
105 Clear 9 1024 74 10000 0.45 45 17:29 19.04.2021
106 Clear 11 1024 72 10000 0.45 45 16:57 19.04.2021
107 Clear 11 1024 70 10000 0.45 22 16:38 19.04.2021
108 Clear 11 1024 69 10000 0.89 67 16:20 19.04.2021
109 Clear 11 1025 67 10000 0.45 45 15:33 19.04.2021
110 Clear 11 1025 69 10000 0.45 45 14:56 19.04.2021
111 Clear 11 1025 68 10000 0.89 45 14:37 19.04.2021
112 Clouds 11 1025 68 10000 0.89 45 14:18 19.04.2021
113 Clouds 10 1025 70 10000 0.89 90 13:36 19.04.2021
114 Clouds 10 1025 72 10000 0.45 45 13:18 19.04.2021
115 Clouds 11 1025 73 10000 1.34 22 12:40 19.04.2021
116 Clouds 11 1025 73 10000 0.45 45 12:20 19.04.2021
117 Clouds 11 1023 62 10000 5.79 42 11:52 19.04.2021
118 Clouds 11 1023 63 10000 5.78 43 11:21 19.04.2021
119 Clouds 10 1023 65 10000 5.78 43 10:45 19.04.2021
120 Clouds 9 1023 65 10000 5.75 48 10:20 19.04.2021
121 Clouds 9 1023 64 10000 5.75 48 09:48 19.04.2021
122 Clouds 9 1023 64 10000 5.69 49 09:27 19.04.2021
123 Clouds 8 1023 65 10000 5.69 49 08:55 19.04.2021
124 Clouds 8 1023 64 10000 5.5 49 08:24 19.04.2021
125 Clouds 8 1023 63 10000 5.29 51 07:45 19.04.2021
126 Clouds 6 1025 90 10000 4.98 51 07:18 19.04.2021
127 Clouds 5 1025 91 10000 4.66 58 05:44 19.04.2021
128 Clouds 6 1026 91 10000 4.93 62 02:34 19.04.2021
129 Clouds 5 1026 91 10000 5.64 71 00:45 19.04.2021
130 Clouds 6 1026 91 10000 5.59 70 23:49 18.04.2021
131 Clouds 6 1026 91 10000 7.06 68 23:18 18.04.2021
132 Clouds 6 1026 92 10000 7.06 68 22:46 18.04.2021
133 Clouds 6 1026 92 10000 0.89 45 22:24 18.04.2021
134 Rain 6 1026 92 10000 5.49 59 21:29 18.04.2021
135 Rain 6 1026 90 10000 5.49 59 20:57 18.04.2021
136 Clouds 6 1026 90 10000 5.98 59 20:38 18.04.2021
137 Clouds 7 1025 90 10000 0.45 45 20:20 18.04.2021
138 Clouds 7 1025 90 10000 0.89 45 19:44 18.04.2021
139 Clouds 7 1025 90 10000 4.94 60 19:23 18.04.2021
140 Rain 7 1025 90 10000 4.94 60 18:50 18.04.2021
141 Clouds 7 1025 90 10000 0.89 90 18:30 18.04.2021
142 Clouds 7 1024 89 10000 0.89 45 17:50 18.04.2021
143 Clouds 7 1025 88 10000 0.45 90 17:31 18.04.2021
144 Clouds 7 1025 86 10000 0.45 45 16:54 18.04.2021
145 Clouds 7 1025 87 10000 5.93 69 16:36 18.04.2021
146 Clouds 8 1025 86 10000 0.45 45 15:51 18.04.2021
147 Clouds 8 1025 83 10000 6.04 51 15:32 18.04.2021
148 Clouds 6 1022 91 10000 5.95 48 14:58 18.04.2021
149 Clouds 9 1025 79 10000 0.89 45 14:40 18.04.2021
150 Clouds 9 1025 79 10000 0.89 45 14:18 18.04.2021
151 Clouds 9 1025 79 10000 0.89 45 13:45 18.04.2021
152 Clouds 9 1025 79 10000 0.89 45 13:27 18.04.2021
153 Clouds 8 1025 80 10000 6.15 47 12:37 18.04.2021
154 Clouds 8 1026 83 10000 1.34 45 11:58 18.04.2021
155 Clouds 10 1023 60 10000 5.66 52 11:39 18.04.2021
156 Clouds 8 1026 85 10000 5.57 52 11:20 18.04.2021
157 Clouds 9 1023 61 10000 5.57 52 10:41 18.04.2021
158 Clouds 7 1026 87 10000 0.45 45 10:18 18.04.2021
159 Clouds 7 1025 87 10000 5.74 50 09:39 18.04.2021
160 Clear 8 1023 62 10000 5.83 55 09:21 18.04.2021
161 Clouds 8 1023 60 10000 5.73 56 08:46 18.04.2021
162 Clouds 7 1023 61 10000 5.92 56 08:26 18.04.2021
163 Clouds 7 1023 57 10000 5.92 56 07:41 18.04.2021
164 Clear 6 1025 89 10000 5.69 56 06:56 18.04.2021
165 Clear 6 1025 89 10000 5.93 61 05:27 18.04.2021
166 Clear 6 1026 89 10000 0.45 45 04:53 18.04.2021
167 Clouds 6 1026 88 10000 0.45 45 02:23 18.04.2021
168 Clouds 6 1026 87 10000 7.13 60 00:58 18.04.2021
169 Clouds 6 1026 87 10000 7.19 58 23:58 17.04.2021
170 Clouds 6 1026 87 10000 0.89 67 23:27 17.04.2021
171 Clouds 6 1026 87 10000 0.45 67 22:49 17.04.2021
172 Clouds 6 1026 87 10000 7.09 58 22:29 17.04.2021
173 Clouds 6 1026 86 10000 0.45 45 21:45 17.04.2021
174 Clouds 6 1026 86 10000 0.45 45 21:24 17.04.2021
175 Rain 6 1026 85 10000 0.45 90 20:41 17.04.2021
176 Rain 6 1026 84 10000 0.45 45 20:23 17.04.2021
177 Clouds 7 1026 82 10000 0.45 45 19:42 17.04.2021
178 Clouds 7 1026 81 10000 0.89 67 19:20 17.04.2021
179 Clouds 8 1026 80 10000 0.45 45 18:49 17.04.2021
180 Clouds 8 1026 79 10000 0.89 22 18:23 17.04.2021
181 Clouds 8 1026 76 10000 0.89 45 17:42 17.04.2021
182 Clouds 9 1026 75 10000 1.34 45 17:21 17.04.2021
183 Clouds 9 1026 72 10000 1.34 22 16:40 17.04.2021
184 Clouds 10 1026 71 10000 1.34 45 16:22 17.04.2021
185 Clouds 10 1026 71 10000 0.45 45 15:22 17.04.2021
186 Clouds 9 1027 71 10000 5.59 39 14:44 17.04.2021
187 Clouds 9 1027 71 10000 5.5 42 14:20 17.04.2021
188 Clouds 9 1027 74 10000 5.5 42 13:43 17.04.2021
189 Clouds 9 1027 74 10000 0.45 0 12:55 17.04.2021
190 Clouds 9 1027 76 10000 0.89 45 12:33 17.04.2021
191 Clouds 10 1024 54 10000 5.9 43 11:51 17.04.2021
192 Clouds 10 1024 54 10000 5.9 43 11:33 17.04.2021
193 Clouds 9 1024 54 10000 5.95 43 10:56 17.04.2021
194 Clouds 9 1024 53 10000 5.95 43 10:38 17.04.2021
195 Clouds 8 1024 54 10000 6.2 43 09:51 17.04.2021
196 Clouds 7 1024 56 10000 6.59 43 08:54 17.04.2021
197 Clouds 7 1024 55 10000 6.5 42 08:33 17.04.2021
198 Clouds 7 1024 55 10000 6.62 39 07:46 17.04.2021
199 Clouds 5 1026 80 10000 0.45 45 06:26 17.04.2021
200 Clouds 6 1026 71 10000 1.79 22 03:47 17.04.2021
201 Clouds 7 1027 76 10000 6.12 17 00:58 17.04.2021
202 Clouds 7 1027 76 10000 6.12 17 00:37 17.04.2021
203 Clouds 7 1028 75 10000 5.08 16 00:18 17.04.2021
204 Clouds 7 1028 73 10000 5.08 16 23:34 16.04.2021
205 Clouds 7 1028 71 10000 4.29 19 22:52 16.04.2021
206 Clouds 7 1028 71 10000 2.76 32 22:25 16.04.2021
207 Rain 7 1028 71 10000 2.76 32 21:57 16.04.2021
208 Rain 7 1029 71 10000 0.89 45 21:39 16.04.2021
209 Clouds 7 1029 68 10000 3.56 57 20:57 16.04.2021
210 Clouds 7 1029 67 10000 3.56 57 20:38 16.04.2021
211 Clouds 7 1029 67 10000 3.52 50 20:18 16.04.2021
212 Clouds 7 1029 67 10000 0.45 45 19:43 16.04.2021
213 Clouds 7 1029 65 10000 3.5 17 19:20 16.04.2021
214 Clouds 7 1029 65 10000 0.45 22 18:28 16.04.2021
215 Clouds 8 1029 62 10000 0.45 22 17:51 16.04.2021
216 Clouds 8 1029 59 10000 0.45 22 17:20 16.04.2021
217 Clouds 8 1029 60 10000 1.34 45 16:56 16.04.2021
218 Clouds 8 1029 60 10000 0.89 22 16:38 16.04.2021
219 Clouds 8 1029 60 10000 4.17 347 16:19 16.04.2021
220 Clouds 8 1030 64 10000 0.45 45 15:39 16.04.2021
221 Clouds 8 1030 64 10000 0.45 45 15:39 16.04.2021
222 Clouds 8 1030 66 10000 0.45 45 14:56 16.04.2021
223 Clouds 8 1029 67 10000 2.24 22 14:37 16.04.2021
224 Clouds 8 1029 67 10000 2.24 22 13:58 16.04.2021
225 Clouds 8 1030 66 10000 0.45 22 13:36 16.04.2021
226 Clouds 8 1029 67 10000 1.34 45 13:18 16.04.2021
227 Clouds 8 1030 66 10000 1.79 45 12:43 16.04.2021
228 Clouds 8 1030 69 10000 0.45 22 12:21 16.04.2021
229 Clouds 7 1030 69 10000 0.89 45 11:43 16.04.2021
230 Clouds 7 1030 69 10000 0.89 45 11:43 16.04.2021
231 Clouds 7 1030 69 10000 0.89 22 11:23 16.04.2021
232 Clouds 6 1030 70 10000 0.89 45 10:43 16.04.2021
233 Clouds 6 1030 72 10000 0.89 22 10:23 16.04.2021
234 Clouds 6 1030 74 10000 1.34 22 09:45 16.04.2021
235 Clouds 6 1030 74 10000 1.34 22 09:45 16.04.2021
236 Clouds 5 1030 74 10000 1.34 22 09:23 16.04.2021
237 Clouds 5 1030 75 10000 0.89 45 08:45 16.04.2021
238 Clouds 5 1030 77 10000 0.89 45 08:24 16.04.2021
239 Clouds 5 1030 77 10000 7.76 25 07:46 16.04.2021
240 Clouds 5 1030 77 10000 1.34 22 07:25 16.04.2021
241 Clouds 4 1030 77 10000 1.34 45 06:41 16.04.2021
242 Clouds 4 1029 75 10000 0.45 22 05:32 16.04.2021
243 Clouds 4 1030 74 10000 1.34 45 03:59 16.04.2021
244 Clouds 6 1031 69 10000 0.89 22 00:47 16.04.2021
245 Clouds 6 1031 71 10000 1.79 45 00:22 16.04.2021
246 Clouds 6 1031 73 10000 0.45 45 23:58 15.04.2021
247 Clouds 6 1031 74 10000 1.34 45 23:34 15.04.2021
248 Clouds 6 1032 75 10000 0.89 22 22:51 15.04.2021
249 Clouds 6 1032 76 10000 5.49 20 22:26 15.04.2021
250 Clouds 6 1032 75 10000 5.49 20 21:56 15.04.2021
251 Clouds 6 1032 74 10000 0.89 45 21:37 15.04.2021
252 Clouds 6 1032 72 10000 0.89 22 21:19 15.04.2021
253 Clouds 6 1032 69 10000 0.45 45 20:38 15.04.2021
254 Clouds 6 1031 68 10000 0.45 45 20:20 15.04.2021
255 Clouds 6 1032 63 10000 1.79 22 19:42 15.04.2021
256 Clouds 7 1032 61 10000 2.24 22 19:23 15.04.2021
257 Clouds 7 1032 58 10000 0.89 45 18:41 15.04.2021
258 Clouds 7 1031 55 10000 1.34 22 18:20 15.04.2021
259 Clouds 7 1032 55 10000 4.44 356 17:54 15.04.2021
260 Clouds 6 1032 56 10000 1.34 22 17:36 15.04.2021
261 Clouds 7 1032 55 10000 1.79 22 16:47 15.04.2021
262 Clouds 7 1032 54 10000 0.89 22 16:25 15.04.2021
263 Clouds 7 1032 54 10000 0.89 45 15:59 15.04.2021
264 Clouds 7 1033 57 10000 0.89 45 15:40 15.04.2021
265 Clouds 7 1033 56 10000 0.89 45 15:22 15.04.2021
266 Clouds 8 1032 60 10000 1.34 22 14:38 15.04.2021
267 Clouds 8 1032 56 10000 1.79 22 14:20 15.04.2021
268 Clouds 8 1033 58 10000 0.89 45 13:41 15.04.2021
269 Clouds 8 1033 58 10000 5.41 9 13:18 15.04.2021
270 Clouds 8 1033 58 10000 0.45 45 12:39 15.04.2021
271 Clouds 8 1033 57 10000 1.79 0 12:20 15.04.2021
272 Clouds 8 1033 63 10000 0.89 45 11:44 15.04.2021
273 Clouds 8 1033 61 10000 0.89 67 11:22 15.04.2021
274 Clouds 7 1033 63 10000 5.44 19 10:49 15.04.2021
275 Clouds 7 1033 63 10000 5.44 19 10:49 15.04.2021
276 Clouds 6 1033 62 10000 0.45 45 10:27 15.04.2021
277 Clouds 6 1033 62 10000 0.45 45 09:45 15.04.2021
278 Clouds 6 1033 64 10000 0.45 45 09:18 15.04.2021
279 Clouds 5 1031 68 10000 6.17 42 08:42 15.04.2021
280 Clouds 4 1031 64 10000 5.76 46 07:52 15.04.2021
281 Clouds 4 1031 63 10000 5.73 48 07:24 15.04.2021
282 Clouds 4 1030 62 10000 5.73 48 06:39 15.04.2021
283 Clouds 4 1030 61 10000 5.37 49 06:20 15.04.2021
284 Clouds 4 1030 60 10000 4.67 48 04:51 15.04.2021
285 Clouds 4 1032 78 10000 3.74 29 01:24 15.04.2021
286 Clouds 5 1032 79 10000 0.45 22 23:42 14.04.2021
287 Clouds 5 1032 79 10000 0.45 45 23:22 14.04.2021
288 Clouds 5 1032 76 10000 6.04 347 22:46 14.04.2021
289 Clouds 5 1032 73 10000 5.41 335 22:25 14.04.2021
290 Clouds 5 1031 73 10000 0.45 22 21:47 14.04.2021
291 Clouds 6 1031 70 10000 4.92 320 21:28 14.04.2021
292 Clouds 5 1028 74 10000 4.92 320 20:56 14.04.2021
293 Clouds 6 1031 63 10000 0.45 22 20:34 14.04.2021
294 Clear 5 1028 67 10000 4.32 309 19:54 14.04.2021
295 Clear 5 1028 65 10000 3.54 307 19:21 14.04.2021
296 Clear 5 1028 65 10000 3.54 307 18:57 14.04.2021
297 Clear 5 1028 63 10000 3.19 316 18:22 14.04.2021
298 Clear 5 1028 63 10000 3.19 316 17:59 14.04.2021
299 Clear 9 1031 50 10000 0.89 22 17:28 14.04.2021
300 Clear 9 1031 51 10000 0.89 67 16:54 14.04.2021
301 Clear 9 1031 51 10000 0.45 45 16:28 14.04.2021
302 Clear 9 1031 51 10000 3.18 324 15:47 14.04.2021
303 Clear 5 1028 67 10000 3.58 340 15:28 14.04.2021
304 Clear 5 1028 67 10000 3.58 340 14:56 14.04.2021
305 Clear 5 1028 67 10000 3.58 340 14:38 14.04.2021
306 Clear 5 1028 69 10000 4.09 339 14:19 14.04.2021
307 Clear 5 1028 69 10000 4.09 339 13:45 14.04.2021
308 Clear 8 1029 63 10000 4.18 339 12:43 14.04.2021
309 Clear 7 1029 63 10000 4.15 337 12:18 14.04.2021
310 Clear 7 1029 63 10000 4.15 337 11:41 14.04.2021
311 Clear 7 1029 64 10000 4.25 336 11:22 14.04.2021
312 Clear 7 1029 65 10000 4.25 336 10:34 14.04.2021
313 Clear 6 1028 65 10000 4.46 335 09:43 14.04.2021
314 Clouds 6 1028 66 10000 4.91 328 09:25 14.04.2021
315 Clouds 5 1028 66 10000 4.91 328 08:52 14.04.2021
316 Clouds 5 1028 67 10000 5.49 322 08:29 14.04.2021
317 Clouds 4 1028 68 10000 5.49 322 07:41 14.04.2021
318 Clouds 1 1030 84 10000 5.76 317 06:35 14.04.2021
319 Clouds 1 1030 84 10000 5.78 317 05:36 14.04.2021
320 Clear 4 1027 63 10000 7.53 318 02:31 14.04.2021
321 Clouds 5 1027 63 10000 7.6 315 00:57 14.04.2021
322 Clouds 5 1027 63 10000 7.6 315 00:32 14.04.2021
323 Clouds 5 1027 59 10000 7.88 304 23:34 13.04.2021
324 Clouds 6 1027 58 10000 9.08 294 22:45 13.04.2021
325 Clouds 5 1027 58 10000 9.08 278 22:22 13.04.2021
326 Clouds 6 1027 58 10000 9.08 278 21:49 13.04.2021
327 Clouds 6 1027 58 10000 9.08 278 21:31 13.04.2021
328 Clouds 6 1027 58 10000 9.21 273 20:52 13.04.2021
329 Clear 7 1027 57 10000 9.3 270 20:25 13.04.2021
330 Clear 7 1026 55 10000 9.3 270 19:59 13.04.2021
331 Clear 8 1026 57 10000 9.3 268 19:26 13.04.2021
332 Clear 8 1026 56 10000 9.3 268 18:58 13.04.2021
333 Clear 9 1029 58 10000 0.89 315 18:32 13.04.2021
334 Clear 5 1024 70 10000 9.02 263 17:44 13.04.2021
335 Clear 10 1026 51 10000 9.03 263 17:23 13.04.2021
336 Clear 9 1026 53 10000 9.03 263 16:55 13.04.2021
337 Clear 9 1026 53 10000 9.03 263 16:37 13.04.2021
338 Clear 9 1026 53 10000 9.09 260 16:18 13.04.2021
339 Clear 8 1027 53 10000 9.09 260 15:39 13.04.2021
340 Clear 9 1029 58 10000 1.79 315 14:59 13.04.2021
341 Clear 10 1029 60 10000 2.68 315 14:37 13.04.2021
342 Clouds 10 1029 60 10000 2.68 315 14:18 13.04.2021
343 Clouds 8 1029 72 10000 9.79 260 13:40 13.04.2021
344 Clouds 8 1029 71 10000 9.55 260 13:22 13.04.2021
345 Clouds 9 1029 68 10000 1.34 315 12:52 13.04.2021
346 Clouds 8 1030 73 10000 2.24 225 12:23 13.04.2021
347 Clouds 7 1030 75 10000 0.45 292 11:40 13.04.2021
348 Clouds 7 1030 76 10000 10.3 263 11:18 13.04.2021
349 Clouds 5 1030 80 10000 10.3 263 10:41 13.04.2021
350 Clouds 5 1030 82 10000 0.89 292 10:20 13.04.2021
351 Clouds 5 1030 83 10000 10.21 259 09:52 13.04.2021
352 Clouds 4 1026 63 10000 9.55 252 09:27 13.04.2021
353 Clouds 4 1026 63 10000 9.91 251 08:49 13.04.2021
354 Clouds 3 1029 86 10000 0.45 247 08:24 13.04.2021
355 Clouds 2 1029 86 10000 0.45 247 07:51 13.04.2021
356 Clear 2 1029 86 10000 0.89 247 07:29 13.04.2021
357 Clear 1 1028 85 10000 0.89 247 06:28 13.04.2021
358 Clear 1 1028 83 10000 0.89 247 03:55 13.04.2021
359 Clouds 2 1028 81 10000 0.45 247 01:35 13.04.2021
360 Clear 2 1028 78 10000 0.45 247 23:58 12.04.2021
361 Clear 3 1028 78 10000 7.19 246 23:33 12.04.2021
362 Clear 3 1028 79 10000 0.89 315 22:59 12.04.2021
363 Clear 3 1028 79 10000 0.89 315 22:37 12.04.2021
364 Clear 3 1028 75 10000 0.45 247 21:56 12.04.2021
365 Clear 4 1028 74 10000 0.45 270 21:36 12.04.2021
366 Clouds 4 1028 72 10000 0.45 315 21:18 12.04.2021
367 Clear 6 1028 68 10000 6.17 241 20:37 12.04.2021
368 Clouds 7 1027 66 10000 5.96 249 20:19 12.04.2021
369 Clouds 5 1023 69 10000 5.96 249 19:42 12.04.2021
370 Clouds 8 1027 78 10000 6.38 250 19:21 12.04.2021
371 Clouds 6 1027 74 10000 6.38 250 18:56 12.04.2021
372 Clouds 6 1027 72 10000 0.89 292 18:37 12.04.2021
373 Clouds 9 1024 49 10000 6.53 251 18:18 12.04.2021
374 Clouds 9 1023 54 10000 6.53 251 17:42 12.04.2021
375 Clouds 9 1024 57 10000 6.5 253 17:20 12.04.2021
376 Clouds 9 1023 52 10000 6.5 253 16:43 12.04.2021
377 Clouds 9 1023 50 10000 6.92 260 16:24 12.04.2021
378 Clouds 9 1023 50 10000 6.92 260 15:47 12.04.2021
379 Clouds 8 1023 51 10000 8.15 266 15:21 12.04.2021
380 Clouds 8 1023 52 10000 8.15 266 14:49 12.04.2021
381 Clouds 8 1023 51 10000 8.82 268 14:29 12.04.2021
382 Clouds 8 1023 55 10000 9.24 268 13:45 12.04.2021
383 Clouds 7 1023 56 10000 9.03 269 13:22 12.04.2021
384 Clouds 7 1023 61 10000 9.03 269 12:44 12.04.2021
385 Clouds 7 1022 62 10000 7.68 276 12:24 12.04.2021
386 Clouds 6 1022 64 10000 7.68 276 11:53 12.04.2021
387 Clouds 6 1022 64 10000 8.01 287 11:18 12.04.2021
388 Clouds 6 1022 65 10000 8.01 287 10:41 12.04.2021
389 Clouds 5 1021 66 10000 8.34 293 10:22 12.04.2021
390 Clouds 5 1021 68 10000 8.34 293 09:40 12.04.2021
391 Clouds 5 1020 67 10000 8.49 297 09:18 12.04.2021
392 Clouds 5 1020 66 10000 8.49 297 08:35 12.04.2021
393 Clouds 5 1019 65 10000 8.88 294 07:40 12.04.2021
394 Clouds 5 1019 65 10000 9.5 290 07:20 12.04.2021
395 Clouds 4 1020 84 10000 0.89 337 05:52 12.04.2021
396 Clouds 4 1020 86 10000 9.98 285 04:48 12.04.2021
397 Clouds 5 1018 88 10000 0.45 292 01:31 12.04.2021
398 Clouds 5 1017 89 10000 0.45 292 00:25 12.04.2021
399 Rain 6 1017 88 10000 0.45 292 23:49 11.04.2021
400 Rain 6 1017 88 10000 9.61 277 23:30 11.04.2021
401 Rain 6 1016 87 10000 0.45 292 22:48 11.04.2021
402 Rain 6 1015 85 10000 1.34 292 22:26 11.04.2021
403 Rain 7 1015 86 10000 1.79 315 21:52 11.04.2021
404 Rain 7 1015 85 10000 1.34 292 21:30 11.04.2021
405 Rain 7 1015 85 10000 1.34 292 21:30 11.04.2021
406 Rain 8 1014 84 10000 8.61 270 20:58 11.04.2021
407 Rain 8 1014 83 10000 1.34 337 20:37 11.04.2021
408 Rain 9 1012 72 10000 7.73 275 20:18 11.04.2021
409 Rain 12 1013 84 10000 1.79 337 19:39 11.04.2021
410 Rain 10 1011 73 10000 5.45 274 19:19 11.04.2021
411 Rain 9 1010 74 10000 5.45 274 18:46 11.04.2021
412 Clouds 9 1010 74 10000 3.67 214 18:26 11.04.2021
413 Clouds 11 1010 78 10000 3.67 214 17:50 11.04.2021
414 Clouds 11 1009 75 10000 4.2 184 17:29 11.04.2021
415 Clouds 13 1009 76 10000 4.2 184 16:59 11.04.2021
416 Clouds 11 1009 79 10000 4.2 184 16:40 11.04.2021
417 Clouds 11 1009 79 10000 4.54 187 16:20 11.04.2021
418 Clouds 11 1008 77 10000 4.54 187 15:42 11.04.2021
419 Clouds 11 1008 76 10000 4.33 189 15:22 11.04.2021
420 Clouds 12 1008 77 10000 4.33 189 14:49 11.04.2021
421 Clouds 11 1008 76 10000 6.12 186 14:19 11.04.2021
422 Clouds 11 1009 71 10000 4.47 120 13:40 11.04.2021
423 Clouds 10 1009 71 10000 4.47 120 13:22 11.04.2021
424 Clouds 9 1008 86 10000 6.19 156 12:26 11.04.2021
425 Clouds 9 1008 86 10000 6.19 156 11:56 11.04.2021
426 Clouds 9 1009 86 10000 6.19 156 11:38 11.04.2021
427 Clouds 9 1009 86 8295 6.5 150 11:19 11.04.2021
428 Rain 8 1012 91 8295 2.68 135 10:40 11.04.2021
429 Rain 7 1012 91 7060 1.79 135 10:20 11.04.2021
430 Rain 6 1013 91 7060 2.68 135 09:43 11.04.2021
431 Rain 6 1013 91 7060 2.68 135 09:43 11.04.2021
432 Clouds 6 1013 91 6254 2.68 157 09:25 11.04.2021
433 Clouds 5 1014 91 6254 1.79 157 08:39 11.04.2021
434 Rain 4 1015 91 6394 2.24 135 07:41 11.04.2021
435 Rain 4 1015 90 6348 1.79 135 07:19 11.04.2021
436 Rain 3 1016 87 1073 0.45 135 05:47 11.04.2021
437 Rain 3 1017 85 9287 0.89 135 05:23 11.04.2021
438 Rain 2 1018 83 9287 1.34 135 04:37 11.04.2021
439 Rain 2 1018 82 10000 0.89 135 04:19 11.04.2021
440 Clouds 4 1020 75 10000 0.89 112 00:55 11.04.2021
441 Clouds 4 1020 76 10000 0.89 135 00:32 11.04.2021
442 Clouds 4 1021 76 10000 0.89 135 23:46 10.04.2021
443 Clouds 4 1021 75 10000 0.89 135 22:55 10.04.2021
444 Clouds 4 1021 74 10000 0.45 112 22:28 10.04.2021
445 Clouds 4 1021 74 10000 0.45 112 22:28 10.04.2021
446 Clouds 4 1021 74 10000 3.63 135 21:54 10.04.2021
447 Clouds 4 1022 73 10000 0.45 135 21:25 10.04.2021
448 Clouds 5 1021 68 10000 0.45 112 20:57 10.04.2021
449 Clouds 6 1021 67 10000 2.89 124 20:37 10.04.2021
450 Clouds 6 1021 66 10000 1.28 138 20:18 10.04.2021
451 Clouds 7 1021 62 10000 0.45 135 19:42 10.04.2021
452 Clouds 8 1021 59 10000 0.45 135 19:24 10.04.2021
453 Clouds 4 1017 63 10000 0.92 231 18:42 10.04.2021
454 Clouds 4 1017 63 10000 1.99 261 18:23 10.04.2021
455 Clouds 9 1021 53 10000 1.99 261 17:36 10.04.2021
456 Clouds 9 1021 51 10000 2.82 268 16:50 10.04.2021
457 Clouds 9 1021 51 10000 0.45 45 16:25 10.04.2021
458 Clouds 9 1021 51 10000 3.4 266 15:52 10.04.2021
459 Clouds 8 1021 54 10000 3.5 262 14:57 10.04.2021
460 Clouds 8 1021 54 10000 3.69 262 14:37 10.04.2021
461 Clouds 8 1021 54 10000 3.48 268 13:58 10.04.2021
462 Clouds 8 1021 56 10000 0.45 45 13:36 10.04.2021
463 Clouds 9 1020 53 10000 0.45 0 12:48 10.04.2021
464 Clouds 8 1020 58 10000 0.45 0 12:26 10.04.2021
465 Clouds 8 1020 61 10000 0.45 315 11:46 10.04.2021
466 Clear 7 1020 65 10000 0.45 0 11:23 10.04.2021
467 Clear 7 1020 70 10000 0.45 337 10:52 10.04.2021
468 Clear 6 1020 70 10000 0.45 337 10:31 10.04.2021
469 Clear 6 1019 75 10000 0.89 315 09:45 10.04.2021
470 Clear 6 1019 78 10000 0.45 315 09:19 10.04.2021
471 Clear 5 1018 82 10000 0.89 315 08:38 10.04.2021
472 Clouds 4 1018 88 10000 5.9 293 08:18 10.04.2021
473 Clouds 4 1017 87 10000 5.99 292 07:27 10.04.2021
474 Clouds 3 1017 87 10000 0.45 315 06:46 10.04.2021
475 Clouds 4 1016 88 10000 6.5 297 05:36 10.04.2021
476 Clouds 4 1016 86 10000 5.89 288 03:46 10.04.2021
477 Clouds 4 1015 85 10000 5.66 285 02:50 10.04.2021
478 Clouds 4 1015 84 10000 5.67 285 02:18 10.04.2021
479 Clouds 5 1015 83 10000 6.21 286 00:40 10.04.2021
480 Clouds 5 1015 83 10000 6.09 281 00:19 10.04.2021
481 Clouds 5 1015 83 10000 6.09 281 23:37 09.04.2021
482 Clouds 5 1016 83 10000 0.45 270 22:58 09.04.2021
483 Clouds 5 1015 83 10000 0.45 247 22:37 09.04.2021
484 Clouds 5 1016 84 10000 0.45 292 21:56 09.04.2021
485 Rain 6 1016 83 10000 7.17 258 21:37 09.04.2021
486 Clouds 6 1016 82 10000 7.75 250 21:18 09.04.2021
487 Clouds 6 1015 81 10000 0.45 292 20:41 09.04.2021
488 Clouds 7 1015 81 10000 0.89 292 20:22 09.04.2021
489 Clouds 7 1014 81 10000 0.45 315 19:44 09.04.2021
490 Clouds 7 1015 81 10000 0.45 292 19:23 09.04.2021
491 Rain 8 1014 80 10000 0.45 315 18:51 09.04.2021
492 Rain 8 1014 80 10000 0.45 315 18:31 09.04.2021
493 Rain 8 1014 76 10000 0.89 315 17:54 09.04.2021
494 Rain 9 1014 71 10000 0.45 315 17:34 09.04.2021
495 Clouds 10 1013 63 10000 9.14 263 16:56 09.04.2021
496 Clouds 10 1013 63 10000 9.14 263 16:34 09.04.2021
497 Rain 11 1013 58 10000 0.45 247 15:51 09.04.2021
498 Clouds 11 1013 58 10000 0.89 202 15:33 09.04.2021
499 Clouds 12 1013 59 10000 1.34 247 14:57 09.04.2021
500 Clouds 12 1013 59 10000 0.89 270 14:33 09.04.2021
501 Clouds 11 1013 62 10000 0.89 270 13:52 09.04.2021
502 Clouds 11 1014 62 10000 2.24 247 13:24 09.04.2021
503 Clouds 9 1014 63 10000 1.79 247 12:51 09.04.2021
504 Clouds 9 1014 64 10000 0.89 225 12:32 09.04.2021
505 Clouds 8 1014 63 10000 2.68 247 11:46 09.04.2021
506 Clouds 8 1014 63 10000 0.89 202 11:22 09.04.2021
507 Clouds 8 1014 64 10000 2.68 202 10:47 09.04.2021
508 Clouds 8 1014 65 10000 2.68 225 10:20 09.04.2021
509 Clouds 7 1014 65 10000 3.58 247 09:49 09.04.2021
510 Clouds 5 1014 68 10000 1.79 225 09:22 09.04.2021
511 Clouds 4 1015 70 10000 2.24 180 08:51 09.04.2021
512 Clouds 4 1015 72 10000 2.24 202 07:38 09.04.2021
513 Rain 3 1016 72 10000 1.79 202 06:34 09.04.2021
514 Rain 3 1016 72 10000 1.34 202 05:56 09.04.2021
515 Clouds 3 1018 72 10000 1.79 225 03:53 09.04.2021
516 Clouds 4 1019 74 10000 1.79 225 01:48 09.04.2021
517 Clouds 4 1020 75 10000 1.79 225 00:37 09.04.2021
518 Clouds 4 1020 75 10000 1.34 225 00:19 09.04.2021
519 Clouds 4 1020 73 10000 1.79 202 23:24 08.04.2021
520 Clouds 4 1021 73 10000 2.24 247 22:43 08.04.2021
521 Clouds 4 1021 73 10000 0.89 225 22:22 08.04.2021
522 Clouds 4 1021 73 10000 1.79 225 21:56 08.04.2021
523 Clouds 4 1021 73 10000 1.79 225 21:56 08.04.2021
524 Clouds 4 1021 73 10000 2.24 247 21:37 08.04.2021
525 Clouds 5 1021 72 10000 1.34 247 21:18 08.04.2021
526 Clouds 5 1022 71 10000 1.34 225 20:52 08.04.2021
527 Clouds 5 1021 70 10000 0.89 247 20:30 08.04.2021
528 Clouds 6 1021 67 10000 0.45 270 19:49 08.04.2021
529 Clouds 6 1021 69 10000 1.34 247 19:20 08.04.2021
530 Clouds 6 1021 67 10000 0.89 270 18:51 08.04.2021
531 Clouds 7 1021 66 10000 8.67 258 18:21 08.04.2021
532 Clouds 7 1022 63 10000 0.45 247 17:50 08.04.2021
533 Clouds 8 1022 60 10000 0.89 292 17:26 08.04.2021
534 Clouds 8 1021 57 10000 1.34 315 16:54 08.04.2021
535 Clouds 8 1021 57 10000 0.45 292 16:34 08.04.2021
536 Clouds 7 1022 60 10000 0.89 292 15:49 08.04.2021
537 Clouds 7 1021 57 10000 2.68 292 15:31 08.04.2021
538 Clouds 7 1021 55 10000 2.24 337 14:58 08.04.2021
539 Clouds 7 1021 59 10000 1.79 292 14:37 08.04.2021
540 Clouds 7 1021 59 10000 2.24 315 14:19 08.04.2021
541 Clouds 7 1021 61 10000 2.24 315 13:43 08.04.2021
542 Clouds 7 1021 65 10000 2.24 315 13:23 08.04.2021
543 Clouds 7 1021 69 10000 0.45 292 12:44 08.04.2021
544 Clouds 7 1020 69 10000 0.89 315 12:25 08.04.2021
545 Clouds 6 1020 75 10000 2.68 315 11:43 08.04.2021
546 Clouds 6 1020 77 10000 0.89 292 11:20 08.04.2021
547 Clouds 6 1019 78 10000 1.34 315 10:43 08.04.2021
548 Clouds 6 1019 79 10000 1.34 315 10:24 08.04.2021
549 Clouds 5 1018 83 10000 2.24 315 09:43 08.04.2021
550 Clouds 4 1017 87 10000 1.79 337 08:51 08.04.2021
551 Clouds 4 1017 88 10000 0.89 292 08:30 08.04.2021
552 Clouds 4 1016 89 10000 1.34 292 07:59 08.04.2021
553 Clouds 3 1016 89 10000 1.79 315 07:39 08.04.2021
554 Clouds 3 1014 87 10000 0.89 292 04:51 08.04.2021
555 Clouds 3 1012 88 10000 0.89 315 01:25 08.04.2021
556 Clouds 3 1011 88 10000 10.85 292 00:30 08.04.2021
557 Rain 3 1011 87 10000 0.89 270 23:45 07.04.2021
558 Rain 3 1011 87 10000 1.34 315 23:22 07.04.2021
559 Rain 3 1011 87 10000 0.89 315 22:54 07.04.2021
560 Rain 3 1011 87 10000 0.89 292 22:35 07.04.2021
561 Rain 3 1010 87 10000 0.45 315 21:53 07.04.2021
562 Rain 3 1010 86 10000 0.45 225 21:32 07.04.2021
563 Clouds 3 1010 86 10000 9.03 303 20:49 07.04.2021
564 Clouds 3 1010 85 10000 0.45 247 20:28 07.04.2021
565 Clouds 4 1010 84 10000 0.45 180 19:50 07.04.2021
566 Clouds 4 1010 84 10000 0.45 202 19:31 07.04.2021
567 Clouds 4 1010 81 10000 0.89 202 18:56 07.04.2021
568 Clouds 5 1010 78 10000 0.89 247 18:22 07.04.2021
569 Clouds 6 1010 75 10000 2.24 225 17:59 07.04.2021
570 Clouds 6 1010 74 10000 2.24 247 17:40 07.04.2021
571 Clouds 7 1010 70 10000 1.79 225 16:59 07.04.2021
572 Clouds 6 1010 73 10000 1.79 247 16:40 07.04.2021
573 Clouds 6 1010 74 10000 3.13 247 16:21 07.04.2021
574 Clouds 6 1010 73 10000 0.45 157 15:51 07.04.2021
575 Clouds 6 1010 73 10000 0.89 157 15:25 07.04.2021
576 Clouds 5 1010 75 10000 1.34 292 14:42 07.04.2021
577 Clouds 5 1010 75 10000 1.34 292 14:19 07.04.2021
578 Clouds 6 1010 72 10000 0.45 0 13:38 07.04.2021
579 Clouds 6 1010 69 10000 0.89 292 13:20 07.04.2021
580 Clouds 5 1010 73 10000 0.89 135 12:42 07.04.2021
581 Clouds 6 1010 71 10000 0.89 225 12:18 07.04.2021
582 Clouds 6 1009 77 10000 1.79 337 11:43 07.04.2021
583 Clouds 4 1009 80 10000 3.13 270 11:22 07.04.2021
584 Clouds 4 1009 82 10000 2.24 202 10:47 07.04.2021
585 Clouds 3 1009 87 10000 0.89 225 09:47 07.04.2021
586 Clouds 3 1009 88 10000 0.45 157 09:28 07.04.2021
587 Clouds 2 1008 89 10000 2.24 225 08:53 07.04.2021
588 Clouds 2 1008 90 10000 0.89 225 08:31 07.04.2021
589 Clouds 1 1008 90 10000 10.3 289 07:54 07.04.2021
590 Snow 1 1008 89 10000 0.89 247 07:29 07.04.2021
591 Clouds 1 1007 89 10000 10.15 294 06:43 07.04.2021
592 Clouds 1 1007 88 10000 9.74 297 05:43 07.04.2021
593 Clouds 1 1006 87 10000 9.58 291 03:18 07.04.2021
594 Clouds 2 1005 85 10000 0.89 270 23:50 06.04.2021
595 Snow 2 1005 86 10000 0.89 247 23:23 06.04.2021
596 Clouds 2 1004 85 10000 0.45 202 22:59 06.04.2021
597 Snow 2 1004 84 10000 0.45 270 22:22 06.04.2021
598 Snow 2 1004 83 10000 2.24 270 21:57 06.04.2021
599 Clouds 2 1004 82 10000 2.24 270 21:38 06.04.2021
600 Snow 2 1004 81 10000 0.89 270 21:20 06.04.2021
601 Clouds 2 1005 80 10000 1.79 247 20:50 06.04.2021
602 Rain 3 1004 77 10000 1.34 247 20:21 06.04.2021
603 Rain 4 1004 70 10000 1.34 247 19:48 06.04.2021
604 Clouds 4 999 65 10000 9.21 276 19:30 06.04.2021
605 Clouds 5 1004 74 10000 0.45 225 18:47 06.04.2021
606 Clouds 5 1004 67 10000 1.34 292 18:24 06.04.2021
607 Clouds 6 1003 69 10000 0.89 225 17:51 06.04.2021
608 Rain 6 1004 65 10000 1.34 270 17:29 06.04.2021
609 Clouds 8 1004 58 10000 0.45 247 16:55 06.04.2021
610 Clouds 7 1004 61 10000 0.89 292 16:37 06.04.2021
611 Clouds 7 1004 55 10000 1.34 337 15:41 06.04.2021
612 Clouds 8 1004 58 10000 1.34 315 15:20 06.04.2021
613 Clouds 7 1004 71 10000 10.95 264 14:39 06.04.2021
614 Clouds 7 1004 71 10000 10.95 264 14:39 06.04.2021
615 Clouds 6 1004 76 10000 0.45 292 14:18 06.04.2021
616 Clouds 7 1004 59 10000 1.34 292 13:43 06.04.2021
617 Clouds 7 1004 65 10000 1.79 270 13:23 06.04.2021
618 Clouds 6 1004 71 10000 2.24 292 12:42 06.04.2021
619 Clouds 4 1005 72 10000 0.89 315 12:22 06.04.2021
620 Clouds 5 1005 68 10000 0.89 270 11:51 06.04.2021
621 Clouds 4 1005 73 10000 0.89 247 11:21 06.04.2021
622 Clouds 5 1005 74 10000 0.45 247 10:47 06.04.2021
623 Clouds 4 1005 77 10000 1.34 292 10:28 06.04.2021
624 Clouds 3 1005 81 10000 1.34 247 09:57 06.04.2021
625 Clouds 3 1005 82 10000 0.45 180 09:36 06.04.2021
626 Clear 2 1005 83 10000 1.79 225 08:45 06.04.2021
627 Clouds 2 1005 84 10000 0.89 315 08:19 06.04.2021
628 Clouds 1 1004 83 10000 0.45 202 06:55 06.04.2021
629 Clouds 1 1004 83 10000 0.45 270 05:41 06.04.2021
630 Clouds 2 1004 78 10000 0.89 270 02:59 06.04.2021
631 Clouds 3 1003 79 10000 0.89 315 00:46 06.04.2021
632 Clouds 3 1003 78 10000 0.45 337 00:21 06.04.2021
633 Clouds 3 1003 80 10000 1.79 337 23:44 05.04.2021
634 Clouds 2 1002 81 10000 0.89 315 23:22 05.04.2021
635 Clouds 2 1002 85 10000 0.45 315 22:48 05.04.2021
636 Clouds 2 1002 86 10000 0.89 270 22:27 05.04.2021
637 Clouds 2 1002 86 10000 0.89 292 21:45 05.04.2021
638 Snow 2 1002 88 10000 2.24 315 21:22 05.04.2021
639 Clouds 2 1001 88 10000 0.45 270 20:45 05.04.2021
640 Snow 1 1001 88 10000 1.34 270 20:27 05.04.2021
641 Clouds 1 1000 88 10000 0.89 270 19:44 05.04.2021
642 Snow 1 1000 87 10000 0.89 247 19:24 05.04.2021
643 Clouds 2 1000 85 10000 0.89 292 18:55 05.04.2021
644 Clouds 1 1000 85 10000 0.45 315 18:37 05.04.2021
645 Snow 1 1000 87 10000 2.24 337 18:18 05.04.2021
646 Rain 1 999 87 10000 2.68 292 17:45 05.04.2021
647 Clouds 3 999 73 10000 0.89 292 17:21 05.04.2021
648 Clouds 4 999 68 10000 2.24 292 16:44 05.04.2021
649 Rain 5 999 63 10000 1.79 292 16:21 05.04.2021
650 Rain 5 999 61 10000 1.79 315 15:56 05.04.2021
651 Clouds 4 999 54 10000 1.79 315 15:30 05.04.2021
652 Clouds 5 999 61 10000 0.45 337 14:54 05.04.2021
653 Clouds 5 999 61 10000 2.24 315 14:35 05.04.2021
654 Clouds 5 999 61 10000 2.24 315 14:35 05.04.2021
655 Clouds 4 999 68 1781 1.34 0 13:40 05.04.2021
656 Rain 4 999 68 10000 1.34 0 13:22 05.04.2021
657 Clouds 3 999 77 10000 1.79 292 12:45 05.04.2021
658 Snow 2 999 86 10000 10.53 287 12:22 05.04.2021
659 Clouds 2 999 84 10000 0.89 337 11:45 05.04.2021
660 Rain 4 998 79 5124 0.45 270 11:27 05.04.2021
661 Clouds 4 998 80 5124 1.34 247 10:46 05.04.2021
662 Rain 4 998 87 2277 0.89 315 10:28 05.04.2021
663 Clouds 3 998 89 2277 0.45 270 09:48 05.04.2021
664 Clouds 3 998 88 3615 0.45 315 09:25 05.04.2021
665 Clouds 3 998 87 3615 11.75 285 08:45 05.04.2021
666 Clouds 3 998 87 10000 0.89 292 08:26 05.04.2021
667 Rain 5 997 85 2716 2.24 270 07:38 05.04.2021
668 Rain 5 998 82 81 1.79 247 06:51 05.04.2021
669 Clouds 6 1005 81 10000 1.79 247 02:36 05.04.2021
670 Clouds 6 1009 81 10000 0.89 270 00:53 05.04.2021
671 Clouds 6 1010 81 10000 2.24 225 23:53 04.04.2021
672 Clouds 6 1010 81 10000 1.79 270 23:30 04.04.2021
673 Clouds 6 1011 82 10000 1.34 247 22:56 04.04.2021
674 Clouds 6 1012 82 10000 3.13 247 22:33 04.04.2021
675 Clouds 6 1013 82 10000 0.45 270 21:56 04.04.2021
676 Clouds 7 1014 82 10000 0.45 180 21:21 04.04.2021
677 Clouds 7 1015 81 10000 0.89 247 20:42 04.04.2021
678 Clouds 7 1015 81 10000 0.45 247 20:21 04.04.2021
679 Clouds 7 1016 78 10000 0.45 270 19:40 04.04.2021
680 Clouds 7 1016 77 10000 0.89 270 19:19 04.04.2021
681 Clouds 7 1017 77 10000 1.34 270 18:50 04.04.2021
682 Clouds 7 1017 77 10000 0.89 270 18:24 04.04.2021
683 Clouds 7 1018 76 10000 0.45 225 17:58 04.04.2021
684 Clouds 7 1018 75 10000 0.45 202 17:25 04.04.2021
685 Clouds 7 1018 75 10000 1.79 225 16:56 04.04.2021
686 Clouds 7 1019 75 10000 10.45 257 16:38 04.04.2021
687 Clouds 7 1020 75 10000 0.45 247 15:54 04.04.2021
688 Clouds 7 1020 76 10000 0.45 292 15:31 04.04.2021
689 Clouds 7 1021 71 10000 2.24 270 14:40 04.04.2021
690 Clouds 8 1021 69 10000 0.45 270 14:21 04.04.2021
691 Clouds 8 1022 72 10000 0.45 225 13:27 04.04.2021
692 Clouds 8 1022 74 10000 0.89 270 12:52 04.04.2021
693 Clouds 7 1023 78 10000 0.45 225 12:28 04.04.2021
694 Clouds 6 1023 81 10000 0.45 270 11:50 04.04.2021
695 Clouds 5 1023 82 10000 1.34 247 11:30 04.04.2021
696 Clouds 6 1023 78 10000 0.45 225 10:54 04.04.2021
697 Clouds 6 1023 76 10000 0.45 270 10:32 04.04.2021
698 Clear 5 1023 79 10000 0.45 247 09:50 04.04.2021
699 Clear 4 1023 80 10000 0.89 225 09:23 04.04.2021
700 Clear 3 1024 82 10000 0.45 225 08:49 04.04.2021
701 Clear 2 1024 82 10000 0.89 247 08:30 04.04.2021
702 Clear -1 1024 78 10000 6.25 236 07:21 04.04.2021
703 Clear -1 1025 77 10000 0.45 270 06:33 04.04.2021
704 Clear 0 1026 75 10000 4.87 246 03:25 04.04.2021
705 Clear 1 1027 73 10000 3.55 269 01:18 04.04.2021
706 Clear 2 1027 71 10000 3.28 292 00:19 04.04.2021
707 Clear 2 1027 69 10000 3.28 292 23:42 03.04.2021
708 Clear 3 1027 69 10000 3.52 306 23:18 03.04.2021
709 Clear 4 1027 67 10000 3.52 306 22:48 03.04.2021
710 Clouds 4 1027 67 10000 3.78 306 22:19 03.04.2021
711 Clouds 4 1027 65 10000 3.78 306 21:47 03.04.2021
712 Clouds 4 1027 64 10000 3.49 304 21:23 03.04.2021
713 Clouds 5 1027 63 10000 3.49 304 20:49 03.04.2021
714 Clear 6 1027 60 10000 2.87 293 20:27 03.04.2021
715 Clear 5 1024 66 10000 2.87 293 19:50 03.04.2021
716 Clear 5 1023 66 10000 2.55 308 19:24 03.04.2021
717 Clear 5 1023 66 10000 2.55 308 18:47 03.04.2021
718 Clear 7 1027 55 10000 0.45 45 18:24 03.04.2021
719 Clear 8 1027 52 10000 0.45 45 17:51 03.04.2021
720 Clear 8 1027 52 10000 0.45 22 17:25 03.04.2021
721 Clear 8 1027 51 10000 0.45 22 16:51 03.04.2021
722 Clear 8 1027 52 10000 0.45 22 16:21 03.04.2021
723 Clear 8 1027 51 10000 1.34 22 15:50 03.04.2021
724 Clear 7 1027 53 10000 1.34 22 15:22 03.04.2021
725 Clear 7 1027 55 10000 0.89 22 14:44 03.04.2021
726 Clear 7 1027 55 10000 0.89 22 14:44 03.04.2021
727 Clouds 7 1027 57 10000 0.89 45 14:23 03.04.2021
728 Clouds 7 1027 57 10000 1.79 22 13:51 03.04.2021
729 Clouds 7 1027 58 10000 0.45 45 13:24 03.04.2021
730 Clouds 7 1026 65 10000 0.45 45 12:56 03.04.2021
731 Clouds 7 1026 67 10000 0.45 45 12:32 03.04.2021
732 Clouds 7 1026 67 10000 0.89 45 11:40 03.04.2021
733 Clouds 6 1026 69 10000 0.45 22 11:19 03.04.2021
734 Clouds 6 1026 71 10000 0.89 45 10:43 03.04.2021
735 Clouds 6 1025 68 10000 1.34 45 10:25 03.04.2021
736 Clouds 6 1025 74 10000 0.89 22 09:29 03.04.2021
737 Clouds 5 1024 75 10000 0.89 45 08:59 03.04.2021
738 Clouds 4 1024 77 10000 0.89 22 08:32 03.04.2021
739 Clouds 4 1023 78 10000 0.45 22 07:30 03.04.2021
740 Clouds 4 1023 77 10000 0.89 22 06:53 03.04.2021
741 Clear 5 1022 83 10000 0.45 45 03:54 03.04.2021
742 Clear 6 1021 85 10000 9.24 351 02:55 03.04.2021
743 Clouds 6 1021 84 10000 8.96 348 02:28 03.04.2021
744 Clouds 6 1021 85 10000 8.09 359 00:32 03.04.2021
745 Clouds 6 1020 81 10000 8.86 356 23:59 02.04.2021
746 Clouds 6 1020 80 10000 0.45 45 23:30 02.04.2021
747 Clouds 6 1020 80 10000 8.73 344 22:56 02.04.2021
748 Clouds 6 1020 78 10000 8.73 344 22:38 02.04.2021
749 Clouds 7 1019 77 10000 8.13 340 21:59 02.04.2021
750 Clouds 7 1019 78 10000 8.13 340 21:40 02.04.2021
751 Clouds 7 1019 78 10000 6.69 328 21:18 02.04.2021
752 Clouds 7 1019 77 10000 6.69 328 20:39 02.04.2021
753 Clouds 7 1019 77 10000 6.15 335 20:20 02.04.2021
754 Clouds 7 1019 77 10000 6.15 335 19:42 02.04.2021
755 Clouds 7 1019 77 10000 4.4 339 19:22 02.04.2021
756 Clouds 7 1019 76 10000 0.89 292 18:46 02.04.2021
757 Clouds 8 1019 76 10000 0.45 315 18:28 02.04.2021
758 Clouds 8 1019 76 10000 0.45 315 17:56 02.04.2021
759 Clouds 8 1019 74 10000 0.45 315 17:25 02.04.2021
760 Rain 8 1020 76 10000 1.34 315 16:35 02.04.2021
761 Clouds 8 1020 75 10000 0.89 292 15:46 02.04.2021
762 Rain 8 1020 73 10000 2.68 315 15:22 02.04.2021
763 Clouds 7 1021 77 10000 1.79 292 14:33 02.04.2021
764 Clouds 6 1021 82 10000 1.34 270 13:50 02.04.2021
765 Clouds 6 1021 83 10000 7.49 277 13:28 02.04.2021
766 Clouds 5 1022 82 10000 0.89 292 12:59 02.04.2021
767 Clouds 5 1022 82 10000 1.79 270 12:37 02.04.2021
768 Clouds 6 1022 84 10000 0.89 247 12:19 02.04.2021
769 Clouds 5 1023 87 10000 0.89 337 11:44 02.04.2021
770 Clouds 6 1023 89 10000 0.89 315 11:19 02.04.2021
771 Clouds 4 1023 90 10000 0.45 202 10:42 02.04.2021
772 Clear 4 1023 90 10000 0.45 315 10:23 02.04.2021
773 Clear 3 1023 89 10000 0.45 315 09:46 02.04.2021
774 Clear 3 1023 90 10000 8.25 258 09:24 02.04.2021
775 Clear 3 1023 90 10000 0.45 247 08:46 02.04.2021
776 Clear 3 1023 90 10000 0.45 247 08:46 02.04.2021
777 Clear 2 1024 90 10000 6.97 254 08:26 02.04.2021
778 Clear 2 1024 88 10000 0.45 247 07:22 02.04.2021
779 Clear 1 1024 88 10000 6.31 253 06:34 02.04.2021
780 Clear 2 1025 88 10000 5.03 292 03:46 02.04.2021
781 Clear 4 1026 90 10000 5.17 310 01:49 02.04.2021
782 Clear 4 1026 89 10000 4.72 313 00:43 02.04.2021
783 Clear 4 1026 88 10000 3.94 316 23:48 01.04.2021
784 Clear 4 1026 88 10000 3.14 329 23:27 01.04.2021
785 Clear 4 1025 88 10000 3.14 329 22:50 01.04.2021
786 Clear 4 1025 88 10000 2.91 2 22:18 01.04.2021
787 Clear 4 1025 88 10000 2.91 2 21:44 01.04.2021
788 Clear 4 1025 87 10000 0.45 22 21:23 01.04.2021
789 Clear 4 1025 86 10000 1.79 45 20:41 01.04.2021
790 Clouds 4 1024 86 10000 0.45 45 20:22 01.04.2021
791 Clouds 4 1024 87 10000 0.89 45 19:46 01.04.2021
792 Clouds 4 1024 87 10000 1.34 45 19:27 01.04.2021
793 Clouds 4 1023 88 10000 0.89 45 18:45 01.04.2021
794 Clouds 5 1023 89 10000 0.45 90 18:18 01.04.2021
795 Clouds 5 1022 91 10000 0.45 45 17:47 01.04.2021
796 Clouds 5 1023 91 10000 2.68 45 17:24 01.04.2021
797 Clouds 5 1023 91 10000 0.45 45 16:50 01.04.2021
798 Clouds 5 1023 91 10000 0.45 45 16:50 01.04.2021
799 Clouds 6 1022 89 10000 0.89 22 16:24 01.04.2021
800 Clouds 6 1021 89 10000 1.79 22 15:43 01.04.2021
801 Clouds 6 1021 89 10000 8.55 61 15:19 01.04.2021
802 Clouds 8 1020 87 10000 0.45 22 14:43 01.04.2021
803 Clouds 8 1020 87 10000 0.45 22 14:24 01.04.2021
804 Clouds 8 1020 87 10000 0.45 22 13:55 01.04.2021
805 Clouds 8 1020 87 10000 0.45 22 13:30 01.04.2021
806 Clouds 10 1020 85 10000 0.89 0 12:51 01.04.2021
807 Clouds 11 1019 81 10000 0.89 45 12:31 01.04.2021
808 Clouds 12 1019 76 10000 6.03 339 11:49 01.04.2021
809 Clouds 12 1019 76 10000 6.03 339 11:49 01.04.2021
810 Rain 11 1019 78 10000 5.17 325 11:24 01.04.2021
811 Clouds 11 1018 77 10000 0.45 292 10:53 01.04.2021
812 Clouds 11 1018 77 10000 0.45 292 10:35 01.04.2021
813 Clouds 10 1018 78 10000 2.66 341 09:56 01.04.2021
814 Rain 10 1019 79 10000 5.17 332 09:27 01.04.2021
815 Rain 9 1018 80 10000 4.32 321 08:33 01.04.2021
816 Rain 9 1018 80 10000 3.49 325 07:59 01.04.2021
817 Clouds 8 1018 81 10000 3.46 319 07:20 01.04.2021
818 Clouds 8 1019 80 10000 3.46 319 06:49 01.04.2021
819 Clouds 8 1019 80 10000 3.46 319 06:49 01.04.2021
820 Clouds 9 1019 80 10000 3.85 289 03:52 01.04.2021
821 Clouds 8 1020 78 10000 3.27 276 01:52 01.04.2021
822 Clouds 8 1020 78 10000 3.27 276 01:52 01.04.2021
823 Clouds 9 1021 76 10000 1.83 228 23:51 31.03.2021
824 Clouds 9 1021 77 10000 1.83 228 23:32 31.03.2021
825 Clouds 9 1021 80 10000 1.04 234 22:42 31.03.2021
826 Clear 9 1021 80 10000 0.5 278 22:21 31.03.2021
827 Clear 9 1021 78 10000 0.45 45 21:47 31.03.2021
828 Clear 12 1021 66 10000 0.79 321 21:24 31.03.2021
829 Clear 12 1021 66 10000 0.79 321 20:58 31.03.2021
830 Clear 13 1022 63 10000 0.79 321 20:40 31.03.2021
831 Clear 13 1022 62 10000 1.82 306 20:18 31.03.2021
832 Clear 9 1019 73 10000 1.82 306 19:41 31.03.2021
833 Clear 9 1020 74 10000 2.2 305 19:19 31.03.2021
834 Clear 9 1020 74 10000 2.2 305 19:19 31.03.2021
835 Clear 9 1020 74 10000 2.2 305 18:51 31.03.2021
836 Clear 9 1020 76 10000 2.16 296 18:22 31.03.2021
837 Clear 9 1020 76 10000 2.16 296 17:37 31.03.2021
838 Clear 9 1020 77 10000 2.16 286 17:19 31.03.2021
839 Clear 9 1020 77 10000 2.16 286 16:49 31.03.2021
840 Clear 9 1021 79 10000 2.22 281 16:30 31.03.2021
841 Clear 9 1021 79 10000 2.22 281 15:52 31.03.2021
842 Clouds 8 1022 82 10000 2.51 281 15:20 31.03.2021
843 Clouds 8 1022 82 10000 2.51 281 15:20 31.03.2021
844 Clouds 18 1025 54 10000 2.51 281 14:45 31.03.2021
845 Clear 8 1023 83 10000 2.86 278 14:24 31.03.2021
846 Clear 7 1023 84 10000 3.3 272 13:43 31.03.2021
847 Clear 7 1023 84 10000 3.6 267 13:19 31.03.2021
848 Clear 7 1023 84 10000 3.6 267 12:37 31.03.2021
849 Clear 7 1023 82 10000 4.08 262 12:18 31.03.2021
850 Clear 15 1027 72 10000 0.45 247 11:22 31.03.2021
851 Clear 14 1027 78 10000 0.45 225 10:48 31.03.2021
852 Clear 13 1027 81 10000 0.45 225 10:27 31.03.2021
853 Clear 12 1027 85 10000 0.45 202 09:45 31.03.2021
854 Clear 10 1028 87 10000 4.55 245 09:27 31.03.2021
855 Clear 7 1027 85 10000 4.55 245 08:43 31.03.2021
856 Clear 7 1027 85 10000 4.15 248 08:25 31.03.2021
857 Clear 6 1028 84 10000 4.15 248 07:33 31.03.2021
858 Clear 6 1028 82 10000 4.44 252 04:34 31.03.2021
859 Clear 7 1029 81 10000 5.36 256 02:37 31.03.2021
860 Clouds 8 1030 80 10000 6.06 261 00:54 31.03.2021
861 Clouds 9 1030 79 10000 6.25 260 00:25 31.03.2021
862 Clouds 9 1030 79 10000 0.45 315 23:55 30.03.2021
863 Clouds 9 1030 78 10000 6.34 259 23:24 30.03.2021
864 Clouds 11 1030 78 10000 6.34 259 22:49 30.03.2021
865 Clouds 11 1030 78 10000 6.34 259 22:30 30.03.2021
866 Clouds 11 1030 76 10000 6.51 260 21:57 30.03.2021
867 Clouds 12 1030 77 10000 6.48 264 21:29 30.03.2021
868 Clouds 7 1027 87 10000 6.48 264 20:59 30.03.2021
869 Clouds 13 1030 76 10000 6.55 262 20:38 30.03.2021
870 Clouds 13 1030 71 10000 6.5 262 20:19 30.03.2021
871 Clouds 7 1027 88 10000 6.5 262 19:41 30.03.2021
872 Clouds 8 1027 89 10000 6.71 263 18:58 30.03.2021
873 Clouds 8 1027 89 10000 6.71 263 18:30 30.03.2021
874 Clouds 8 1027 90 10000 6.74 261 17:48 30.03.2021
875 Clouds 8 1027 90 10000 6.74 261 17:30 30.03.2021
876 Clouds 8 1027 91 10000 6.7 259 16:47 30.03.2021
877 Clouds 8 1027 92 10000 6.96 259 16:28 30.03.2021
878 Clouds 8 1027 92 10000 6.96 259 15:39 30.03.2021
879 Clouds 8 1027 92 10000 7.41 258 15:19 30.03.2021
880 Clouds 8 1028 91 10000 7.68 259 14:45 30.03.2021
881 Clouds 7 1028 92 10000 8.1 258 14:21 30.03.2021
882 Clouds 7 1028 92 10000 8.1 258 13:51 30.03.2021
883 Clouds 7 1028 92 10000 8.27 256 13:29 30.03.2021
884 Clouds 17 1031 73 10000 0.45 292 12:42 30.03.2021
885 Clouds 7 1028 91 10000 8.37 253 12:22 30.03.2021
886 Clouds 16 1032 78 10000 0.89 225 11:48 30.03.2021
887 Clouds 15 1032 80 10000 0.45 270 11:20 30.03.2021
888 Clouds 13 1032 83 10000 0.45 270 10:42 30.03.2021
889 Clear 13 1032 84 10000 0.89 247 10:19 30.03.2021
890 Clear 11 1032 87 10000 0.45 225 09:43 30.03.2021
891 Clear 11 1031 89 10000 0.45 225 09:23 30.03.2021
892 Clear 10 1031 90 10000 1.79 247 08:51 30.03.2021
893 Clear 9 1031 90 10000 1.79 225 08:31 30.03.2021
894 Clear 8 1031 90 10000 0.45 225 07:45 30.03.2021
895 Clear 7 1031 88 10000 0.45 180 06:56 30.03.2021
896 Clear 9 1030 87 10000 0.45 247 05:25 30.03.2021
897 Clouds 9 1030 89 10000 0.45 247 02:32 30.03.2021
898 Clouds 9 1030 87 10000 0.45 292 23:56 29.03.2021
899 Clouds 10 1030 88 10000 9.14 259 23:28 29.03.2021
900 Clouds 11 1030 86 10000 8.72 261 22:43 29.03.2021
901 Clouds 11 1030 85 10000 0.45 292 21:59 29.03.2021
902 Clouds 11 1030 85 10000 0.89 315 21:37 29.03.2021
903 Clouds 11 1029 83 10000 0.45 292 20:59 29.03.2021
904 Clouds 11 1029 83 10000 0.45 292 20:38 29.03.2021
905 Clouds 12 1029 82 10000 0.45 315 20:20 29.03.2021
906 Clouds 13 1028 78 10000 0.89 315 19:45 29.03.2021
907 Clouds 7 1024 94 10000 8.73 255 19:18 29.03.2021
908 Clouds 13 1028 79 10000 0.45 292 18:40 29.03.2021
909 Clouds 13 1028 78 10000 0.89 315 18:20 29.03.2021
910 Clouds 14 1028 77 10000 0.89 315 17:45 29.03.2021
911 Clouds 14 1027 77 10000 9.79 255 16:59 29.03.2021
912 Clouds 14 1027 77 10000 9.79 255 16:35 29.03.2021
913 Clouds 14 1027 76 10000 0.45 315 15:57 29.03.2021
914 Clouds 13 1027 76 10000 1.34 292 15:34 29.03.2021
915 Clouds 13 1027 77 10000 2.24 247 14:56 29.03.2021
916 Clouds 13 1027 77 10000 2.24 247 14:34 29.03.2021
917 Clouds 7 1023 86 10000 10.41 249 13:52 29.03.2021
918 Clouds 7 1023 89 10000 10.15 244 13:29 29.03.2021
919 Clouds 7 1023 89 10000 10.15 244 12:51 29.03.2021
920 Clouds 7 1022 87 10000 9.39 237 12:29 29.03.2021
921 Clouds 7 1022 87 10000 9.39 237 11:41 29.03.2021
922 Rain 11 1026 81 10000 9.48 235 11:22 29.03.2021
923 Rain 10 1026 85 10000 1.79 225 10:38 29.03.2021
924 Clouds 9 1026 87 10000 0.89 225 09:48 29.03.2021
925 Clouds 8 1026 88 10000 1.79 247 08:59 29.03.2021
926 Clouds 8 1026 88 10000 0.89 225 08:29 29.03.2021
927 Clouds 8 1026 87 10000 0.89 225 07:42 29.03.2021
928 Clouds 8 1026 86 10000 0.89 225 06:42 29.03.2021
929 Clouds 8 1026 85 10000 1.34 247 05:18 29.03.2021
930 Clouds 8 1026 85 10000 0.89 225 02:21 29.03.2021
931 Clouds 8 1026 87 10000 1.34 225 00:24 29.03.2021
932 Clouds 8 1026 87 10000 1.79 225 23:53 28.03.2021
933 Clouds 8 1026 87 10000 0.45 225 23:24 28.03.2021
934 Clouds 8 1026 88 10000 0.45 247 22:42 28.03.2021
935 Clouds 8 1025 89 10000 1.79 247 22:23 28.03.2021
936 Clouds 8 1025 88 10000 2.68 247 21:45 28.03.2021
937 Clouds 8 1025 89 10000 2.24 225 21:24 28.03.2021
938 Clouds 8 1025 88 10000 1.79 225 20:51 28.03.2021
939 Rain 8 1025 88 10000 1.79 225 20:33 28.03.2021
940 Rain 8 1026 86 10000 1.79 225 19:55 28.03.2021
941 Rain 8 1026 86 10000 1.34 225 19:37 28.03.2021
942 Rain 8 1026 86 10000 1.34 202 19:18 28.03.2021
943 Rain 9 1026 83 10000 0.45 225 18:37 28.03.2021
944 Rain 9 1026 79 10000 1.79 225 17:59 28.03.2021
945 Rain 9 1026 78 10000 0.89 225 17:36 28.03.2021
946 Rain 11 1026 69 10000 1.79 225 16:55 28.03.2021
947 Rain 11 1026 66 10000 0.89 225 16:28 28.03.2021
948 Rain 12 1025 65 10000 1.34 247 15:57 28.03.2021
949 Clouds 12 1025 65 10000 1.79 225 15:24 28.03.2021
950 Clouds 11 1026 69 10000 2.68 202 14:46 28.03.2021
951 Clouds 11 1026 69 10000 2.68 202 14:18 28.03.2021
952 Clouds 10 1027 69 10000 2.68 225 13:35 28.03.2021
953 Clouds 9 1027 75 10000 1.34 225 12:57 28.03.2021
954 Clouds 8 1027 77 10000 2.24 225 12:34 28.03.2021
955 Clouds 7 1028 79 10000 0.45 225 11:55 28.03.2021
956 Clouds 7 1028 80 10000 0.45 225 11:37 28.03.2021
957 Clouds 6 1028 82 10000 0.89 225 10:49 28.03.2021
958 Clouds 6 1028 83 10000 1.34 247 10:31 28.03.2021
959 Clouds 5 1027 86 10000 1.79 225 09:51 28.03.2021
960 Clouds 4 1027 88 10000 1.34 247 09:28 28.03.2021
961 Clouds 3 1027 89 10000 1.34 225 08:52 28.03.2021
962 Clouds 3 1027 89 10000 1.34 225 08:34 28.03.2021
963 Clouds 3 1027 89 10000 1.34 225 07:42 28.03.2021
964 Clouds 3 1027 88 10000 1.34 247 06:21 28.03.2021
965 Clouds 3 1026 87 10000 0.89 247 03:50 28.03.2021
966 Clouds 5 1025 86 10000 10.25 256 00:45 28.03.2021
967 Clouds 5 1025 86 10000 0.45 315 23:53 27.03.2021
968 Clouds 5 1025 87 10000 0.45 292 23:35 27.03.2021
969 Clouds 5 1024 85 10000 0.45 337 22:42 27.03.2021
970 Clouds 6 1024 85 10000 11.52 265 22:22 27.03.2021
971 Clouds 6 1023 86 10000 0.45 247 21:45 27.03.2021
972 Clouds 6 1023 86 10000 0.45 247 21:21 27.03.2021
973 Clouds 6 1023 86 10000 11.33 264 20:59 27.03.2021
974 Clouds 6 1023 87 10000 0.45 247 20:37 27.03.2021
975 Clouds 5 1022 86 10000 11.2 262 19:59 27.03.2021
976 Clouds 5 1022 86 10000 11.99 262 19:40 27.03.2021
977 Clouds 5 1022 86 10000 11.36 257 19:22 27.03.2021
978 Clouds 6 1021 85 10000 0.89 315 18:47 27.03.2021
979 Clouds 6 1021 84 10000 0.89 270 18:22 27.03.2021
980 Clouds 7 1020 84 10000 0.45 270 17:37 27.03.2021
981 Clouds 7 1020 83 10000 8.89 252 17:18 27.03.2021
982 Clouds 7 1020 85 10000 0.45 225 16:47 27.03.2021
983 Clouds 5 1020 84 10000 0.45 292 16:26 27.03.2021
984 Clouds 8 1019 75 10000 1.79 337 15:45 27.03.2021
985 Clouds 9 1018 69 10000 1.79 247 15:19 27.03.2021
986 Clouds 9 1018 73 10000 8.28 252 14:42 27.03.2021
987 Clouds 8 1017 84 10000 9.56 254 13:40 27.03.2021
988 Clouds 8 1017 84 10000 9.56 254 13:40 27.03.2021
989 Clouds 8 1017 84 5893 8.41 259 13:20 27.03.2021
990 Clouds 6 1017 86 5893 1.79 315 12:47 27.03.2021
991 Rain 7 1015 86 10000 1.34 247 11:55 27.03.2021
992 Rain 7 1015 85 10000 0.45 247 11:37 27.03.2021
993 Clouds 7 1015 84 10000 0.89 315 11:19 27.03.2021
994 Clouds 7 1014 82 10000 3.13 292 10:40 27.03.2021
995 Rain 10 1013 78 8472 0.45 270 09:59 27.03.2021
996 Clouds 11 1013 73 10000 0.89 292 09:22 27.03.2021
997 Clouds 10 1012 81 10000 1.79 202 08:40 27.03.2021
998 Clouds 9 1012 82 10000 1.34 202 08:18 27.03.2021
999 Clouds 8 1012 84 10000 0.89 180 07:31 27.03.2021
1000 Clouds 7 1012 84 10000 0.89 180 06:43 27.03.2021
1001 Clouds 7 1014 85 10000 0.45 157 04:42 27.03.2021
1002 Clouds 6 1014 85 10000 0.45 157 03:29 27.03.2021
1003 Clouds 7 1016 85 10000 0.89 157 00:48 27.03.2021
1004 Clouds 7 1016 85 10000 0.89 157 00:48 27.03.2021
1005 Clouds 7 1017 84 10000 0.45 135 00:27 27.03.2021
1006 Clouds 7 1017 84 10000 0.45 135 23:48 26.03.2021
1007 Clouds 7 1018 82 10000 0.45 157 22:53 26.03.2021
1008 Clouds 8 1018 81 10000 0.45 157 22:34 26.03.2021
1009 Clouds 8 1019 80 10000 0.45 157 21:25 26.03.2021
1010 Clouds 9 1019 78 10000 0.45 157 20:58 26.03.2021
1011 Clouds 9 1019 77 10000 0.45 157 20:32 26.03.2021
1012 Clouds 9 1019 75 10000 0.45 157 19:56 26.03.2021
1013 Clouds 10 1019 74 10000 0.45 157 19:37 26.03.2021
1014 Clouds 10 1019 73 10000 0.45 157 19:18 26.03.2021
1015 Clouds 8 1016 76 10000 3.93 126 18:41 26.03.2021
1016 Clouds 7 1016 77 10000 2.84 108 18:19 26.03.2021
1017 Clouds 7 1016 77 10000 2.84 108 17:45 26.03.2021
1018 Clouds 7 1016 78 10000 2.54 92 16:56 26.03.2021
1019 Clouds 7 1016 78 10000 2.54 92 16:33 26.03.2021
1020 Clouds 7 1017 77 10000 1.94 70 15:51 26.03.2021
1021 Clouds 7 1017 76 10000 1.74 356 15:21 26.03.2021
1022 Clouds 7 1017 76 10000 1.74 356 14:30 26.03.2021
1023 Clouds 8 1017 75 10000 1.76 286 13:34 26.03.2021
1024 Clear 7 1018 76 10000 2.82 255 12:54 26.03.2021
1025 Clear 7 1018 76 10000 2.82 255 12:32 26.03.2021
1026 Clear 14 1022 58 10000 1.79 225 11:35 26.03.2021
1027 Clear 13 1023 63 10000 0.45 247 10:58 26.03.2021
1028 Clear 12 1023 66 10000 1.34 225 10:39 26.03.2021
1029 Clear 11 1023 75 10000 4.36 227 09:54 26.03.2021
1030 Clear 11 1023 79 10000 0.45 292 09:35 26.03.2021
1031 Clear 9 1022 87 10000 0.45 247 08:42 26.03.2021
1032 Clear 8 1022 87 10000 0.89 247 08:22 26.03.2021
1033 Clear 7 1022 88 10000 0.45 247 07:39 26.03.2021
1034 Clouds 7 1022 88 10000 0.45 247 07:18 26.03.2021
1035 Clouds 6 1022 87 10000 0.45 225 06:53 26.03.2021
1036 Clouds 6 1022 87 10000 0.45 180 05:31 26.03.2021
1037 Clouds 6 1022 86 10000 4.46 192 02:31 26.03.2021
1038 Clouds 6 1022 87 10000 0.45 157 00:32 26.03.2021
1039 Clouds 6 1023 88 10000 0.89 157 23:45 25.03.2021
1040 Clouds 5 1023 87 10000 0.45 157 23:20 25.03.2021
1041 Clouds 4 1023 86 10000 0.45 135 22:37 25.03.2021
1042 Clouds 5 1023 85 10000 4.56 161 21:53 25.03.2021
1043 Clouds 5 1023 85 10000 0.45 135 21:34 25.03.2021
1044 Clear 5 1022 83 10000 0.45 135 20:47 25.03.2021
1045 Clear 6 1022 82 10000 0.45 135 20:27 25.03.2021
1046 Clear 7 1022 79 10000 0.45 112 19:50 25.03.2021
1047 Clear 7 1022 78 10000 2.69 168 19:32 25.03.2021
1048 Clear 7 1022 78 10000 2.61 170 19:32 25.03.2021
1049 Clear 5 1018 78 10000 1.14 200 18:58 25.03.2021
1050 Clear 5 1018 78 10000 1.14 200 18:39 25.03.2021
1051 Clear 5 1018 79 10000 1.54 255 18:21 25.03.2021
1052 Clear 5 1018 79 10000 1.54 255 17:37 25.03.2021
1053 Clear 5 1019 80 10000 2.3 264 16:57 25.03.2021
1054 Clear 5 1019 80 10000 2.3 264 16:35 25.03.2021
1055 Clouds 5 1019 81 10000 2.78 270 15:49 25.03.2021
1056 Clouds 5 1019 82 10000 2.92 264 15:27 25.03.2021
1057 Clouds 12 1023 73 10000 0.45 22 14:57 25.03.2021
1058 Clouds 12 1022 73 10000 0.45 22 14:38 25.03.2021
1059 Clouds 12 1023 74 10000 0.45 292 13:29 25.03.2021
1060 Clouds 11 1023 78 10000 3.47 261 12:56 25.03.2021
1061 Clouds 11 1023 78 10000 3.47 261 12:36 25.03.2021
1062 Clouds 11 1023 79 10000 3.89 260 12:18 25.03.2021
1063 Clouds 9 1023 82 10000 3.89 260 11:44 25.03.2021
1064 Clouds 9 1023 83 10000 4.22 261 11:25 25.03.2021
1065 Clouds 9 1023 84 10000 0.45 337 10:49 25.03.2021
1066 Clouds 8 1023 85 10000 0.45 337 10:21 25.03.2021
1067 Clouds 8 1023 85 10000 4.36 261 09:53 25.03.2021
1068 Clouds 8 1023 86 10000 0.45 315 09:35 25.03.2021
1069 Clouds 8 1023 86 10000 0.45 315 09:35 25.03.2021
1070 Clouds 7 1022 86 10000 1.34 315 08:37 25.03.2021
1071 Clouds 6 1022 88 10000 4.44 255 07:57 25.03.2021
1072 Clouds 4 1022 85 10000 4.77 254 06:59 25.03.2021
1073 Clouds 4 1021 85 10000 5.11 256 06:24 25.03.2021
1074 Clouds 4 1021 86 10000 5.11 256 05:47 25.03.2021
1075 Clouds 4 1021 83 10000 4.67 248 02:43 25.03.2021
1076 Clouds 6 1022 82 10000 3.73 227 00:21 25.03.2021
1077 Clouds 6 1022 82 10000 3.73 227 00:21 25.03.2021
1078 Clouds 6 1022 81 10000 0.45 157 23:50 24.03.2021
1079 Clouds 6 1022 81 10000 0.45 157 23:25 24.03.2021
1080 Clouds 6 1023 81 10000 0.45 157 22:47 24.03.2021
1081 Clouds 6 1023 81 10000 3.56 218 22:26 24.03.2021
1082 Clouds 6 1023 80 10000 0.45 157 21:42 24.03.2021
1083 Clouds 5 1023 79 10000 0.45 157 21:22 24.03.2021
1084 Clouds 6 1024 77 10000 0.45 157 20:41 24.03.2021
1085 Clouds 6 1024 76 10000 0.45 157 20:20 24.03.2021
1086 Clouds 6 1024 75 10000 3.35 228 19:46 24.03.2021
1087 Clouds 7 1024 73 10000 3.37 250 19:28 24.03.2021
1088 Clouds 7 1024 71 10000 0.45 180 18:46 24.03.2021
1089 Clouds 8 1024 69 10000 3.4 243 18:20 24.03.2021
1090 Clouds 11 1024 66 10000 0.45 180 17:49 24.03.2021
1091 Clouds 12 1024 66 10000 0.45 180 17:29 24.03.2021
1092 Clouds 11 1024 65 10000 3.89 247 16:51 24.03.2021
1093 Clouds 11 1024 64 10000 0.89 225 16:29 24.03.2021
1094 Clouds 11 1024 64 10000 0.89 225 15:49 24.03.2021
1095 Clouds 11 1024 64 10000 0.89 225 15:30 24.03.2021
1096 Clouds 12 1024 64 10000 1.34 247 14:47 24.03.2021
1097 Clouds 11 1024 65 10000 5.49 259 14:26 24.03.2021
1098 Clouds 11 1025 66 10000 1.79 247 13:54 24.03.2021
1099 Clear 10 1025 68 10000 5.65 260 13:27 24.03.2021
1100 Clear 10 1025 69 10000 5.65 260 12:42 24.03.2021
1101 Clear 9 1025 72 10000 0.45 315 12:23 24.03.2021
1102 Clear 9 1025 74 10000 0.45 247 11:44 24.03.2021
1103 Clear 8 1026 78 10000 0.89 247 10:59 24.03.2021
1104 Clear 8 1026 79 10000 0.45 292 10:40 24.03.2021
1105 Clear 8 1026 79 10000 0.45 202 10:20 24.03.2021
1106 Clear 7 1025 81 10000 0.45 247 09:51 24.03.2021
1107 Clear 7 1026 82 10000 0.45 247 09:20 24.03.2021
1108 Clear 7 1025 82 10000 6.54 244 08:50 24.03.2021
1109 Clear 6 1025 82 10000 1.34 247 08:26 24.03.2021
1110 Clear 6 1025 82 10000 1.34 247 08:26 24.03.2021
1111 Clear 6 1025 83 10000 6.39 237 07:40 24.03.2021
1112 Clear 6 1025 84 10000 0.45 247 06:54 24.03.2021
1113 Clear 3 1021 93 10000 6.01 226 05:30 24.03.2021
1114 Clear 6 1026 83 10000 5.59 233 00:51 24.03.2021
1115 Clear 6 1025 83 10000 5.35 238 00:25 24.03.2021
1116 Clear 6 1026 83 10000 0.89 225 23:22 23.03.2021
1117 Clear 6 1026 83 10000 0.45 225 22:55 23.03.2021
1118 Clear 6 1026 83 10000 0.45 225 22:36 23.03.2021
1119 Clear 6 1026 82 10000 0.89 247 21:54 23.03.2021
1120 Clear 6 1026 82 10000 5.16 247 21:34 23.03.2021
1121 Clear 6 1026 82 10000 0.45 315 20:57 23.03.2021
1122 Clear 6 1026 82 10000 0.89 315 20:39 23.03.2021
1123 Clear 6 1026 82 10000 0.45 315 20:21 23.03.2021
1124 Clear 6 1026 82 10000 0.89 315 19:44 23.03.2021
1125 Clouds 6 1026 82 10000 0.89 315 19:23 23.03.2021
1126 Clouds 6 1026 82 10000 0.45 292 18:42 23.03.2021
1127 Clouds 6 1025 81 10000 0.89 315 18:20 23.03.2021
1128 Clouds 6 1025 80 10000 1.34 315 17:44 23.03.2021
1129 Clouds 7 1025 81 10000 0.89 292 17:21 23.03.2021
1130 Clouds 7 1025 81 10000 0.89 292 17:21 23.03.2021
1131 Clouds 7 1025 82 10000 1.34 315 16:26 23.03.2021
1132 Clouds 7 1025 82 10000 0.45 315 15:55 23.03.2021
1133 Clouds 7 1025 82 10000 1.34 315 15:36 23.03.2021
1134 Clouds 7 1025 81 10000 1.34 315 14:50 23.03.2021
1135 Clouds 7 1025 81 10000 1.79 315 14:21 23.03.2021
1136 Clouds 7 1025 82 10000 6.74 260 13:49 23.03.2021
1137 Clouds 7 1025 84 10000 6.33 260 13:25 23.03.2021
1138 Clouds 7 1026 85 10000 6.71 262 12:46 23.03.2021
1139 Clouds 6 1026 85 10000 6.34 264 12:26 23.03.2021
1140 Clouds 6 1026 85 10000 0.45 292 11:51 23.03.2021
1141 Clouds 6 1026 86 10000 0.45 315 11:33 23.03.2021
1142 Clouds 6 1026 84 10000 0.89 315 10:44 23.03.2021
1143 Clouds 6 1026 85 10000 0.89 315 10:22 23.03.2021
1144 Clouds 6 1025 86 10000 1.79 315 09:55 23.03.2021
1145 Clouds 6 1025 86 10000 2.24 315 09:29 23.03.2021
1146 Clouds 6 1025 86 10000 0.89 292 08:57 23.03.2021
1147 Clouds 6 1025 86 10000 0.45 292 08:38 23.03.2021
1148 Clear 6 1025 86 10000 0.45 315 08:20 23.03.2021
1149 Clouds 5 1024 87 10000 0.45 337 07:28 23.03.2021
1150 Clouds 5 1024 87 10000 0.45 315 06:54 23.03.2021
1151 Clouds 5 1024 87 10000 0.89 315 06:18 23.03.2021
1152 Clouds 6 1023 85 10000 0.89 292 03:20 23.03.2021
1153 Clouds 6 1023 89 10000 0.89 315 00:42 23.03.2021
1154 Clouds 6 1023 89 10000 0.45 315 23:24 22.03.2021
1155 Clouds 6 1022 89 10000 1.34 315 22:46 22.03.2021
1156 Clouds 6 1023 89 10000 8.52 282 22:22 22.03.2021
1157 Clouds 6 1023 87 10000 8.52 282 21:52 22.03.2021
1158 Clouds 6 1023 87 10000 8.52 282 21:52 22.03.2021
1159 Clouds 6 1023 85 10000 0.45 337 21:29 22.03.2021
1160 Clouds 6 1023 81 10000 0.89 292 20:57 22.03.2021
1161 Clouds 6 1022 80 10000 8.54 275 20:37 22.03.2021
1162 Clouds 6 1022 78 10000 0.45 315 20:18 22.03.2021
1163 Clouds 6 1022 75 10000 0.45 270 19:40 22.03.2021
1164 Clouds 6 1023 74 10000 7.32 267 19:21 22.03.2021
1165 Clouds 6 1023 66 10000 1.34 315 18:45 22.03.2021
1166 Clear 7 1022 63 10000 0.45 315 18:27 22.03.2021
1167 Clear 4 1018 86 10000 6.84 260 17:51 22.03.2021
1168 Clear 4 1018 83 10000 6.92 257 17:24 22.03.2021
1169 Clear 4 1018 83 10000 6.92 257 16:59 22.03.2021
1170 Clear 4 1018 83 10000 6.92 257 16:40 22.03.2021
1171 Clear 10 1022 55 10000 0.45 337 15:58 22.03.2021
1172 Clear 4 1018 77 10000 7.2 259 15:37 22.03.2021
1173 Clear 4 1018 77 10000 7.2 259 15:37 22.03.2021
1174 Clear 4 1018 74 10000 7.27 261 15:18 22.03.2021
1175 Clear 4 1018 74 10000 7.27 261 14:50 22.03.2021
1176 Clear 10 1022 50 10000 5.85 260 14:29 22.03.2021
1177 Clear 10 1023 53 10000 0.45 292 13:43 22.03.2021
1178 Clouds 9 1023 58 10000 0.45 315 13:22 22.03.2021
1179 Clouds 9 1023 62 10000 0.45 337 12:47 22.03.2021
1180 Clouds 8 1023 66 10000 0.45 292 12:23 22.03.2021
1181 Clouds 8 1023 69 10000 0.45 0 11:47 22.03.2021
1182 Clouds 7 1023 75 10000 0.89 315 11:25 22.03.2021
1183 Clouds 6 1023 80 10000 0.89 315 10:44 22.03.2021
1184 Clouds 6 1023 80 10000 0.89 315 10:24 22.03.2021
1185 Clouds 5 1023 83 10000 2.85 316 09:44 22.03.2021
1186 Clouds 4 1022 83 10000 0.45 315 09:23 22.03.2021
1187 Clouds 4 1022 84 10000 3.13 319 08:45 22.03.2021
1188 Clouds 3 1022 84 10000 2.5 325 08:25 22.03.2021
1189 Clouds 3 1022 84 10000 2.5 325 07:46 22.03.2021
1190 Clouds 2 1022 84 10000 2.22 348 06:57 22.03.2021
1191 Clouds 2 1021 83 10000 2.22 348 06:35 22.03.2021
1192 Clouds 2 1020 79 10000 5.15 347 02:38 22.03.2021
1193 Clouds 3 1020 78 10000 5.23 330 00:33 22.03.2021
1194 Clouds 3 1019 77 10000 0.45 337 23:54 21.03.2021
1195 Clouds 3 1019 76 10000 5.18 315 23:20 21.03.2021
1196 Clouds 3 1019 76 10000 0.45 315 22:58 21.03.2021
1197 Clouds 3 1018 76 10000 5.57 325 22:29 21.03.2021
1198 Clouds 3 1018 76 10000 5.57 325 21:41 21.03.2021
1199 Clouds 4 1018 76 10000 0.45 337 21:23 21.03.2021
1200 Clouds 4 1018 74 10000 5.91 335 20:47 21.03.2021
1201 Clouds 4 1018 73 10000 5.87 340 20:27 21.03.2021
1202 Clouds 4 1018 72 10000 5.87 340 19:59 21.03.2021
1203 Clouds 4 1018 70 10000 7.03 340 19:28 21.03.2021
1204 Clouds 5 1018 69 10000 7.03 340 18:55 21.03.2021
1205 Clouds 6 1017 69 10000 7.36 338 18:32 21.03.2021
1206 Clouds 6 1017 66 10000 7.79 332 17:59 21.03.2021
1207 Clouds 6 1017 65 10000 0.45 247 17:40 21.03.2021
1208 Clouds 7 1017 63 10000 7.43 329 17:18 21.03.2021
1209 Clouds 4 1014 68 10000 7.43 329 16:48 21.03.2021
1210 Clouds 4 1014 64 10000 7.75 332 16:22 21.03.2021
1211 Clouds 4 1014 64 10000 7.75 332 15:42 21.03.2021
1212 Clouds 9 1016 60 10000 9.14 334 15:20 21.03.2021
1213 Clouds 9 1016 61 10000 9.14 334 14:46 21.03.2021
1214 Clear 8 1016 62 10000 9.22 336 14:27 21.03.2021
1215 Clear 8 1016 65 10000 0.89 0 13:57 21.03.2021
1216 Clear 8 1016 66 10000 0.45 45 13:38 21.03.2021
1217 Clouds 8 1015 70 10000 0.89 337 12:43 21.03.2021
1218 Clouds 8 1015 71 10000 0.89 0 12:25 21.03.2021
1219 Clouds 8 1015 71 10000 0.89 0 12:25 21.03.2021
1220 Clouds 8 1015 71 10000 0.89 0 12:25 21.03.2021
1221 Clouds 7 1015 72 10000 0.89 22 11:41 21.03.2021
1222 Clouds 7 1015 75 10000 0.89 45 11:20 21.03.2021
1223 Clouds 6 1013 83 10000 0.45 22 10:44 21.03.2021
1224 Clouds 7 1013 86 10000 6.46 357 10:26 21.03.2021
1225 Clouds 6 1013 89 10000 0.45 0 09:49 21.03.2021
1226 Clouds 6 1013 90 10000 0.45 292 09:30 21.03.2021
1227 Clouds 6 1012 91 10000 6.35 5 08:57 21.03.2021
1228 Clouds 6 1012 92 10000 6.35 5 08:31 21.03.2021
1229 Clouds 5 1012 93 10000 0.89 0 07:51 21.03.2021
1230 Clouds 5 1012 93 10000 0.89 315 07:28 21.03.2021
1231 Rain 5 1012 92 10000 1.34 337 06:21 21.03.2021
1232 Clouds 5 1012 92 10000 1.79 0 04:52 21.03.2021
1233 Clouds 4 1016 92 10000 1.79 315 00:58 21.03.2021
1234 Clouds 4 1016 92 10000 1.34 292 00:39 21.03.2021
1235 Clouds 3 1016 91 10000 0.89 292 00:20 21.03.2021
1236 Clouds 3 1017 90 10000 10.64 272 23:45 20.03.2021
1237 Clouds 3 1018 90 10000 1.34 270 23:20 20.03.2021
1238 Clouds 2 1019 88 10000 0.45 225 22:24 20.03.2021
1239 Clouds 2 1019 87 10000 1.79 225 21:58 20.03.2021
1240 Clouds 2 1019 87 10000 1.34 247 21:40 20.03.2021
1241 Clouds 2 1020 86 10000 1.79 225 21:21 20.03.2021
1242 Clouds 2 1020 86 10000 1.34 225 20:41 20.03.2021
1243 Clouds 2 1021 86 10000 2.68 225 20:21 20.03.2021
1244 Clouds 2 1021 84 10000 0.89 247 19:41 20.03.2021
1245 Clouds 2 1022 82 10000 0.89 247 19:23 20.03.2021
1246 Clouds 3 1022 78 10000 1.34 247 18:46 20.03.2021
1247 Clouds 3 1023 73 10000 0.89 225 18:24 20.03.2021
1248 Clouds 4 1023 69 10000 2.68 225 17:48 20.03.2021
1249 Clouds 4 1024 67 10000 0.45 292 17:26 20.03.2021
1250 Clouds 4 1024 66 10000 2.24 225 16:44 20.03.2021
1251 Clouds 4 1024 66 10000 2.24 225 16:44 20.03.2021
1252 Clouds 4 1025 66 10000 1.79 247 16:20 20.03.2021
1253 Clouds 4 1025 66 10000 2.68 247 15:56 20.03.2021
1254 Clouds 4 1025 65 10000 0.45 225 15:38 20.03.2021
1255 Clouds 4 1026 65 10000 0.89 292 14:44 20.03.2021
1256 Clouds 4 1026 64 10000 1.34 225 14:22 20.03.2021
1257 Clouds 4 1028 67 10000 0.45 225 13:33 20.03.2021
1258 Clouds 3 1029 67 10000 0.45 247 12:51 20.03.2021
1259 Clouds 3 1029 69 10000 0.89 292 12:26 20.03.2021
1260 Clouds 3 1029 69 10000 0.45 270 11:46 20.03.2021
1261 Clouds 3 1029 69 10000 0.45 247 11:28 20.03.2021
1262 Clouds 3 1029 70 10000 0.45 270 10:55 20.03.2021
1263 Clouds 3 1030 71 10000 0.89 270 10:32 20.03.2021
1264 Clouds 2 1030 73 10000 0.45 292 09:58 20.03.2021
1265 Clouds 2 1030 77 10000 0.45 270 09:27 20.03.2021
1266 Clouds 1 1030 77 10000 0.45 292 08:57 20.03.2021
1267 Clouds 1 1030 78 10000 0.89 292 08:30 20.03.2021
1268 Clouds -1 1030 79 10000 0.45 337 07:53 20.03.2021
1269 Clouds -1 1030 78 10000 0.45 270 07:32 20.03.2021
1270 Clouds -1 1030 77 10000 6.75 288 06:54 20.03.2021
1271 Clouds -1 1031 75 10000 0.45 292 06:19 20.03.2021
1272 Clear -1 1031 76 10000 5.5 305 04:23 20.03.2021
1273 Clear -1 1032 76 10000 5.5 305 03:42 20.03.2021
1274 Clouds 0 1032 67 10000 4.05 271 00:35 20.03.2021
1275 Clouds 0 1032 68 10000 3.83 275 23:31 19.03.2021
1276 Clouds 0 1032 66 10000 0.89 45 22:59 19.03.2021
1277 Clouds 0 1032 66 10000 0.45 45 22:38 19.03.2021
1278 Clouds 0 1032 66 10000 1.51 358 22:20 19.03.2021
1279 Clouds 0 1032 66 10000 1.51 358 22:20 19.03.2021
1280 Clouds -1 1032 68 10000 2.7 35 21:23 19.03.2021
1281 Clouds -1 1032 71 10000 2.7 35 21:00 19.03.2021
1282 Clouds -1 1032 70 10000 2.7 35 20:40 19.03.2021
1283 Clouds -1 1032 70 10000 3.95 41 20:22 19.03.2021
1284 Clouds -1 1031 74 10000 0.89 45 19:46 19.03.2021
1285 Clouds -1 1032 79 10000 0.89 45 19:20 19.03.2021
1286 Clouds 1 1032 64 10000 1.34 45 18:41 19.03.2021
1287 Clouds 1 1031 67 10000 2.68 22 18:20 19.03.2021
1288 Clouds 1 1031 74 10000 1.34 67 17:55 19.03.2021
1289 Clouds 1 1031 68 10000 0.89 45 17:33 19.03.2021
1290 Clouds -1 1031 82 10000 1.34 45 16:56 19.03.2021
1291 Clouds 0 1031 80 10000 0.89 67 16:32 19.03.2021
1292 Clouds 2 1031 67 10000 0.45 45 15:58 19.03.2021
1293 Clouds 2 1031 67 10000 0.45 67 15:28 19.03.2021
1294 Clouds 2 1030 64 10000 0.89 67 14:48 19.03.2021
1295 Clouds 2 1031 72 10000 2.68 45 14:28 19.03.2021
1296 Clouds 2 1030 69 10000 0.89 45 13:45 19.03.2021
1297 Clouds 2 1030 69 10000 0.89 45 13:18 19.03.2021
1298 Clouds 2 1030 70 10000 1.79 67 12:38 19.03.2021
1299 Clouds 3 1029 66 10000 1.79 67 11:53 19.03.2021
1300 Clouds 2 1029 70 10000 1.79 22 11:22 19.03.2021
1301 Clouds 2 1029 69 10000 1.34 67 10:40 19.03.2021
1302 Clouds 2 1029 71 10000 0.89 45 10:21 19.03.2021
1303 Clouds 2 1028 76 10000 9.97 53 09:43 19.03.2021
1304 Clouds 2 1028 78 10000 0.45 45 09:22 19.03.2021
1305 Clouds 2 1028 80 10000 0.89 67 08:51 19.03.2021
1306 Clouds 2 1027 83 10000 0.89 45 08:26 19.03.2021
1307 Clouds 2 1027 86 10000 1.34 45 07:43 19.03.2021
1308 Clouds 2 1025 90 10000 1.34 45 06:59 19.03.2021
1309 Clouds 1 1024 87 10000 7.04 43 05:26 19.03.2021
1310 Clear 2 1024 87 10000 2.06 10 00:59 19.03.2021
1311 Clear 2 1023 87 10000 2.16 23 23:55 18.03.2021
1312 Clear 2 1023 87 10000 2.43 31 23:29 18.03.2021
1313 Clear 2 1023 86 10000 2.43 31 22:46 18.03.2021
1314 Clear 2 1023 86 10000 0.45 45 22:25 18.03.2021
1315 Clear 2 1023 86 10000 2.73 20 21:48 18.03.2021
1316 Clear 2 1023 86 10000 2.73 20 21:30 18.03.2021
1317 Clear 2 1023 85 10000 0.45 45 20:43 18.03.2021
1318 Clouds 2 1022 80 10000 3.49 28 20:22 18.03.2021
1319 Clouds 2 1022 80 10000 3.49 28 19:43 18.03.2021
1320 Clouds 2 1022 80 10000 3.77 28 19:23 18.03.2021
1321 Clouds 2 1022 80 10000 3.77 28 19:23 18.03.2021
1322 Clouds 3 1022 80 10000 3.65 41 18:51 18.03.2021
1323 Clouds 3 1022 80 10000 3.65 54 18:25 18.03.2021
1324 Clouds 4 1022 79 10000 3.65 54 17:43 18.03.2021
1325 Clouds 4 1022 78 10000 3.65 45 17:20 18.03.2021
1326 Clouds 6 1023 71 10000 3.65 45 16:41 18.03.2021
1327 Clouds 6 1022 70 10000 0.45 45 16:23 18.03.2021
1328 Clouds 6 1023 72 10000 0.45 45 15:41 18.03.2021
1329 Clear 6 1023 70 10000 0.89 22 15:23 18.03.2021
1330 Clear 7 1023 68 10000 0.89 45 14:49 18.03.2021
1331 Clear 7 1024 67 10000 3.91 333 14:23 18.03.2021
1332 Clear 6 1024 70 10000 3.91 333 13:48 18.03.2021
1333 Clouds 7 1024 66 10000 0.89 0 13:25 18.03.2021
1334 Clouds 7 1024 70 10000 3.14 16 12:42 18.03.2021
1335 Clouds 7 1024 70 10000 3.59 353 12:24 18.03.2021
1336 Clouds 7 1025 77 10000 3.59 353 11:50 18.03.2021
1337 Clouds 7 1025 77 10000 4.21 342 11:27 18.03.2021
1338 Clouds 5 1025 82 10000 4.21 342 10:44 18.03.2021
1339 Clouds 4 1025 82 10000 0.45 45 10:25 18.03.2021
1340 Clouds 4 1025 84 10000 0.45 0 09:54 18.03.2021
1341 Clouds 4 1025 85 10000 0.45 22 09:28 18.03.2021
1342 Clouds 3 1026 89 10000 0.45 0 08:47 18.03.2021
1343 Clear 3 1026 89 10000 5.45 333 08:29 18.03.2021
1344 Clear 2 1026 89 10000 0.45 292 07:51 18.03.2021
1345 Clouds 1 1026 88 10000 5.55 332 07:24 18.03.2021
1346 Clouds 1 1026 87 10000 5.53 333 06:28 18.03.2021
1347 Clouds 1 1026 88 10000 5.53 333 05:53 18.03.2021
1348 Clouds 1 1027 87 10000 4.84 328 02:29 18.03.2021
1349 Clouds 2 1028 86 10000 4.1 309 23:59 17.03.2021
1350 Clouds 2 1028 86 10000 3.83 301 22:56 17.03.2021
1351 Clouds 2 1028 86 10000 3.83 301 22:36 17.03.2021
1352 Clouds 2 1028 86 10000 3.06 302 22:18 17.03.2021
1353 Clouds 2 1028 86 10000 3.06 302 21:42 17.03.2021
1354 Clouds 1 1029 86 10000 2.33 311 21:23 17.03.2021
1355 Clouds 1 1028 85 10000 2.33 311 20:45 17.03.2021
1356 Clouds 1 1028 84 10000 1.82 327 20:25 17.03.2021
1357 Clouds 2 1028 82 10000 1.82 327 19:46 17.03.2021
1358 Clouds 3 1028 81 10000 1.77 344 19:25 17.03.2021
1359 Clouds 3 1028 80 10000 1.77 344 18:57 17.03.2021
1360 Clouds 4 1028 78 10000 2.2 320 18:38 17.03.2021
1361 Clouds 3 1024 81 10000 2.73 330 17:57 17.03.2021
1362 Clouds 4 1024 81 10000 2.83 334 17:27 17.03.2021
1363 Clouds 6 1027 75 10000 2.83 334 16:55 17.03.2021
1364 Clouds 7 1027 75 10000 0.45 45 16:37 17.03.2021
1365 Clouds 6 1027 77 10000 2.69 347 16:18 17.03.2021
1366 Clouds 6 1027 75 10000 2.69 347 15:37 17.03.2021
1367 Clear 6 1027 78 10000 2.52 5 14:46 17.03.2021
1368 Clear 6 1027 77 10000 2.24 29 14:27 17.03.2021
1369 Clear 7 1027 77 10000 2.24 29 13:56 17.03.2021
1370 Clear 6 1027 78 10000 2.24 29 13:37 17.03.2021
1371 Clouds 7 1027 78 10000 2.57 42 12:59 17.03.2021
1372 Clouds 6 1027 78 10000 0.45 67 12:34 17.03.2021
1373 Clouds 7 1026 79 10000 3.04 40 11:54 17.03.2021
1374 Clouds 6 1026 82 10000 2.96 52 11:27 17.03.2021
1375 Clouds 5 1026 83 10000 0.45 22 10:59 17.03.2021
1376 Clouds 5 1026 85 10000 2.96 52 10:40 17.03.2021
1377 Clouds 5 1026 87 10000 0.45 45 09:59 17.03.2021
1378 Clouds 4 1026 89 10000 0.45 45 09:41 17.03.2021
1379 Clouds 4 1025 89 10000 3.12 59 09:20 17.03.2021
1380 Clouds 4 1025 89 10000 0.45 22 08:43 17.03.2021
1381 Clouds 4 1025 89 10000 3.01 20 08:24 17.03.2021
1382 Clouds 3 1025 89 10000 3.01 20 07:37 17.03.2021
1383 Clear 3 1024 89 10000 3.16 346 06:47 17.03.2021
1384 Clear 3 1023 87 10000 1.33 338 04:28 17.03.2021
1385 Clear 3 1023 87 10000 1.33 338 03:31 17.03.2021
1386 Clouds 3 1023 86 10000 1.47 18 01:19 17.03.2021
1387 Clear 2 1023 85 10000 0.92 11 00:33 17.03.2021
1388 Clear 3 1023 85 10000 0.18 318 23:25 16.03.2021
1389 Clear 3 1023 84 10000 0.18 318 22:44 16.03.2021
1390 Clear 2 1023 84 10000 0.14 126 22:26 16.03.2021
1391 Clear 3 1023 84 10000 0.14 126 21:44 16.03.2021
1392 Clear 3 1022 84 10000 0.51 104 21:25 16.03.2021
1393 Clear 3 1022 83 10000 0.51 104 20:56 16.03.2021
1394 Clear 3 1022 83 10000 1 59 20:19 16.03.2021
1395 Clear 3 1022 82 10000 1 59 19:48 16.03.2021
1396 Clear 3 1022 81 10000 1.75 27 19:29 16.03.2021
1397 Clear 4 1022 78 10000 1.64 10 18:57 16.03.2021
1398 Clear 5 1022 77 10000 1.64 10 18:38 16.03.2021
1399 Clear 3 1017 84 10000 2.39 15 17:59 16.03.2021
1400 Clear 3 1017 84 10000 2.39 15 17:40 16.03.2021
1401 Clear 4 1021 83 10000 0.45 315 17:21 16.03.2021
1402 Clear 4 1021 81 10000 0.45 0 16:47 16.03.2021
1403 Clear 4 1021 81 10000 0.45 315 16:25 16.03.2021
1404 Clear 4 1021 81 10000 0.45 292 15:46 16.03.2021
1405 Clear 4 1021 81 10000 0.89 292 15:20 16.03.2021
1406 Clear 4 1021 82 10000 4.05 339 14:57 16.03.2021
1407 Clear 4 1020 83 10000 0.45 337 14:39 16.03.2021
1408 Clear 4 1020 83 10000 4.6 337 14:19 16.03.2021
1409 Clear 4 1020 83 10000 4.6 337 14:19 16.03.2021
1410 Clear 4 1020 82 10000 4.6 337 13:45 16.03.2021
1411 Clear 5 1020 81 10000 4.86 339 13:21 16.03.2021
1412 Clear 5 1020 81 10000 4.86 339 12:46 16.03.2021
1413 Clear 5 1020 81 10000 0.89 337 12:27 16.03.2021
1414 Clear 4 1020 84 10000 5.33 338 11:38 16.03.2021
1415 Clear 4 1019 84 10000 5.49 346 10:59 16.03.2021
1416 Clear 4 1019 85 10000 0.89 45 10:27 16.03.2021
1417 Clear 4 1019 86 10000 5.97 350 09:48 16.03.2021
1418 Clear 4 1019 86 10000 0.45 22 09:29 16.03.2021
1419 Clear 4 1019 86 10000 0.45 22 09:29 16.03.2021
1420 Clear 3 1018 87 10000 6.62 351 08:59 16.03.2021
1421 Clear 3 1018 87 10000 0.45 0 08:40 16.03.2021
1422 Clear 3 1018 87 10000 7.33 350 08:19 16.03.2021
1423 Clear 3 1017 87 10000 7.33 350 07:36 16.03.2021
1424 Clear 3 1016 87 10000 7.81 348 06:39 16.03.2021
1425 Clear 3 1016 87 10000 7.98 348 05:52 16.03.2021
1426 Clear 3 1016 87 10000 7.98 348 05:34 16.03.2021
1427 Clear 4 1014 91 10000 0.45 22 02:45 16.03.2021
1428 Clear 4 1013 91 10000 0.89 0 02:24 16.03.2021
1429 Clouds 4 1012 90 10000 9 350 23:58 15.03.2021
1430 Clouds 4 1012 90 10000 8.3 348 23:29 15.03.2021
1431 Clouds 4 1011 90 10000 8.3 348 22:55 15.03.2021
1432 Clouds 4 1011 90 10000 8.3 348 22:36 15.03.2021
1433 Clouds 4 1011 90 10000 7.19 352 21:58 15.03.2021
1434 Clouds 4 1010 90 10000 7.19 352 21:38 15.03.2021
1435 Clouds 4 1010 90 10000 6.74 357 21:20 15.03.2021
1436 Clouds 4 1010 89 10000 6.74 357 20:43 15.03.2021
1437 Clouds 4 1010 89 10000 6.74 357 20:43 15.03.2021
1438 Clouds 4 1009 89 10000 4.56 347 20:24 15.03.2021
1439 Clouds 5 1009 89 10000 4.56 347 19:53 15.03.2021
1440 Clouds 5 1009 89 10000 4.46 338 19:34 15.03.2021
1441 Clouds 5 1008 89 10000 0.45 337 18:57 15.03.2021
1442 Clouds 5 1008 89 10000 2.92 312 18:33 15.03.2021
1443 Clouds 5 1007 88 10000 2.38 298 17:57 15.03.2021
1444 Clouds 5 1007 87 10000 2.38 298 17:39 15.03.2021
1445 Clouds 6 1007 87 10000 0.89 247 17:21 15.03.2021
1446 Clouds 6 1006 87 10000 0.45 247 16:42 15.03.2021
1447 Clouds 6 1006 87 10000 1.34 202 15:55 15.03.2021
1448 Clouds 6 1006 87 10000 0.89 202 15:28 15.03.2021
1449 Clouds 6 1006 87 10000 1.34 202 14:47 15.03.2021
1450 Clouds 6 1006 87 10000 0.89 202 14:28 15.03.2021
1451 Clouds 5 1006 85 10000 1.34 202 13:59 15.03.2021
1452 Clouds 5 1006 85 10000 1.34 202 13:35 15.03.2021
1453 Clouds 5 1006 85 10000 1.34 202 12:51 15.03.2021
1454 Rain 5 1006 85 2970 2.68 225 12:21 15.03.2021
1455 Clouds 6 1006 84 2970 2.24 247 11:59 15.03.2021
1456 Clouds 6 1006 82 2970 2.24 247 11:40 15.03.2021
1457 Rain 6 1006 82 315 1.79 225 11:21 15.03.2021
1458 Rain 6 1006 83 315 1.34 247 10:41 15.03.2021
1459 Rain 6 1006 84 2453 1.79 225 10:22 15.03.2021
1460 Rain 6 1007 86 2453 8.52 224 09:41 15.03.2021
1461 Rain 5 1007 87 10000 1.79 225 09:22 15.03.2021
1462 Rain 4 1007 88 10000 2.24 247 08:45 15.03.2021
1463 Rain 4 1006 89 10000 1.34 225 08:25 15.03.2021
1464 Clouds 3 1006 89 10000 0.45 270 07:40 15.03.2021
1465 Clouds 3 1007 89 10000 1.34 247 07:22 15.03.2021
1466 Clouds 3 1007 89 10000 1.34 247 05:42 15.03.2021
1467 Clouds 4 1007 87 10000 0.45 247 03:21 15.03.2021
1468 Clouds 4 1008 85 10000 0.45 247 00:42 15.03.2021
1469 Clouds 5 1008 83 10000 0.45 292 23:24 14.03.2021
1470 Clouds 4 1008 83 10000 0.89 270 22:57 14.03.2021
1471 Clouds 4 1008 83 10000 9.15 251 22:37 14.03.2021
1472 Clouds 5 1008 83 10000 8.99 255 22:18 14.03.2021
1473 Clouds 5 1008 83 10000 8.99 255 22:18 14.03.2021
1474 Clouds 5 1008 82 10000 0.89 225 21:39 14.03.2021
1475 Clouds 5 1008 82 10000 0.45 270 21:18 14.03.2021
1476 Rain 5 1008 83 10000 0.89 270 20:42 14.03.2021
1477 Rain 5 1007 83 10000 0.45 225 20:23 14.03.2021
1478 Clouds 5 1008 81 10000 0.89 247 19:42 14.03.2021
1479 Clouds 6 1008 81 10000 8.68 263 19:20 14.03.2021
1480 Clouds 6 1007 78 10000 0.45 225 18:41 14.03.2021
1481 Clouds 7 1007 78 10000 8.02 260 17:58 14.03.2021
1482 Clouds 7 1007 75 10000 8.02 260 17:38 14.03.2021
1483 Clouds 7 1007 74 10000 0.89 292 17:19 14.03.2021
1484 Clouds 8 1007 75 10000 0.45 315 16:42 14.03.2021
1485 Clouds 8 1007 74 10000 0.89 292 16:23 14.03.2021
1486 Clouds 8 1007 71 10000 1.79 315 15:49 14.03.2021
1487 Clear 8 1006 72 10000 0.89 292 15:25 14.03.2021
1488 Clear 6 1006 76 10000 2.68 315 14:41 14.03.2021
1489 Clear 7 1006 75 10000 2.68 315 14:20 14.03.2021
1490 Clear 7 1006 79 10000 1.79 315 13:48 14.03.2021
1491 Clouds 6 1005 81 10000 1.79 292 13:27 14.03.2021
1492 Clouds 6 1005 81 10000 1.34 315 12:45 14.03.2021
1493 Clouds 5 1005 81 10000 1.34 315 12:26 14.03.2021
1494 Clouds 5 1004 83 10000 2.24 315 11:44 14.03.2021
1495 Clouds 4 1003 88 10000 0.89 337 11:26 14.03.2021
1496 Clouds 4 1002 87 10000 2.68 315 10:56 14.03.2021
1497 Clouds 4 1002 88 10000 1.79 292 10:36 14.03.2021
1498 Clouds 4 1002 87 10000 0.89 292 10:18 14.03.2021
1499 Clouds 4 1000 88 10000 1.79 292 09:42 14.03.2021
1500 Clouds 4 1000 88 10000 0.89 292 09:21 14.03.2021
1501 Clouds 4 999 88 10000 0.89 337 08:40 14.03.2021
1502 Clouds 4 998 89 10000 0.89 292 08:18 14.03.2021
1503 Clouds 4 998 89 10000 0.89 292 08:18 14.03.2021
1504 Clouds 4 997 90 10000 0.89 315 07:35 14.03.2021
1505 Clouds 4 997 90 10000 0.89 315 07:35 14.03.2021
1506 Clouds 4 996 90 10000 2.24 315 06:41 14.03.2021
1507 Clouds 3 991 90 10000 0.45 270 03:54 14.03.2021
1508 Rain 5 989 86 10000 3.58 225 00:51 14.03.2021
1509 Rain 5 989 86 707 3.13 202 00:19 14.03.2021
1510 Rain 5 989 85 707 2.24 225 23:42 13.03.2021
1511 Rain 6 990 84 6404 2.24 225 23:24 13.03.2021
1512 Rain 6 990 83 6404 3.58 225 22:52 13.03.2021
1513 Rain 5 990 84 8409 1.79 202 22:25 13.03.2021
1514 Clouds 5 991 84 8409 2.68 202 21:43 13.03.2021
1515 Clouds 5 991 85 10000 2.24 180 21:25 13.03.2021
1516 Rain 5 992 85 10000 1.34 202 20:49 13.03.2021
1517 Rain 5 992 85 10000 0.89 202 20:30 13.03.2021
1518 Clouds 6 992 84 10000 1.34 225 19:53 13.03.2021
1519 Clouds 5 992 84 10000 1.34 225 19:29 13.03.2021
1520 Clouds 6 992 83 10000 1.79 225 18:44 13.03.2021
1521 Clouds 5 992 82 10000 0.89 225 18:23 13.03.2021
1522 Clouds 5 992 82 10000 8.12 213 17:59 13.03.2021
1523 Clouds 6 992 80 10000 8.12 213 17:40 13.03.2021
1524 Clouds 7 992 78 10000 1.34 315 17:21 13.03.2021
1525 Clouds 9 992 76 10000 1.79 225 16:42 13.03.2021
1526 Rain 9 992 78 10000 2.24 202 15:59 13.03.2021
1527 Clouds 8 993 87 10000 1.79 225 15:26 13.03.2021
1528 Clouds 7 992 89 10000 1.79 202 14:47 13.03.2021
1529 Clouds 7 992 90 10000 2.24 180 14:28 13.03.2021
1530 Rain 6 995 86 10000 1.34 157 13:47 13.03.2021
1531 Rain 6 995 86 6797 1.34 157 13:24 13.03.2021
1532 Rain 6 995 86 7832 1.34 157 12:43 13.03.2021
1533 Rain 6 995 86 5331 1.34 157 12:20 13.03.2021
1534 Clouds 7 996 84 5331 1.34 202 11:49 13.03.2021
1535 Rain 7 996 82 10000 2.68 180 11:28 13.03.2021
1536 Clouds 7 997 80 10000 2.24 202 10:50 13.03.2021
1537 Clouds 7 998 81 10000 2.24 180 10:29 13.03.2021
1538 Clouds 7 998 82 10000 1.79 180 09:47 13.03.2021
1539 Clouds 6 999 83 10000 1.79 180 09:19 13.03.2021
1540 Clouds 6 999 84 10000 1.79 202 08:43 13.03.2021
1541 Clear 4 1000 86 10000 2.24 225 08:19 13.03.2021
1542 Clear 4 1000 86 10000 1.79 225 07:54 13.03.2021
1543 Clouds 3 1000 85 10000 1.34 225 06:51 13.03.2021
1544 Clouds 4 1000 82 10000 11.49 245 02:55 13.03.2021
1545 Clouds 6 1000 83 10000 2.68 247 00:57 13.03.2021
1546 Clouds 6 1000 84 10000 1.34 247 23:59 12.03.2021
1547 Clouds 6 1000 82 10000 2.68 247 23:32 12.03.2021
1548 Clouds 7 1000 75 10000 2.68 225 22:46 12.03.2021
1549 Clouds 7 1000 73 9147 2.68 225 22:28 12.03.2021
1550 Rain 6 1001 75 9147 1.34 202 21:45 12.03.2021
1551 Rain 6 1001 75 10000 1.79 180 21:27 12.03.2021
1552 Rain 6 1001 75 10000 1.79 180 21:27 12.03.2021
1553 Clouds 6 1001 75 10000 0.89 180 20:59 12.03.2021
1554 Clouds 7 1002 75 10000 1.34 202 20:40 12.03.2021
1555 Clouds 7 1002 74 10000 1.79 225 20:18 12.03.2021
1556 Clouds 7 1002 71 10000 3.13 225 19:42 12.03.2021
1557 Clouds 7 1003 71 9172 2.24 225 19:24 12.03.2021
1558 Rain 7 1003 69 10000 1.79 225 18:38 12.03.2021
1559 Rain 7 1003 69 10000 2.24 225 18:19 12.03.2021
1560 Rain 8 1003 70 10000 2.24 247 17:40 12.03.2021
1561 Rain 8 1003 71 10000 1.79 247 17:22 12.03.2021
1562 Clouds 8 1003 70 10000 1.79 247 16:42 12.03.2021
1563 Clouds 7 1004 71 10000 1.34 270 16:18 12.03.2021
1564 Clouds 8 1004 72 10000 9.91 245 15:37 12.03.2021
1565 Clouds 8 1004 69 10000 0.89 292 14:49 12.03.2021
1566 Clouds 8 1004 66 10000 0.45 180 14:22 12.03.2021
1567 Clouds 8 1004 69 10000 0.45 225 13:55 12.03.2021
1568 Clouds 8 1004 68 10000 3.13 315 13:37 12.03.2021
1569 Clouds 8 1004 68 10000 3.13 315 13:18 12.03.2021
1570 Clouds 7 1004 68 10000 2.24 270 12:43 12.03.2021
1571 Clouds 8 1004 69 10000 2.24 337 12:25 12.03.2021
1572 Clouds 7 1004 73 10000 0.89 270 11:52 12.03.2021
1573 Clouds 7 1004 73 10000 1.34 292 11:24 12.03.2021
1574 Clouds 7 1003 75 10000 0.89 292 10:55 12.03.2021
1575 Clouds 7 1003 76 10000 1.79 0 10:27 12.03.2021
1576 Clouds 7 1003 76 10000 1.79 315 09:57 12.03.2021
1577 Clouds 6 1002 84 10000 0.45 337 09:26 12.03.2021
1578 Clouds 5 1002 89 10000 0.89 292 08:46 12.03.2021
1579 Clouds 5 1001 88 10000 1.79 292 08:26 12.03.2021
1580 Clouds 5 1000 86 10000 0.45 247 07:40 12.03.2021
1581 Clouds 5 1000 85 10000 1.34 225 06:57 12.03.2021
1582 Clouds 5 1000 84 10000 1.34 247 06:28 12.03.2021
1583 Clouds 6 998 83 10000 1.34 270 02:58 12.03.2021
1584 Clouds 6 997 79 10000 0.45 202 00:51 12.03.2021
1585 Clouds 6 996 80 10000 0.89 270 23:34 11.03.2021
1586 Clouds 6 996 80 10000 2.24 225 22:51 11.03.2021
1587 Clouds 6 995 80 10000 0.45 247 22:32 11.03.2021
1588 Clouds 7 995 79 10000 0.89 292 21:57 11.03.2021
1589 Clouds 7 994 79 10000 0.89 292 21:39 11.03.2021
1590 Clouds 7 994 79 10000 1.79 337 21:20 11.03.2021
1591 Rain 8 994 78 10000 1.79 270 20:44 11.03.2021
1592 Clouds 8 993 78 10000 2.68 270 20:21 11.03.2021
1593 Rain 8 993 78 10000 2.68 270 19:47 11.03.2021
1594 Rain 8 993 80 10000 1.34 292 19:28 11.03.2021
1595 Rain 8 992 82 10000 0.89 202 18:49 11.03.2021
1596 Rain 8 992 84 10000 0.89 202 18:31 11.03.2021
1597 Clouds 8 991 87 10000 1.79 247 17:45 11.03.2021
1598 Clouds 8 991 88 10000 3.13 247 17:27 11.03.2021
1599 Rain 9 992 87 10000 3.13 225 16:31 11.03.2021
1600 Rain 9 992 85 10000 1.79 180 15:50 11.03.2021
1601 Clouds 9 992 83 10000 2.68 180 15:31 11.03.2021
1602 Clouds 10 993 81 10000 2.68 180 14:58 11.03.2021
1603 Rain 7 988 80 10000 10.65 224 14:38 11.03.2021
1604 Rain 6 989 91 7602 11.38 195 14:18 11.03.2021
1605 Clouds 8 995 87 7602 2.68 180 13:43 11.03.2021
1606 Clouds 7 996 88 10000 2.68 202 13:21 11.03.2021
1607 Clouds 6 997 90 10000 2.68 202 12:49 11.03.2021
1608 Clouds 5 1000 91 10000 2.24 157 12:27 11.03.2021
1609 Rain 4 998 91 10000 2.68 180 11:45 11.03.2021
1610 Clouds 4 999 91 10000 2.24 180 11:27 11.03.2021
1611 Clouds 3 1000 91 10000 2.24 180 10:50 11.03.2021
1612 Clouds 2 1000 90 9479 1.79 202 10:22 11.03.2021
1613 Snow 2 1001 90 9479 2.24 180 09:48 11.03.2021
1614 Snow 1 1001 89 5106 1.79 180 09:29 11.03.2021
1615 Snow 1 1002 89 5106 1.79 157 08:48 11.03.2021
1616 Snow 2 1002 88 9574 1.79 157 08:24 11.03.2021
1617 Snow 2 1002 88 9574 1.79 157 08:24 11.03.2021
1618 Snow 2 1003 88 9574 2.24 157 07:44 11.03.2021
1619 Snow 2 1003 88 9574 2.24 157 07:44 11.03.2021
1620 Snow 1 1005 85 2545 1.79 157 06:54 11.03.2021
1621 Snow 1 1005 85 2545 1.79 157 06:36 11.03.2021
1622 Snow 1 1006 84 10000 2.24 180 06:18 11.03.2021
1623 Clouds 2 1012 60 10000 2.24 157 02:25 11.03.2021
1624 Clouds 2 1015 55 10000 1.34 157 00:23 11.03.2021
1625 Clouds 1 1016 55 10000 0.89 157 23:22 10.03.2021
1626 Clouds 2 1017 54 10000 1.79 157 22:42 10.03.2021
1627 Clouds 2 1018 54 10000 1.34 135 22:20 10.03.2021
1628 Clouds 2 1018 56 10000 0.89 157 21:44 10.03.2021
1629 Clouds 2 1019 56 10000 0.89 157 21:21 10.03.2021
1630 Clouds 2 1019 56 10000 0.89 135 20:45 10.03.2021
1631 Clouds 2 1020 58 10000 1.34 157 20:27 10.03.2021
1632 Clouds 2 1020 58 10000 1.34 157 19:43 10.03.2021
1633 Clouds 2 1020 58 10000 0.89 157 19:24 10.03.2021
1634 Clouds 2 1021 58 10000 0.89 157 18:44 10.03.2021
1635 Clouds 3 1020 57 10000 0.89 135 18:24 10.03.2021
1636 Clouds 4 1021 54 10000 0.45 135 17:55 10.03.2021
1637 Clouds 6 1021 51 10000 0.89 135 17:36 10.03.2021
1638 Clouds 3 1017 74 10000 6.5 133 17:18 10.03.2021
1639 Clouds 6 1021 50 10000 0.89 157 16:41 10.03.2021
1640 Clouds 6 1022 48 10000 0.45 157 16:22 10.03.2021
1641 Clouds 3 1018 71 10000 5.71 135 15:44 10.03.2021
1642 Clouds 3 1019 70 10000 5.5 134 15:22 10.03.2021
1643 Clouds 3 1019 70 10000 5.5 134 14:46 10.03.2021
1644 Clouds 3 1019 71 10000 5.05 138 14:20 10.03.2021
1645 Clouds 3 1019 71 10000 5.05 138 13:51 10.03.2021
1646 Clouds 7 1023 50 10000 0.89 180 13:27 10.03.2021
1647 Clouds 6 1023 52 10000 0.89 135 12:45 10.03.2021
1648 Clouds 6 1024 55 10000 0.89 135 12:19 10.03.2021
1649 Clouds 6 1024 57 10000 0.45 135 11:43 10.03.2021
1650 Clear 5 1024 61 10000 4.11 139 11:19 10.03.2021
1651 Clear 4 1024 67 10000 0.45 135 10:46 10.03.2021
1652 Clear 3 1024 69 10000 3.33 145 10:28 10.03.2021
1653 Clear 2 1024 79 10000 0.45 135 09:45 10.03.2021
1654 Clear 0 1025 82 10000 2.81 160 09:24 10.03.2021
1655 Clear 0 1025 82 10000 2.81 160 09:24 10.03.2021
1656 Clear 0 1025 82 10000 2.81 160 09:24 10.03.2021
1657 Clear -1 1025 82 10000 2.81 160 08:57 10.03.2021
1658 Clear -2 1025 82 10000 2.81 160 08:39 10.03.2021
1659 Clear -2 1024 82 10000 2.86 167 08:20 10.03.2021
1660 Clear -4 1024 81 10000 2.86 167 07:40 10.03.2021
1661 Clear 0 1021 84 10000 2.45 170 07:18 10.03.2021
1662 Clear 0 1021 84 10000 2.45 170 06:44 10.03.2021
1663 Clear -3 1024 79 10000 1.73 157 02:42 10.03.2021
1664 Clouds -2 1024 76 10000 3.1 146 23:52 09.03.2021
1665 Clouds -2 1024 76 10000 3.3 135 23:26 09.03.2021
1666 Clouds -2 1025 75 10000 3.3 135 22:47 09.03.2021
1667 Clouds -2 1025 75 10000 3.25 125 22:28 09.03.2021
1668 Clouds -1 1025 76 10000 3.25 125 21:56 09.03.2021
1669 Clouds -2 1024 76 10000 3.25 125 21:37 09.03.2021
1670 Clouds -1 1025 75 10000 3.2 115 21:18 09.03.2021
1671 Clouds -1 1025 75 10000 3.2 115 21:18 09.03.2021
1672 Clouds -1 1024 73 10000 3.2 115 20:43 09.03.2021
1673 Clouds -1 1024 71 10000 0.45 112 20:22 09.03.2021
1674 Clouds -1 1024 67 10000 3.59 115 19:56 09.03.2021
1675 Clouds 0 1024 67 10000 3.86 123 19:29 09.03.2021
1676 Clouds 1 1024 61 10000 3.86 123 18:54 09.03.2021
1677 Clouds 1 1024 60 10000 4.32 123 18:29 09.03.2021
1678 Clouds 1 1020 83 10000 4.32 123 17:57 09.03.2021
1679 Clouds 1 1020 83 10000 4.32 123 17:35 09.03.2021
1680 Clear 4 1024 56 10000 3.89 112 16:57 09.03.2021
1681 Clear 4 1023 58 10000 0.89 45 16:39 09.03.2021
1682 Clear 4 1023 56 10000 0.45 45 16:19 09.03.2021
1683 Clear 4 1023 56 10000 3.71 97 15:47 09.03.2021
1684 Clear 4 1023 54 10000 0.89 45 15:24 09.03.2021
1685 Clear 5 1024 51 10000 3.21 92 14:42 09.03.2021
1686 Clear 2 1020 74 10000 2.6 104 14:22 09.03.2021
1687 Clear 2 1020 74 10000 2.6 104 13:39 09.03.2021
1688 Clear 2 1020 75 10000 2.44 141 13:21 09.03.2021
1689 Clear 2 1020 75 10000 2.44 141 12:44 09.03.2021
1690 Clear 6 1025 56 10000 0.45 157 12:25 09.03.2021
1691 Clear 4 1025 60 10000 3.36 159 11:42 09.03.2021
1692 Clouds 4 1025 61 10000 0.89 157 11:21 09.03.2021
1693 Clouds 3 1025 64 10000 0.89 157 10:57 09.03.2021
1694 Clouds 3 1025 65 10000 0.89 157 10:39 09.03.2021
1695 Clouds 2 1025 68 10000 0.89 157 10:20 09.03.2021
1696 Clouds 1 1025 71 10000 0.89 157 09:44 09.03.2021
1697 Clouds 0 1025 75 10000 0.45 157 09:26 09.03.2021
1698 Clouds -1 1025 77 10000 0.89 157 08:48 09.03.2021
1699 Clouds -2 1025 78 10000 0.45 135 08:29 09.03.2021
1700 Clouds -3 1025 79 10000 4.94 160 07:41 09.03.2021
1701 Clouds -3 1025 79 10000 0.45 135 07:22 09.03.2021
1702 Clouds -4 1025 78 10000 0.45 135 06:44 09.03.2021
1703 Clouds -3 1026 78 10000 0.45 135 05:48 09.03.2021
1704 Clouds -3 1027 75 10000 4.32 181 00:59 09.03.2021
1705 Clouds -3 1027 75 10000 4.14 179 23:56 08.03.2021
1706 Clouds -3 1027 75 10000 4.14 179 23:37 08.03.2021
1707 Clouds -3 1027 74 10000 3.81 178 23:18 08.03.2021
1708 Clouds -3 1028 74 10000 3.81 178 22:40 08.03.2021
1709 Clouds -3 1028 73 10000 3.58 174 22:21 08.03.2021
1710 Clouds -2 1028 72 10000 3.58 174 21:48 08.03.2021
1711 Clouds -2 1028 71 10000 3.23 164 21:29 08.03.2021
1712 Clouds -2 1028 68 10000 3.23 164 20:40 08.03.2021
1713 Clouds -1 1028 67 10000 2.48 143 20:21 08.03.2021
1714 Clouds -1 1028 66 10000 2.48 143 19:45 08.03.2021
1715 Clouds -1 1028 63 10000 1.54 108 19:24 08.03.2021
1716 Clouds 1 1028 58 10000 0.63 125 18:38 08.03.2021
1717 Clouds 2 1028 56 10000 0.53 15 18:19 08.03.2021
1718 Clouds 1 1023 83 10000 0.53 15 17:44 08.03.2021
1719 Clouds 4 1028 50 10000 1.04 2 17:23 08.03.2021
1720 Clouds 3 1027 50 10000 1.04 2 16:43 08.03.2021
1721 Clouds 4 1028 50 10000 0.45 45 16:24 08.03.2021
1722 Clouds 4 1028 51 10000 1.57 2 15:45 08.03.2021
1723 Clouds 4 1028 48 10000 0.45 45 15:23 08.03.2021
1724 Clear 4 1028 50 10000 2.29 3 14:22 08.03.2021
1725 Clear 4 1027 51 10000 0.89 45 13:58 08.03.2021
1726 Clouds 4 1028 59 10000 2.98 358 13:24 08.03.2021
1727 Clouds 4 1028 62 10000 2.98 358 12:59 08.03.2021
1728 Clouds 4 1028 67 10000 2.98 358 12:40 08.03.2021
1729 Clouds 4 1028 67 10000 3.25 11 12:20 08.03.2021
1730 Clouds 3 1028 71 10000 0.45 22 11:35 08.03.2021
1731 Clouds 3 1027 73 10000 3.57 15 10:58 08.03.2021
1732 Clouds 2 1027 74 10000 0.89 45 10:40 08.03.2021
1733 Clouds 2 1027 76 10000 3.9 15 10:19 08.03.2021
1734 Clouds 2 1027 80 10000 0.45 22 09:30 08.03.2021
1735 Clouds 1 1027 85 10000 4.17 8 08:54 08.03.2021
1736 Clouds -1 1026 84 10000 4.44 5 08:27 08.03.2021
1737 Clear -2 1025 83 10000 4.14 3 07:23 08.03.2021
1738 Clouds -2 1025 82 10000 4.22 9 06:38 08.03.2021
1739 Clouds -1 1024 81 10000 5.44 2 02:59 08.03.2021
1740 Clouds 1 1024 78 10000 0.45 45 00:43 08.03.2021
1741 Clouds 1 1023 84 10000 0.45 45 23:54 07.03.2021
1742 Clouds 1 1023 84 10000 0.45 45 23:28 07.03.2021
1743 Clouds 1 1023 82 10000 6.67 21 22:59 07.03.2021
1744 Clouds 1 1023 83 10000 6.67 21 22:41 07.03.2021
1745 Clouds 1 1022 83 10000 0.45 22 22:20 07.03.2021
1746 Clouds 1 1022 84 10000 6.89 19 21:42 07.03.2021
1747 Clouds 1 1022 84 10000 8.43 25 21:24 07.03.2021
1748 Clouds 1 1022 85 10000 8.43 25 20:46 07.03.2021
1749 Clouds 1 1021 85 10000 8.7 356 20:28 07.03.2021
1750 Clouds 1 1021 85 10000 8.7 356 19:56 07.03.2021
1751 Clouds 2 1021 86 10000 8.7 356 19:38 07.03.2021
1752 Clouds 2 1021 87 10000 7.21 353 19:19 07.03.2021
1753 Clouds 3 1020 88 10000 7.21 353 18:41 07.03.2021
1754 Clouds 3 1020 89 10000 4.97 2 18:19 07.03.2021
1755 Clouds 4 1020 89 10000 1.79 315 17:40 07.03.2021
1756 Clouds 4 1020 90 10000 0.89 292 17:20 07.03.2021
1757 Clouds 4 1020 90 10000 1.79 315 16:58 07.03.2021
1758 Clouds 4 1020 91 10000 0.89 292 16:38 07.03.2021
1759 Clouds 4 1020 91 10000 1.79 315 16:19 07.03.2021
1760 Clouds 3 1020 89 10000 7.31 306 15:42 07.03.2021
1761 Clouds 4 1020 89 10000 0.45 292 15:22 07.03.2021
1762 Clouds 4 1020 86 10000 1.79 292 14:30 07.03.2021
1763 Clouds 4 1020 85 10000 1.79 315 13:59 07.03.2021
1764 Clouds 4 1021 85 10000 1.34 292 13:40 07.03.2021
1765 Clouds 4 1021 85 10000 2.68 315 13:21 07.03.2021
1766 Clouds 4 1021 84 10000 1.79 270 12:45 07.03.2021
1767 Clouds 4 1021 83 10000 2.68 315 12:27 07.03.2021
1768 Clouds 4 1022 78 10000 1.34 315 11:41 07.03.2021
1769 Clouds 4 1022 79 10000 2.24 315 11:21 07.03.2021
1770 Clouds 4 1022 79 10000 1.34 292 10:43 07.03.2021
1771 Clouds 4 1022 78 10000 1.79 270 10:25 07.03.2021
1772 Clouds 3 1022 78 10000 0.89 292 09:43 07.03.2021
1773 Clouds 3 1023 78 10000 1.34 337 09:23 07.03.2021
1774 Clouds 3 1023 78 10000 0.89 315 08:45 07.03.2021
1775 Clouds 3 1023 78 10000 1.34 292 08:24 07.03.2021
1776 Clouds 3 1023 78 10000 1.79 292 07:34 07.03.2021
1777 Clouds 3 1026 77 10000 0.89 292 02:42 07.03.2021
1778 Clouds 3 1027 75 10000 0.89 292 00:51 07.03.2021
1779 Clouds 3 1028 76 10000 1.34 292 23:50 06.03.2021
1780 Clouds 3 1028 76 10000 0.89 292 23:30 06.03.2021
1781 Clouds 3 1029 75 10000 2.68 337 22:48 06.03.2021
1782 Clouds 3 1029 75 10000 1.34 270 22:29 06.03.2021
1783 Clouds 3 1029 75 10000 1.79 292 21:59 06.03.2021
1784 Clouds 3 1029 73 10000 2.24 315 21:24 06.03.2021
1785 Clouds 4 1029 76 10000 2.68 292 20:54 06.03.2021
1786 Clouds 4 1029 76 10000 2.68 315 20:34 06.03.2021
1787 Clouds 4 1030 76 10000 0.89 315 19:50 06.03.2021
1788 Clouds 4 1030 76 10000 2.24 292 19:23 06.03.2021
1789 Clouds 4 1030 76 10000 2.24 292 19:23 06.03.2021
1790 Clouds 4 1030 76 10000 1.79 315 18:57 06.03.2021
1791 Clouds 4 1030 76 10000 2.24 0 18:38 06.03.2021
1792 Clouds 4 1031 75 10000 0.89 270 18:18 06.03.2021
1793 Clouds 4 1031 74 10000 0.89 315 17:45 06.03.2021
1794 Clouds 5 1031 72 10000 1.34 315 17:25 06.03.2021
1795 Clouds 5 1031 75 10000 1.34 292 16:52 06.03.2021
1796 Clouds 5 1031 76 10000 2.68 315 16:30 06.03.2021
1797 Clouds 5 1031 77 10000 1.34 315 15:55 06.03.2021
1798 Clouds 5 1031 79 10000 1.34 337 15:34 06.03.2021
1799 Clouds 5 1031 79 10000 0.89 292 14:55 06.03.2021
1800 Clouds 5 1031 79 10000 0.89 292 14:31 06.03.2021
1801 Clouds 4 1032 85 10000 1.34 202 13:46 06.03.2021
1802 Clouds 4 1032 85 10000 0.45 315 13:24 06.03.2021
1803 Clouds 3 1032 85 10000 0.89 292 12:49 06.03.2021
1804 Clouds 3 1033 85 10000 1.79 292 12:20 06.03.2021
1805 Clouds 3 1033 84 10000 0.89 225 11:59 06.03.2021
1806 Clouds 3 1032 84 10000 0.89 292 11:27 06.03.2021
1807 Clouds 3 1032 83 10000 0.45 292 10:59 06.03.2021
1808 Clouds 3 1032 83 10000 0.89 270 10:41 06.03.2021
1809 Clouds 1 1032 87 10000 0.45 292 09:56 06.03.2021
1810 Clouds 1 1032 87 10000 8.74 268 09:24 06.03.2021
1811 Clouds 0 1032 87 10000 0.89 247 08:54 06.03.2021
1812 Clouds 0 1032 86 10000 0.45 247 08:30 06.03.2021
1813 Clouds 0 1032 86 10000 0.45 247 08:30 06.03.2021
1814 Clear -1 1032 86 10000 0.45 247 07:43 06.03.2021
1815 Clear -2 1032 84 10000 8.06 263 07:21 06.03.2021
1816 Clear -2 1033 83 10000 7.75 264 05:50 06.03.2021
1817 Clear -2 1033 83 10000 0.45 270 03:47 06.03.2021
1818 Clear -2 1034 82 10000 3.87 269 01:32 06.03.2021
1819 Clear -2 1034 80 10000 4.38 293 00:46 06.03.2021
1820 Clear -1 1034 80 10000 4.32 302 23:48 05.03.2021
1821 Clear -1 1034 79 10000 4.5 314 23:19 05.03.2021
1822 Clear -1 1033 78 10000 4.5 314 22:43 05.03.2021
1823 Clear 0 1033 77 10000 4.63 326 22:21 05.03.2021
1824 Clear 1 1033 77 10000 0.45 315 21:51 05.03.2021
1825 Clear 1 1033 76 10000 5.19 335 21:29 05.03.2021
1826 Clear 1 1032 76 10000 0.45 315 20:50 05.03.2021
1827 Clear 1 1032 73 10000 0.45 292 20:25 05.03.2021
1828 Clear 2 1032 71 10000 0.45 315 19:49 05.03.2021
1829 Clear 2 1032 73 10000 0.89 315 19:26 05.03.2021
1830 Clear 2 1032 73 10000 0.89 315 19:25 05.03.2021
1831 Clear 3 1031 68 10000 5.76 335 18:55 05.03.2021
1832 Clear 3 1031 66 10000 5.64 335 18:36 05.03.2021
1833 Clear 4 1031 64 10000 5.33 333 18:18 05.03.2021
1834 Clear 3 1027 78 10000 5.33 333 17:33 05.03.2021
1835 Clear 3 1026 77 10000 5.63 317 16:45 05.03.2021
1836 Clear 7 1030 56 10000 0.89 0 16:24 05.03.2021
1837 Clear 7 1030 55 10000 0.45 0 15:56 05.03.2021
1838 Clear 7 1030 55 10000 5.3 294 15:29 05.03.2021
1839 Clear 7 1030 60 10000 1.34 0 14:58 05.03.2021
1840 Clear 7 1030 62 10000 0.89 0 14:38 05.03.2021
1841 Clear 6 1030 60 10000 5.47 304 13:46 05.03.2021
1842 Clear 6 1030 62 10000 5.94 317 13:22 05.03.2021
1843 Clear 6 1030 66 10000 0.45 0 12:48 05.03.2021
1844 Clear 5 1029 72 10000 0.45 315 11:54 05.03.2021
1845 Clear 5 1029 75 10000 0.45 337 11:36 05.03.2021
1846 Clear 5 1029 77 10000 7.12 327 11:18 05.03.2021
1847 Clear 5 1029 77 10000 7.12 327 11:18 05.03.2021
1848 Clear 4 1029 82 10000 7.12 327 10:40 05.03.2021
1849 Clear 3 1029 83 10000 0.89 337 10:21 05.03.2021
1850 Clear 3 1028 84 10000 7.2 328 09:47 05.03.2021
1851 Clear 2 1028 85 10000 6.85 334 09:26 05.03.2021
1852 Clear 1 1028 85 10000 6.85 334 08:41 05.03.2021
1853 Clear 1 1028 86 10000 6.56 339 08:22 05.03.2021
1854 Clear 0 1027 87 10000 6.56 339 07:43 05.03.2021
1855 Clear 0 1027 87 10000 5.88 347 06:56 05.03.2021
1856 Clear 0 1027 87 10000 6.11 345 06:31 05.03.2021
1857 Clear 0 1024 88 10000 5.08 19 01:52 05.03.2021
1858 Clouds 1 1024 88 10000 4.56 14 00:34 05.03.2021
1859 Clouds 2 1024 89 10000 4.17 6 23:36 04.03.2021
1860 Clouds 2 1023 88 10000 4.1 355 22:38 04.03.2021
1861 Clouds 2 1023 88 10000 4.15 345 22:19 04.03.2021
1862 Clouds 2 1023 88 10000 4.15 345 21:42 04.03.2021
1863 Clouds 2 1023 88 10000 3.93 352 21:23 04.03.2021
1864 Clouds 2 1022 88 10000 3.93 352 20:41 04.03.2021
1865 Clouds 2 1022 88 10000 2.76 2 20:21 04.03.2021
1866 Clouds 2 1022 88 10000 0.45 45 19:54 04.03.2021
1867 Clouds 2 1022 89 10000 2.76 2 19:31 04.03.2021
1868 Clouds 2 1022 89 10000 2.73 39 18:59 04.03.2021
1869 Clouds 2 1022 90 10000 0.45 45 18:38 04.03.2021
1870 Clouds 3 1021 90 10000 1.79 45 18:19 04.03.2021
1871 Clouds 3 1021 89 10000 4.43 71 17:42 04.03.2021
1872 Clouds 3 1021 88 5520 7.79 64 17:20 04.03.2021
1873 Clouds 3 1021 88 5520 7.79 64 16:44 04.03.2021
1874 Clouds 3 1021 88 1762 0.45 45 16:24 04.03.2021
1875 Clouds 3 1021 87 1762 6.97 37 15:49 04.03.2021
1876 Clouds 3 1021 87 1762 6.97 37 15:31 04.03.2021
1877 Clouds 3 1020 85 10000 0.45 45 14:46 04.03.2021
1878 Clouds 4 1020 84 10000 4.94 9 14:25 04.03.2021
1879 Clouds 4 1020 84 10000 4.94 9 13:46 04.03.2021
1880 Clouds 4 1020 85 10000 3.49 2 13:25 04.03.2021
1881 Clouds 4 1020 85 10000 4.44 1 12:49 04.03.2021
1882 Clouds 4 1020 85 10000 4.44 1 12:31 04.03.2021
1883 Clouds 4 1020 85 10000 0.45 337 11:43 04.03.2021
1884 Clouds 4 1020 85 10000 3.55 324 11:23 04.03.2021
1885 Clouds 4 1020 86 10000 3.55 324 10:47 04.03.2021
1886 Clouds 4 1020 85 10000 0.89 315 10:26 04.03.2021
1887 Clouds 3 1020 86 10000 4.06 292 09:39 04.03.2021
1888 Clouds 3 1020 86 10000 1.34 292 08:59 04.03.2021
1889 Clouds 3 1020 86 10000 0.89 315 08:35 04.03.2021
1890 Clouds 3 1021 87 10000 0.89 315 07:53 04.03.2021
1891 Clouds 3 1021 87 10000 1.34 315 07:28 04.03.2021
1892 Clouds 3 1021 88 10000 0.89 292 06:24 04.03.2021
1893 Clear 3 1022 92 10000 2.68 315 03:25 04.03.2021
1894 Clear 3 1022 91 10000 8.06 299 01:40 04.03.2021
1895 Clouds 5 1022 89 10000 0.89 292 22:44 03.03.2021
1896 Clouds 5 1023 88 10000 6.11 275 22:26 03.03.2021
1897 Clouds 5 1023 87 10000 0.45 292 21:44 03.03.2021
1898 Clouds 4 1023 85 10000 6.03 285 21:24 03.03.2021
1899 Clouds 4 1023 85 10000 6.03 285 20:59 03.03.2021
1900 Clouds 4 1023 85 10000 6.03 285 20:41 03.03.2021
1901 Clear 4 1023 84 10000 5.85 280 19:59 03.03.2021
1902 Clear 5 1024 84 10000 0.45 22 19:40 03.03.2021
1903 Clear 6 1024 81 10000 5.43 269 19:22 03.03.2021
1904 Clear 6 1024 81 10000 5.83 268 18:48 03.03.2021
1905 Clear 7 1024 80 10000 0.45 45 18:26 03.03.2021
1906 Clear 7 1024 79 10000 5.87 264 17:54 03.03.2021
1907 Clear 8 1025 79 10000 5.79 259 17:19 03.03.2021
1908 Clear 8 1025 78 10000 5.79 259 16:44 03.03.2021
1909 Clear 7 1026 77 10000 5.16 265 16:24 03.03.2021
1910 Clear 9 1026 71 10000 5.16 265 15:45 03.03.2021
1911 Clear 5 1023 80 10000 3.75 274 15:27 03.03.2021
1912 Clear 5 1023 80 10000 3.75 274 14:31 03.03.2021
1913 Clear 5 1024 79 10000 2.48 266 13:59 03.03.2021
1914 Clear 9 1030 88 10000 0.45 247 13:37 03.03.2021
1915 Clear 9 1030 88 10000 0.45 247 13:18 03.03.2021
1916 Clear 9 1030 88 10000 0.45 247 12:40 03.03.2021
1917 Clear 9 1030 88 10000 0.45 247 12:22 03.03.2021
1918 Clear 8 1030 90 10000 2.91 241 11:43 03.03.2021
1919 Clear 7 1031 91 10000 2.8 230 11:21 03.03.2021
1920 Clear 5 1031 92 10000 2.8 230 10:43 03.03.2021
1921 Clear 3 1032 92 10000 3.06 213 10:20 03.03.2021
1922 Clear 2 1032 92 10000 3.06 213 09:40 03.03.2021
1923 Clear 3 1028 82 10000 3.47 202 08:49 03.03.2021
1924 Clear 1 1032 92 10000 3.26 192 08:23 03.03.2021
1925 Clear 1 1033 92 10000 3.26 192 07:52 03.03.2021
1926 Clear 1 1033 92 10000 2.82 190 07:20 03.03.2021
1927 Clear 1 1033 92 10000 2.79 193 06:19 03.03.2021
1928 Clear 0 1034 92 10000 2.79 193 05:31 03.03.2021
1929 Clear 1 1034 91 10000 3.46 192 04:36 03.03.2021
1930 Clear 2 1035 91 10000 3.1 185 03:52 03.03.2021
1931 Clear 3 1037 92 10000 1.95 193 00:19 03.03.2021
1932 Clear 3 1037 92 10000 1.95 193 23:32 02.03.2021
1933 Clear 3 1037 91 10000 1.31 200 22:50 02.03.2021
1934 Clear 3 1037 91 10000 0.87 227 22:21 02.03.2021
1935 Clear 3 1037 92 10000 0.87 227 21:51 02.03.2021
1936 Clear 2 1037 91 10000 0.87 227 21:33 02.03.2021
1937 Clear 3 1037 91 10000 0.68 256 20:56 02.03.2021
1938 Clear 3 1037 91 10000 0.68 256 20:38 02.03.2021
1939 Clear 3 1037 91 10000 0.98 263 20:19 02.03.2021
1940 Clear 3 1037 91 10000 0.98 263 19:46 02.03.2021
1941 Clear 3 1037 91 10000 1.53 262 19:28 02.03.2021
1942 Clear 3 1037 91 10000 1.73 264 18:42 02.03.2021
1943 Clear 3 1037 90 10000 1.89 273 18:21 02.03.2021
1944 Clear 3 1037 90 10000 1.89 273 17:57 02.03.2021
1945 Clear 4 1033 74 10000 1.89 273 17:39 02.03.2021
1946 Clear 3 1037 89 10000 2.07 280 17:19 02.03.2021
1947 Clear 4 1037 89 10000 2.07 280 16:44 02.03.2021
1948 Clear 6 1038 86 10000 0.45 22 15:54 02.03.2021
1949 Clear 8 1038 86 10000 2.41 291 15:27 02.03.2021
1950 Clear 7 1038 86 10000 2.41 291 14:49 02.03.2021
1951 Clear 7 1038 89 10000 2.72 295 14:19 02.03.2021
1952 Clear 6 1038 91 10000 0.45 292 13:44 02.03.2021
1953 Clear 6 1038 91 10000 0.45 292 13:24 02.03.2021
1954 Clear 5 1039 92 10000 3.11 286 12:47 02.03.2021
1955 Clear 4 1039 92 10000 0.45 315 12:25 02.03.2021
1956 Clear 4 1039 93 10000 3.51 288 11:45 02.03.2021
1957 Clear 4 1039 93 10000 3.95 291 11:23 02.03.2021
1958 Clear 3 1039 94 10000 3.95 291 10:53 02.03.2021
1959 Clear 3 1039 94 10000 4.03 292 10:29 02.03.2021
1960 Clear 2 1039 94 10000 4.03 292 09:43 02.03.2021
1961 Clear 2 1039 94 10000 0.89 315 09:24 02.03.2021
1962 Clear 1 1039 93 10000 0.45 292 08:53 02.03.2021
1963 Clear 1 1038 93 10000 0.45 292 08:33 02.03.2021
1964 Clear 1 1038 93 10000 4.51 297 07:46 02.03.2021
1965 Clear 1 1038 93 10000 5.14 296 06:37 02.03.2021
1966 Clear 2 1038 94 10000 5.32 290 05:52 02.03.2021
1967 Clear 2 1038 94 10000 5.32 290 05:32 02.03.2021
1968 Clear 2 1038 93 10000 5.2 293 04:37 02.03.2021
1969 Clear 2 1039 92 10000 4.87 281 01:43 02.03.2021
1970 Clouds 2 1039 92 10000 5.11 272 01:21 02.03.2021
1971 Clear 2 1039 92 10000 4.97 277 01:21 02.03.2021
1972 Clouds 3 1039 92 10000 5.34 264 23:37 01.03.2021
1973 Clouds 3 1039 92 10000 5.21 263 23:19 01.03.2021
1974 Clouds 3 1038 92 10000 0.45 247 22:38 01.03.2021
1975 Clouds 3 1039 92 10000 0.45 292 22:19 01.03.2021
1976 Clouds 3 1039 91 10000 1.34 337 21:41 01.03.2021
1977 Clouds 3 1039 91 10000 4.47 273 21:23 01.03.2021
1978 Clouds 3 1039 90 10000 0.45 292 20:43 01.03.2021
1979 Clear 3 1038 90 10000 0.45 292 20:21 01.03.2021
1980 Clear 3 1038 89 10000 0.89 315 19:43 01.03.2021
1981 Clear 3 1038 85 10000 5.18 282 19:24 01.03.2021
1982 Clear 4 1038 85 10000 5.31 279 18:43 01.03.2021
1983 Clear 4 1038 84 10000 5.72 272 18:23 01.03.2021
1984 Clear 6 1038 81 10000 0.45 315 17:47 01.03.2021
1985 Clear 7 1038 82 10000 0.89 315 17:22 01.03.2021
1986 Clear 7 1038 82 10000 1.34 315 16:47 01.03.2021
1987 Clear 7 1038 84 10000 1.34 292 16:27 01.03.2021
1988 Clear 7 1038 85 10000 6.11 263 15:49 01.03.2021
1989 Clear 7 1039 85 10000 0.89 315 15:24 01.03.2021
1990 Clear 7 1039 85 10000 5.91 261 14:58 01.03.2021
1991 Clear 4 1034 82 10000 5.91 261 14:39 01.03.2021
1992 Clear 4 1034 83 10000 5.44 259 13:57 01.03.2021
1993 Clear 7 1040 85 10000 0.45 270 13:37 01.03.2021
1994 Clear 7 1040 85 10000 0.45 270 13:19 01.03.2021
1995 Clear 7 1040 85 10000 0.45 270 12:42 01.03.2021
1996 Clear 7 1040 85 10000 0.45 270 12:24 01.03.2021
1997 Clear 6 1040 86 10000 0.89 247 11:49 01.03.2021
1998 Clear 6 1040 87 10000 0.45 270 11:26 01.03.2021
1999 Clear 6 1040 89 10000 4.59 276 10:42 01.03.2021
2000 Clear 5 1040 90 10000 0.45 270 10:22 01.03.2021
2001 Clear 5 1040 91 10000 0.89 292 09:50 01.03.2021
2002 Clear 5 1040 91 10000 0.45 292 09:31 01.03.2021
2003 Clear 4 1040 92 10000 4.14 273 08:56 01.03.2021
2004 Clear 4 1040 92 10000 0.45 292 08:32 01.03.2021
2005 Clear 4 1040 90 10000 3.92 275 07:32 01.03.2021
2006 Clear 4 1040 90 10000 3.3 284 06:25 01.03.2021
2007 Clear 4 1039 88 10000 3.61 294 02:40 01.03.2021
2008 Clear 5 1039 86 10000 4.05 288 23:49 28.02.2021
2009 Clear 4 1039 86 10000 3.86 286 23:20 28.02.2021
2010 Clear 4 1039 86 10000 3.86 286 22:42 28.02.2021
2011 Clear 4 1039 86 10000 3.22 290 22:20 28.02.2021
2012 Clear 4 1039 86 10000 3.22 290 21:46 28.02.2021
2013 Clear 4 1039 86 10000 0.45 292 21:23 28.02.2021
2014 Clear 4 1039 86 10000 0.45 315 20:46 28.02.2021
2015 Clear 4 1039 86 10000 0.89 315 20:27 28.02.2021
2016 Clear 4 1038 86 10000 0.45 0 19:47 28.02.2021
2017 Clear 4 1038 86 10000 4.73 304 19:27 28.02.2021
2018 Clear 4 1038 86 10000 4.39 297 18:47 28.02.2021
2019 Clear 5 1038 86 10000 0.45 315 18:28 28.02.2021
2020 Clear 4 1038 86 10000 5.46 289 17:58 28.02.2021
2021 Clear 4 1038 86 10000 5.46 289 17:38 28.02.2021
2022 Clear 5 1038 86 10000 0.45 337 17:20 28.02.2021
2023 Clear 6 1038 86 10000 5.16 288 16:48 28.02.2021
2024 Clear 6 1038 86 10000 5.15 289 16:29 28.02.2021
2025 Clear 6 1039 85 10000 5.15 289 15:52 28.02.2021
2026 Clear 6 1039 85 10000 5.15 289 15:52 28.02.2021
2027 Clear 6 1039 84 10000 5.47 288 15:28 28.02.2021
2028 Clear 7 1039 85 10000 5.47 288 14:58 28.02.2021
2029 Clear 7 1039 84 10000 0.45 0 14:35 28.02.2021
2030 Clouds 7 1039 85 10000 0.89 292 13:59 28.02.2021
2031 Clouds 7 1039 87 10000 2.24 315 13:38 28.02.2021
2032 Clouds 7 1039 87 10000 0.89 315 13:19 28.02.2021
2033 Clouds 7 1039 88 10000 5.99 278 12:53 28.02.2021
2034 Clouds 6 1039 88 10000 1.79 292 12:35 28.02.2021
2035 Clouds 6 1039 89 10000 1.34 315 11:58 28.02.2021
2036 Clouds 6 1039 91 10000 1.34 315 11:40 28.02.2021
2037 Clouds 6 1039 91 10000 0.45 292 11:21 28.02.2021
2038 Clouds 5 1039 92 10000 5.82 296 10:43 28.02.2021
2039 Clouds 5 1039 92 9442 0.89 315 10:25 28.02.2021
2040 Clouds 4 1039 93 9442 0.89 337 09:40 28.02.2021
2041 Clouds 4 1039 93 746 0.45 315 09:21 28.02.2021
2042 Clouds 4 1039 93 746 0.45 22 08:45 28.02.2021
2043 Clouds 4 1039 93 224 0.89 315 08:26 28.02.2021
2044 Clear 4 1039 93 10000 1.34 315 07:46 28.02.2021
2045 Clear 4 1039 93 10000 1.79 315 07:28 28.02.2021
2046 Clear 3 1039 93 10000 0.89 22 06:25 28.02.2021
2047 Clear 3 1039 92 10000 0.89 315 05:23 28.02.2021
2048 Clear 4 1039 92 10000 6.55 279 03:24 28.02.2021
2049 Clear 4 1039 91 10000 0.89 247 01:36 28.02.2021
2050 Clouds 4 1039 91 10000 6.56 273 00:43 28.02.2021
2051 Clouds 3 1039 90 10000 6.45 273 00:25 28.02.2021
2052 Clouds 3 1040 90 10000 0.45 225 23:44 27.02.2021
2053 Clouds 3 1040 90 10000 6.41 271 23:19 27.02.2021
2054 Clouds 3 1040 90 10000 6.41 271 22:44 27.02.2021
2055 Clouds 3 1040 90 10000 0.45 225 22:19 27.02.2021
2056 Clouds 3 1040 89 10000 6.27 269 21:42 27.02.2021
2057 Clouds 3 1040 89 10000 0.89 247 21:24 27.02.2021
2058 Clouds 3 1040 89 10000 0.45 270 20:49 27.02.2021
2059 Clouds 3 1040 88 10000 0.45 292 20:27 27.02.2021
2060 Clouds 3 1040 86 10000 5.65 272 19:46 27.02.2021
2061 Clear 3 1040 85 10000 0.45 270 19:27 27.02.2021
2062 Clear 4 1040 85 10000 6.19 273 18:46 27.02.2021
2063 Clear 5 1041 82 10000 6.17 269 18:22 27.02.2021
2064 Clear 6 1041 79 10000 6.17 269 17:58 27.02.2021
2065 Clear 8 1041 76 10000 0.45 315 17:38 27.02.2021
2066 Clear 8 1041 77 10000 6.25 270 17:19 27.02.2021
2067 Clear 8 1040 76 10000 0.45 292 16:49 27.02.2021
2068 Clear 9 1040 75 10000 5.83 273 16:27 27.02.2021
2069 Clear 9 1040 74 10000 0.45 315 15:44 27.02.2021
2070 Clear 9 1040 76 10000 1.34 315 15:19 27.02.2021
2071 Clear 8 1040 78 10000 4.98 281 14:41 27.02.2021
2072 Clear 8 1040 77 10000 4.45 291 14:21 27.02.2021
2073 Clear 7 1040 80 10000 0.45 337 13:46 27.02.2021
2074 Clear 6 1040 82 10000 0.45 337 13:21 27.02.2021
2075 Clear 6 1040 82 10000 4.83 297 12:45 27.02.2021
2076 Clear 6 1040 82 10000 1.79 22 12:25 27.02.2021
2077 Clear 7 1040 84 10000 4.95 304 11:52 27.02.2021
2078 Clear 6 1040 85 10000 0.45 315 11:31 27.02.2021
2079 Clear 5 1040 87 10000 0.45 0 10:53 27.02.2021
2080 Clear 5 1039 88 10000 0.45 337 10:34 27.02.2021
2081 Clear 4 1039 89 10000 1.79 315 09:54 27.02.2021
2082 Clear 4 1039 89 10000 1.79 337 09:33 27.02.2021
2083 Clear 4 1038 90 10000 5.48 312 08:44 27.02.2021
2084 Clear 4 1038 90 10000 0.45 315 08:24 27.02.2021
2085 Clear 4 1037 91 10000 0.89 292 07:58 27.02.2021
2086 Clear 4 1037 91 10000 1.79 315 07:25 27.02.2021
2087 Clear 4 1034 90 10000 1.34 337 02:31 27.02.2021
2088 Clouds 4 1034 89 10000 1.34 337 00:32 27.02.2021
2089 Clouds 4 1033 88 10000 0.45 315 23:43 26.02.2021
2090 Clouds 5 1033 87 10000 0.89 315 23:23 26.02.2021
2091 Clouds 6 1033 84 10000 2.24 292 22:40 26.02.2021
2092 Clouds 6 1033 83 10000 0.89 315 22:21 26.02.2021
2093 Clouds 6 1032 83 10000 2.24 315 21:36 26.02.2021
2094 Clouds 7 1032 82 10000 1.34 315 20:57 26.02.2021
2095 Clouds 7 1032 82 10000 1.79 292 20:38 26.02.2021
2096 Clouds 7 1032 82 10000 0.45 225 20:19 26.02.2021
2097 Clouds 7 1032 82 10000 0.89 292 19:27 26.02.2021
2098 Clouds 7 1031 83 10000 0.89 292 18:57 26.02.2021
2099 Clouds 7 1031 83 10000 0.45 292 18:38 26.02.2021
2100 Clear 7 1031 83 10000 0.89 292 18:19 26.02.2021
2101 Clear 7 1031 81 10000 1.34 315 17:38 26.02.2021
2102 Clear 7 1030 81 10000 1.79 315 17:20 26.02.2021
2103 Clear 8 1030 80 10000 1.34 292 16:49 26.02.2021
2104 Clear 8 1030 80 10000 2.68 270 16:30 26.02.2021
2105 Clear 8 1030 80 10000 0.89 45 15:51 26.02.2021
2106 Clear 8 1030 80 10000 2.24 292 15:30 26.02.2021
2107 Clear 8 1030 79 10000 2.24 315 14:59 26.02.2021
2108 Clear 8 1030 81 10000 0.89 270 14:41 26.02.2021
2109 Clear 7 1030 81 10000 2.24 315 14:22 26.02.2021
2110 Clear 8 1031 78 10000 1.34 292 13:39 26.02.2021
2111 Clear 8 1031 78 10000 1.34 292 13:20 26.02.2021
2112 Clear 8 1031 80 10000 2.24 292 12:34 26.02.2021
2113 Clear 7 1031 84 10000 1.79 315 11:50 26.02.2021
2114 Clear 7 1031 83 10000 1.79 315 11:32 26.02.2021
2115 Clouds 7 1030 85 10000 1.34 337 10:46 26.02.2021
2116 Clouds 6 1030 87 10000 0.45 337 09:55 26.02.2021
2117 Clouds 6 1030 87 10000 0.89 292 09:31 26.02.2021
2118 Clouds 6 1029 88 10000 0.45 247 08:54 26.02.2021
2119 Clouds 5 1029 88 10000 9.37 268 08:25 26.02.2021
2120 Clouds 5 1029 87 10000 1.34 270 07:49 26.02.2021
2121 Clouds 6 1029 86 10000 0.45 247 06:36 26.02.2021
2122 Clouds 6 1029 84 10000 1.34 270 05:31 26.02.2021
2123 Clouds 7 1029 82 10000 7.34 273 03:47 26.02.2021
2124 Clouds 7 1029 80 10000 7.17 271 02:35 26.02.2021
2125 Clouds 9 1029 85 10000 0.89 337 23:57 25.02.2021
2126 Clouds 9 1029 86 10000 0.89 292 23:28 25.02.2021
2127 Clouds 9 1029 86 10000 1.34 315 22:50 25.02.2021
2128 Clouds 9 1029 86 10000 1.34 315 22:50 25.02.2021
2129 Clouds 9 1029 85 10000 0.89 292 22:27 25.02.2021
2130 Clouds 10 1029 81 10000 8.4 268 21:44 25.02.2021
2131 Clouds 10 1028 83 10000 0.89 337 21:26 25.02.2021
2132 Clouds 9 1028 81 10000 0.45 315 20:41 25.02.2021
2133 Clouds 10 1028 77 10000 9.17 273 20:23 25.02.2021
2134 Clouds 11 1028 75 10000 9.17 273 19:52 25.02.2021
2135 Clouds 6 1023 93 10000 8.91 270 19:22 25.02.2021
2136 Clouds 6 1023 93 10000 8.91 270 18:58 25.02.2021
2137 Clouds 13 1027 78 10000 0.45 292 18:31 25.02.2021
2138 Clouds 6 1023 92 10000 8.83 272 17:50 25.02.2021
2139 Clouds 14 1026 73 10000 8.58 269 17:27 25.02.2021
2140 Clouds 7 1022 87 10000 8.58 269 16:48 25.02.2021
2141 Clouds 8 1022 86 10000 8.46 253 16:25 25.02.2021
2142 Clouds 8 1022 86 10000 8.46 253 15:36 25.02.2021
2143 Clouds 7 1022 92 10000 8.36 252 15:18 25.02.2021
2144 Clouds 7 1022 92 10000 7.81 263 14:28 25.02.2021
2145 Clouds 17 1026 70 10000 0.45 225 13:56 25.02.2021
2146 Clouds 8 1022 88 10000 7.75 258 13:36 25.02.2021
2147 Clear 9 1023 84 10000 6.84 240 13:18 25.02.2021
2148 Clear 8 1023 86 10000 6.59 233 12:23 25.02.2021
2149 Clear 14 1027 79 10000 0.89 225 11:48 25.02.2021
2150 Clear 13 1027 83 10000 1.34 225 11:22 25.02.2021
2151 Clear 12 1027 85 10000 0.45 225 10:47 25.02.2021
2152 Clear 12 1027 86 10000 1.34 225 10:29 25.02.2021
2153 Clear 10 1028 89 10000 0.89 202 09:45 25.02.2021
2154 Clear 9 1028 90 10000 1.34 202 09:19 25.02.2021
2155 Clear 8 1028 90 10000 0.89 202 08:28 25.02.2021
2156 Clear 7 1028 90 10000 0.89 202 07:58 25.02.2021
2157 Clear 7 1028 90 10000 0.89 202 07:38 25.02.2021
2158 Clear 7 1028 89 10000 0.45 180 06:57 25.02.2021
2159 Clear 6 1029 87 10000 0.45 180 04:22 25.02.2021
2160 Clouds 8 1030 86 10000 0.45 202 01:42 25.02.2021
2161 Clouds 8 1030 85 10000 0.45 202 00:46 25.02.2021
2162 Clouds 8 1030 84 10000 0.45 202 23:56 24.02.2021
2163 Clouds 9 1030 84 10000 0.45 225 23:35 24.02.2021
2164 Clouds 9 1031 84 10000 6.65 228 22:47 24.02.2021
2165 Clouds 9 1031 83 10000 6.61 229 22:29 24.02.2021
2166 Clouds 10 1031 83 10000 0.89 202 21:49 24.02.2021
2167 Clouds 11 1031 82 10000 0.45 202 21:25 24.02.2021
2168 Clouds 11 1030 82 10000 0.89 202 20:48 24.02.2021
2169 Clouds 11 1030 81 10000 0.89 225 20:26 24.02.2021
2170 Clouds 11 1030 79 10000 0.89 202 19:40 24.02.2021
2171 Clouds 11 1030 78 10000 0.45 202 19:20 24.02.2021
2172 Clouds 12 1031 77 10000 0.89 202 18:50 24.02.2021
2173 Clouds 12 1030 76 10000 0.45 202 18:30 24.02.2021
2174 Clouds 14 1030 70 10000 0.89 202 17:40 24.02.2021
2175 Clouds 9 1027 79 10000 6.71 241 17:22 24.02.2021
2176 Clouds 9 1027 79 10000 6.71 241 16:48 24.02.2021
2177 Clouds 8 1027 77 10000 7.03 249 16:21 24.02.2021
2178 Clouds 8 1027 77 10000 7.03 249 15:50 24.02.2021
2179 Clouds 8 1027 77 10000 7.03 249 15:31 24.02.2021
2180 Clouds 9 1027 77 10000 7.24 251 14:47 24.02.2021
2181 Clouds 9 1027 79 10000 7.35 245 14:28 24.02.2021
2182 Clouds 9 1027 79 10000 7.35 245 13:43 24.02.2021
2183 Clouds 16 1032 70 10000 1.79 202 13:23 24.02.2021
2184 Clouds 16 1032 72 10000 1.79 202 12:57 24.02.2021
2185 Clouds 9 1028 80 10000 7.64 237 12:35 24.02.2021
2186 Clouds 14 1033 75 10000 0.45 225 11:56 24.02.2021
2187 Clouds 14 1033 77 10000 0.45 225 11:31 24.02.2021
2188 Clouds 13 1033 83 10000 7.88 225 10:43 24.02.2021
2189 Clouds 12 1033 85 10000 0.89 247 10:24 24.02.2021
2190 Clouds 9 1033 88 10000 1.34 225 09:26 24.02.2021
2191 Clouds 9 1033 89 10000 0.89 225 08:50 24.02.2021
2192 Clouds 8 1033 89 10000 0.45 225 08:32 24.02.2021
2193 Clouds 8 1033 88 10000 0.89 202 07:38 24.02.2021
2194 Clouds 8 1033 88 10000 0.45 202 07:18 24.02.2021
2195 Clouds 8 1034 88 10000 0.89 225 05:27 24.02.2021
2196 Clouds 8 1034 86 10000 6.88 227 02:22 24.02.2021
2197 Clouds 9 1034 85 10000 0.45 202 23:39 23.02.2021
2198 Clouds 10 1034 85 10000 0.45 202 22:51 23.02.2021
2199 Clouds 10 1034 85 10000 0.45 225 22:23 23.02.2021
2200 Clouds 10 1035 85 10000 0.45 225 21:49 23.02.2021
2201 Clouds 10 1035 85 10000 0.45 202 21:26 23.02.2021
2202 Clouds 9 1034 85 10000 0.45 202 20:59 23.02.2021
2203 Clouds 9 1034 84 10000 6.37 233 20:39 23.02.2021
2204 Clouds 9 1034 83 10000 5.82 214 20:20 23.02.2021
2205 Clouds 9 1034 83 10000 5.82 214 19:46 23.02.2021
2206 Clouds 9 1034 83 10000 0.45 202 19:26 23.02.2021
2207 Clouds 11 1033 83 10000 0.45 202 18:44 23.02.2021
2208 Clouds 11 1033 83 10000 0.45 202 18:26 23.02.2021
2209 Clouds 11 1033 82 10000 0.45 180 17:53 23.02.2021
2210 Clouds 12 1033 80 10000 0.45 180 17:28 23.02.2021
2211 Clouds 12 1032 80 10000 0.45 180 16:47 23.02.2021
2212 Clouds 13 1033 79 10000 0.45 202 16:24 23.02.2021
2213 Clouds 13 1033 78 10000 0.45 202 15:51 23.02.2021
2214 Clouds 8 1029 89 10000 5.08 224 15:33 23.02.2021
2215 Clouds 7 1028 87 10000 4.33 238 14:57 23.02.2021
2216 Clouds 7 1028 87 10000 4.33 238 14:38 23.02.2021
2217 Clouds 7 1029 85 10000 4.44 246 14:19 23.02.2021
2218 Clouds 13 1033 75 10000 0.45 225 13:38 23.02.2021
2219 Clouds 13 1033 75 10000 0.45 225 13:19 23.02.2021
2220 Clouds 13 1033 75 10000 0.89 225 12:46 23.02.2021
2221 Clouds 13 1033 75 10000 0.89 225 12:19 23.02.2021
2222 Clouds 12 1033 77 10000 0.45 225 11:45 23.02.2021
2223 Clouds 12 1033 77 10000 0.45 225 11:45 23.02.2021
2224 Clear 12 1033 78 10000 0.45 225 11:19 23.02.2021
2225 Clear 10 1033 82 10000 0.89 225 10:40 23.02.2021
2226 Clear 9 1033 83 10000 0.45 225 10:19 23.02.2021
2227 Clear 8 1032 87 10000 0.89 225 09:42 23.02.2021
2228 Clear 7 1033 87 10000 6.38 242 09:21 23.02.2021
2229 Clear 6 1032 87 10000 0.89 225 08:48 23.02.2021
2230 Clear 6 1032 86 10000 0.45 202 08:21 23.02.2021
2231 Clear 5 1031 86 10000 0.45 202 07:48 23.02.2021
2232 Clouds 6 1030 86 10000 0.45 225 05:30 23.02.2021
2233 Clouds 6 1030 86 10000 0.45 225 04:25 23.02.2021
2234 Clear 6 1030 85 10000 0.89 225 02:34 23.02.2021
2235 Clouds 6 1028 84 10000 0.45 202 00:20 23.02.2021
2236 Clouds 6 1028 84 10000 0.45 202 23:46 22.02.2021
2237 Clouds 6 1028 83 10000 0.45 202 23:20 22.02.2021
2238 Clouds 7 1027 84 10000 0.89 202 22:40 22.02.2021
2239 Clouds 7 1027 84 10000 0.89 202 22:20 22.02.2021
2240 Clouds 6 1027 85 10000 0.89 202 21:41 22.02.2021
2241 Clouds 6 1027 85 10000 0.89 202 21:22 22.02.2021
2242 Clouds 6 1027 84 10000 5.92 202 20:51 22.02.2021
2243 Clouds 6 1027 84 10000 0.45 180 20:27 22.02.2021
2244 Clouds 6 1026 84 10000 0.89 157 19:51 22.02.2021
2245 Clouds 6 1026 83 10000 0.45 157 19:31 22.02.2021
2246 Clouds 7 1026 81 10000 0.45 157 18:56 22.02.2021
2247 Clouds 7 1026 81 10000 0.45 180 18:37 22.02.2021
2248 Clouds 8 1026 80 10000 0.45 180 18:18 22.02.2021
2249 Clouds 9 1025 78 10000 0.45 180 17:25 22.02.2021
2250 Clouds 11 1025 77 10000 4.29 187 16:54 22.02.2021
2251 Clouds 12 1025 76 10000 0.45 180 16:32 22.02.2021
2252 Clear 13 1025 73 10000 0.45 180 15:46 22.02.2021
2253 Clear 13 1024 72 10000 0.89 180 15:27 22.02.2021
2254 Clear 13 1024 71 10000 0.89 180 14:47 22.02.2021
2255 Clear 8 1020 74 10000 3.98 184 14:28 22.02.2021
2256 Clear 13 1024 72 10000 0.89 180 13:46 22.02.2021
2257 Clear 11 1024 75 10000 1.34 202 12:58 22.02.2021
2258 Clear 11 1024 76 10000 0.89 202 12:37 22.02.2021
2259 Clear 11 1024 78 10000 0.45 180 12:18 22.02.2021
2260 Clear 9 1024 82 10000 0.45 180 11:41 22.02.2021
2261 Clear 8 1024 83 10000 0.89 202 11:22 22.02.2021
2262 Clear 7 1024 85 10000 0.45 180 10:46 22.02.2021
2263 Clear 6 1024 87 10000 0.89 180 10:26 22.02.2021
2264 Clear 4 1024 90 10000 1.34 180 09:43 22.02.2021
2265 Clear 4 1024 90 10000 0.45 180 09:25 22.02.2021
2266 Clear 3 1024 90 10000 0.45 180 08:51 22.02.2021
2267 Clear 3 1024 90 10000 0.89 180 08:29 22.02.2021
2268 Clear 2 1023 89 10000 0.89 180 07:57 22.02.2021
2269 Clear 2 1023 89 10000 0.89 180 07:26 22.02.2021
2270 Clear 2 1023 89 10000 0.45 180 06:45 22.02.2021
2271 Clear 2 1023 89 10000 0.45 157 05:45 22.02.2021
2272 Clear 3 1022 88 10000 0.45 157 03:29 22.02.2021
2273 Clear 3 1023 88 10000 4.5 171 02:51 22.02.2021
2274 Clear 3 1023 87 10000 0.45 157 00:46 22.02.2021
2275 Clear 3 1023 87 10000 4.45 181 00:23 22.02.2021
2276 Clear 4 1023 86 10000 4.45 181 23:33 21.02.2021
2277 Clear 4 1022 86 10000 4.23 183 22:54 21.02.2021
2278 Clear 4 1022 86 10000 3.83 185 22:24 21.02.2021
2279 Clear 4 1022 86 10000 3.83 185 21:48 21.02.2021
2280 Clear 5 1022 86 10000 3.83 185 21:30 21.02.2021
2281 Clear 6 1022 85 10000 3.76 190 20:47 21.02.2021
2282 Clear 6 1022 84 10000 0.45 157 20:20 21.02.2021
2283 Clear 6 1022 84 10000 0.45 157 19:57 21.02.2021
2284 Clear 6 1022 83 10000 4.38 183 19:36 21.02.2021
2285 Clear 7 1022 83 10000 4.09 171 19:18 21.02.2021
2286 Clear 8 1021 81 10000 0.45 157 18:26 21.02.2021
2287 Clear 9 1021 79 10000 0.45 157 17:47 21.02.2021
2288 Clouds 10 1021 78 10000 0.45 157 17:20 21.02.2021
2289 Clouds 11 1021 77 10000 0.45 157 16:47 21.02.2021
2290 Clouds 12 1021 76 10000 0.89 180 16:26 21.02.2021
2291 Clouds 7 1017 84 10000 2.05 189 15:25 21.02.2021
2292 Clouds 7 1017 84 10000 2.05 189 14:58 21.02.2021
2293 Clouds 7 1017 84 10000 2.05 189 14:39 21.02.2021
2294 Clouds 6 1017 83 10000 2.29 203 13:59 21.02.2021
2295 Clouds 6 1018 84 10000 3.01 209 13:29 21.02.2021
2296 Clouds 11 1021 80 10000 0.45 202 12:50 21.02.2021
2297 Clouds 11 1021 80 10000 0.89 225 12:26 21.02.2021
2298 Clouds 9 1021 82 10000 0.89 180 11:42 21.02.2021
2299 Clouds 8 1021 85 10000 0.89 180 10:52 21.02.2021
2300 Clouds 7 1021 88 10000 0.89 180 10:22 21.02.2021
2301 Clouds 6 1021 89 10000 0.89 180 09:52 21.02.2021
2302 Clouds 5 1021 90 10000 1.34 180 09:26 21.02.2021
2303 Clouds 3 1021 89 10000 0.45 157 08:43 21.02.2021
2304 Clouds 3 1021 89 10000 0.45 157 08:19 21.02.2021
2305 Clouds 3 1020 89 10000 0.89 157 07:30 21.02.2021
2306 Clouds 3 1021 88 10000 0.45 157 06:47 21.02.2021
2307 Clouds 4 1020 89 10000 0.89 157 02:48 21.02.2021
2308 Clouds 4 1020 89 10000 0.89 157 02:29 21.02.2021
2309 Clouds 4 1021 88 10000 0.89 157 00:37 21.02.2021
2310 Clouds 4 1021 88 10000 0.89 157 00:18 21.02.2021
2311 Clouds 5 1021 88 10000 0.89 157 23:18 20.02.2021
2312 Clouds 4 1021 88 10000 0.89 180 22:41 20.02.2021
2313 Clouds 4 1021 88 10000 0.45 180 22:21 20.02.2021
2314 Clouds 4 1021 87 10000 0.45 180 21:41 20.02.2021
2315 Clouds 4 1021 87 10000 0.45 157 21:20 20.02.2021
2316 Clouds 5 1021 87 10000 1.34 157 20:42 20.02.2021
2317 Clouds 5 1021 87 10000 0.89 157 20:21 20.02.2021
2318 Clouds 4 1021 86 10000 0.45 157 19:52 20.02.2021
2319 Clouds 4 1022 86 10000 0.89 157 19:27 20.02.2021
2320 Clouds 5 1021 85 10000 0.89 157 18:41 20.02.2021
2321 Clouds 6 1021 84 10000 0.89 157 18:21 20.02.2021
2322 Clouds 6 1021 83 10000 1.34 157 17:38 20.02.2021
2323 Clouds 8 1022 81 10000 0.89 135 16:56 20.02.2021
2324 Clouds 8 1022 80 10000 0.45 157 16:32 20.02.2021
2325 Clouds 9 1022 80 10000 5.65 171 15:55 20.02.2021
2326 Clouds 9 1022 80 10000 0.45 157 15:36 20.02.2021
2327 Clouds 9 1022 80 10000 0.45 180 14:48 20.02.2021
2328 Clouds 5 1018 85 10000 5.74 175 14:24 20.02.2021
2329 Clouds 8 1022 80 10000 0.89 180 13:48 20.02.2021
2330 Clouds 8 1022 80 10000 0.45 180 13:24 20.02.2021
2331 Clouds 8 1023 82 10000 0.45 157 12:50 20.02.2021
2332 Clouds 8 1022 83 10000 0.89 157 12:32 20.02.2021
2333 Clouds 6 1023 84 10000 0.89 180 11:44 20.02.2021
2334 Clouds 6 1023 84 10000 1.34 180 11:26 20.02.2021
2335 Rain 6 1023 87 10000 0.89 180 10:50 20.02.2021
2336 Clouds 3 1023 90 10000 0.89 157 09:59 20.02.2021
2337 Clouds 3 1023 90 10000 0.89 157 09:40 20.02.2021
2338 Clouds 2 1023 90 10000 0.89 157 08:49 20.02.2021
2339 Clouds 2 1023 91 10000 0.89 157 08:19 20.02.2021
2340 Clouds 1 1023 91 10000 0.45 157 03:41 20.02.2021
2341 Clouds 1 1023 91 10000 0.45 157 02:31 20.02.2021
2342 Clouds 1 1023 91 10000 5.31 181 01:54 20.02.2021
2343 Clouds 1 1024 90 10000 0.45 202 00:49 20.02.2021
2344 Clouds 1 1024 90 10000 0.45 202 00:30 20.02.2021
2345 Clouds 1 1023 89 10000 4.98 207 23:24 19.02.2021
2346 Clouds 1 1023 89 10000 4.98 207 22:43 19.02.2021
2347 Clouds 1 1023 89 10000 4.91 212 22:19 19.02.2021
2348 Clouds 1 1023 89 10000 4.91 212 21:43 19.02.2021
2349 Clouds 1 1023 89 10000 4.77 225 21:21 19.02.2021
2350 Clouds 2 1022 88 10000 4.77 225 20:40 19.02.2021
2351 Clouds 2 1022 88 10000 0.45 225 20:22 19.02.2021
2352 Clouds 2 1022 88 10000 4.68 233 19:44 19.02.2021
2353 Clouds 2 1022 87 10000 0.45 270 19:20 19.02.2021
2354 Clouds 2 1022 87 10000 0.45 270 18:50 19.02.2021
2355 Clouds 3 1022 86 10000 0.45 270 18:26 19.02.2021
2356 Clouds 4 1021 85 10000 5.54 254 17:39 19.02.2021
2357 Clouds 6 1021 86 10000 6.05 256 16:43 19.02.2021
2358 Clouds 6 1021 86 10000 7.03 263 16:22 19.02.2021
2359 Clouds 7 1021 86 10000 7.03 263 15:55 19.02.2021
2360 Clouds 7 1020 87 10000 7.03 263 15:30 19.02.2021
2361 Clouds 7 1020 87 10000 0.45 247 14:52 19.02.2021
2362 Clouds 6 1020 88 10000 0.89 270 14:33 19.02.2021
2363 Clouds 6 1020 88 10000 0.89 315 13:56 19.02.2021
2364 Clouds 6 1019 89 10000 0.45 292 13:36 19.02.2021
2365 Clouds 6 1019 89 10000 0.45 292 13:36 19.02.2021
2366 Clouds 6 1019 88 10000 0.45 270 12:55 19.02.2021
2367 Clouds 6 1018 89 10000 0.45 292 12:36 19.02.2021
2368 Clouds 6 1018 90 10000 9.58 263 12:18 19.02.2021
2369 Clouds 6 1018 91 10000 0.45 292 11:35 19.02.2021
2370 Clouds 5 1018 91 10000 10.18 262 10:55 19.02.2021
2371 Clouds 5 1017 92 10000 10.18 262 10:34 19.02.2021
2372 Clouds 4 1017 92 10000 0.45 270 09:59 19.02.2021
2373 Clouds 4 1017 92 10000 9.88 260 09:29 19.02.2021
2374 Clouds 4 1017 93 10000 9.88 260 08:58 19.02.2021
2375 Clouds 4 1017 93 10000 9.88 260 08:40 19.02.2021
2376 Clouds 4 1016 93 10000 9.71 266 08:21 19.02.2021
2377 Clouds 4 1015 93 10000 9.71 266 07:43 19.02.2021
2378 Clouds 4 1015 93 10000 9.68 266 07:25 19.02.2021
2379 Rain 4 1014 93 10000 0.45 292 06:41 19.02.2021
2380 Rain 3 1013 93 10000 1.34 180 04:42 19.02.2021
2381 Rain 3 1013 93 8723 1.79 157 02:47 19.02.2021
2382 Rain 3 1013 93 10000 1.34 135 01:33 19.02.2021
2383 Rain 3 1014 94 10000 2.68 157 00:35 19.02.2021
2384 Clouds 3 1014 95 10000 2.24 135 23:47 18.02.2021
2385 Clouds 3 1015 95 10000 1.79 135 23:29 18.02.2021
2386 Clouds 3 1015 95 10000 1.79 157 22:38 18.02.2021
2387 Clouds 3 1016 95 10000 2.24 157 22:18 18.02.2021
2388 Clouds 3 1017 95 10000 1.79 135 21:42 18.02.2021
2389 Clouds 3 1016 95 10000 1.34 157 21:24 18.02.2021
2390 Clouds 3 1017 95 10000 1.79 157 20:41 18.02.2021
2391 Clouds 3 1017 95 10000 1.34 135 20:21 18.02.2021
2392 Clouds 3 1017 95 10000 1.79 135 19:46 18.02.2021
2393 Clouds 3 1017 95 10000 2.24 157 19:22 18.02.2021
2394 Clouds 3 1018 95 10000 1.34 135 18:52 18.02.2021
2395 Clouds 3 1018 95 10000 1.79 135 18:27 18.02.2021
2396 Clouds 3 1018 95 10000 1.79 135 17:52 18.02.2021
2397 Clouds 3 1019 94 10000 1.79 135 17:25 18.02.2021
2398 Clouds 3 1019 94 10000 0.89 135 16:52 18.02.2021
2399 Clouds 3 1019 94 10000 0.89 135 16:34 18.02.2021
2400 Clouds 4 1020 93 10000 0.89 135 15:44 18.02.2021
2401 Clouds 4 1020 93 10000 0.89 135 15:24 18.02.2021
2402 Clouds 5 1020 93 10000 1.34 135 14:58 18.02.2021
2403 Clouds 6 1020 93 10000 0.89 135 14:36 18.02.2021
2404 Clouds 5 1021 94 10000 6.34 148 13:58 18.02.2021
2405 Clouds 5 1021 94 10000 6.55 147 13:40 18.02.2021
2406 Clouds 4 1021 95 10000 0.45 135 13:18 18.02.2021
2407 Clouds 3 1021 95 10000 0.45 135 12:42 18.02.2021
2408 Clouds 3 1021 95 10000 0.89 135 12:21 18.02.2021
2409 Clouds 3 1022 95 10000 0.89 135 11:46 18.02.2021
2410 Clouds 3 1022 95 10000 1.34 135 11:25 18.02.2021
2411 Clouds 2 1022 95 10000 0.89 135 10:44 18.02.2021
2412 Clouds 2 1022 95 10000 0.89 135 10:25 18.02.2021
2413 Snow 2 1022 95 10000 1.34 157 09:40 18.02.2021
2414 Snow 2 1022 95 10000 1.34 135 09:21 18.02.2021
2415 Clouds 2 1022 94 10000 0.89 135 08:40 18.02.2021
2416 Rain 2 1022 94 10000 0.89 157 08:21 18.02.2021
2417 Clouds 2 1022 94 10000 0.45 112 07:32 18.02.2021
2418 Clouds 1 1022 94 4095 0.45 135 06:50 18.02.2021
2419 Clouds 2 1022 94 10000 4.62 127 02:33 18.02.2021
2420 Clouds 2 1022 94 10000 1.78 87 23:55 17.02.2021
2421 Clouds 2 1022 94 10000 0.69 340 23:24 17.02.2021
2422 Clouds 3 1022 94 10000 0.69 340 22:52 17.02.2021
2423 Clouds 3 1021 94 10000 0.89 337 22:26 17.02.2021
2424 Clouds 3 1021 94 10000 0.45 315 21:56 17.02.2021
2425 Clouds 3 1021 94 10000 0.89 315 21:22 17.02.2021
2426 Clouds 3 1021 94 10000 0.45 292 20:49 17.02.2021
2427 Clouds 3 1020 94 10000 2.72 319 20:31 17.02.2021
2428 Clouds 3 1020 94 10000 0.45 315 19:51 17.02.2021
2429 Clouds 3 1020 94 10000 0.45 292 19:32 17.02.2021
2430 Clouds 3 1019 94 10000 3.91 317 18:46 17.02.2021
2431 Rain 3 1019 94 7971 0.45 292 18:26 17.02.2021
2432 Clouds 3 1018 94 7971 0.45 292 17:42 17.02.2021
2433 Clouds 3 1018 94 3130 6.3 294 17:20 17.02.2021
2434 Clouds 3 1018 93 3130 0.45 315 16:47 17.02.2021
2435 Clouds 3 1018 93 1025 1.34 292 16:28 17.02.2021
2436 Clouds 3 1017 93 1025 0.89 292 15:45 17.02.2021
2437 Clouds 3 1017 93 521 0.45 270 15:27 17.02.2021
2438 Clouds 3 1016 93 521 7.85 282 14:50 17.02.2021
2439 Clouds 3 1016 93 513 0.45 270 14:29 17.02.2021
2440 Rain 4 1016 93 513 0.45 292 13:52 17.02.2021
2441 Rain 3 1016 93 513 0.45 315 13:33 17.02.2021
2442 Rain 4 1015 92 574 0.89 292 12:57 17.02.2021
2443 Clouds 4 1015 92 822 0.45 270 12:26 17.02.2021
2444 Rain 4 1014 92 822 0.45 270 11:47 17.02.2021
2445 Rain 4 1014 92 1567 0.45 315 11:29 17.02.2021
2446 Rain 4 1014 93 1567 1.34 247 10:56 17.02.2021
2447 Rain 4 1014 93 1567 10.19 266 10:38 17.02.2021
2448 Clouds 3 1014 93 4997 9.92 263 10:19 17.02.2021
2449 Clouds 3 1013 93 4997 0.45 270 09:38 17.02.2021
2450 Clouds 3 1013 93 8558 9.42 264 08:56 17.02.2021
2451 Clouds 3 1013 93 8558 9.42 264 08:36 17.02.2021
2452 Clouds 3 1012 93 352 7.27 248 08:18 17.02.2021
2453 Snow 2 1012 93 203 0.89 225 06:48 17.02.2021
2454 Clouds 1 1012 93 148 1.34 180 03:53 17.02.2021
2455 Rain 1 1013 93 777 0.45 157 02:33 17.02.2021
2456 Clouds 1 1014 93 320 7.14 160 01:37 17.02.2021
2457 Snow 1 1014 93 927 1.34 135 00:28 17.02.2021
2458 Snow 1 1015 93 927 0.89 157 23:49 16.02.2021
2459 Snow 1 1015 93 2407 1.79 135 23:25 16.02.2021
2460 Snow 1 1016 93 2407 0.89 157 22:42 16.02.2021
2461 Snow 1 1016 93 4675 0.89 157 22:22 16.02.2021
2462 Snow 1 1016 92 4675 1.34 157 21:40 16.02.2021
2463 Snow 1 1016 92 5280 1.34 157 21:22 16.02.2021
2464 Snow 1 1016 91 5280 0.89 135 20:58 16.02.2021
2465 Snow 1 1016 91 5280 0.89 135 20:58 16.02.2021
2466 Clouds 1 1017 91 5280 1.34 135 20:38 16.02.2021
2467 Clouds 1 1017 92 10000 1.34 157 20:20 16.02.2021
2468 Clouds 1 1017 89 10000 1.34 135 19:40 16.02.2021
2469 Clouds 1 1018 89 10000 0.89 157 19:21 16.02.2021
2470 Clouds 1 1018 88 10000 0.89 157 18:39 16.02.2021
2471 Clouds 1 1019 88 10000 3.79 154 18:21 16.02.2021
2472 Clouds 1 1019 88 10000 0.45 157 17:49 16.02.2021
2473 Clouds 1 1018 87 4801 0.45 157 17:23 16.02.2021
2474 Clouds 1 1019 86 4801 0.45 135 16:51 16.02.2021
2475 Clouds 2 1019 82 5062 0.89 157 16:27 16.02.2021
2476 Clouds 3 1020 81 5062 0.89 157 15:47 16.02.2021
2477 Clouds 3 1020 79 5462 0.45 157 15:26 16.02.2021
2478 Clouds 1 1016 95 5462 2.84 173 14:50 16.02.2021
2479 Clouds 1 1016 95 5462 2.84 173 14:32 16.02.2021
2480 Clouds 0 1017 96 10000 2.61 187 13:58 16.02.2021
2481 Clouds 0 1017 96 10000 2.61 187 13:34 16.02.2021
2482 Clouds 1 1017 95 10000 2.59 190 12:47 16.02.2021
2483 Clouds 0 1017 96 10000 2.46 207 12:26 16.02.2021
2484 Clouds 0 1017 96 10000 2.46 207 11:50 16.02.2021
2485 Clouds 3 1022 84 10000 0.45 180 11:24 16.02.2021
2486 Clouds 2 1022 85 10000 0.45 180 10:58 16.02.2021
2487 Clouds 2 1022 86 10000 0.89 157 10:39 16.02.2021
2488 Clouds 1 1022 86 10000 0.45 180 10:20 16.02.2021
2489 Clouds 1 1022 87 10000 0.45 180 09:48 16.02.2021
2490 Clouds 0 1022 88 10000 0.45 180 09:26 16.02.2021
2491 Clouds -1 1022 89 10000 3.63 215 08:45 16.02.2021
2492 Clouds -1 1022 89 10000 3.63 215 08:45 16.02.2021
2493 Clouds -2 1023 89 10000 3.99 189 08:22 16.02.2021
2494 Clouds -2 1023 89 10000 0.45 180 07:30 16.02.2021
2495 Clouds -2 1023 89 10000 0.45 157 06:24 16.02.2021
2496 Clouds -2 1025 91 10000 2.24 135 01:52 16.02.2021
2497 Clouds -3 1026 92 506 1.79 157 23:46 15.02.2021
2498 Snow -3 1026 92 207 2.24 157 23:24 15.02.2021
2499 Snow -3 1026 92 207 2.24 135 22:46 15.02.2021
2500 Snow -3 1026 91 177 2.68 135 22:25 15.02.2021
2501 Snow -2 1027 89 177 2.24 135 21:42 15.02.2021
2502 Snow -2 1027 89 286 1.79 135 21:24 15.02.2021
2503 Snow -2 1028 85 286 1.79 157 20:53 15.02.2021
2504 Snow -2 1029 79 286 1.34 157 20:34 15.02.2021
2505 Snow -1 1029 71 806 1.34 180 19:50 15.02.2021
2506 Snow -1 1029 71 1875 1.79 180 19:25 15.02.2021
2507 Snow -1 1029 69 1875 1.79 180 18:51 15.02.2021
2508 Snow -1 1029 69 6346 1.79 157 18:27 15.02.2021
2509 Snow -1 1030 69 6346 1.79 157 17:51 15.02.2021
2510 Snow -1 1030 69 2698 1.79 157 17:28 15.02.2021
2511 Snow -2 1031 69 2698 1.34 157 16:59 15.02.2021
2512 Snow -1 1032 69 2698 1.34 157 16:37 15.02.2021
2513 Snow -1 1032 69 1589 1.79 135 16:18 15.02.2021
2514 Snow -1 1033 69 1589 0.89 157 15:42 15.02.2021
2515 Snow -1 1033 67 2160 1.79 135 15:19 15.02.2021
2516 Snow -1 1033 66 2160 2.24 157 14:43 15.02.2021
2517 Clouds -1 1034 68 10000 1.79 135 14:20 15.02.2021
2518 Clouds -1 1035 68 10000 1.34 157 13:49 15.02.2021
2519 Clouds -1 1035 70 10000 1.79 180 13:20 15.02.2021
2520 Clouds -2 1036 73 10000 0.89 157 12:45 15.02.2021
2521 Clouds -2 1036 73 10000 0.89 157 12:25 15.02.2021
2522 Clouds -2 1037 77 10000 0.89 180 11:51 15.02.2021
2523 Clouds -3 1037 77 10000 1.34 180 11:25 15.02.2021
2524 Clouds -3 1038 79 10000 0.89 180 10:50 15.02.2021
2525 Clouds -4 1038 80 10000 0.89 157 10:30 15.02.2021
2526 Clouds -6 1038 81 10000 0.89 135 09:59 15.02.2021
2527 Clouds -6 1038 82 10000 0.89 157 09:41 15.02.2021
2528 Clouds -7 1038 83 10000 0.89 157 09:22 15.02.2021
2529 Clouds -2 1034 88 10000 7.34 170 08:21 15.02.2021
2530 Clouds -2 1034 88 10000 6.79 180 07:18 15.02.2021
2531 Clouds -2 1035 88 10000 6.73 183 06:41 15.02.2021
2532 Clouds -2 1037 89 10000 5.21 192 02:52 15.02.2021
2533 Clouds -2 1038 89 10000 4.92 198 02:20 15.02.2021
2534 Clouds -2 1039 90 10000 4.62 206 00:19 15.02.2021
2535 Clear -2 1039 91 10000 4.6 208 23:25 14.02.2021
2536 Clear -2 1039 91 10000 4.6 208 22:46 14.02.2021
2537 Clear -2 1038 91 10000 4.23 210 22:27 14.02.2021
2538 Clear -2 1038 91 10000 4.23 210 21:53 14.02.2021
2539 Clear -2 1038 91 10000 4.23 210 21:30 14.02.2021
2540 Clear -2 1038 92 10000 4.1 227 20:53 14.02.2021
2541 Clear -2 1038 92 10000 4.1 227 20:30 14.02.2021
2542 Clear -1 1039 91 10000 3.81 240 19:50 14.02.2021
2543 Clear -1 1039 91 10000 3.81 240 19:31 14.02.2021
2544 Clear -1 1039 92 10000 4.04 263 18:43 14.02.2021
2545 Clear 0 1039 92 10000 4.49 272 18:24 14.02.2021
2546 Clear -5 1043 79 10000 4.49 272 17:45 14.02.2021
2547 Clear -4 1043 79 10000 4.99 279 17:25 14.02.2021
2548 Clear -3 1043 79 10000 4.99 279 16:40 14.02.2021
2549 Clear -2 1043 78 10000 5.83 280 16:20 14.02.2021
2550 Clear -1 1043 79 10000 0.45 247 15:44 14.02.2021
2551 Clear -1 1044 78 10000 5.7 282 14:59 14.02.2021
2552 Clear 0 1044 79 10000 5.7 282 14:32 14.02.2021
2553 Clear 0 1040 91 10000 5.34 286 13:57 14.02.2021
2554 Clear -2 1045 85 10000 5.34 286 13:32 14.02.2021
2555 Clear -2 1045 85 10000 5.03 293 12:54 14.02.2021
2556 Clear -2 1045 85 10000 6.03 296 12:22 14.02.2021
2557 Clear -2 1045 86 10000 0.45 270 11:51 14.02.2021
2558 Clear -3 1045 87 10000 6.36 300 11:26 14.02.2021
2559 Clear -3 1045 87 10000 6.36 300 10:53 14.02.2021
2560 Clear -5 1045 88 10000 6.48 299 09:58 14.02.2021
2561 Clear -6 1045 88 10000 6.48 299 09:39 14.02.2021
2562 Clear -7 1045 87 10000 6.09 301 09:21 14.02.2021
2563 Clear -1 1040 91 10000 6.09 301 08:43 14.02.2021
2564 Clear -1 1041 91 10000 5.85 304 07:58 14.02.2021
2565 Clear -1 1040 92 10000 6.48 308 06:54 14.02.2021
2566 Clear -1 1040 93 10000 6.83 309 05:43 14.02.2021
2567 Clear -1 1040 93 10000 6.48 311 03:33 14.02.2021
2568 Clear -1 1040 93 10000 5.76 312 02:29 14.02.2021
2569 Clear 0 1041 93 10000 5.6 318 00:49 14.02.2021
2570 Clear 0 1041 93 10000 5.6 318 00:31 14.02.2021
2571 Clear 0 1041 93 10000 5.6 318 00:31 14.02.2021
2572 Clear 0 1041 94 10000 5.75 324 23:42 13.02.2021
2573 Clear -6 1044 85 10000 5.79 326 23:23 13.02.2021
2574 Clear 0 1041 94 10000 5.79 326 22:47 13.02.2021
2575 Clear -6 1044 85 10000 5.86 331 22:20 13.02.2021
2576 Clear -4 1045 86 10000 5.86 331 21:44 13.02.2021
2577 Clear -4 1045 87 10000 0.45 315 21:22 13.02.2021
2578 Clear -6 1045 82 10000 6.16 326 20:31 13.02.2021
2579 Clear -5 1044 81 10000 6.32 326 19:59 13.02.2021
2580 Clear -4 1044 82 10000 0.89 292 19:41 13.02.2021
2581 Clear -3 1045 84 10000 1.34 315 19:21 13.02.2021
2582 Clear -3 1044 83 10000 0.89 315 18:45 13.02.2021
2583 Clear -4 1044 82 10000 0.89 315 18:24 13.02.2021
2584 Clear -2 1044 81 10000 0.45 315 17:43 13.02.2021
2585 Clear -2 1044 80 10000 5.73 326 17:23 13.02.2021
2586 Clear -1 1044 79 10000 5.73 326 16:44 13.02.2021
2587 Clear 0 1044 79 10000 0.89 315 16:26 13.02.2021
2588 Clear 1 1044 78 10000 5.65 334 15:41 13.02.2021
2589 Clear 1 1044 77 10000 5.69 334 15:22 13.02.2021
2590 Clear 1 1044 76 10000 0.45 292 14:33 13.02.2021
2591 Clear 1 1044 78 10000 5.52 336 13:48 13.02.2021
2592 Clear 1 1044 78 10000 5.77 343 13:25 13.02.2021
2593 Clear 1 1044 78 10000 5.61 342 12:50 13.02.2021
2594 Clear 1 1044 78 10000 5.36 348 12:19 13.02.2021
2595 Clear 0 1044 82 10000 5.36 348 11:46 13.02.2021
2596 Clear -2 1044 84 10000 5.35 352 11:20 13.02.2021
2597 Clear -3 1044 84 10000 5.35 352 10:56 13.02.2021
2598 Clear 0 1040 92 10000 5.35 352 10:38 13.02.2021
2599 Clear 0 1040 93 10000 5.96 355 10:19 13.02.2021
2600 Clear 0 1040 93 10000 5.96 355 09:45 13.02.2021
2601 Clear -1 1039 93 10000 6.33 355 09:21 13.02.2021
2602 Clear -1 1039 93 10000 6.33 355 08:41 13.02.2021
2603 Clear -1 1040 93 10000 6.62 350 07:54 13.02.2021
2604 Clear -1 1039 92 10000 5.79 347 06:42 13.02.2021
2605 Clear -1 1039 91 10000 5.26 357 06:19 13.02.2021
2606 Clear -1 1039 91 10000 5.58 2 04:26 13.02.2021
2607 Clear -1 1039 91 10000 5.58 2 01:57 13.02.2021
2608 Clear -1 1039 91 10000 5.21 3 00:52 13.02.2021
2609 Clear -1 1039 90 10000 5.03 2 23:55 12.02.2021
2610 Clear -7 1042 81 10000 5.03 2 23:32 12.02.2021
2611 Clear -7 1042 80 10000 5.17 10 22:59 12.02.2021
2612 Clear -7 1042 80 10000 5.17 10 22:30 12.02.2021
2613 Clear -7 1042 79 10000 5.66 16 21:53 12.02.2021
2614 Clear -6 1042 79 10000 5.66 16 21:34 12.02.2021
2615 Clear -6 1042 80 10000 6.25 13 20:59 12.02.2021
2616 Clear -6 1042 79 10000 6.25 13 20:39 12.02.2021
2617 Clear -6 1042 79 10000 6.99 3 20:19 12.02.2021
2618 Clear -6 1042 78 10000 6.99 3 19:48 12.02.2021
2619 Clear -6 1041 77 10000 7.26 356 19:26 12.02.2021
2620 Clear -6 1042 75 10000 7.95 358 18:30 12.02.2021
2621 Clear -5 1041 73 10000 0.45 315 17:51 12.02.2021
2622 Clear -4 1041 71 10000 7.95 356 17:31 12.02.2021
2623 Clear -2 1041 70 10000 7.27 356 16:41 12.02.2021
2624 Clear -2 1037 87 10000 6.95 357 15:47 12.02.2021
2625 Clear -2 1037 86 10000 6.72 1 15:22 12.02.2021
2626 Clear -2 1037 86 10000 6.72 1 14:59 12.02.2021
2627 Clear -1 1041 70 10000 6.72 1 14:32 12.02.2021
2628 Clear -2 1041 70 10000 0.45 22 13:42 12.02.2021
2629 Clear -2 1041 70 10000 0.45 22 13:24 12.02.2021
2630 Clear -2 1041 75 10000 1.79 0 12:51 12.02.2021
2631 Clear -2 1041 77 10000 0.45 22 12:33 12.02.2021
2632 Clear -2 1040 77 10000 7.01 11 11:46 12.02.2021
2633 Clear -2 1040 79 10000 0.45 45 11:20 12.02.2021
2634 Clear -3 1040 81 10000 7.1 16 10:47 12.02.2021
2635 Clear -4 1040 80 10000 7.29 18 09:57 12.02.2021
2636 Clear -3 1040 82 10000 7.29 18 09:39 12.02.2021
2637 Clear -4 1040 84 10000 0.89 45 09:19 12.02.2021
2638 Clear -5 1039 85 10000 7.67 17 08:40 12.02.2021
2639 Clear -5 1039 86 10000 8.09 22 08:20 12.02.2021
2640 Clear -5 1039 87 10000 8.09 22 07:51 12.02.2021
2641 Clouds -5 1039 89 10000 0.89 45 07:21 12.02.2021
2642 Clouds -6 1039 87 10000 1.79 0 05:51 12.02.2021
2643 Clouds -5 1038 87 10000 8.18 33 05:27 12.02.2021
2644 Clouds -5 1038 79 10000 0.45 45 01:59 12.02.2021
2645 Snow -3 1037 73 10000 8.19 38 00:28 12.02.2021
2646 Snow -3 1037 85 10000 0.89 45 23:23 11.02.2021
2647 Snow -3 1037 75 10000 8.46 38 22:59 11.02.2021
2648 Snow -3 1037 81 10000 0.45 22 22:41 11.02.2021
2649 Snow -3 1036 73 10000 8.51 37 22:22 11.02.2021
2650 Snow -3 1036 75 10000 0.45 45 21:43 11.02.2021
2651 Snow -3 1036 76 10000 8.43 35 21:24 11.02.2021
2652 Snow -3 1036 79 10000 0.45 67 20:54 11.02.2021
2653 Snow -3 1036 79 10000 0.45 22 20:36 11.02.2021
2654 Snow -3 1036 81 10000 8.7 35 20:18 11.02.2021
2655 Snow -3 1035 88 10000 8.7 35 19:45 11.02.2021
2656 Clouds -3 1035 89 10000 8.53 31 19:23 11.02.2021
2657 Snow -3 1035 89 10000 0.89 45 18:37 11.02.2021
2658 Clouds -3 1035 89 10000 1.34 45 18:18 11.02.2021
2659 Snow -3 1035 89 10000 8.29 30 17:43 11.02.2021
2660 Snow -3 1034 88 8226 0.89 45 17:20 11.02.2021
2661 Snow -3 1034 85 8226 8.21 28 16:44 11.02.2021
2662 Snow -2 1034 84 6211 0.89 45 16:25 11.02.2021
2663 Snow -1 1033 76 6211 0.45 22 15:45 11.02.2021
2664 Snow -1 1033 75 3499 0.45 22 15:26 11.02.2021
2665 Snow -1 1033 74 3499 8.1 29 14:53 11.02.2021
2666 Snow -1 1032 70 3499 0.89 45 14:31 11.02.2021
2667 Snow -1 1032 69 3942 0.45 45 13:42 11.02.2021
2668 Snow -1 1032 69 4867 0.89 67 13:20 11.02.2021
2669 Snow -1 1032 68 4867 0.89 45 12:56 11.02.2021
2670 Snow -1 1031 72 4867 0.45 45 12:33 11.02.2021
2671 Snow -1 1031 74 4674 1.34 45 11:48 11.02.2021
2672 Snow -1 1031 79 4812 0.45 45 11:27 11.02.2021
2673 Snow -1 1031 79 4812 8.14 23 10:46 11.02.2021
2674 Snow -1 1030 74 6403 1.79 22 10:27 11.02.2021
2675 Clouds -1 1030 76 6403 0.45 22 09:59 11.02.2021
2676 Clouds -2 1030 84 6403 0.89 45 09:38 11.02.2021
2677 Clouds -2 1030 85 8059 0.89 45 09:18 11.02.2021
2678 Clouds -2 1029 88 8059 0.89 0 08:43 11.02.2021
2679 Clouds -3 1029 86 7602 1.79 45 07:43 11.02.2021
2680 Clouds -3 1028 88 9575 0.45 45 06:44 11.02.2021
2681 Clouds -3 1027 88 9944 0.89 22 05:55 11.02.2021
2682 Clouds -3 1026 83 8448 0.45 45 03:45 11.02.2021
2683 Clouds -3 1025 85 9267 0.89 45 02:23 11.02.2021
2684 Clouds -2 1024 85 10000 0.89 45 00:23 11.02.2021
2685 Clouds -2 1024 86 10000 0.89 22 23:52 10.02.2021
2686 Clouds -3 1023 87 10000 0.89 45 23:20 10.02.2021
2687 Clouds -2 1023 84 10000 1.79 45 22:44 10.02.2021
2688 Clouds -2 1022 84 10000 0.89 0 22:24 10.02.2021
2689 Clouds -2 1022 79 10000 0.45 45 21:40 10.02.2021
2690 Snow -2 1021 76 10000 0.89 22 21:21 10.02.2021
2691 Snow -2 1021 74 10000 1.79 22 20:52 10.02.2021
2692 Snow -2 1021 77 10000 0.89 45 20:29 10.02.2021
2693 Snow -2 1020 87 10000 0.89 45 19:57 10.02.2021
2694 Snow -2 1020 86 10000 0.45 45 19:39 10.02.2021
2695 Snow -3 1020 87 5047 0.45 45 19:18 10.02.2021
2696 Snow -2 1019 79 3751 0.45 45 18:36 10.02.2021
2697 Snow -2 1019 80 4133 0.89 45 18:18 10.02.2021
2698 Snow -2 1018 83 4133 0.89 22 17:44 10.02.2021
2699 Snow -2 1018 82 4850 9.36 41 17:21 10.02.2021
2700 Snow -2 1018 82 4850 9.36 41 17:21 10.02.2021
2701 Snow -2 1017 79 4850 9.36 41 16:49 10.02.2021
2702 Snow -2 1017 79 4850 9.36 41 16:49 10.02.2021
2703 Snow -2 1017 76 7845 0.45 45 16:28 10.02.2021
2704 Snow -1 1014 91 7845 10.1 44 15:43 10.02.2021
2705 Snow -1 1013 91 6696 10.32 43 15:21 10.02.2021
2706 Snow -1 1013 91 6696 10.32 43 14:40 10.02.2021
2707 Clouds -1 1012 91 6627 10.11 44 13:55 10.02.2021
2708 Clouds -1 1012 91 6627 10.11 44 13:37 10.02.2021
2709 Clouds -1 1012 90 10000 10 45 13:18 10.02.2021
2710 Clouds -1 1012 91 5896 9.32 45 12:40 10.02.2021
2711 Clouds -1 1013 91 7887 8.97 51 12:21 10.02.2021
2712 Clouds -1 1013 91 7887 8.97 51 11:41 10.02.2021
2713 Clouds -2 1015 78 9268 9.28 56 11:23 10.02.2021
2714 Snow -2 1014 81 9268 9.28 56 10:43 10.02.2021
2715 Clouds -2 1014 84 7369 8.93 65 10:19 10.02.2021
2716 Clouds -3 1014 86 7369 8.93 65 09:43 10.02.2021
2717 Clouds -7 1014 85 8935 9.06 65 09:21 10.02.2021
2718 Clouds -8 1013 84 8935 9.06 65 08:43 10.02.2021
2719 Snow -8 1013 84 8324 10.17 59 07:55 10.02.2021
2720 Snow -2 1009 93 10000 10.44 63 07:18 10.02.2021
2721 Snow -7 1012 83 2293 7.38 67 03:45 10.02.2021
2722 Snow -6 1012 83 8071 9.76 65 00:51 10.02.2021
2723 Snow -6 1013 83 9926 10.5 67 23:37 09.02.2021
2724 Clouds -6 1012 83 10000 10.96 65 22:56 09.02.2021
2725 Snow -6 1012 83 10000 11.03 65 22:25 09.02.2021
2726 Snow -7 1012 82 10000 11.03 65 21:58 09.02.2021
2727 Snow -7 1012 82 10000 11.03 65 21:40 09.02.2021
2728 Snow -6 1012 82 10000 10.91 65 21:18 09.02.2021
2729 Snow -6 1012 82 10000 10.91 65 20:41 09.02.2021
2730 Snow -4 1013 83 6961 10.48 69 20:22 09.02.2021
2731 Snow -4 1012 83 6961 10.48 69 19:39 09.02.2021
2732 Snow -4 1012 83 4695 10.1 73 19:20 09.02.2021
2733 Snow -4 1012 83 5476 10.67 70 18:41 09.02.2021
2734 Snow -4 1012 82 4584 10.86 70 18:21 09.02.2021
2735 Snow -4 1012 82 4584 10.86 70 17:45 09.02.2021
2736 Snow -4 1012 82 2020 10.08 70 17:25 09.02.2021
2737 Snow -3 1012 79 2020 10.08 70 16:50 09.02.2021
2738 Snow -2 1012 77 1682 9.71 73 16:19 09.02.2021
2739 Snow -2 1012 76 1682 9.71 73 15:50 09.02.2021
2740 Snow -2 1012 76 1923 9.8 75 15:28 09.02.2021
2741 Snow -2 1012 76 1923 9.8 75 14:57 09.02.2021
2742 Snow -2 1011 76 1057 8.92 76 14:29 09.02.2021
2743 Snow -2 1008 96 1057 8.92 76 13:55 09.02.2021
2744 Snow -2 1012 78 1180 7.81 77 13:29 09.02.2021
2745 Snow -2 1011 77 1284 7.55 76 12:59 09.02.2021
2746 Snow -2 1011 78 1284 7.55 76 12:40 09.02.2021
2747 Snow -2 1012 79 911 6.6 78 12:21 09.02.2021
2748 Snow -3 1012 80 911 6.6 78 11:43 09.02.2021
2749 Snow -3 1012 82 716 5.73 85 11:21 09.02.2021
2750 Snow -3 1012 82 716 5.73 85 10:56 09.02.2021
2751 Snow -4 1012 84 302 5.96 95 10:20 09.02.2021
2752 Snow -5 1012 84 302 0.45 270 09:46 09.02.2021
2753 Snow -5 1012 84 198 6.73 95 09:26 09.02.2021
2754 Snow -6 1011 84 198 6.73 95 08:53 09.02.2021
2755 Snow -6 1011 84 218 7.16 91 08:28 09.02.2021
2756 Snow -7 1011 84 218 7.16 91 07:41 09.02.2021
2757 Snow -7 1011 84 404 8.37 95 05:33 09.02.2021
2758 Snow -7 1010 85 250 9.74 91 03:47 09.02.2021
2759 Snow -7 1010 85 235 10.81 89 01:51 09.02.2021
2760 Snow -7 1010 85 361 11.32 88 00:21 09.02.2021
2761 Snow -7 1010 85 429 0.45 135 23:23 08.02.2021
2762 Snow -8 1011 85 429 0.45 135 22:59 08.02.2021
2763 Snow -7 1011 85 429 0.89 135 22:41 08.02.2021
2764 Snow -7 1011 85 546 0.89 157 22:21 08.02.2021
2765 Clouds -6 1011 86 546 0.89 112 21:45 08.02.2021
2766 Snow -6 1011 86 1839 1.79 135 21:22 08.02.2021
2767 Snow -6 1011 87 1839 0.89 112 20:44 08.02.2021
2768 Snow -6 1011 87 4436 1.34 135 20:24 08.02.2021
2769 Snow -6 1011 88 2394 1.79 135 19:59 08.02.2021
2770 Snow -6 1011 87 4436 1.34 135 19:41 08.02.2021
2771 Clouds -6 1011 86 7336 1.34 135 19:21 08.02.2021
2772 Clouds -4 1010 85 7336 2.68 135 18:42 08.02.2021
2773 Clouds -3 1011 82 10000 0.89 67 18:19 08.02.2021
2774 Clouds -2 1010 75 10000 0.89 112 17:43 08.02.2021
2775 Clouds -2 1010 73 10000 0.89 0 17:23 08.02.2021
2776 Clouds -2 1010 73 10000 0.45 67 16:42 08.02.2021
2777 Clouds -2 1010 69 10000 0.89 22 16:21 08.02.2021
2778 Clouds -2 1011 70 10000 16.99 75 15:42 08.02.2021
2779 Clouds -2 1011 70 10000 1.79 112 15:20 08.02.2021
2780 Clouds -2 1011 70 10000 1.79 45 14:51 08.02.2021
2781 Clouds -2 1011 70 10000 0.89 45 14:31 08.02.2021
2782 Clouds -2 1012 69 10000 0.45 67 13:56 08.02.2021
2783 Clouds -2 1012 70 10000 0.89 135 13:32 08.02.2021
2784 Clouds -2 1013 69 10000 0.45 112 12:53 08.02.2021
2785 Clouds -2 1013 71 10000 1.34 45 12:35 08.02.2021
2786 Clouds -3 1014 71 10000 1.34 90 11:47 08.02.2021
2787 Clouds -3 1014 73 10000 1.79 90 11:21 08.02.2021
2788 Clouds -3 1014 73 10000 16.28 80 10:44 08.02.2021
2789 Clouds -4 1014 74 10000 0.45 45 10:24 08.02.2021
2790 Clouds -4 1014 75 10000 16.25 80 09:53 08.02.2021
2791 Clouds -5 1015 76 10000 0.45 112 09:35 08.02.2021
2792 Clouds -6 1015 76 10000 0.89 112 08:46 08.02.2021
2793 Clouds -6 1015 76 10000 16.25 81 08:20 08.02.2021
2794 Clouds -6 1016 75 10000 0.45 90 07:34 08.02.2021
2795 Clouds -6 1016 72 10000 1.79 67 06:25 08.02.2021
2796 Clouds -4 1017 74 10000 0.45 112 02:29 08.02.2021
2797 Clouds -5 1017 74 10000 0.89 112 01:48 08.02.2021
2798 Clouds -5 1019 75 10000 1.34 112 00:21 08.02.2021
2799 Clouds -4 1019 72 10000 0.89 112 23:50 07.02.2021
2800 Clouds -4 1019 72 10000 0.89 112 23:50 07.02.2021
2801 Clouds -4 1019 71 10000 0.45 67 23:21 07.02.2021
2802 Clouds -4 1020 73 10000 3.58 135 22:45 07.02.2021
2803 Clouds -4 1020 73 10000 1.34 112 22:27 07.02.2021
2804 Clouds -4 1020 71 10000 2.24 112 21:57 07.02.2021
2805 Clouds -4 1020 72 10000 1.79 135 21:39 07.02.2021
2806 Clouds -4 1020 72 10000 1.34 135 21:19 07.02.2021
2807 Clouds -4 1020 71 10000 0.45 90 20:44 07.02.2021
2808 Clouds -4 1020 71 10000 1.79 112 20:26 07.02.2021
2809 Clouds -4 1021 71 10000 1.79 112 19:43 07.02.2021
2810 Clouds -4 1021 70 10000 14.21 93 19:25 07.02.2021
2811 Clouds -4 1021 70 10000 0.89 112 18:44 07.02.2021
2812 Clouds -4 1021 69 10000 0.89 112 18:26 07.02.2021
2813 Clouds -4 1021 70 10000 0.89 135 17:45 07.02.2021
2814 Clouds -4 1021 69 10000 0.45 112 17:22 07.02.2021
2815 Clouds -4 1021 68 10000 1.34 112 16:59 07.02.2021
2816 Clouds -4 1021 68 10000 0.89 112 16:41 07.02.2021
2817 Clouds -4 1021 68 10000 1.79 112 16:20 07.02.2021
2818 Clouds -4 1021 67 10000 0.45 135 15:44 07.02.2021
2819 Clouds -4 1022 67 10000 1.79 112 15:21 07.02.2021
2820 Clouds -4 1022 66 10000 1.79 112 14:44 07.02.2021
2821 Clouds -4 1022 68 10000 1.34 67 14:26 07.02.2021
2822 Clouds -4 1022 67 10000 1.34 112 13:45 07.02.2021
2823 Clouds -3 1022 67 10000 2.68 112 13:27 07.02.2021
2824 Clouds -3 1023 66 10000 1.79 135 12:42 07.02.2021
2825 Clouds -4 1023 68 10000 1.79 112 12:21 07.02.2021
2826 Clouds -4 1023 68 10000 1.34 112 11:45 07.02.2021
2827 Clouds -4 1023 69 10000 1.79 135 11:26 07.02.2021
2828 Clouds -5 1024 71 10000 1.34 112 10:42 07.02.2021
2829 Clouds -5 1024 71 10000 2.68 112 10:23 07.02.2021
2830 Clouds -5 1024 72 10000 2.24 135 09:44 07.02.2021
2831 Clouds -6 1024 73 10000 2.68 112 09:21 07.02.2021
2832 Clouds -6 1024 75 10000 1.79 135 08:22 07.02.2021
2833 Clouds -6 1025 77 10000 1.34 112 06:34 07.02.2021
2834 Clouds -6 1025 78 10000 1.34 112 05:57 07.02.2021
2835 Clouds -5 1026 76 10000 1.79 135 03:50 07.02.2021
2836 Clouds -3 1027 77 10000 1.79 135 01:27 07.02.2021
2837 Snow -3 1027 79 10000 2.24 135 00:35 07.02.2021
2838 Snow -3 1027 80 10000 1.79 135 23:44 06.02.2021
2839 Clouds -3 1027 77 10000 0.89 135 22:41 06.02.2021
2840 Clouds -3 1028 76 10000 0.89 112 21:42 06.02.2021
2841 Clouds -3 1027 76 10000 0.89 135 21:22 06.02.2021
2842 Clouds -3 1028 76 10000 0.89 135 20:52 06.02.2021
2843 Clouds -3 1028 76 7850 1.34 135 20:25 06.02.2021
2844 Clouds -3 1028 77 7850 0.89 135 19:57 06.02.2021
2845 Snow -3 1028 76 7850 1.79 135 19:32 06.02.2021
2846 Snow -3 1028 73 2778 0.45 112 18:52 06.02.2021
2847 Clouds -3 1028 73 2778 0.45 112 18:32 06.02.2021
2848 Clouds -3 1028 69 7657 0.89 112 17:49 06.02.2021
2849 Clouds -2 1028 66 9223 0.45 112 17:22 06.02.2021
2850 Clouds -2 1028 65 9223 9.69 83 16:59 06.02.2021
2851 Snow -2 1028 63 9223 0.45 90 16:41 06.02.2021
2852 Snow -1 1028 60 9045 0.89 112 16:22 06.02.2021
2853 Clouds -1 1028 61 9045 0.89 112 15:48 06.02.2021
2854 Clouds -1 1028 63 6321 0.89 112 15:22 06.02.2021
2855 Clouds -1 1028 66 6321 2.24 135 14:45 06.02.2021
2856 Clouds 0 1028 68 7647 1.79 135 14:27 06.02.2021
2857 Clouds 1 1028 68 7647 2.24 135 13:51 06.02.2021
2858 Snow 1 1029 68 7647 1.34 112 13:32 06.02.2021
2859 Clouds 1 1029 71 10000 0.89 112 12:23 06.02.2021
2860 Clouds 0 1029 73 10000 0.89 135 11:57 06.02.2021
2861 Snow 1 1029 73 10000 1.79 112 11:38 06.02.2021
2862 Clouds -1 1029 77 10000 1.79 112 11:19 06.02.2021
2863 Clouds 0 1029 79 10000 0.89 135 10:44 06.02.2021
2864 Clouds -1 1029 80 10000 1.79 135 10:24 06.02.2021
2865 Clouds -2 1029 82 10000 1.34 135 09:37 06.02.2021
2866 Clouds -2 1029 83 10000 0.89 112 09:18 06.02.2021
2867 Clouds -2 1029 84 10000 0.89 135 08:52 06.02.2021
2868 Clouds -2 1029 85 10000 1.34 135 08:28 06.02.2021
2869 Clouds -2 1028 84 10000 1.34 135 06:41 06.02.2021
2870 Clouds -2 1028 84 10000 0.45 112 05:39 06.02.2021
2871 Clouds -2 1027 80 6553 0.89 135 02:43 06.02.2021
2872 Clouds -2 1028 78 10000 0.45 112 00:56 06.02.2021
2873 Clouds -2 1028 77 10000 1.34 135 00:37 06.02.2021
2874 Clouds -2 1028 77 10000 0.89 135 00:18 06.02.2021
2875 Clouds -2 1028 79 10000 9.54 88 23:30 05.02.2021
2876 Clouds -1 1027 80 10000 0.45 112 22:50 05.02.2021
2877 Clouds -1 1028 80 10000 0.45 112 22:25 05.02.2021
2878 Clouds -1 1028 78 10000 0.89 112 21:57 05.02.2021
2879 Clouds -1 1028 78 10000 9.96 87 21:37 05.02.2021
2880 Clouds -1 1027 79 10000 9.62 86 20:56 05.02.2021
2881 Clouds -1 1027 78 10000 0.45 90 20:20 05.02.2021
2882 Clouds -1 1027 78 10000 0.89 135 19:46 05.02.2021
2883 Clouds -1 1027 79 10000 0.45 112 19:18 05.02.2021
2884 Clouds -1 1027 79 10000 9.64 83 18:43 05.02.2021
2885 Clouds -1 1027 78 10000 9.79 84 18:19 05.02.2021
2886 Clouds -1 1026 78 10000 0.45 67 17:42 05.02.2021
2887 Clouds -1 1027 79 10000 0.45 112 17:20 05.02.2021
2888 Clouds -1 1027 78 10000 0.89 112 16:43 05.02.2021
2889 Clouds 0 1027 77 10000 0.45 112 16:21 05.02.2021
2890 Clouds 0 1027 76 10000 0.89 112 15:50 05.02.2021
2891 Clouds 1 1027 76 10000 8.56 94 15:23 05.02.2021
2892 Clouds 1 1027 75 10000 0.89 112 14:40 05.02.2021
2893 Clouds 1 1027 75 10000 0.89 135 14:21 05.02.2021
2894 Clouds 1 1027 76 10000 8.53 96 13:53 05.02.2021
2895 Clouds 1 1027 76 10000 1.34 135 13:33 05.02.2021
2896 Clouds 1 1027 77 10000 0.89 135 12:45 05.02.2021
2897 Clouds 1 1027 77 10000 0.45 135 12:24 05.02.2021
2898 Clouds 2 1028 83 10000 0.45 112 11:40 05.02.2021
2899 Clouds 1 1028 84 10000 0.45 135 11:21 05.02.2021
2900 Clouds 1 1028 85 10000 0.45 135 10:54 05.02.2021
2901 Clouds 0 1027 87 10000 0.89 112 10:26 05.02.2021
2902 Clouds -1 1027 89 10000 7.97 91 09:45 05.02.2021
2903 Clouds -1 1028 90 10000 7.28 96 09:26 05.02.2021
2904 Clouds -2 1027 90 10000 7.28 96 08:52 05.02.2021
2905 Clouds -2 1027 90 10000 1.34 157 08:20 05.02.2021
2906 Clouds -3 1026 90 10000 0.45 135 07:36 05.02.2021
2907 Clouds -3 1026 90 10000 0.45 135 06:49 05.02.2021
2908 Clouds -3 1026 91 10000 0.45 135 05:37 05.02.2021
2909 Clouds -2 1026 91 10000 0.45 112 03:18 05.02.2021
2910 Clouds -3 1026 90 10000 7.19 96 02:24 05.02.2021
2911 Clouds -2 1026 91 10000 7.37 91 00:40 05.02.2021
2912 Clouds -2 1025 90 10000 7.19 91 00:20 05.02.2021
2913 Clouds -2 1025 90 10000 7.19 91 23:57 04.02.2021
2914 Clouds -2 1025 90 10000 7.19 91 23:39 04.02.2021
2915 Clouds -2 1025 90 10000 7.21 90 23:20 04.02.2021
2916 Clouds -2 1025 90 10000 7.21 90 22:51 04.02.2021
2917 Clouds -2 1025 90 10000 6.96 90 22:26 04.02.2021
2918 Clouds -1 1025 90 10000 6.96 90 21:42 04.02.2021
2919 Clouds -2 1025 90 10000 6.79 90 21:20 04.02.2021
2920 Clouds -1 1025 89 10000 6.79 90 20:49 04.02.2021
2921 Clouds -1 1024 89 10000 6.79 90 20:30 04.02.2021
2922 Clouds -1 1024 89 10000 6.79 90 20:30 04.02.2021
2923 Clouds -1 1024 89 10000 6.79 90 20:30 04.02.2021
2924 Clouds -1 1024 89 10000 6.79 90 20:30 04.02.2021
2925 Clouds 0 1024 89 10000 6.61 91 19:43 04.02.2021
2926 Clouds 0 1024 89 10000 6.64 90 18:57 04.02.2021
2927 Clouds 1 1024 89 10000 6.4 88 18:26 04.02.2021
2928 Clouds 1 1024 89 10000 6.4 88 18:26 04.02.2021
2929 Clouds 1 1023 89 10000 6.4 88 17:56 04.02.2021
2930 Clouds 1 1023 89 10000 6.4 88 17:37 04.02.2021
2931 Clouds 1 1023 88 10000 6.48 85 17:18 04.02.2021
2932 Clouds 2 1023 88 10000 6.48 85 16:41 04.02.2021
2933 Clouds 2 1022 89 10000 6.58 81 16:19 04.02.2021
2934 Clouds 2 1022 89 10000 6.58 81 15:40 04.02.2021
2935 Clouds 2 1022 89 10000 7.01 79 15:21 04.02.2021
2936 Clouds 2 1022 89 10000 7.01 79 14:49 04.02.2021
2937 Clouds 2 1021 89 10000 7.24 79 14:21 04.02.2021
2938 Clouds 2 1021 89 10000 7.24 79 13:49 04.02.2021
2939 Clouds 2 1021 89 10000 7.05 84 13:28 04.02.2021
2940 Clouds 2 1021 88 10000 0.45 67 12:54 04.02.2021
2941 Clouds 2 1020 87 10000 8.9 77 11:58 04.02.2021
2942 Clouds 3 1020 86 10000 8.9 77 11:38 04.02.2021
2943 Clouds 3 1019 90 4998 9.89 68 11:20 04.02.2021
2944 Clouds 3 1019 91 4998 9.89 68 10:43 04.02.2021
2945 Clouds 2 1018 92 4964 10.03 63 09:48 04.02.2021
2946 Clouds 1 1017 92 5579 9.54 62 09:23 04.02.2021
2947 Clouds 1 1017 92 5579 9.54 62 08:59 04.02.2021
2948 Clouds 1 1016 92 5579 9.54 62 08:37 04.02.2021
2949 Snow 1 1016 92 1872 9.1 63 08:18 04.02.2021
2950 Snow 1 1015 93 1872 9.1 63 07:38 04.02.2021
2951 Snow 1 1014 93 407 9.79 57 06:55 04.02.2021
2952 Snow 1 1013 93 407 0.45 112 06:35 04.02.2021
2953 Snow 1 1009 93 305 0.45 67 03:53 04.02.2021
2954 Snow 0 1007 93 3139 12.22 67 02:25 04.02.2021
2955 Clouds 1 1005 93 3860 0.45 90 00:42 04.02.2021
2956 Snow 1 1004 93 3497 0.45 67 23:40 03.02.2021
2957 Snow 1 1003 93 260 0.45 112 22:44 03.02.2021
2958 Snow 1 1003 93 145 0.45 90 22:22 03.02.2021
2959 Snow 1 1003 93 145 0.45 112 21:58 03.02.2021
2960 Snow 1 1003 93 145 0.89 90 21:37 03.02.2021
2961 Snow 1 1003 93 72 0.89 112 21:18 03.02.2021
2962 Snow 1 1003 93 72 0.45 112 20:45 03.02.2021
2963 Snow 1 1003 93 47 0.89 135 20:24 03.02.2021
2964 Clouds 1 1003 93 47 0.45 67 19:45 03.02.2021
2965 Snow 1 1003 93 46 0.45 135 19:21 03.02.2021
2966 Snow 1 1003 93 43 1.34 90 18:48 03.02.2021
2967 Snow 0 1003 93 29 0.45 90 18:20 03.02.2021
2968 Snow 1 1004 92 29 13.71 82 17:53 03.02.2021
2969 Snow 0 1004 92 29 13.71 82 17:33 03.02.2021
2970 Snow 0 1004 92 40 1.34 112 16:59 03.02.2021
2971 Snow 0 1004 91 40 0.45 135 16:35 03.02.2021
2972 Snow 0 1004 91 44 1.34 112 15:50 03.02.2021
2973 Snow 0 1004 91 44 1.34 112 15:30 03.02.2021
2974 Snow 1 1004 90 62 0.89 112 14:54 03.02.2021
2975 Snow 1 1005 89 62 0.89 90 14:30 03.02.2021
2976 Snow 1 1005 88 72 1.34 135 13:56 03.02.2021
2977 Snow 1 1006 87 514 11.08 92 13:29 03.02.2021
2978 Snow 1 1006 86 514 0.89 135 12:56 03.02.2021
2979 Snow 1 1007 85 77 1.34 135 12:37 03.02.2021
2980 Clouds 1 1006 85 544 1.79 135 12:18 03.02.2021
2981 Snow 1 1007 85 544 0.89 112 11:41 03.02.2021
2982 Snow 1 1007 86 9099 0.89 135 11:21 03.02.2021
2983 Clouds 1 1007 86 10000 9.48 96 10:27 03.02.2021
2984 Clouds 1 1007 87 10000 0.45 112 09:58 03.02.2021
2985 Clouds 1 1007 87 10000 0.89 112 09:38 03.02.2021
2986 Snow 1 1008 87 7724 0.89 135 09:19 03.02.2021
2987 Snow 0 1008 88 7724 0.89 112 08:43 03.02.2021
2988 Clouds 0 1008 88 10000 0.45 112 07:54 03.02.2021
2989 Clouds -1 1008 88 10000 6.12 103 06:42 03.02.2021
2990 Clouds -1 1008 88 10000 6.12 103 06:42 03.02.2021
2991 Clouds -1 1008 87 10000 4.17 99 04:56 03.02.2021
2992 Clouds -1 1008 87 10000 4.17 99 04:37 03.02.2021
2993 Clouds -1 1008 87 10000 4.24 99 03:51 03.02.2021
2994 Clouds -1 1008 86 10000 3.83 97 02:40 03.02.2021
2995 Clouds -1 1008 86 10000 3.72 98 01:47 03.02.2021
2996 Clouds -1 1008 86 10000 2.65 106 00:24 03.02.2021
2997 Clouds -1 1008 85 10000 2.65 106 23:43 02.02.2021
2998 Clouds -1 1008 85 10000 1.73 108 23:25 02.02.2021
2999 Snow -1 1008 86 10000 1.73 108 22:46 02.02.2021
3000 Clouds -1 1008 85 10000 1.08 143 22:21 02.02.2021
3001 Clouds -2 1008 85 10000 1.08 143 21:46 02.02.2021
3002 Clouds -1 1008 85 10000 1.73 166 21:27 02.02.2021
3003 Clouds -1 1008 85 10000 1.73 166 20:49 02.02.2021
3004 Clouds -2 1008 84 10000 1.85 194 20:23 02.02.2021
3005 Clouds -2 1008 84 10000 1.85 194 19:58 02.02.2021
3006 Clouds -2 1008 84 10000 1.85 194 19:39 02.02.2021
3007 Clouds -2 1008 83 10000 1.13 187 19:21 02.02.2021
3008 Clouds -1 1008 83 10000 1.13 187 18:41 02.02.2021
3009 Clouds -1 1008 83 10000 1.26 205 18:22 02.02.2021
3010 Clouds -1 1008 82 10000 1.26 205 17:40 02.02.2021
3011 Clouds 0 1007 82 10000 1.48 241 17:21 02.02.2021
3012 Clouds 1 1007 82 10000 1.48 241 16:50 02.02.2021
3013 Clouds 1 1007 82 10000 1.48 241 16:31 02.02.2021
3014 Clouds 1 1007 81 10000 1.9 252 15:57 02.02.2021
3015 Clouds 1 1007 81 10000 1.9 252 15:34 02.02.2021
3016 Clouds 1 1007 81 10000 2.28 268 14:56 02.02.2021
3017 Clouds 1 1007 82 10000 2.28 268 14:37 02.02.2021
3018 Clouds 1 1007 82 10000 2.85 279 14:18 02.02.2021
3019 Clouds 1 1007 81 10000 2.85 279 13:42 02.02.2021
3020 Clouds 1 1007 81 10000 0.45 315 13:24 02.02.2021
3021 Clouds 1 1007 82 10000 0.89 315 12:53 02.02.2021
3022 Clouds 0 1007 84 10000 4.45 276 12:23 02.02.2021
3023 Clouds 0 1007 85 10000 0.89 292 11:40 02.02.2021
3024 Clouds 0 1007 89 10000 4.76 284 11:19 02.02.2021
3025 Clouds 0 1007 89 10000 4.76 284 10:47 02.02.2021
3026 Clouds -1 1007 88 10000 5.22 301 10:26 02.02.2021
3027 Clouds -1 1007 89 10000 5.22 301 09:46 02.02.2021
3028 Clouds -1 1006 89 10000 5.95 297 09:23 02.02.2021
3029 Clouds -1 1006 88 10000 0.45 247 08:43 02.02.2021
3030 Clouds -2 1006 87 10000 6.09 295 07:50 02.02.2021
3031 Clouds -2 1005 87 10000 0.45 225 07:26 02.02.2021
3032 Clouds -2 1006 86 10000 0.45 225 06:40 02.02.2021
3033 Clouds -2 1005 85 5265 0.45 225 05:51 02.02.2021
3034 Clouds -2 1005 84 2453 0.89 180 04:36 02.02.2021
3035 Snow -2 1005 80 505 0.45 180 02:25 02.02.2021
3036 Snow -1 1005 76 378 0.89 157 00:49 02.02.2021
3037 Snow -1 1005 75 252 0.89 157 00:18 02.02.2021
3038 Snow -1 1005 73 592 1.34 135 23:18 01.02.2021
3039 Snow -1 1005 71 592 1.34 135 22:39 01.02.2021
3040 Snow -1 1005 71 4731 1.34 157 22:21 01.02.2021
3041 Snow -1 1005 70 4731 0.89 157 21:48 01.02.2021
3042 Snow -1 1005 70 4731 0.89 157 21:48 01.02.2021
3043 Snow -1 1005 69 4687 1.34 157 21:24 01.02.2021
3044 Snow -1 1005 71 4687 0.89 157 20:45 01.02.2021
3045 Snow -1 1005 72 10000 0.89 157 20:25 01.02.2021
3046 Snow -1 1005 71 10000 1.34 157 19:55 01.02.2021
3047 Snow -1 1005 69 10000 1.34 135 19:37 01.02.2021
3048 Snow -1 1005 69 10000 1.79 135 19:18 01.02.2021
3049 Snow -1 1005 68 10000 1.34 135 18:41 01.02.2021
3050 Snow -1 1005 67 10000 1.79 135 18:22 01.02.2021
3051 Snow -1 1005 65 10000 2.24 135 17:45 01.02.2021
3052 Clouds -1 1004 65 10000 2.24 135 17:22 01.02.2021
3053 Clouds -1 1004 66 10000 1.79 135 16:42 01.02.2021
3054 Clouds -1 1004 66 10000 1.79 135 16:42 01.02.2021
3055 Clouds -1 1005 67 10000 1.34 135 16:22 01.02.2021
3056 Clouds -1 1005 69 10000 1.34 135 15:41 01.02.2021
3057 Clouds -1 1005 74 10000 1.79 135 15:19 01.02.2021
3058 Clouds -1 1006 76 10000 0.89 135 14:51 01.02.2021
3059 Clouds -1 1006 76 10000 0.89 135 14:24 01.02.2021
3060 Clouds -1 1006 76 10000 0.89 135 14:24 01.02.2021
3061 Clouds -1 1006 76 10000 0.89 135 13:45 01.02.2021
3062 Clouds -1 1006 77 10000 1.34 135 13:26 01.02.2021
3063 Clouds -2 1006 78 10000 1.79 135 12:45 01.02.2021
3064 Clouds -2 1006 79 10000 1.34 135 12:25 01.02.2021
3065 Clouds -2 1006 79 10000 1.34 135 12:25 01.02.2021
3066 Clouds -3 1007 80 10000 1.79 135 11:43 01.02.2021
3067 Clouds -3 1007 81 10000 2.24 135 11:21 01.02.2021
3068 Clouds -3 1007 83 10000 1.34 135 10:50 01.02.2021
3069 Clouds -4 1007 85 10000 1.34 157 10:22 01.02.2021
3070 Clouds -4 1007 86 10000 0.89 135 09:54 01.02.2021
3071 Clouds -4 1007 87 10000 1.34 135 09:35 01.02.2021
3072 Clouds -5 1007 88 10000 0.89 135 08:56 01.02.2021
3073 Clouds 0 1001 92 10000 5.7 152 08:26 01.02.2021
3074 Clouds 0 1001 92 10000 5.7 152 07:30 01.02.2021
3075 Clouds -1 1001 94 10000 4.07 164 05:20 01.02.2021
3076 Clouds -5 1007 83 10000 3.77 195 02:40 01.02.2021
3077 Clouds -2 1008 85 10000 0.89 202 00:25 01.02.2021
3078 Clouds -2 1008 85 10000 0.45 270 23:26 31.01.2021
3079 Clouds -2 1007 85 10000 0.89 225 22:41 31.01.2021
3080 Clouds -2 1007 85 10000 0.89 225 22:22 31.01.2021
3081 Clouds -2 1007 85 10000 0.45 225 21:47 31.01.2021
3082 Clouds -2 1007 85 10000 0.89 225 21:21 31.01.2021
3083 Clouds -2 1007 85 10000 0.89 225 20:44 31.01.2021
3084 Clouds -2 1007 85 10000 1.34 225 20:21 31.01.2021
3085 Clouds -2 1007 85 10000 0.89 225 19:41 31.01.2021
3086 Clouds -3 1007 84 10000 0.45 225 19:23 31.01.2021
3087 Clouds -3 1007 84 10000 0.45 247 18:57 31.01.2021
3088 Clouds -3 1007 84 10000 7.47 257 18:38 31.01.2021
3089 Clouds -2 1007 84 10000 0.45 247 18:19 31.01.2021
3090 Clouds -2 1007 84 10000 7.88 263 17:45 31.01.2021
3091 Clouds -2 1007 82 10000 0.45 225 17:23 31.01.2021
3092 Clouds -1 1007 81 10000 8.7 267 16:47 31.01.2021
3093 Clouds -1 1007 81 10000 9.63 266 16:28 31.01.2021
3094 Clouds 0 1008 80 10000 1.34 247 15:51 31.01.2021
3095 Clouds 0 1008 80 10000 0.89 225 15:32 31.01.2021
3096 Clouds 0 1008 80 10000 0.45 180 14:42 31.01.2021
3097 Clouds 1 1008 80 10000 2.24 247 14:22 31.01.2021
3098 Clouds 1 1008 79 10000 10.73 262 13:53 31.01.2021
3099 Clouds 1 1008 79 10000 0.45 247 13:34 31.01.2021
3100 Clouds 0 1008 81 10000 1.34 247 12:49 31.01.2021
3101 Clouds 0 1009 81 10000 0.45 292 12:22 31.01.2021
3102 Clouds 0 1009 83 10000 0.45 225 11:44 31.01.2021
3103 Clouds 0 1009 83 10000 0.89 225 11:25 31.01.2021
3104 Clouds -1 1009 84 10000 0.89 225 10:57 31.01.2021
3105 Clouds -1 1009 84 10000 0.45 225 10:35 31.01.2021
3106 Clouds -1 1009 86 10000 10.64 256 09:55 31.01.2021
3107 Clouds -2 1008 87 10000 10.61 257 09:27 31.01.2021
3108 Clouds -3 1009 86 10000 0.45 247 08:34 31.01.2021
3109 Clouds -2 1008 87 4481 1.79 225 06:58 31.01.2021
3110 Clouds -2 1008 87 10000 9.89 256 05:42 31.01.2021
3111 Clouds -4 1009 85 10000 0.89 225 00:52 31.01.2021
3112 Clouds -5 1009 85 10000 0.45 247 00:26 31.01.2021
3113 Clouds -6 1010 82 10000 0.45 270 23:34 30.01.2021
3114 Clouds -5 1010 82 10000 0.45 270 22:57 30.01.2021
3115 Clouds -5 1010 81 10000 0.45 270 22:31 30.01.2021
3116 Clouds -3 1009 82 10000 6.01 275 21:43 30.01.2021
3117 Clouds -2 1009 83 10000 5.82 286 21:23 30.01.2021
3118 Clouds -2 1009 83 10000 5.82 286 21:23 30.01.2021
3119 Clouds -3 1009 82 10000 5.82 286 20:50 30.01.2021
3120 Clouds -3 1009 82 10000 5.82 286 20:32 30.01.2021
3121 Clouds -3 1009 81 10000 5.75 289 19:55 30.01.2021
3122 Clouds -3 1009 81 10000 0.45 292 19:36 30.01.2021
3123 Clouds -3 1009 81 10000 6.36 288 19:18 30.01.2021
3124 Clouds -2 1009 80 10000 6.36 288 18:39 30.01.2021
3125 Clouds -2 1009 80 10000 6.35 290 18:19 30.01.2021
3126 Clouds -2 1009 80 10000 0.45 292 17:37 30.01.2021
3127 Clouds -2 1009 79 10000 0.45 315 17:18 30.01.2021
3128 Clouds -1 1009 78 10000 0.45 315 16:37 30.01.2021
3129 Clouds -1 1009 77 10000 0.89 315 16:19 30.01.2021
3130 Clouds 0 1008 75 10000 0.45 292 15:44 30.01.2021
3131 Clouds 1 1009 74 10000 0.45 315 15:23 30.01.2021
3132 Clouds 1 1009 73 10000 6.09 305 14:52 30.01.2021
3133 Clouds 1 1009 74 10000 5.59 310 14:27 30.01.2021
3134 Clouds 1 1009 74 10000 5.59 310 13:48 30.01.2021
3135 Clouds 1 1009 74 10000 4.87 319 13:20 30.01.2021
3136 Clear 1 1009 74 10000 4.74 325 12:43 30.01.2021
3137 Clear 1 1009 73 10000 4.84 344 12:22 30.01.2021
3138 Clear 1 1008 77 10000 4.84 344 11:43 30.01.2021
3139 Clouds 1 1008 80 10000 5.02 354 10:56 30.01.2021
3140 Clouds -1 1008 81 10000 5.38 3 10:26 30.01.2021
3141 Clouds -1 1008 78 10000 0.89 22 09:41 30.01.2021
3142 Clouds -1 1007 80 10000 6.31 8 09:22 30.01.2021
3143 Clouds -1 1007 81 10000 6.31 8 08:43 30.01.2021
3144 Clouds -1 1007 86 10000 0.89 45 07:41 30.01.2021
3145 Snow 0 1006 86 10000 0.45 45 06:25 30.01.2021
3146 Snow 0 1004 92 4001 8.53 45 03:51 30.01.2021
3147 Snow 0 1004 91 4001 8.53 45 03:31 30.01.2021
3148 Snow 0 1004 91 44 5.54 52 02:22 30.01.2021
3149 Snow 0 1004 90 3996 5.09 56 00:56 30.01.2021
3150 Clouds 0 1004 90 10000 5.55 94 00:26 30.01.2021
3151 Snow 0 1004 90 10000 5.55 94 23:54 29.01.2021
3152 Snow 0 1004 90 10000 6.3 92 23:28 29.01.2021
3153 Snow 0 1003 89 10000 6.3 92 22:47 29.01.2021
3154 Snow 0 1004 89 7774 6.02 95 22:28 29.01.2021
3155 Snow 0 1003 89 7774 6.02 95 21:59 29.01.2021
3156 Clouds 0 1003 88 743 5.21 83 21:27 29.01.2021
3157 Clouds 0 1003 88 743 5.21 83 20:43 29.01.2021
3158 Clouds -1 1003 87 10000 5.21 86 20:24 29.01.2021
3159 Clouds -1 1003 87 10000 5.21 86 19:40 29.01.2021
3160 Clouds -1 1003 87 10000 6.06 90 19:21 29.01.2021
3161 Clouds -1 1003 87 10000 6.06 90 18:56 29.01.2021
3162 Clouds -1 1003 86 10000 6.31 89 17:51 29.01.2021
3163 Clouds -1 1003 86 10000 6.3 87 17:23 29.01.2021
3164 Clouds -1 1003 86 10000 6.3 87 16:58 29.01.2021
3165 Clouds 0 1003 86 10000 6.3 87 16:38 29.01.2021
3166 Clouds 0 1003 85 10000 5.77 86 16:19 29.01.2021
3167 Clouds 0 1002 84 10000 5.77 86 15:41 29.01.2021
3168 Clouds 0 1002 84 10000 0.45 135 15:22 29.01.2021
3169 Clouds 0 1003 84 10000 5.22 90 14:30 29.01.2021
3170 Clouds 1 1003 84 10000 0.45 135 13:58 29.01.2021
3171 Clouds 1 1003 84 10000 0.89 135 13:34 29.01.2021
3172 Clouds 1 1003 85 10000 4.81 83 12:48 29.01.2021
3173 Clouds 0 1003 85 10000 0.45 135 12:20 29.01.2021
3174 Clouds 0 1004 86 10000 0.45 135 11:46 29.01.2021
3175 Clouds -1 1004 86 10000 5.66 50 11:18 29.01.2021
3176 Clouds -1 1004 87 10000 5.66 50 10:47 29.01.2021
3177 Clouds -1 1004 88 10000 6.13 34 10:26 29.01.2021
3178 Clouds -2 1004 87 10000 6.13 34 09:44 29.01.2021
3179 Clouds -2 1004 87 10000 5.41 19 08:52 29.01.2021
3180 Clouds -3 1005 87 10000 5.38 13 08:28 29.01.2021
3181 Clouds -3 1005 87 10000 5.38 13 07:54 29.01.2021
3182 Clouds -3 1005 87 10000 5.38 13 07:35 29.01.2021
3183 Clouds -3 1005 87 10000 0.45 315 06:58 29.01.2021
3184 Clouds -2 1007 85 10000 6.15 338 05:19 29.01.2021
3185 Clouds -1 1008 83 10000 7.85 339 02:53 29.01.2021
3186 Clouds -1 1008 82 10000 7.7 329 00:39 29.01.2021
3187 Clouds -1 1008 82 10000 7.95 332 00:20 29.01.2021
3188 Clouds -1 1008 82 10000 7.95 332 23:43 28.01.2021
3189 Clouds -1 1008 82 10000 8.15 337 23:24 28.01.2021
3190 Clouds -1 1008 82 10000 8.15 337 22:45 28.01.2021
3191 Clouds -1 1008 83 10000 0.45 22 22:26 28.01.2021
3192 Clouds -1 1008 83 10000 8.59 334 21:56 28.01.2021
3193 Clouds -1 1008 83 10000 8.59 334 21:34 28.01.2021
3194 Clouds -1 1008 83 10000 8.76 334 20:57 28.01.2021
3195 Clouds -1 1008 83 10000 0.45 0 20:39 28.01.2021
3196 Clouds -1 1008 84 10000 8.76 333 20:18 28.01.2021
3197 Clouds -1 1007 84 10000 8.92 336 19:41 28.01.2021
3198 Clouds -1 1007 83 10000 1.79 337 19:23 28.01.2021
3199 Clouds -1 1008 82 10000 0.45 315 18:43 28.01.2021
3200 Clouds 0 1007 82 10000 8.69 337 18:20 28.01.2021
3201 Clouds 0 1007 83 10000 8.69 337 17:46 28.01.2021
3202 Clouds 0 1007 83 10000 8.39 334 17:27 28.01.2021
3203 Clouds 0 1007 81 10000 2.24 315 16:45 28.01.2021
3204 Clouds 1 1007 80 10000 0.45 315 16:24 28.01.2021
3205 Clouds 1 1007 79 10000 0.89 315 15:44 28.01.2021
3206 Clouds 1 1007 78 10000 8.36 330 15:20 28.01.2021
3207 Clouds 1 1007 79 10000 8.36 330 14:42 28.01.2021
3208 Clear 1 1007 80 10000 0.45 0 14:23 28.01.2021
3209 Clear 1 1007 80 10000 0.45 292 13:49 28.01.2021
3210 Clouds 1 1007 80 10000 0.45 315 13:21 28.01.2021
3211 Clouds 1 1007 80 10000 9.03 320 12:46 28.01.2021
3212 Clouds 1 1008 80 10000 0.45 292 12:21 28.01.2021
3213 Clouds 1 1008 79 10000 0.89 292 11:44 28.01.2021
3214 Clouds 1 1008 84 10000 8.97 316 11:21 28.01.2021
3215 Clouds 1 1008 86 10000 0.45 292 10:56 28.01.2021
3216 Clouds 1 1008 86 10000 1.34 337 10:38 28.01.2021
3217 Clouds 1 1008 86 10000 1.79 315 10:20 28.01.2021
3218 Clouds 1 1008 86 10000 1.34 315 09:36 28.01.2021
3219 Clouds 1 1008 86 10000 0.89 315 09:18 28.01.2021
3220 Clouds 1 1008 88 10000 1.34 315 08:40 28.01.2021
3221 Clouds 1 1008 90 10000 2.24 315 07:49 28.01.2021
3222 Clouds 1 1008 91 10000 10.68 317 07:18 28.01.2021
3223 Clouds 1 1008 93 10000 1.79 315 06:44 28.01.2021
3224 Clouds 1 1008 93 10000 0.45 270 04:30 28.01.2021
3225 Snow 1 1009 92 58 0.89 225 02:26 28.01.2021
3226 Clouds 1 1010 92 2061 0.89 202 00:29 28.01.2021
3227 Clouds 1 1011 92 10000 0.89 202 23:25 27.01.2021
3228 Clouds 1 1011 92 10000 0.45 202 22:44 27.01.2021
3229 Clouds 1 1011 92 134 0.89 202 22:26 27.01.2021
3230 Clouds 1 1011 92 134 0.89 202 22:26 27.01.2021
3231 Snow 1 1012 92 134 0.89 202 21:59 27.01.2021
3232 Clouds 1 1012 92 134 0.89 180 21:40 27.01.2021
3233 Clouds 1 1012 92 134 0.89 180 21:40 27.01.2021
3234 Clouds 1 1012 92 10000 0.89 180 21:22 27.01.2021
3235 Clouds 1 1013 92 10000 0.89 180 20:41 27.01.2021
3236 Clouds 1 1014 92 10000 0.45 180 19:59 27.01.2021
3237 Clouds 1 1014 92 10000 0.45 180 19:41 27.01.2021
3238 Clouds 1 1014 92 10000 0.89 180 19:21 27.01.2021
3239 Clouds 1 1014 91 10000 0.89 202 18:43 27.01.2021
3240 Clouds 1 1014 91 10000 0.89 180 18:23 27.01.2021
3241 Clouds 1 1014 91 10000 0.89 202 17:46 27.01.2021
3242 Clouds 1 1014 91 10000 0.89 180 17:28 27.01.2021
3243 Clouds 1 1015 91 10000 0.45 202 16:49 27.01.2021
3244 Clouds 2 1015 91 10000 0.45 202 16:28 27.01.2021
3245 Clouds 2 1015 91 10000 0.45 202 15:51 27.01.2021
3246 Clouds 2 1015 91 10000 0.89 202 15:33 27.01.2021
3247 Clouds 2 1015 91 10000 0.89 202 14:47 27.01.2021
3248 Clouds 2 1015 92 10000 0.89 202 14:23 27.01.2021
3249 Clouds 2 1016 92 10000 0.89 202 13:48 27.01.2021
3250 Clouds 2 1016 92 10000 0.89 225 13:27 27.01.2021
3251 Clouds 2 1016 92 10000 0.89 225 12:41 27.01.2021
3252 Clouds 1 1016 92 10000 0.45 225 12:22 27.01.2021
3253 Clouds 1 1017 92 10000 0.45 247 11:46 27.01.2021
3254 Clouds 1 1017 92 10000 0.89 225 11:23 27.01.2021
3255 Clouds 1 1017 92 10000 0.89 225 10:41 27.01.2021
3256 Clouds 1 1017 92 10000 6.5 235 10:21 27.01.2021
3257 Clouds 0 1017 92 10000 0.89 225 09:50 27.01.2021
3258 Clouds 0 1017 92 10000 0.45 225 09:25 27.01.2021
3259 Clouds -1 1017 92 10000 6.42 235 08:39 27.01.2021
3260 Clouds -1 1017 92 10000 6.42 235 08:39 27.01.2021
3261 Clouds -2 1017 92 10000 6.24 247 07:46 27.01.2021
3262 Clouds -1 1017 92 10000 6.79 259 07:21 27.01.2021
3263 Clear -1 1017 92 10000 6.32 270 06:23 27.01.2021
3264 Clear -1 1017 92 10000 0.45 247 05:48 27.01.2021
3265 Clear -1 1017 92 10000 0.45 247 04:57 27.01.2021
3266 Clear 0 1017 92 10000 0.45 292 02:24 27.01.2021
3267 Clear -1 1017 92 10000 7.46 297 01:57 27.01.2021
3268 Clear -1 1017 91 10000 7.04 296 00:51 27.01.2021
3269 Clear 0 1017 90 10000 6.99 302 23:52 26.01.2021
3270 Clear -1 1017 90 10000 0.89 292 23:32 26.01.2021
3271 Clear -1 1017 90 10000 7.13 302 22:58 26.01.2021
3272 Clear 0 1017 90 10000 7.13 302 22:37 26.01.2021
3273 Clear 1 1017 90 10000 0.45 292 22:18 26.01.2021
3274 Clear 1 1017 91 10000 0.45 292 21:46 26.01.2021
3275 Clear 0 1017 91 10000 0.89 315 21:21 26.01.2021
3276 Clear 0 1017 92 10000 0.45 292 20:41 26.01.2021
3277 Clear 0 1016 92 10000 0.89 315 20:23 26.01.2021
3278 Clear 1 1016 93 10000 7.45 316 19:50 26.01.2021
3279 Clouds 1 1016 93 10000 0.89 315 19:29 26.01.2021
3280 Clouds 1 1016 92 10000 0.89 315 18:58 26.01.2021
3281 Clouds 1 1016 92 10000 0.89 292 18:40 26.01.2021
3282 Clouds 1 1015 92 10000 0.89 315 18:21 26.01.2021
3283 Clouds 1 1016 92 10000 7.62 310 17:47 26.01.2021
3284 Clouds 2 1015 92 10000 0.45 292 17:22 26.01.2021
3285 Clouds 2 1015 92 10000 7.78 309 16:43 26.01.2021
3286 Clouds 2 1015 92 10000 7.61 305 16:20 26.01.2021
3287 Clouds 2 1015 92 10000 7.61 305 15:51 26.01.2021
3288 Clouds 2 1015 92 10000 0.45 292 15:33 26.01.2021
3289 Clouds 2 1014 92 10000 0.45 270 14:49 26.01.2021
3290 Clouds 2 1014 91 10000 7 302 14:30 26.01.2021
3291 Clouds 2 1014 91 10000 7 302 14:30 26.01.2021
3292 Clouds 3 1014 92 10000 0.45 315 13:48 26.01.2021
3293 Clouds 3 1014 92 10000 0.45 315 13:27 26.01.2021
3294 Clouds 2 1014 93 10000 6.87 305 12:45 26.01.2021
3295 Clouds 2 1014 93 10000 6.33 311 12:25 26.01.2021
3296 Clouds 2 1014 94 10000 6.33 311 11:59 26.01.2021
3297 Clouds 1 1014 94 10000 6.33 311 11:39 26.01.2021
3298 Clouds 1 1014 94 10000 6.51 317 10:55 26.01.2021
3299 Clouds 1 1014 94 10000 6.51 317 10:33 26.01.2021
3300 Clouds 1 1014 94 10000 6.51 317 10:33 26.01.2021
3301 Clouds 0 1014 94 10000 6.15 315 09:49 26.01.2021
3302 Clouds 0 1014 94 10000 6.15 315 09:30 26.01.2021
3303 Clouds -1 1013 93 10000 5.77 318 08:53 26.01.2021
3304 Clouds -1 1013 93 10000 0.45 315 08:34 26.01.2021
3305 Clouds -1 1013 93 10000 5.45 322 07:50 26.01.2021
3306 Clouds -1 1012 93 10000 6.76 327 06:53 26.01.2021
3307 Clouds -1 1012 93 5441 6.97 316 05:45 26.01.2021
3308 Snow -1 1012 93 5354 7.11 304 05:24 26.01.2021
3309 Clouds 1 1011 93 10000 6.7 300 02:57 26.01.2021
3310 Clouds 1 1011 93 10000 0.45 270 00:58 26.01.2021
3311 Clouds 1 1010 92 10000 0.89 292 23:44 25.01.2021
3312 Clouds 1 1010 92 10000 0.45 315 23:25 25.01.2021
3313 Clouds 1 1010 91 10000 6.25 289 22:40 25.01.2021
3314 Clouds 1 1010 91 10000 0.45 270 22:18 25.01.2021
3315 Snow 1 1010 91 10000 5.62 277 21:39 25.01.2021
3316 Snow 1 1010 91 10000 0.45 292 20:59 25.01.2021
3317 Clouds 1 1009 91 10000 0.45 270 20:39 25.01.2021
3318 Clouds 1 1009 92 10000 0.45 270 20:19 25.01.2021
3319 Clouds 1 1009 92 10000 5.7 270 19:46 25.01.2021
3320 Clouds 1 1009 92 10000 6.07 271 19:22 25.01.2021
3321 Clouds 1 1009 91 10000 5.52 270 18:43 25.01.2021
3322 Clouds 1 1008 91 10000 0.45 292 18:24 25.01.2021
3323 Clouds 2 1008 90 10000 5.81 272 17:44 25.01.2021
3324 Clouds 2 1008 90 10000 5.81 272 17:44 25.01.2021
3325 Clouds 2 1008 90 10000 0.45 225 17:24 25.01.2021
3326 Clouds 2 1008 90 10000 6.19 271 16:44 25.01.2021
3327 Clouds 2 1008 90 10000 6.38 270 16:25 25.01.2021
3328 Clouds 2 1007 90 10000 6.38 270 15:54 25.01.2021
3329 Clouds 2 1007 90 10000 6.38 270 15:54 25.01.2021
3330 Clouds 3 1007 90 10000 0.45 270 15:34 25.01.2021
3331 Clouds 2 1007 89 10000 0.45 270 14:57 25.01.2021
3332 Clouds 2 1006 89 10000 6.49 271 14:38 25.01.2021
3333 Clouds 2 1006 88 10000 6.53 271 14:18 25.01.2021
3334 Clouds 2 1006 90 10000 6.53 271 13:40 25.01.2021
3335 Clouds 2 1006 90 10000 6.28 273 13:19 25.01.2021
3336 Clouds 2 1006 90 10000 0.89 270 12:40 25.01.2021
3337 Clouds 2 1006 90 10000 7.1 275 12:18 25.01.2021
3338 Clouds 2 1006 90 10000 0.45 270 11:28 25.01.2021
3339 Clouds 1 1005 92 10000 0.45 315 10:49 25.01.2021
3340 Clouds 2 1005 93 10000 0.45 270 10:22 25.01.2021
3341 Clouds 2 1005 93 10000 0.45 270 10:22 25.01.2021
3342 Clouds 1 1005 93 10000 5.86 282 09:52 25.01.2021
3343 Clouds 1 1004 93 4860 0.45 247 09:28 25.01.2021
3344 Clouds 1 1004 93 4860 5.66 286 08:38 25.01.2021
3345 Clouds 1 1004 93 3489 6.01 275 07:57 25.01.2021
3346 Snow 1 1004 93 5091 0.45 247 07:28 25.01.2021
3347 Clouds 1 1003 93 9602 0.45 292 06:38 25.01.2021
3348 Snow 1 1003 93 2682 5.12 244 02:32 25.01.2021
3349 Clouds 1 1002 93 4500 4.89 259 00:42 25.01.2021
3350 Clouds 1 1002 93 4460 4.38 254 23:39 24.01.2021
3351 Rain 1 1002 93 1651 3.93 250 23:18 24.01.2021
3352 Clouds 1 1002 93 1651 3.93 250 22:40 24.01.2021
3353 Clouds 1 1002 93 1566 3.84 249 22:18 24.01.2021
3354 Snow 1 1002 93 1566 3.84 249 21:37 24.01.2021
3355 Clouds 1 1002 93 1674 0.45 292 21:19 24.01.2021
3356 Snow 1 1002 93 1674 0.89 315 20:41 24.01.2021
3357 Snow 1 1002 92 4325 3.74 267 20:19 24.01.2021
3358 Rain 1 1002 92 4325 3.74 267 19:50 24.01.2021
3359 Rain 1 1002 92 600 0.45 315 19:26 24.01.2021
3360 Clouds 1 1002 92 600 4.1 275 18:56 24.01.2021
3361 Snow 1 1002 91 345 2.71 266 18:38 24.01.2021
3362 Snow 1 1002 92 122 2.89 269 18:19 24.01.2021
3363 Snow 1 1002 92 122 2.89 269 17:48 24.01.2021
3364 Rain 2 1002 92 143 2.61 271 17:21 24.01.2021
3365 Clouds 2 1002 92 143 2.61 271 16:43 24.01.2021
3366 Snow 2 1002 92 476 2.37 269 16:25 24.01.2021
3367 Clouds 2 1002 92 476 0.45 315 15:58 24.01.2021
3368 Clouds 2 1002 92 476 2.37 269 15:40 24.01.2021
3369 Clouds 2 1002 91 1847 0.45 315 15:18 24.01.2021
3370 Clouds 2 1002 91 1847 2.31 262 14:38 24.01.2021
3371 Clouds 2 1001 92 4744 2.03 248 13:45 24.01.2021
3372 Clouds 2 1002 92 10000 1.96 231 13:24 24.01.2021
3373 Clouds 2 1002 92 10000 1.96 231 12:47 24.01.2021
3374 Clouds 2 1001 92 10000 2.07 222 12:20 24.01.2021
3375 Clouds 2 1001 92 10000 2.07 222 11:51 24.01.2021
3376 Clouds 2 1001 92 10000 2.23 216 11:24 24.01.2021
3377 Clouds 1 1001 92 10000 2.23 216 10:49 24.01.2021
3378 Clouds 1 1001 92 10000 2.34 220 10:26 24.01.2021
3379 Clouds 0 1001 91 10000 2.66 218 09:23 24.01.2021
3380 Clouds 1 1001 91 10000 2.66 218 08:59 24.01.2021
3381 Clouds 0 1001 92 10000 3.39 206 08:24 24.01.2021
3382 Clouds -1 1001 90 10000 3.25 172 03:25 24.01.2021
3383 Clouds -1 1001 90 10000 2.91 170 02:18 24.01.2021
3384 Clouds -1 1000 90 10000 2.76 222 00:27 24.01.2021
3385 Clouds -1 1000 90 10000 2.76 222 23:59 23.01.2021
3386 Clouds -1 1001 90 10000 2.76 222 23:33 23.01.2021
3387 Clouds -1 1000 90 10000 3.79 227 22:58 23.01.2021
3388 Clouds -1 1000 89 10000 3.79 227 22:40 23.01.2021
3389 Clouds -1 1000 89 10000 3.49 225 21:58 23.01.2021
3390 Clouds -1 1000 89 10000 4.2 225 21:23 23.01.2021
3391 Clouds -1 1000 89 10000 4.2 225 20:51 23.01.2021
3392 Clouds 0 1000 89 10000 4.2 225 20:30 23.01.2021
3393 Clouds 1 1000 89 10000 4.52 222 19:56 23.01.2021
3394 Clouds 1 1000 89 10000 4.52 222 19:38 23.01.2021
3395 Clouds 1 1000 89 10000 4.05 212 19:19 23.01.2021
3396 Clouds 1 1000 89 10000 3.4 203 18:42 23.01.2021
3397 Clouds 1 1000 89 10000 2.66 202 18:20 23.01.2021
3398 Clouds 1 1000 89 10000 1.61 173 17:29 23.01.2021
3399 Clouds 2 1000 89 10000 1.61 173 16:52 23.01.2021
3400 Clouds 2 1000 89 10000 1.61 173 16:32 23.01.2021
3401 Clouds 2 1000 89 10000 1.35 160 15:53 23.01.2021
3402 Clouds 2 1000 89 10000 1.73 209 15:28 23.01.2021
3403 Clouds 2 1000 89 10000 1.73 209 14:45 23.01.2021
3404 Clouds 2 1000 89 10000 2.36 207 14:24 23.01.2021
3405 Clouds 2 1000 89 10000 2.36 207 13:49 23.01.2021
3406 Rain 2 1001 89 10000 3.26 207 13:24 23.01.2021
3407 Clouds 2 1001 89 10000 1.88 204 12:45 23.01.2021
3408 Clouds 2 1001 89 10000 2.23 195 12:25 23.01.2021
3409 Clouds 2 1002 89 10000 2.23 195 11:42 23.01.2021
3410 Clouds 1 1002 89 10000 2.22 192 10:59 23.01.2021
3411 Clouds 1 1002 89 10000 2.63 201 10:26 23.01.2021
3412 Clouds 1 1002 89 10000 2.63 201 09:53 23.01.2021
3413 Clouds 1 1002 89 10000 3.26 205 09:28 23.01.2021
3414 Clouds 0 1002 89 10000 3.26 205 08:44 23.01.2021
3415 Clouds 0 1001 89 10000 3.03 220 07:49 23.01.2021
3416 Clouds 0 1001 89 10000 3.78 237 06:55 23.01.2021
3417 Clouds 1 1002 88 10000 0.45 202 03:34 23.01.2021
3418 Clouds 1 1001 87 10000 0.89 202 00:34 23.01.2021
3419 Clouds 2 1000 87 10000 0.89 225 23:36 22.01.2021
3420 Clouds 2 1000 87 10000 1.34 225 22:45 22.01.2021
3421 Clouds 2 999 86 10000 0.89 225 22:21 22.01.2021
3422 Clouds 2 999 86 10000 0.45 225 21:45 22.01.2021
3423 Clouds 2 999 86 10000 0.89 202 21:24 22.01.2021
3424 Clouds 2 999 85 10000 0.89 225 20:51 22.01.2021
3425 Clouds 3 999 85 10000 0.89 225 20:31 22.01.2021
3426 Clouds 3 998 84 10000 0.89 225 19:48 22.01.2021
3427 Clouds 3 998 84 10000 1.34 225 19:21 22.01.2021
3428 Clouds 4 998 84 10000 1.34 225 18:48 22.01.2021
3429 Clouds 4 997 85 10000 0.89 225 18:26 22.01.2021
3430 Clouds 4 997 85 10000 0.89 225 17:56 22.01.2021
3431 Clouds 4 997 85 10000 0.89 225 17:38 22.01.2021
3432 Clouds 4 997 84 10000 1.34 225 16:56 22.01.2021
3433 Clouds 4 996 83 10000 1.34 225 16:31 22.01.2021
3434 Clouds 5 995 82 10000 1.79 225 15:53 22.01.2021
3435 Clouds 6 995 81 10000 2.24 225 15:25 22.01.2021
3436 Clouds 6 995 83 10000 1.34 225 14:43 22.01.2021
3437 Clouds 6 995 83 10000 1.79 247 14:25 22.01.2021
3438 Clouds 6 994 83 10000 0.45 202 13:46 22.01.2021
3439 Clouds 6 994 83 10000 0.45 202 13:26 22.01.2021
3440 Clouds 6 994 84 10000 0.45 247 12:42 22.01.2021
3441 Clouds 6 994 85 10000 0.45 225 12:19 22.01.2021
3442 Clouds 6 993 85 10000 0.89 247 11:42 22.01.2021
3443 Clouds 5 992 87 10000 9.98 252 10:49 22.01.2021
3444 Clouds 5 992 86 5268 0.45 225 10:29 22.01.2021
3445 Clouds 6 991 84 5268 1.34 292 09:46 22.01.2021
3446 Clouds 8 989 82 10000 1.79 202 09:20 22.01.2021
3447 Rain 8 988 83 10000 3.13 180 08:45 22.01.2021
3448 Clouds 8 987 85 10000 2.68 202 08:22 22.01.2021
3449 Clouds 7 988 88 10000 2.24 180 07:23 22.01.2021
3450 Rain 5 992 89 10000 1.34 180 02:42 22.01.2021
3451 Clouds 4 996 86 10000 0.89 157 00:37 22.01.2021
3452 Clouds 4 996 85 10000 0.89 180 23:50 21.01.2021
3453 Clouds 4 996 85 10000 0.89 180 23:29 21.01.2021
3454 Clouds 4 997 85 10000 0.89 180 22:49 21.01.2021
3455 Clouds 4 997 84 10000 0.89 180 22:23 21.01.2021
3456 Clouds 4 998 84 10000 1.34 202 21:43 21.01.2021
3457 Clouds 4 998 84 10000 1.79 202 21:20 21.01.2021
3458 Clouds 4 998 83 10000 1.34 180 20:48 21.01.2021
3459 Clouds 4 998 83 10000 0.89 202 20:27 21.01.2021
3460 Clouds 4 998 81 10000 0.89 202 19:52 21.01.2021
3461 Clouds 4 998 80 10000 1.34 202 19:29 21.01.2021
3462 Clouds 4 998 79 10000 0.89 202 18:57 21.01.2021
3463 Clouds 5 998 78 10000 0.45 202 18:38 21.01.2021
3464 Clouds 5 998 77 10000 1.34 202 18:19 21.01.2021
3465 Clouds 5 997 77 10000 0.89 225 17:42 21.01.2021
3466 Clouds 6 997 76 10000 0.89 202 17:20 21.01.2021
3467 Clouds 6 997 75 10000 0.89 225 16:48 21.01.2021
3468 Clouds 6 997 74 10000 0.89 225 16:26 21.01.2021
3469 Clouds 7 997 73 10000 1.34 202 15:59 21.01.2021
3470 Clouds 8 997 72 10000 1.34 225 15:33 21.01.2021
3471 Clouds 9 996 70 10000 0.45 225 14:53 21.01.2021
3472 Clouds 9 996 70 10000 1.34 225 14:35 21.01.2021
3473 Clouds 9 996 71 10000 2.24 202 13:51 21.01.2021
3474 Clouds 9 996 73 10000 2.24 202 13:32 21.01.2021
3475 Clouds 9 996 70 10000 2.68 225 12:56 21.01.2021
3476 Clouds 9 996 70 10000 2.68 225 12:38 21.01.2021
3477 Clouds 9 996 70 10000 2.68 225 12:20 21.01.2021
3478 Clouds 9 996 70 10000 2.68 202 11:45 21.01.2021
3479 Clouds 8 996 74 10000 2.24 202 11:24 21.01.2021
3480 Clouds 7 996 75 10000 1.79 202 10:51 21.01.2021
3481 Clouds 7 996 75 10000 1.79 180 10:28 21.01.2021
3482 Clouds 6 996 78 10000 1.79 180 09:43 21.01.2021
3483 Clouds 6 996 80 10000 1.79 180 09:24 21.01.2021
3484 Clouds 5 996 81 10000 1.79 157 08:44 21.01.2021
3485 Clouds 4 996 82 10000 2.68 157 08:23 21.01.2021
3486 Clouds 4 997 82 10000 1.34 180 07:27 21.01.2021
3487 Clouds 4 997 83 10000 1.34 180 06:54 21.01.2021
3488 Clouds 4 998 85 10000 2.24 180 05:21 21.01.2021
3489 Clouds 4 1000 87 10000 1.34 180 02:31 21.01.2021
3490 Clouds 6 1001 85 10000 0.89 180 00:54 21.01.2021
3491 Rain 6 1002 84 10000 1.79 202 23:54 20.01.2021
3492 Rain 6 1002 84 10000 1.79 225 23:32 20.01.2021
3493 Rain 6 1002 84 10000 1.79 180 22:58 20.01.2021
3494 Clouds 6 1002 84 10000 2.24 202 22:37 20.01.2021
3495 Rain 6 1002 84 10000 1.79 202 21:59 20.01.2021
3496 Clouds 6 1002 84 10000 1.34 225 21:41 20.01.2021
3497 Clouds 6 1002 84 10000 1.34 225 21:41 20.01.2021
3498 Clouds 6 1002 85 10000 1.34 202 21:20 20.01.2021
3499 Rain 6 1002 85 10000 1.34 202 20:41 20.01.2021
3500 Rain 6 1002 86 10000 1.34 202 20:18 20.01.2021
3501 Rain 6 1002 86 10000 0.89 202 19:43 20.01.2021
3502 Rain 6 1002 86 10000 0.89 202 19:43 20.01.2021
3503 Clouds 6 1002 86 10000 1.79 202 19:24 20.01.2021
3504 Clouds 6 1002 87 10000 0.89 202 18:42 20.01.2021
3505 Rain 6 998 85 10000 8.14 214 17:58 20.01.2021
3506 Rain 6 998 85 10000 8.14 214 17:39 20.01.2021
3507 Rain 6 998 85 10000 8.96 221 17:19 20.01.2021
3508 Rain 6 998 85 10000 8.96 221 16:41 20.01.2021
3509 Clouds 6 998 80 10000 8.95 216 15:55 20.01.2021
3510 Clouds 6 998 80 10000 8.95 216 15:36 20.01.2021
3511 Clouds 6 997 85 10000 9.32 219 14:51 20.01.2021
3512 Clouds 6 997 85 10000 9.32 219 14:51 20.01.2021
3513 Rain 6 998 84 10000 9.63 221 14:25 20.01.2021
3514 Rain 6 998 84 10000 9.63 221 13:59 20.01.2021
3515 Rain 6 998 84 10000 9.63 221 13:36 20.01.2021
3516 Clouds 6 998 82 10000 9.96 217 12:48 20.01.2021
3517 Rain 6 998 81 10000 10.19 212 12:21 20.01.2021
3518 Rain 6 998 81 10000 10.19 212 11:39 20.01.2021
3519 Rain 5 998 86 10000 10.13 213 11:18 20.01.2021
3520 Rain 5 998 86 10000 10.13 213 10:44 20.01.2021
3521 Rain 5 998 89 10000 10.23 211 10:18 20.01.2021
3522 Rain 5 998 89 10000 10.23 211 09:31 20.01.2021
3523 Rain 5 998 92 10000 10.15 213 08:59 20.01.2021
3524 Rain 5 998 92 10000 10.15 213 08:41 20.01.2021
3525 Rain 5 998 92 10000 9.9 212 08:20 20.01.2021
3526 Rain 5 998 92 10000 9.9 212 07:37 20.01.2021
3527 Rain 5 998 91 10000 9.76 215 06:59 20.01.2021
3528 Rain 6 999 93 10000 9.44 231 03:37 20.01.2021
3529 Rain 5 999 97 10000 7.36 221 01:51 20.01.2021
3530 Clouds 4 1000 96 10000 6.31 205 00:52 20.01.2021
3531 Rain 4 1000 96 10000 6.31 220 23:51 19.01.2021
3532 Rain 4 1000 96 10000 6.31 220 23:32 19.01.2021
3533 Rain 4 1000 96 10000 6.82 221 22:58 19.01.2021
3534 Rain 4 1000 96 10000 6.82 221 22:39 19.01.2021
3535 Rain 4 999 96 10000 6.4 208 22:21 19.01.2021
3536 Clouds 4 999 96 10000 6.4 208 21:54 19.01.2021
3537 Rain 4 999 96 10000 6.4 208 21:34 19.01.2021
3538 Rain 3 999 96 10000 6.6 200 20:49 19.01.2021
3539 Rain 3 1000 95 10000 6.54 196 20:28 19.01.2021
3540 Rain 3 1000 95 10000 6.54 196 19:56 19.01.2021
3541 Clouds 3 1000 95 10000 6.54 196 19:36 19.01.2021
3542 Clouds 3 1000 95 10000 6.3 190 19:18 19.01.2021
3543 Clouds 1 1007 94 10000 6.57 194 18:38 19.01.2021
3544 Rain 1 1007 94 10000 7.07 194 18:20 19.01.2021
3545 Rain 1 1007 94 10000 7.07 194 18:20 19.01.2021
3546 Clouds 1 1007 94 10000 7.07 194 17:42 19.01.2021
3547 Clouds 3 1001 95 10000 7.2 191 17:20 19.01.2021
3548 Clouds 3 1001 95 10000 7.2 191 16:40 19.01.2021
3549 Clouds 3 1001 95 10000 7.42 191 16:20 19.01.2021
3550 Clouds 3 1001 95 10000 7.42 191 15:51 19.01.2021
3551 Clouds 3 1001 95 10000 7.42 191 15:32 19.01.2021
3552 Clouds 3 1001 95 10000 7.72 187 14:47 19.01.2021
3553 Clouds 3 1002 95 10000 8.48 189 14:26 19.01.2021
3554 Rain 3 1002 95 10000 8.48 189 13:52 19.01.2021
3555 Rain 3 1004 96 2211 9.49 189 13:24 19.01.2021
3556 Rain 3 1003 95 8866 9.7 188 12:51 19.01.2021
3557 Rain 3 1003 95 8866 9.7 188 12:30 19.01.2021
3558 Rain 3 1005 96 2066 8.52 187 11:52 19.01.2021
3559 Rain 3 1005 96 2066 8.52 187 11:30 19.01.2021
3560 Rain 3 1005 96 540 7.78 192 10:59 19.01.2021
3561 Clouds 3 1005 96 540 7.78 192 10:40 19.01.2021
3562 Clouds 3 1006 92 10000 7.36 203 10:18 19.01.2021
3563 Clouds 3 1006 92 10000 7.36 203 09:46 19.01.2021
3564 Clouds 3 1007 93 10000 7.79 213 09:19 19.01.2021
3565 Clouds 3 1007 93 10000 7.79 213 08:33 19.01.2021
3566 Clouds 3 1008 91 10000 7.79 215 07:53 19.01.2021
3567 Clouds 3 1008 93 10000 8.65 235 06:59 19.01.2021
3568 Clouds 4 1010 92 10000 9.05 252 04:18 19.01.2021
3569 Clouds 4 1010 91 10000 9.65 250 02:22 19.01.2021
3570 Clouds 2 1017 94 10000 10.05 252 00:37 19.01.2021
3571 Clouds 2 1017 94 10000 9.48 252 23:55 18.01.2021
3572 Clouds 2 1017 94 10000 7.85 250 23:27 18.01.2021
3573 Clouds 1 1017 93 10000 0.89 225 22:44 18.01.2021
3574 Rain 1 1017 93 10000 0.89 225 22:22 18.01.2021
3575 Snow 1 1017 93 10000 0.89 225 21:47 18.01.2021
3576 Snow 1 1018 93 10000 0.45 225 21:23 18.01.2021
3577 Snow 0 1018 93 10000 0.89 202 20:57 18.01.2021
3578 Snow 0 1018 93 10000 0.89 180 20:34 18.01.2021
3579 Snow -1 1018 92 10000 0.89 157 19:54 18.01.2021
3580 Snow -1 1018 93 10000 0.89 180 19:35 18.01.2021
3581 Snow -1 1018 92 9491 0.89 180 18:53 18.01.2021
3582 Snow -1 1019 92 9491 1.34 180 18:33 18.01.2021
3583 Snow -1 1019 92 6038 0.89 157 17:52 18.01.2021
3584 Rain -1 1019 92 6038 0.89 157 17:32 18.01.2021
3585 Snow -1 1020 91 204 0.89 180 16:55 18.01.2021
3586 Snow -1 1020 90 204 0.89 157 16:35 18.01.2021
3587 Rain -1 1020 90 232 1.34 180 15:58 18.01.2021
3588 Rain -1 1021 90 232 0.89 180 15:40 18.01.2021
3589 Clouds -1 1021 89 10000 1.34 157 15:19 18.01.2021
3590 Clouds -1 1021 89 10000 1.34 180 14:42 18.01.2021
3591 Clouds -1 1022 89 10000 0.89 180 14:24 18.01.2021
3592 Clouds -1 1022 89 10000 1.34 180 13:45 18.01.2021
3593 Clouds -1 1022 89 10000 1.34 180 13:24 18.01.2021
3594 Clouds -1 1023 89 10000 0.89 202 12:49 18.01.2021
3595 Clouds -2 1023 89 10000 0.89 180 12:19 18.01.2021
3596 Clouds -2 1023 89 10000 0.89 180 11:48 18.01.2021
3597 Clouds -2 1024 89 9516 1.34 180 11:27 18.01.2021
3598 Clouds -3 1024 90 9516 0.89 180 10:53 18.01.2021
3599 Clouds -3 1024 89 9516 0.89 157 10:34 18.01.2021
3600 Clouds -3 1025 90 1913 0.45 180 09:43 18.01.2021
3601 Clouds -3 1024 90 10000 0.45 157 09:19 18.01.2021
3602 Clouds -4 1025 90 10000 0.89 180 08:47 18.01.2021
3603 Clouds -4 1025 90 10000 0.45 157 07:55 18.01.2021
3604 Snow -4 1025 90 10000 0.45 157 07:21 18.01.2021
3605 Clouds -5 1026 89 10000 0.45 157 04:58 18.01.2021
3606 Clouds -5 1025 89 10000 0.45 157 04:31 18.01.2021
3607 Clouds -5 1026 89 10000 0.45 157 03:59 18.01.2021
3608 Clouds -5 1026 89 10000 0.45 157 03:39 18.01.2021
3609 Clouds -5 1026 89 10000 0.45 157 03:19 18.01.2021
3610 Clouds -5 1026 89 10000 0.45 157 02:37 18.01.2021
3611 Clouds -4 1027 89 10000 0.45 157 00:46 18.01.2021
3612 Clouds -4 1027 89 10000 0.45 157 00:27 18.01.2021
3613 Clouds -4 1027 89 10000 0.89 135 23:46 17.01.2021
3614 Clouds -4 1027 89 10000 0.45 157 23:20 17.01.2021
3615 Clouds -3 1027 89 10000 4.77 196 22:39 17.01.2021
3616 Clouds -3 1027 89 10000 0.45 157 22:20 17.01.2021
3617 Clouds -3 1027 88 10000 0.89 157 21:40 17.01.2021
3618 Clouds -3 1027 89 10000 4.52 192 21:22 17.01.2021
3619 Clouds -2 1027 89 10000 0.89 157 20:48 17.01.2021
3620 Clouds -2 1027 88 10000 0.45 157 20:28 17.01.2021
3621 Clouds -2 1027 88 10000 4.34 189 19:42 17.01.2021
3622 Clouds -2 1027 88 10000 4.37 183 19:23 17.01.2021
3623 Clouds -2 1027 88 10000 0.45 180 18:44 17.01.2021
3624 Clouds -1 1027 88 10000 4.07 155 18:26 17.01.2021
3625 Clouds -1 1027 88 10000 0.45 202 17:48 17.01.2021
3626 Clouds -1 1027 88 10000 0.45 202 17:26 17.01.2021
3627 Clouds -1 1027 88 10000 3.54 149 16:44 17.01.2021
3628 Clear -1 1026 88 10000 0.89 202 16:24 17.01.2021
3629 Clear -1 1026 88 10000 0.45 157 15:43 17.01.2021
3630 Clear -1 1026 88 10000 0.45 135 15:25 17.01.2021
3631 Clear -1 1026 88 10000 0.45 135 14:50 17.01.2021
3632 Clouds -1 1026 88 10000 0.45 135 14:26 17.01.2021
3633 Clouds 0 1026 88 10000 0.45 135 13:58 17.01.2021
3634 Clouds 0 1026 88 10000 0.45 135 13:36 17.01.2021
3635 Clouds 0 1026 88 10000 4.35 161 13:18 17.01.2021
3636 Clouds 0 1026 89 10000 4.35 161 12:37 17.01.2021
3637 Clouds 0 1026 89 10000 4.57 161 12:18 17.01.2021
3638 Clouds -1 1026 89 10000 0.45 135 11:25 17.01.2021
3639 Clouds -1 1026 89 10000 0.45 135 10:50 17.01.2021
3640 Clouds -1 1025 90 10000 0.89 135 10:24 17.01.2021
3641 Clouds -1 1025 90 10000 0.45 135 09:48 17.01.2021
3642 Clouds -1 1025 89 10000 4.99 153 08:48 17.01.2021
3643 Clouds -1 1025 89 10000 3.13 136 08:26 17.01.2021
3644 Clouds -1 1023 89 10000 0.68 16 04:29 17.01.2021
3645 Clouds -2 1024 89 10000 1.09 29 02:51 17.01.2021
3646 Clouds -2 1024 87 10000 1.83 22 00:56 17.01.2021
3647 Clouds -2 1024 87 10000 2.63 351 00:21 17.01.2021
3648 Clouds -1 1024 87 10000 2.63 351 23:52 16.01.2021
3649 Clouds -1 1024 88 10000 0.89 315 23:22 16.01.2021
3650 Clouds -1 1024 88 10000 0.45 292 22:53 16.01.2021
3651 Clouds -1 1024 88 10000 4.2 344 22:19 16.01.2021
3652 Clouds -1 1024 87 10000 4.2 344 21:46 16.01.2021
3653 Clouds -1 1025 88 10000 1.34 292 21:23 16.01.2021
3654 Clouds -1 1024 88 10000 0.89 315 20:48 16.01.2021
3655 Clouds -2 1024 88 10000 1.34 315 20:24 16.01.2021
3656 Clouds -2 1025 87 10000 1.34 337 19:49 16.01.2021
3657 Clouds -2 1025 87 10000 1.34 315 19:30 16.01.2021
3658 Clear -2 1025 88 10000 0.45 292 18:46 16.01.2021
3659 Clear -2 1025 88 10000 0.89 315 18:27 16.01.2021
3660 Clear -2 1025 87 10000 1.34 315 17:58 16.01.2021
3661 Clear -2 1025 87 10000 1.79 315 17:39 16.01.2021
3662 Clear -2 1025 87 10000 0.45 292 17:20 16.01.2021
3663 Clear -2 1026 86 10000 1.34 292 16:41 16.01.2021
3664 Clear -2 1026 85 10000 2.24 315 15:58 16.01.2021
3665 Clear -1 1026 84 10000 0.45 315 15:39 16.01.2021
3666 Clear -1 1026 83 10000 0.89 292 14:34 16.01.2021
3667 Clear -1 1027 84 10000 7.93 320 13:53 16.01.2021
3668 Clear -1 1027 84 10000 1.34 315 13:31 16.01.2021
3669 Clear -1 1027 82 10000 0.45 0 12:49 16.01.2021
3670 Clear -1 1027 82 10000 6.6 325 12:31 16.01.2021
3671 Clear -1 1027 81 10000 0.45 337 11:59 16.01.2021
3672 Clear -2 1028 81 10000 6.38 329 11:39 16.01.2021
3673 Clear -2 1028 81 10000 6.48 330 11:18 16.01.2021
3674 Clear -2 1028 81 10000 6.48 330 10:41 16.01.2021
3675 Clear -2 1028 81 10000 6.35 333 09:57 16.01.2021
3676 Clear -2 1029 82 10000 6.12 337 09:21 16.01.2021
3677 Clear -2 1029 82 10000 5.84 339 08:20 16.01.2021
3678 Clouds -2 1029 81 10000 0.89 292 06:54 16.01.2021
3679 Clouds -2 1030 80 10000 5.71 341 05:35 16.01.2021
3680 Clouds -3 1030 80 10000 0.45 22 04:36 16.01.2021
3681 Clouds -1 1025 91 10000 6.19 344 02:54 16.01.2021
3682 Clouds -1 1026 91 10000 5.92 348 00:48 16.01.2021
3683 Clear -1 1026 89 10000 6.02 354 00:24 16.01.2021
3684 Clear -1 1026 89 10000 6.02 354 23:39 15.01.2021
3685 Clear -1 1026 89 10000 6.12 357 22:47 15.01.2021
3686 Clear -1 1026 89 10000 6.3 359 22:23 15.01.2021
3687 Clear -1 1026 89 10000 6.3 359 21:46 15.01.2021
3688 Clear -1 1026 89 10000 6.44 0 20:58 15.01.2021
3689 Clear -1 1026 89 10000 6.44 0 20:40 15.01.2021
3690 Clear -1 1026 89 10000 6.77 1 20:19 15.01.2021
3691 Clear -1 1026 89 10000 6.77 1 19:40 15.01.2021
3692 Clouds -1 1025 89 10000 6.96 358 19:22 15.01.2021
3693 Clouds -1 1025 88 10000 6.56 357 18:42 15.01.2021
3694 Clouds -1 1025 89 10000 6.62 356 18:18 15.01.2021
3695 Clouds -1 1025 89 10000 6.62 356 17:50 15.01.2021
3696 Clouds -1 1025 89 10000 6.56 360 17:24 15.01.2021
3697 Clouds -1 1025 89 10000 6.56 360 16:52 15.01.2021
3698 Clouds -2 1025 90 10000 6.84 4 16:25 15.01.2021
3699 Clouds -2 1025 90 10000 6.84 4 15:42 15.01.2021
3700 Clouds -2 1024 90 10000 6.91 5 15:22 15.01.2021
3701 Clouds -2 1024 90 10000 6.91 5 14:50 15.01.2021
3702 Clouds -2 1025 90 10000 7.1 8 14:27 15.01.2021
3703 Clouds -2 1025 90 10000 7.1 8 13:44 15.01.2021
3704 Clouds -2 1025 90 10000 7.07 12 13:24 15.01.2021
3705 Clouds -2 1025 90 10000 7.07 12 12:59 15.01.2021
3706 Clouds -2 1025 91 10000 6.79 10 12:37 15.01.2021
3707 Clouds -2 1025 91 10000 7.01 12 12:18 15.01.2021
3708 Clouds -2 1025 91 10000 7.01 12 11:42 15.01.2021
3709 Clouds -2 1024 91 10000 7.36 12 10:58 15.01.2021
3710 Clouds -2 1024 91 10000 7.36 12 10:39 15.01.2021
3711 Clouds -2 1024 91 10000 7.62 9 10:19 15.01.2021
3712 Clouds -2 1024 91 10000 7.62 9 09:47 15.01.2021
3713 Clouds -1 1024 91 10000 7.92 7 09:27 15.01.2021
3714 Clouds -1 1023 93 10000 7.56 7 08:27 15.01.2021
3715 Clouds -1 1023 93 10000 7.56 7 07:44 15.01.2021
3716 Clouds 0 1022 94 10000 7.55 12 07:22 15.01.2021
3717 Clouds 0 1022 95 10000 7.24 5 06:28 15.01.2021
3718 Clouds 0 1022 94 10000 6.09 357 02:43 15.01.2021
3719 Clouds 1 1022 91 10000 5.81 356 00:41 15.01.2021
3720 Clouds 1 1022 88 10000 5.15 0 23:30 14.01.2021
3721 Clouds 1 1022 87 10000 4.91 11 22:57 14.01.2021
3722 Clouds 1 1022 87 10000 4.91 11 22:37 14.01.2021
3723 Clouds 2 1021 86 10000 5.14 19 22:19 14.01.2021
3724 Clouds 2 1021 86 10000 5.14 19 21:39 14.01.2021
3725 Clouds 2 1021 85 10000 5.54 28 21:20 14.01.2021
3726 Clouds 2 1021 85 10000 5.54 28 20:47 14.01.2021
3727 Clouds 2 1021 84 10000 5.98 34 20:18 14.01.2021
3728 Clouds 2 1021 84 10000 5.98 34 20:18 14.01.2021
3729 Clouds 2 1021 84 10000 5.98 34 19:38 14.01.2021
3730 Clouds 2 1021 84 10000 6.67 35 19:18 14.01.2021
3731 Clouds 2 1021 84 10000 6.35 33 18:44 14.01.2021
3732 Clouds 2 1020 84 10000 6.71 32 17:59 14.01.2021
3733 Clouds 2 1020 84 10000 6.71 32 17:41 14.01.2021
3734 Clouds 2 1020 84 10000 7.47 27 17:23 14.01.2021
3735 Clouds 2 1020 84 10000 7.47 27 16:39 14.01.2021
3736 Clouds 2 1020 84 10000 8.17 25 15:56 14.01.2021
3737 Clouds 2 1020 84 10000 8.17 25 15:38 14.01.2021
3738 Rain 2 1019 84 10000 8.36 23 14:58 14.01.2021
3739 Rain 2 1019 84 10000 8.36 23 14:36 14.01.2021
3740 Rain 3 1019 82 10000 8.12 26 14:18 14.01.2021
3741 Rain 3 1019 82 10000 8.12 26 13:48 14.01.2021
3742 Rain 3 1018 80 10000 8.24 24 13:19 14.01.2021
3743 Clouds 3 1018 81 8089 8.31 24 12:38 14.01.2021
3744 Clouds 3 1018 82 10000 9.08 21 12:18 14.01.2021
3745 Clouds 3 1018 82 10000 9.08 21 11:42 14.01.2021
3746 Clouds 3 1017 82 10000 8.98 17 11:20 14.01.2021
3747 Clouds 3 1017 82 10000 8.98 17 10:50 14.01.2021
3748 Clouds 3 1016 82 10000 8.76 18 10:25 14.01.2021
3749 Clouds 3 1016 82 10000 8.76 18 09:48 14.01.2021
3750 Clouds 2 1015 84 10000 8.99 17 09:23 14.01.2021
3751 Clouds 2 1015 84 10000 8.99 17 08:49 14.01.2021
3752 Clouds 2 1014 85 10000 9.29 15 08:25 14.01.2021
3753 Clouds 2 1014 85 10000 9.29 15 07:48 14.01.2021
3754 Clouds 2 1013 85 10000 9.83 14 06:53 14.01.2021
3755 Clouds 3 1012 83 10000 10.67 16 05:50 14.01.2021
3756 Clouds 4 1005 78 5663 13.69 57 00:46 14.01.2021
3757 Clouds 3 1003 84 6321 13.77 62 23:54 13.01.2021
3758 Clouds 3 1002 92 2442 11.31 56 23:23 13.01.2021
3759 Clouds 3 1002 92 2442 11.31 56 22:30 13.01.2021
3760 Clouds 3 1001 80 10000 8.26 55 21:57 13.01.2021
3761 Rain 3 1001 80 10000 8.26 55 21:39 13.01.2021
3762 Rain 3 999 87 10000 7.49 51 21:19 13.01.2021
3763 Rain 3 999 87 10000 7.49 51 20:38 13.01.2021
3764 Rain 2 998 94 1973 4.15 327 20:19 13.01.2021
3765 Rain 2 998 94 1973 4.15 327 19:42 13.01.2021
3766 Snow 2 998 95 102 8.27 310 19:21 13.01.2021
3767 Snow 2 998 91 241 10.29 303 18:41 13.01.2021
3768 Snow 2 997 94 768 11.92 296 18:18 13.01.2021
3769 Snow 2 997 94 768 11.92 296 17:40 13.01.2021
3770 Clouds 3 997 80 3949 12.18 292 17:18 13.01.2021
3771 Rain 3 998 79 5297 12.31 301 16:23 13.01.2021
3772 Clouds 3 998 79 5297 12.31 301 15:59 13.01.2021
3773 Clouds 3 998 79 5297 12.31 301 15:59 13.01.2021
3774 Rain 3 998 79 5297 12.31 301 15:39 13.01.2021
3775 Clouds 3 998 80 9251 10.45 265 14:56 13.01.2021
3776 Rain 2 998 91 3810 11.96 257 14:21 13.01.2021
3777 Rain 2 998 91 3810 11.96 257 13:38 13.01.2021
3778 Rain 2 998 91 3026 12.42 276 13:19 13.01.2021
3779 Rain 2 998 91 3026 12.42 276 12:44 13.01.2021
3780 Rain 3 999 85 10000 14.35 242 12:22 13.01.2021
3781 Rain 3 999 85 10000 14.35 242 11:49 13.01.2021
3782 Rain 3 999 85 10000 14.35 242 11:31 13.01.2021
3783 Clouds 4 1000 74 10000 13.35 247 10:48 13.01.2021
3784 Clouds 5 1000 71 10000 12.6 255 10:26 13.01.2021
3785 Clouds 5 1000 71 10000 12.6 255 09:40 13.01.2021
3786 Clouds 5 1001 71 10000 11.1 262 08:58 13.01.2021
3787 Clouds 5 1001 71 10000 11.1 262 08:58 13.01.2021
3788 Clouds 5 1001 71 10000 11.1 262 08:35 13.01.2021
3789 Clouds 5 1001 71 10000 10.33 275 07:57 13.01.2021
3790 Clouds 5 1002 71 10000 10.55 284 07:27 13.01.2021
3791 Clouds 4 1002 72 10000 11.2 285 05:52 13.01.2021
3792 Clouds 4 1002 72 10000 11.72 289 04:18 13.01.2021
3793 Clouds 4 1002 72 10000 11.72 289 03:43 13.01.2021
3794 Clouds 4 1002 71 10000 11.62 290 03:21 13.01.2021
3795 Clear 4 1002 72 10000 10.57 287 00:47 13.01.2021
3796 Clouds 4 1002 71 10000 11.07 284 23:40 12.01.2021
3797 Clouds 4 1001 72 10000 10.79 283 22:58 12.01.2021
3798 Clouds 4 1001 72 10000 10.79 283 22:39 12.01.2021
3799 Clouds 4 1001 72 10000 10.41 285 22:19 12.01.2021
3800 Clouds 4 1001 72 10000 10.41 285 21:43 12.01.2021
3801 Clouds 4 1001 72 10000 9.71 294 21:23 12.01.2021
3802 Clouds 4 1001 72 10000 9.71 294 20:47 12.01.2021
3803 Clouds 4 1000 74 10000 9.02 304 20:26 12.01.2021
3804 Clouds 4 1000 74 10000 9.02 304 19:44 12.01.2021
3805 Clouds 3 1000 75 10000 8.96 316 18:59 12.01.2021
3806 Clouds 3 1000 76 10000 9.19 308 18:41 12.01.2021
3807 Clouds 3 1000 89 8099 9.39 303 18:21 12.01.2021
3808 Rain 3 1000 89 8099 9.39 303 17:37 12.01.2021
3809 Rain 3 1000 87 3218 9.39 269 17:19 12.01.2021
3810 Clouds 3 1000 87 3218 9.39 269 16:43 12.01.2021
3811 Clear 4 999 75 10000 8.74 266 16:22 12.01.2021
3812 Clear 4 999 74 10000 7.47 268 15:29 12.01.2021
3813 Clear 4 999 74 10000 7.47 268 14:58 12.01.2021
3814 Clear 4 999 74 10000 7.47 268 14:40 12.01.2021
3815 Clear 4 999 75 10000 6.39 275 14:19 12.01.2021
3816 Clear 4 999 75 10000 6.39 275 13:50 12.01.2021
3817 Clouds 4 999 74 10000 6.86 288 12:50 12.01.2021
3818 Clouds 4 999 75 10000 7.08 302 12:22 12.01.2021
3819 Clouds 4 999 75 10000 7.08 302 11:40 12.01.2021
3820 Clouds 3 999 75 10000 7.2 309 10:52 12.01.2021
3821 Clouds 4 998 75 10000 8.03 314 10:22 12.01.2021
3822 Clouds 4 998 75 10000 8.03 314 09:57 12.01.2021
3823 Clouds 4 998 74 10000 8.21 311 09:28 12.01.2021
3824 Clouds 4 998 74 10000 8.21 311 08:54 12.01.2021
3825 Clouds 4 997 76 10000 7.33 300 08:26 12.01.2021
3826 Rain 4 997 76 10000 7.33 300 07:37 12.01.2021
3827 Clouds 3 997 94 4276 10.21 336 06:39 12.01.2021
3828 Rain 5 997 94 4247 7.85 269 05:34 12.01.2021
3829 Rain 5 998 89 10000 13.75 224 03:27 12.01.2021
3830 Rain 5 999 88 10000 14.14 220 02:21 12.01.2021
3831 Rain 5 999 88 10000 14.14 220 01:31 12.01.2021
3832 Rain 5 999 88 10000 14.14 220 01:31 12.01.2021
3833 Rain 5 999 88 10000 14.14 220 01:31 12.01.2021
3834 Clouds 4 1000 90 10000 14.27 209 23:57 11.01.2021
3835 Rain 4 1000 90 10000 14.27 209 23:37 11.01.2021
3836 Rain 5 1002 84 10000 13.85 218 23:18 11.01.2021
3837 Clouds 5 1002 84 10000 13.85 218 22:45 11.01.2021
3838 Clouds 4 1003 91 10000 14.21 225 22:26 11.01.2021
3839 Clouds 4 1003 91 10000 14.21 225 21:43 11.01.2021
3840 Clouds 4 1004 91 10000 13.34 217 21:24 11.01.2021
3841 Rain 4 1003 90 10000 13.77 218 20:49 11.01.2021
3842 Rain 4 1005 92 10000 13.83 218 20:29 11.01.2021
3843 Rain 4 1005 92 10000 13.83 218 19:57 11.01.2021
3844 Rain 4 1005 92 10000 13.83 218 19:34 11.01.2021
3845 Rain 4 1006 90 10000 12.98 219 18:46 11.01.2021
3846 Rain 5 1007 89 10000 12.65 221 18:28 11.01.2021
3847 Rain 5 1007 89 10000 12.65 221 17:57 11.01.2021
3848 Clouds 5 1007 89 10000 12.65 221 17:38 11.01.2021
3849 Rain 5 1008 91 10000 12.51 227 17:20 11.01.2021
3850 Clouds 5 1008 91 10000 12.51 227 16:43 11.01.2021
3851 Clouds 5 1008 91 10000 12.41 228 16:24 11.01.2021
3852 Clouds 5 1008 91 10000 12.41 228 15:50 11.01.2021
3853 Clouds 5 1008 91 10000 12.41 228 15:31 11.01.2021
3854 Clouds 5 1009 91 10000 11.88 226 14:41 11.01.2021
3855 Clouds 5 1009 91 10000 11.88 226 14:41 11.01.2021
3856 Clouds 5 1010 90 10000 11.74 223 14:22 11.01.2021
3857 Clouds 2 1013 93 10000 4.92 220 13:44 11.01.2021
3858 Rain 1 1015 100 10000 4.47 210 13:21 11.01.2021
3859 Clouds 1 1015 100 10000 4.47 210 12:42 11.01.2021
3860 Clouds 1 1015 100 10000 4.47 210 12:23 11.01.2021
3861 Clouds 1 1015 100 10000 4.47 220 11:45 11.01.2021
3862 Clouds 1 1015 100 10000 4.47 220 10:58 11.01.2021
3863 Clouds 1 1015 100 10000 4.47 220 10:38 11.01.2021
3864 Rain 4 1012 90 10000 11.68 221 09:59 11.01.2021
3865 Rain 4 1012 90 10000 11.68 221 09:36 11.01.2021
3866 Rain 4 1012 90 10000 11.68 221 09:36 11.01.2021
3867 Rain 4 1013 93 10000 11.17 227 08:52 11.01.2021
3868 Rain 4 1013 93 10000 11.17 227 08:34 11.01.2021
3869 Rain 4 1013 92 10000 10.16 230 07:50 11.01.2021
3870 Clouds 4 1014 89 10000 9.35 237 07:25 11.01.2021
3871 Clouds 4 1014 89 10000 9.35 237 06:49 11.01.2021
3872 Clouds 4 1015 88 10000 6.61 258 02:52 11.01.2021
3873 Clouds 4 1016 91 10000 7.61 270 00:57 11.01.2021
3874 Clouds 4 1017 90 10000 8.26 268 23:48 10.01.2021
3875 Clouds 4 1017 92 10000 9.91 249 23:23 10.01.2021
3876 Clouds 4 1017 92 10000 9.91 249 22:46 10.01.2021
3877 Clouds 4 1017 93 10000 10.2 236 22:20 10.01.2021
3878 Clouds 4 1017 93 10000 10.2 236 21:44 10.01.2021
3879 Clouds 3 1018 95 4366 10.54 230 21:20 10.01.2021
3880 Clouds 3 1018 95 4366 10.54 230 20:50 10.01.2021
3881 Rain 2 1018 95 4234 10.42 234 20:29 10.01.2021
3882 Clouds 2 1018 95 4234 10.42 234 19:43 10.01.2021
3883 Clouds 3 1018 88 10000 10.18 234 19:24 10.01.2021
3884 Rain 3 1018 88 10000 10.18 234 18:47 10.01.2021
3885 Clouds 2 1018 88 10000 10.79 233 18:21 10.01.2021
3886 Clouds 2 1019 87 10000 10.41 230 17:28 10.01.2021
3887 Clouds 2 1019 87 10000 10.41 230 16:59 10.01.2021
3888 Clouds 2 1019 87 10000 10.41 230 16:32 10.01.2021
3889 Clouds 2 1019 87 10000 9.83 227 15:54 10.01.2021
3890 Clouds 1 1019 89 10000 9.48 224 15:25 10.01.2021
3891 Clouds 1 1019 89 10000 9.48 224 14:50 10.01.2021
3892 Clouds 1 1019 89 10000 9.48 224 14:31 10.01.2021
3893 Clouds 1 1020 91 10000 9.33 224 13:55 10.01.2021
3894 Clouds 1 1020 91 10000 9.33 224 13:36 10.01.2021
3895 Clouds 1 1021 92 10000 8.92 228 13:18 10.01.2021
3896 Clouds 1 1021 91 10000 9.07 229 12:43 10.01.2021
3897 Clouds 1 1021 92 10000 8.96 227 12:18 10.01.2021
3898 Clouds 1 1021 92 10000 8.96 227 11:39 10.01.2021
3899 Clouds 1 1022 93 10000 8.33 232 11:18 10.01.2021
3900 Clouds 1 1022 93 10000 8.33 232 10:38 10.01.2021
3901 Clouds 1 1022 93 10000 8.18 233 10:20 10.01.2021
3902 Clouds 2 1022 88 10000 7.67 234 09:27 10.01.2021
3903 Clouds 2 1022 85 10000 7.13 239 08:21 10.01.2021
3904 Clouds 2 1022 85 10000 7.13 239 07:31 10.01.2021
3905 Clouds 3 1023 83 10000 6.02 245 06:20 10.01.2021
3906 Clouds 3 1023 83 10000 6.02 245 05:37 10.01.2021
3907 Clouds 3 1022 82 10000 4.5 235 03:26 10.01.2021
3908 Clouds 3 1023 76 10000 1.41 286 01:28 10.01.2021
3909 Clouds 3 1023 75 10000 2.52 303 23:51 09.01.2021
3910 Clouds 3 1023 75 10000 2.52 303 23:33 09.01.2021
3911 Clouds 3 1023 76 10000 3.23 320 22:49 09.01.2021
3912 Clouds 3 1022 76 10000 2.79 333 22:19 09.01.2021
3913 Clouds 3 1022 76 10000 2.79 333 21:57 09.01.2021
3914 Clouds 3 1022 76 10000 2.79 333 21:39 09.01.2021
3915 Clouds 3 1022 77 10000 3.13 348 21:19 09.01.2021
3916 Clouds 3 1022 77 10000 3.13 348 20:45 09.01.2021
3917 Clouds 3 1022 77 10000 3.61 357 19:57 09.01.2021
3918 Clouds 3 1022 77 10000 3.61 357 19:39 09.01.2021
3919 Clouds 3 1022 77 10000 4.19 2 19:18 09.01.2021
3920 Clouds 3 1022 77 10000 4.13 355 18:35 09.01.2021
3921 Clouds 3 1022 76 10000 4.39 1 17:51 09.01.2021
3922 Clouds 3 1022 76 10000 4.39 1 17:32 09.01.2021
3923 Clouds 3 1021 76 10000 4.49 2 16:55 09.01.2021
3924 Clouds 4 1021 76 10000 4.5 9 16:22 09.01.2021
3925 Clouds 4 1021 76 10000 4.5 9 15:41 09.01.2021
3926 Clouds 4 1020 75 10000 4.69 18 15:19 09.01.2021
3927 Clouds 4 1020 75 10000 4.69 18 14:37 09.01.2021
3928 Clouds 4 1020 75 10000 5.23 23 14:18 09.01.2021
3929 Clouds 4 1020 75 10000 5.23 23 13:43 09.01.2021
3930 Clouds 4 1020 76 10000 5.83 27 13:24 09.01.2021
3931 Clouds 4 1020 79 10000 5.72 30 12:28 09.01.2021
3932 Clouds 4 1020 79 10000 5.72 30 11:58 09.01.2021
3933 Clouds 4 1020 79 10000 5.72 30 11:38 09.01.2021
3934 Clouds 4 1020 81 10000 5.87 36 11:18 09.01.2021
3935 Clouds 4 1020 81 10000 5.87 36 10:43 09.01.2021
3936 Rain 4 1019 80 10000 5.41 39 10:23 09.01.2021
3937 Clouds 4 1019 80 10000 5.41 39 09:44 09.01.2021
3938 Clouds 4 1019 78 10000 5.03 47 09:20 09.01.2021
3939 Clouds 4 1018 78 10000 4.91 47 07:49 09.01.2021
3940 Clouds 4 1018 78 10000 4.91 47 07:49 09.01.2021
3941 Clouds 4 1018 84 10000 4.9 34 06:54 09.01.2021
3942 Clouds 4 1018 84 10000 4.9 34 06:34 09.01.2021
3943 Clouds 4 1016 79 10000 4.24 60 03:53 09.01.2021
3944 Rain 4 1016 80 10000 4.4 60 02:41 09.01.2021
3945 Rain 4 1015 83 10000 4.69 53 02:23 09.01.2021
3946 Clouds 4 1015 85 10000 4.68 52 01:25 09.01.2021
3947 Clouds 4 1015 82 10000 3.49 48 00:34 09.01.2021
3948 Rain 4 1015 83 10000 3.03 12 23:49 08.01.2021
3949 Clouds 4 1015 84 10000 3.54 347 22:48 08.01.2021
3950 Clouds 3 1014 89 10000 3.8 351 21:57 08.01.2021
3951 Clouds 3 1014 94 3388 3.33 347 21:27 08.01.2021
3952 Clouds 3 1014 94 3388 3.33 347 20:41 08.01.2021
3953 Clouds 2 1013 94 5163 2.15 330 19:59 08.01.2021
3954 Clouds 2 1013 94 5163 2.15 330 19:38 08.01.2021
3955 Clouds 3 1013 88 10000 1.34 325 19:19 08.01.2021
3956 Clouds 3 1013 90 10000 6.05 16 18:34 08.01.2021
3957 Rain 3 1012 88 7180 5.2 23 17:55 08.01.2021
3958 Clouds 4 1012 84 9369 3.53 11 17:28 08.01.2021
3959 Clouds 4 1012 84 9369 3.53 11 16:51 08.01.2021
3960 Clouds 3 1012 86 9124 2.82 358 15:55 08.01.2021
3961 Clouds 3 1012 86 9124 2.82 358 15:33 08.01.2021
3962 Clouds 3 1011 88 7025 2.09 344 14:41 08.01.2021
3963 Clouds 3 1011 92 7379 1.77 330 14:22 08.01.2021
3964 Clouds 2 1011 94 1469 1.7 321 13:22 08.01.2021
3965 Clouds 2 1011 94 1469 1.7 321 12:53 08.01.2021
3966 Clouds 3 1011 90 3133 1.86 38 12:23 08.01.2021
3967 Clouds 3 1011 90 3133 1.86 38 12:23 08.01.2021
3968 Clouds 3 1011 90 3133 1.86 38 11:59 08.01.2021
3969 Clouds 3 1011 90 3133 1.86 38 11:40 08.01.2021
3970 Clouds 3 1011 92 4596 1.73 15 11:20 08.01.2021
3971 Clouds 3 1011 92 4596 1.73 15 10:46 08.01.2021
3972 Clouds 2 1010 94 1872 2.02 351 10:24 08.01.2021
3973 Clouds 2 1010 94 1872 2.02 351 09:43 08.01.2021
3974 Clouds 2 1010 95 1087 2.62 344 09:21 08.01.2021
3975 Clouds 2 1010 94 1660 3.11 338 07:56 08.01.2021
3976 Clouds 2 1009 94 776 3.16 336 07:25 08.01.2021
3977 Snow 2 1009 96 174 2.57 338 04:26 08.01.2021
3978 Clouds 2 1009 95 498 4.71 349 23:46 07.01.2021
3979 Clouds 2 1009 95 1048 5.45 356 23:28 07.01.2021
3980 Rain 2 1009 95 1048 5.45 356 22:42 07.01.2021
3981 Rain 2 1009 96 1555 5.4 4 22:21 07.01.2021
3982 Rain 2 1009 96 1555 5.4 4 21:41 07.01.2021
3983 Clouds 2 1008 96 147 4.83 4 21:22 07.01.2021
3984 Rain 2 1008 96 147 4.83 4 20:45 07.01.2021
3985 Clouds 2 1008 96 99 2.87 338 20:26 07.01.2021
3986 Clouds 2 1008 96 99 2.87 338 19:42 07.01.2021
3987 Clouds 2 1008 96 98 2.19 332 18:55 07.01.2021
3988 Rain 2 1009 96 191 2.6 334 18:30 07.01.2021
3989 Rain 2 1009 96 191 2.6 334 18:30 07.01.2021
3990 Rain 2 1008 95 380 2.62 354 17:42 07.01.2021
3991 Rain 2 1008 95 856 2.81 9 17:22 07.01.2021
3992 Rain 2 1008 95 856 2.81 9 16:53 07.01.2021
3993 Clouds 3 1008 89 7316 3.06 16 16:27 07.01.2021
3994 Clouds 3 1008 89 7316 3.06 16 15:41 07.01.2021
3995 Clouds 3 1008 80 10000 3.01 20 14:57 07.01.2021
3996 Clouds 3 1008 78 10000 3.03 24 14:27 07.01.2021
3997 Clouds 3 1008 78 10000 3.03 24 13:45 07.01.2021
3998 Clouds 3 1008 78 10000 2.99 31 13:18 07.01.2021
3999 Clouds 3 1008 88 7581 2.41 18 12:42 07.01.2021
4000 Rain 3 1009 85 10000 2.81 34 11:57 07.01.2021
4001 Rain 3 1009 85 10000 2.81 34 11:57 07.01.2021
4002 Rain 3 1009 85 10000 2.81 34 11:36 07.01.2021
4003 Rain 3 1009 83 10000 3.27 39 10:51 07.01.2021
4004 Rain 3 1009 83 10000 3.27 39 10:31 07.01.2021
4005 Rain 3 1009 80 10000 3.23 40 09:48 07.01.2021
4006 Rain 3 1008 80 10000 2.85 51 09:22 07.01.2021
4007 Clouds 3 1008 80 10000 2.85 51 08:30 07.01.2021
4008 Clouds 3 1008 82 10000 3.03 66 07:53 07.01.2021
4009 Clouds 3 1008 82 10000 3.03 66 07:32 07.01.2021
4010 Clouds 3 1008 93 10000 3.13 113 05:26 07.01.2021
4011 Rain 3 1009 89 10000 3.42 76 00:58 07.01.2021
4012 Rain 3 1009 89 10000 3.24 81 23:52 06.01.2021
4013 Rain 3 1009 91 10000 3.59 90 22:50 06.01.2021
4014 Rain 3 1010 95 2419 4.17 97 22:19 06.01.2021
4015 Rain 3 1010 95 2419 4.17 97 21:41 06.01.2021
4016 Rain 3 1009 94 9164 4.8 94 21:22 06.01.2021
4017 Rain 3 1009 94 9164 4.8 94 21:22 06.01.2021
4018 Rain 3 1009 94 9164 4.8 94 20:42 06.01.2021
4019 Rain 4 1009 94 10000 5.21 87 20:22 06.01.2021
4020 Rain 4 1009 94 10000 5.21 87 19:42 06.01.2021
4021 Rain 3 1009 94 10000 5.45 83 19:24 06.01.2021
4022 Rain 3 1009 95 7350 4.99 78 18:45 06.01.2021
4023 Rain 3 1010 95 5599 4.62 77 18:27 06.01.2021
4024 Rain 3 1010 95 5599 4.62 77 17:45 06.01.2021
4025 Rain 3 1010 95 1422 4.84 84 17:26 06.01.2021
4026 Rain 3 1010 95 1422 4.84 84 16:56 06.01.2021
4027 Rain 3 1010 95 957 5.48 81 16:20 06.01.2021
4028 Rain 3 1010 95 957 5.48 81 16:20 06.01.2021
4029 Clouds 3 1010 95 957 5.48 81 15:58 06.01.2021
4030 Rain 3 1010 95 957 5.48 81 15:33 06.01.2021
4031 Clouds 3 1010 96 349 6.61 70 14:58 06.01.2021
4032 Clouds 3 1010 96 349 6.61 70 14:30 06.01.2021
4033 Clouds 3 1010 96 200 7.58 67 13:51 06.01.2021
4034 Clouds 3 1011 96 209 8.05 68 13:26 06.01.2021
4035 Rain 3 1011 95 5426 7.77 70 12:55 06.01.2021
4036 Clouds 3 1011 95 5426 7.77 70 12:30 06.01.2021
4037 Rain 4 1011 95 6374 7.98 76 11:44 06.01.2021
4038 Clouds 4 1012 95 3128 8.6 70 11:21 06.01.2021
4039 Rain 4 1012 95 3128 8.6 70 10:39 06.01.2021
4040 Rain 4 1012 95 4301 8.96 69 09:52 06.01.2021
4041 Rain 4 1012 95 4301 8.96 69 09:31 06.01.2021
4042 Rain 4 1012 96 2432 8.78 75 08:52 06.01.2021
4043 Rain 4 1012 96 608 9.76 65 08:18 06.01.2021
4044 Rain 4 1012 96 608 9.76 65 07:51 06.01.2021
4045 Rain 4 1012 95 3710 10.36 58 06:44 06.01.2021
4046 Clouds 4 1014 95 2918 13.65 33 05:28 06.01.2021
4047 Rain 3 1014 96 268 13.81 33 03:21 06.01.2021
4048 Rain 3 1014 96 268 13.81 33 02:42 06.01.2021
4049 Rain 3 1015 95 212 13.82 34 02:20 06.01.2021
4050 Clouds 4 1017 89 10000 12.59 34 23:51 05.01.2021
4051 Clouds 4 1018 84 10000 11.69 36 22:57 05.01.2021
4052 Clouds 4 1018 84 10000 11.69 36 22:38 05.01.2021
4053 Clouds 4 1019 83 10000 11.58 42 22:19 05.01.2021
4054 Clouds 4 1019 83 10000 11.58 42 21:34 05.01.2021
4055 Clouds 4 1019 82 10000 11.46 44 20:31 05.01.2021
4056 Clouds 4 1019 81 10000 11.64 49 19:59 05.01.2021
4057 Clouds 4 1019 81 10000 11.64 49 19:40 05.01.2021
4058 Clouds 4 1019 81 10000 11.63 48 19:21 05.01.2021
4059 Clouds 4 1020 80 10000 11.56 49 18:42 05.01.2021
4060 Clouds 4 1020 80 10000 11.77 50 18:21 05.01.2021
4061 Clouds 4 1020 80 10000 11.77 50 17:47 05.01.2021
4062 Clouds 4 1020 81 9719 11.54 53 17:26 05.01.2021
4063 Clouds 4 1020 81 9719 11.54 53 16:51 05.01.2021
4064 Clouds 4 1020 82 9722 11.04 55 16:21 05.01.2021
4065 Clouds 4 1020 82 9722 11.04 55 15:49 05.01.2021
4066 Clouds 4 1020 84 9179 10.86 59 14:50 05.01.2021
4067 Clouds 4 1020 86 10000 10.74 61 14:26 05.01.2021
4068 Clouds 4 1020 86 10000 10.74 61 13:46 05.01.2021
4069 Clouds 4 1021 85 10000 10.86 63 13:23 05.01.2021
4070 Clouds 4 1021 85 10000 10.86 63 12:48 05.01.2021
4071 Clouds 4 1021 86 10000 10.84 60 12:24 05.01.2021
4072 Clouds 4 1021 86 10000 10.84 60 11:39 05.01.2021
4073 Clouds 4 1021 86 10000 10.84 60 11:39 05.01.2021
4074 Clouds 4 1021 86 10000 10.84 60 11:39 05.01.2021
4075 -273 0 0 0 0 0 11:39 05.01.2021
4076 Clouds 4 1021 86 10000 10.84 60 11:39 05.01.2021
4077 -273 0 0 0 0 0 11:39 05.01.2021
4078 Clouds 4 1021 86 10000 10.84 60 11:38 05.01.2021
4079 Clouds 4 1022 89 10000 10.6 64 10:46 05.01.2021
4080 Clouds 4 1021 89 10000 10.91 68 10:26 05.01.2021
4081 Clouds 4 1021 89 10000 10.91 68 09:49 05.01.2021
4082 Clouds 4 1021 86 10000 11.23 68 09:28 05.01.2021
4083 Clouds 4 1020 86 10000 11.38 66 08:27 05.01.2021
4084 Clouds 4 1021 87 10000 10.94 65 06:47 05.01.2021
4085 Clouds 3 1025 93 10000 11.13 64 04:50 05.01.2021
4086 Clouds 3 1025 93 10000 0.45 45 00:51 05.01.2021
4087 Clouds 3 1025 93 10000 0.45 90 23:46 04.01.2021
4088 Clouds 3 1025 93 10000 10.91 70 23:26 04.01.2021
4089 Clouds 3 1025 93 10000 0.45 67 22:54 04.01.2021
4090 Clouds 3 1025 93 10000 10.91 70 22:34 04.01.2021
4091 Clouds 3 1025 93 10000 0.45 135 21:52 04.01.2021
4092 Rain 3 1025 93 10000 10.56 72 21:34 04.01.2021
4093 Rain 3 1025 93 10000 10.47 70 20:48 04.01.2021
4094 Rain 3 1024 94 10000 0.45 45 20:30 04.01.2021
4095 Clouds 3 1025 93 10000 0.45 67 19:52 04.01.2021
4096 Clouds 3 1024 93 10000 11.01 72 19:28 04.01.2021
4097 Clouds 3 1025 93 10000 0.45 112 18:58 04.01.2021
4098 Clouds 3 1024 93 10000 11.57 73 18:29 04.01.2021
4099 Rain 3 1025 93 10000 11.57 73 17:44 04.01.2021
4100 Rain 3 1024 93 10000 0.45 90 17:26 04.01.2021
4101 Clouds 3 1024 93 10000 11.6 72 16:48 04.01.2021
4102 Clouds 3 1024 93 10000 0.45 67 16:27 04.01.2021
4103 Clouds 3 1024 93 10000 11.69 72 15:51 04.01.2021
4104 Clouds 3 1024 93 10000 0.45 90 15:32 04.01.2021
4105 Rain 3 1024 92 10000 0.45 135 14:50 04.01.2021
4106 Rain 3 1024 91 10000 0.45 135 13:53 04.01.2021
4107 Rain 3 1024 91 10000 0.89 67 13:34 04.01.2021
4108 Clouds 3 1025 91 10000 0.45 67 12:50 04.01.2021
4109 Clouds 3 1025 90 10000 0.45 112 12:25 04.01.2021
4110 Rain 3 1025 88 10000 0.89 67 11:31 04.01.2021
4111 Rain 4 1025 87 10000 1.34 67 10:56 04.01.2021
4112 Clouds 4 1025 87 10000 11.87 70 10:38 04.01.2021
4113 Rain 4 1025 86 10000 0.45 45 10:19 04.01.2021
4114 Clouds 3 1025 86 10000 11.48 71 09:24 04.01.2021
4115 Clouds 3 1025 87 10000 0.45 67 08:50 04.01.2021
4116 Clouds 4 1025 85 10000 0.45 45 08:21 04.01.2021
4117 Clouds 4 1024 85 10000 0.89 67 07:45 04.01.2021
4118 Clouds 3 1024 84 10000 0.45 67 05:35 04.01.2021
4119 Clouds 3 1025 85 10000 1.34 45 04:56 04.01.2021
4120 Clouds 4 1025 83 10000 0.89 337 01:31 04.01.2021
4121 Clouds 4 1025 83 10000 0.45 45 23:57 03.01.2021
4122 Clouds 4 1025 85 10000 12.93 68 23:37 03.01.2021
4123 Rain 4 1025 85 10000 13.06 69 22:57 03.01.2021
4124 Clouds 5 1022 74 10000 13.06 69 22:39 03.01.2021
4125 Clouds 5 1022 75 10000 13.19 70 22:21 03.01.2021
4126 Clouds 5 1022 75 10000 13.19 70 21:37 03.01.2021
4127 Clouds 5 1022 74 10000 13.55 70 20:56 03.01.2021
4128 Clouds 5 1022 74 10000 13.55 70 20:38 03.01.2021
4129 Clouds 5 1021 74 10000 13.71 71 20:18 03.01.2021
4130 Clouds 5 1021 74 10000 13.71 71 19:44 03.01.2021
4131 Clouds 5 1021 75 10000 13.64 73 19:24 03.01.2021
4132 Clouds 5 1021 75 10000 13.57 73 18:45 03.01.2021
4133 Clouds 5 1021 75 10000 13.35 73 18:23 03.01.2021
4134 Clouds 5 1021 75 10000 13.35 73 17:51 03.01.2021
4135 Clouds 5 1021 74 10000 12.96 72 17:27 03.01.2021
4136 Clouds 5 1021 74 10000 12.96 72 16:55 03.01.2021
4137 Clouds 5 1021 74 10000 12.96 72 16:36 03.01.2021
4138 Clouds 5 1021 73 10000 12.71 73 16:18 03.01.2021
4139 Clouds 5 1021 73 10000 12.71 73 15:40 03.01.2021
4140 Clouds 5 1021 74 10000 12.65 74 14:59 03.01.2021
4141 Clouds 5 1021 74 10000 12.65 74 14:33 03.01.2021
4142 Clouds 5 1021 77 10000 12.28 77 13:52 03.01.2021
4143 Clouds 4 1020 79 10000 12.2 76 13:25 03.01.2021
4144 Clouds 4 1020 79 10000 12.2 76 12:57 03.01.2021
4145 Clouds 5 1021 76 10000 11.2 75 11:44 03.01.2021
4146 Clouds 4 1021 80 10000 10.64 80 11:26 03.01.2021
4147 Clouds 4 1021 80 10000 10.64 80 10:56 03.01.2021
4148 Clouds 2 1024 94 10000 10.64 80 10:31 03.01.2021
4149 Clouds 2 1024 94 10000 8.8 84 09:45 03.01.2021
4150 Clouds 2 1024 94 10000 8.92 75 09:24 03.01.2021
4151 Clouds 2 1024 94 10000 8.95 70 07:59 03.01.2021
4152 Clouds 2 1024 94 10000 0.45 67 06:51 03.01.2021
4153 Clouds 2 1024 93 10000 6.71 72 03:20 03.01.2021
4154 Clouds 3 1023 93 10000 6.07 64 02:23 03.01.2021
4155 Clouds 2 1023 93 10000 4.66 64 00:25 03.01.2021
4156 Clouds 2 1023 93 10000 4.66 64 23:46 02.01.2021
4157 Clouds 2 1023 93 10000 3.95 72 23:19 02.01.2021
4158 Clouds 3 1023 93 10000 3.95 72 22:47 02.01.2021
4159 Clouds 2 1023 93 10000 3.92 75 22:28 02.01.2021
4160 Clouds 2 1022 93 10000 3.92 75 21:48 02.01.2021
4161 Clouds 3 1022 93 10000 3.94 70 21:28 02.01.2021
4162 Clouds 3 1022 93 10000 3.94 70 20:45 02.01.2021
4163 Clouds 3 1022 93 10000 3.24 82 20:25 02.01.2021
4164 Clouds 3 1022 93 10000 3.24 82 19:47 02.01.2021
4165 Clouds 3 1021 93 10000 2.67 94 19:20 02.01.2021
4166 Clouds 3 1021 93 10000 2.67 94 19:20 02.01.2021
4167 Clouds 3 1021 92 10000 2.67 94 18:47 02.01.2021
4168 Clouds 3 1021 93 10000 1.63 106 18:29 02.01.2021
4169 Clouds 3 1021 92 10000 1.63 106 17:46 02.01.2021
4170 Clouds 3 1021 92 10000 1.41 109 17:28 02.01.2021
4171 Clouds 3 1021 92 10000 1.41 109 16:46 02.01.2021
4172 Clouds 3 1020 92 10000 0.95 107 16:21 02.01.2021
4173 Clouds 3 1020 92 10000 0.95 107 15:47 02.01.2021
4174 Clouds 4 1019 93 10000 0.68 140 15:27 02.01.2021
4175 Clouds 4 1019 93 10000 0.68 140 14:47 02.01.2021
4176 Clouds 4 1019 93 10000 1.03 174 14:24 02.01.2021
4177 Clouds 4 1019 93 10000 1.03 174 13:44 02.01.2021
4178 Clouds 4 1019 93 10000 1.33 187 12:59 02.01.2021
4179 Clouds 3 1019 93 10000 1.33 187 12:40 02.01.2021
4180 Clouds 3 1019 93 10000 1.19 186 12:19 02.01.2021
4181 Clouds 3 1019 93 10000 1.19 186 11:38 02.01.2021
4182 Clouds 3 1019 93 10000 1.26 198 11:20 02.01.2021
4183 Clouds 3 1019 93 10000 1.26 198 10:41 02.01.2021
4184 Clouds 3 1018 93 10000 0.96 202 10:23 02.01.2021
4185 Clouds 2 1018 93 10000 0.96 202 09:43 02.01.2021
4186 Clouds 2 1018 92 10000 0.35 197 09:20 02.01.2021
4187 Clouds 2 1017 92 10000 0.35 197 08:48 02.01.2021
4188 Clouds 2 1017 92 10000 0.33 291 08:19 02.01.2021
4189 Rain 2 1016 92 10000 0.89 283 07:25 02.01.2021
4190 Clouds 2 1016 92 10000 0.89 283 06:57 02.01.2021
4191 Clouds 2 1016 92 10000 1.41 337 05:57 02.01.2021
4192 Clouds 2 1015 92 5315 0.45 225 04:26 02.01.2021
4193 Clouds 2 1014 92 10000 0.45 180 00:49 02.01.2021
4194 Clouds 2 1014 92 10000 0.89 180 00:28 02.01.2021
4195 Clouds 1 1014 92 10000 0.45 180 23:43 01.01.2021
4196 Clouds 1 1014 92 9842 0.45 202 23:19 01.01.2021
4197 Clouds 1 1014 92 9842 4.87 205 22:47 01.01.2021
4198 Clouds 2 1014 92 10000 5.28 213 22:22 01.01.2021
4199 Clouds 2 1014 91 10000 0.45 225 21:43 01.01.2021
4200 Rain 2 1013 91 10000 0.45 225 21:21 01.01.2021
4201 Clouds 2 1013 91 10000 0.45 225 20:51 01.01.2021
4202 Rain 2 1013 91 9308 0.45 225 20:20 01.01.2021
4203 Clouds 2 1013 91 9308 0.45 225 19:43 01.01.2021
4204 Clouds 2 1012 91 10000 5.44 223 19:23 01.01.2021
4205 Clouds 2 1012 91 10000 5.44 223 18:52 01.01.2021
4206 Clouds 2 1012 91 10000 5.44 223 18:34 01.01.2021
4207 Clouds 2 1012 91 10000 4.94 229 17:59 01.01.2021
4208 Clouds 2 1012 91 10000 4.94 229 17:41 01.01.2021
4209 Clouds 2 1012 91 10000 4.9 221 17:18 01.01.2021
4210 Clouds 2 1012 91 10000 4.9 221 16:37 01.01.2021
4211 Clouds 2 1012 91 10000 0.45 225 15:46 01.01.2021
4212 Clouds 3 1011 91 10000 0.45 225 14:57 01.01.2021
4213 Clouds 3 1011 92 10000 0.45 225 14:39 01.01.2021
4214 Clouds 2 1011 92 10000 0.45 180 13:54 01.01.2021
4215 Clouds 2 1011 92 10000 0.45 202 13:36 01.01.2021
4216 Clouds 2 1011 92 3804 0.45 180 12:47 01.01.2021
4217 Clouds 2 1011 92 10000 0.89 180 12:25 01.01.2021
4218 Clouds 2 1011 92 10000 0.89 225 11:39 01.01.2021
4219 Clouds 2 1011 92 10000 0.45 225 11:18 01.01.2021
4220 Clouds 2 1011 92 10000 0.45 202 10:50 01.01.2021
4221 Clouds 1 1011 92 10000 0.45 202 09:51 01.01.2021
4222 Clouds 1 1011 92 10000 0.45 225 09:23 01.01.2021
4223 Clouds 1 1011 92 10000 0.45 180 08:30 01.01.2021
4224 Clouds 1 1010 92 10000 3.92 180 06:24 01.01.2021
4225 Clouds 1 1010 92 10000 0.45 135 04:49 01.01.2021
4226 Clouds 1 1010 91 5358 0.45 157 01:42 01.01.2021
4227 Clouds 1 1010 90 2365 0.89 180 00:32 01.01.2021
4228 Clouds 1 1010 90 100 0.89 157 23:40 31.12.2020
4229 Rain 1 1010 90 344 0.89 180 23:20 31.12.2020
4230 Snow 1 1010 90 344 7.07 187 22:42 31.12.2020
4231 Snow 2 1010 90 525 0.89 180 22:22 31.12.2020
4232 Snow 1 1010 90 525 0.45 157 21:56 31.12.2020
4233 Snow 1 1010 90 525 0.45 157 21:36 31.12.2020
4234 Snow 2 1010 90 266 0.89 157 20:58 31.12.2020
4235 Snow 2 1010 90 266 0.89 180 20:30 31.12.2020
4236 Snow 2 1010 90 266 0.89 180 20:30 31.12.2020
4237 Snow 2 1009 90 3786 0.45 157 19:51 31.12.2020
4238 Snow 1 1009 90 3786 0.45 157 19:33 31.12.2020
4239 Snow 1 1010 90 10000 0.45 157 18:55 31.12.2020
4240 Snow 1 1010 90 10000 0.89 157 18:25 31.12.2020
4241 Snow 1 1009 89 10000 0.89 135 17:55 31.12.2020
4242 Snow 2 1009 89 10000 0.89 157 17:37 31.12.2020
4243 Snow 2 1010 89 10000 0.45 157 17:18 31.12.2020
4244 Clouds 2 1009 88 10000 0.45 157 16:38 31.12.2020
4245 Clouds 2 1009 87 10000 0.45 157 16:20 31.12.2020
4246 Clouds 2 1009 87 10000 6.15 199 15:43 31.12.2020
4247 Clouds 3 1009 86 10000 0.45 180 15:20 31.12.2020
4248 Clouds 3 1009 85 10000 0.89 157 14:42 31.12.2020
4249 Clouds 3 1009 85 10000 0.45 180 14:23 31.12.2020
4250 Clouds 4 1009 85 10000 1.34 202 13:59 31.12.2020
4251 Clouds 4 1009 85 10000 0.89 202 13:37 31.12.2020
4252 Clouds 4 1009 85 10000 0.89 180 13:19 31.12.2020
4253 Clouds 4 1009 85 10000 0.89 202 12:49 31.12.2020
4254 Clouds 4 1009 85 10000 1.34 202 12:31 31.12.2020
4255 Clouds 4 1009 89 10000 0.45 202 11:47 31.12.2020
4256 Clouds 4 1009 90 10000 0.89 180 11:29 31.12.2020
4257 Clouds 3 1010 91 10000 1.34 180 10:46 31.12.2020
4258 Clouds 3 1009 91 10000 0.89 157 10:27 31.12.2020
4259 Clouds 3 1009 92 10000 0.89 180 09:50 31.12.2020
4260 Clouds 2 1009 92 10000 1.79 202 09:26 31.12.2020
4261 Clouds 2 1009 91 10000 0.89 180 08:50 31.12.2020
4262 Clouds 2 1009 92 10000 0.89 180 08:31 31.12.2020
4263 Clouds 2 1009 91 10000 0.45 180 07:56 31.12.2020
4264 Clouds 2 1008 91 10000 0.89 180 07:25 31.12.2020
4265 Clouds 3 1007 91 10000 1.34 180 05:30 31.12.2020
4266 Clouds 2 1007 90 10000 0.89 180 03:37 31.12.2020
4267 Clouds 2 1007 90 10000 1.34 180 02:44 31.12.2020
4268 Clouds 2 1007 90 10000 0.89 180 02:25 31.12.2020
4269 Clouds 3 1007 90 10000 1.34 202 01:43 31.12.2020
4270 Clouds 3 1007 90 10000 1.79 202 01:22 31.12.2020
4271 Clouds 3 1006 90 10000 1.34 202 00:43 31.12.2020
4272 Clouds 2 1007 90 10000 0.89 202 23:43 30.12.2020
4273 Clouds 2 1007 90 10000 0.89 202 23:19 30.12.2020
4274 Clouds 2 1006 90 10000 1.34 180 22:47 30.12.2020
4275 Clouds 2 1006 90 10000 1.34 180 22:29 30.12.2020
4276 Clouds 1 1006 89 10000 0.45 202 21:39 30.12.2020
4277 Clouds 2 1006 88 10000 0.89 225 21:20 30.12.2020
4278 Clouds 2 1006 88 10000 1.34 202 20:48 30.12.2020
4279 Clouds 2 1006 88 10000 1.34 202 20:20 30.12.2020
4280 Clouds 2 1006 89 10000 1.34 180 19:40 30.12.2020
4281 Clouds 2 1006 89 10000 1.79 180 19:21 30.12.2020
4282 Clouds 2 1005 89 10000 1.34 202 18:46 30.12.2020
4283 Clouds 2 1005 89 10000 0.89 180 18:27 30.12.2020
4284 Clouds 2 1005 89 10000 1.34 180 17:51 30.12.2020
4285 Clouds 2 1005 88 10000 0.89 180 17:32 30.12.2020
4286 Clouds 2 1005 87 10000 0.89 180 16:53 30.12.2020
4287 Clouds 2 1004 87 10000 0.89 180 16:31 30.12.2020
4288 Clouds 3 1004 85 10000 1.34 180 15:47 30.12.2020
4289 Clouds 3 1004 85 10000 1.34 180 15:24 30.12.2020
4290 Clouds 4 1004 85 10000 1.34 180 14:44 30.12.2020
4291 Clouds 4 1004 84 10000 2.24 180 14:22 30.12.2020
4292 Clouds 4 1004 84 10000 1.34 202 13:42 30.12.2020
4293 Clouds 4 1003 84 10000 1.34 202 12:43 30.12.2020
4294 Clouds 4 1004 85 10000 1.34 202 12:21 30.12.2020
4295 Clouds 4 1004 86 10000 1.79 202 11:36 30.12.2020
4296 Clouds 4 1004 87 10000 1.79 202 11:18 30.12.2020
4297 Clouds 3 1004 90 10000 1.34 202 10:49 30.12.2020
4298 Clouds 3 1004 90 10000 1.79 202 10:27 30.12.2020
4299 Clouds 2 1003 90 10000 1.79 180 09:50 30.12.2020
4300 Clouds 2 1004 90 10000 1.34 180 09:29 30.12.2020
4301 Clouds 2 1003 90 10000 0.89 180 08:35 30.12.2020
4302 Clouds 2 1002 89 10000 1.34 202 07:31 30.12.2020
4303 Clouds 2 1002 89 10000 1.34 202 06:53 30.12.2020
4304 Clouds 2 1002 89 10000 1.34 202 06:32 30.12.2020
4305 Clouds 2 1001 89 10000 0.89 180 05:44 30.12.2020
4306 Clouds 2 1001 90 10000 1.79 202 05:25 30.12.2020
4307 Clouds 3 1000 91 10000 1.34 202 03:28 30.12.2020
4308 Clouds 3 1000 91 10000 1.34 202 02:43 30.12.2020
4309 Clouds 3 1000 92 10000 0.89 202 02:25 30.12.2020
4310 Clouds 3 1000 92 10000 1.34 180 01:33 30.12.2020
4311 Clouds 2 999 93 10000 1.34 202 00:50 30.12.2020
4312 Clouds 2 999 93 10000 1.34 202 00:31 30.12.2020
4313 Clouds 2 999 93 10000 0.89 202 23:57 29.12.2020
4314 Clouds 2 999 93 10000 1.34 180 23:39 29.12.2020
4315 Clouds 1 998 93 10000 0.89 180 23:18 29.12.2020
4316 Clouds 1 998 93 10000 0.89 180 22:43 29.12.2020
4317 Clouds 1 998 93 8060 1.34 180 22:23 29.12.2020
4318 Clouds 1 997 93 8060 0.89 180 21:50 29.12.2020
4319 Clouds 1 997 93 8060 0.89 180 21:32 29.12.2020
4320 Clouds 1 997 92 10000 0.89 180 20:55 29.12.2020
4321 Clouds 1 997 92 10000 0.89 180 20:36 29.12.2020
4322 Clouds 1 997 92 10000 0.89 180 20:18 29.12.2020
4323 Clouds 1 996 92 10000 0.89 180 19:38 29.12.2020
4324 Clouds 1 996 92 10000 0.89 180 19:20 29.12.2020
4325 Clouds 1 995 92 10000 0.89 180 18:46 29.12.2020
4326 Clouds 1 995 92 10000 0.89 180 18:27 29.12.2020
4327 Clouds 0 995 91 10000 0.89 180 17:44 29.12.2020
4328 Clouds 1 994 91 10000 0.45 180 17:20 29.12.2020
4329 Clouds 1 994 91 10000 0.45 180 16:46 29.12.2020
4330 Clouds 1 993 90 10000 0.89 180 16:24 29.12.2020
4331 Clouds 2 993 91 10000 0.45 202 15:38 29.12.2020
4332 Clouds 2 993 91 10000 0.89 225 15:19 29.12.2020
4333 Clouds 3 992 91 10000 0.89 225 14:40 29.12.2020
4334 Clouds 3 992 91 10000 0.89 225 14:20 29.12.2020
4335 Clouds 3 991 92 10000 0.89 225 13:54 29.12.2020
4336 Clouds 3 991 92 10000 0.89 202 13:23 29.12.2020
4337 Clouds 3 991 92 10000 0.89 202 12:44 29.12.2020
4338 Clouds 3 991 92 10000 1.79 202 12:25 29.12.2020
4339 Clouds 3 990 93 10000 0.89 225 11:57 29.12.2020
4340 Clouds 3 990 93 10000 5.6 216 11:31 29.12.2020
4341 Clouds 2 990 92 10000 0.45 225 10:38 29.12.2020
4342 Clouds 2 990 92 10000 0.89 225 09:59 29.12.2020
4343 Clouds 1 989 92 10000 1.34 180 09:37 29.12.2020
4344 Clouds 1 989 92 10000 0.45 180 09:18 29.12.2020
4345 Clouds 1 988 92 10000 0.89 180 08:43 29.12.2020
4346 Clouds 1 987 92 10000 0.45 202 07:33 29.12.2020
4347 Clouds 1 987 92 10000 0.45 180 06:58 29.12.2020
4348 Clouds 1 987 92 596 0.89 135 05:33 29.12.2020
4349 Snow 1 988 91 10000 0.45 112 01:46 29.12.2020
4350 Clouds 1 989 91 10000 5.76 128 00:24 29.12.2020
4351 Clouds 1 989 91 10000 5.76 128 00:24 29.12.2020
4352 Clouds 1 989 91 10000 5.76 128 00:24 29.12.2020
4353 Clouds 1 990 91 10000 0.89 135 23:37 28.12.2020
4354 Clouds 1 989 90 10000 5.1 126 22:44 28.12.2020
4355 Clouds 0 990 90 10000 0.45 135 21:57 28.12.2020
4356 Clouds 0 989 89 10000 5.51 136 21:39 28.12.2020
4357 Clouds 0 990 89 10000 0.45 157 21:19 28.12.2020
4358 Clouds 0 989 89 10000 0.45 135 20:40 28.12.2020
4359 Clouds 0 989 89 10000 0.45 135 20:20 28.12.2020
4360 Clouds 0 989 89 10000 0.89 135 19:41 28.12.2020
4361 Clouds 0 989 89 10000 0.45 135 19:22 28.12.2020
4362 Clouds 1 989 88 10000 0.45 135 18:49 28.12.2020
4363 Clouds 1 989 88 10000 0.45 135 18:27 28.12.2020
4364 Clouds 1 989 88 10000 7.37 160 17:41 28.12.2020
4365 Clouds 1 989 88 10000 0.45 157 17:18 28.12.2020
4366 Clouds 2 989 87 10000 0.89 157 16:33 28.12.2020
4367 Clouds 2 988 86 10000 0.89 157 15:59 28.12.2020
4368 Clouds 3 989 86 10000 0.89 135 15:41 28.12.2020
4369 Clouds 3 988 86 10000 0.89 135 14:49 28.12.2020
4370 Clouds 3 988 85 10000 0.89 157 13:54 28.12.2020
4371 Clouds 3 988 86 10000 1.79 157 13:25 28.12.2020
4372 Clouds 3 988 86 10000 0.89 135 12:41 28.12.2020
4373 Clouds 3 988 86 10000 0.89 135 12:20 28.12.2020
4374 Clouds 3 988 86 10000 1.34 157 11:45 28.12.2020
4375 Clouds 3 989 86 10000 1.34 135 11:23 28.12.2020
4376 Clouds 2 989 87 10000 1.34 157 10:45 28.12.2020
4377 Clouds 2 989 87 10000 1.34 157 10:27 28.12.2020
4378 Clouds 2 989 87 10000 1.34 135 09:46 28.12.2020
4379 Clouds 2 989 87 10000 0.89 157 09:19 28.12.2020
4380 Clouds 2 989 86 10000 1.34 157 07:35 28.12.2020
4381 Clouds 1 989 86 10000 1.79 157 06:50 28.12.2020
4382 Clouds 2 989 81 10000 0.89 180 04:37 28.12.2020
4383 Clouds 2 990 77 10000 2.24 157 02:27 28.12.2020
4384 Clouds 1 990 75 10000 2.68 157 00:53 28.12.2020
4385 Clouds 1 991 75 10000 1.79 157 23:46 27.12.2020
4386 Clouds 1 991 75 10000 3.13 157 23:19 27.12.2020
4387 Clouds 1 991 73 10000 2.68 135 21:58 27.12.2020
4388 Clouds 1 991 72 10000 3.58 135 21:27 27.12.2020
4389 Clouds 1 992 71 10000 3.13 202 20:48 27.12.2020
4390 Clouds 1 992 71 10000 2.68 157 19:48 27.12.2020
4391 Clouds 1 992 71 10000 2.68 157 19:22 27.12.2020
4392 Clouds 1 993 70 10000 1.79 157 18:47 27.12.2020
4393 Clouds 1 993 69 10000 2.68 157 18:19 27.12.2020
4394 Clouds 1 994 69 10000 2.68 157 17:49 27.12.2020
4395 Clouds 1 994 70 10000 2.68 157 17:30 27.12.2020
4396 Clouds 1 994 72 10000 3.58 180 16:54 27.12.2020
4397 Clouds 2 995 73 10000 2.24 180 16:20 27.12.2020
4398 Clouds 2 996 75 10000 4.02 180 15:22 27.12.2020
4399 Clouds 2 996 76 10000 2.24 180 14:45 27.12.2020
4400 Clouds 2 996 76 10000 1.79 157 14:27 27.12.2020
4401 Clouds 2 998 77 10000 2.68 180 13:23 27.12.2020
4402 Clouds 2 998 78 10000 3.13 180 12:52 27.12.2020
4403 Clouds 2 999 79 10000 4.02 180 12:24 27.12.2020
4404 Clouds 2 1000 81 10000 2.68 202 11:41 27.12.2020
4405 Clouds 1 1001 83 10000 2.68 180 10:58 27.12.2020
4406 Clouds 1 1001 84 10000 2.68 180 10:39 27.12.2020
4407 Clouds 1 1001 85 10000 3.13 157 10:19 27.12.2020
4408 Clouds 1 1002 85 10000 2.68 180 09:19 27.12.2020
4409 Clouds 1 1002 86 10000 3.13 180 08:28 27.12.2020
4410 Clouds 1 1004 85 10000 3.13 180 07:28 27.12.2020
4411 Clouds 2 1006 86 10000 3.13 180 05:56 27.12.2020
4412 Clouds 2 1006 86 10000 2.68 180 05:38 27.12.2020
4413 Rain 2 1009 86 10000 2.24 202 03:24 27.12.2020
4414 Clouds 3 1011 86 10000 2.24 202 01:56 27.12.2020
4415 Clouds 2 1012 86 10000 2.24 180 00:38 27.12.2020
4416 Clouds 3 1013 87 10000 1.79 202 23:43 26.12.2020
4417 Rain 3 1013 87 10000 2.24 202 23:23 26.12.2020
4418 Clouds 3 1014 87 10000 1.34 225 22:45 26.12.2020
4419 Clouds 3 1015 87 10000 1.79 225 22:19 26.12.2020
4420 Clouds 3 1015 89 10000 2.24 202 21:53 26.12.2020
4421 Clouds 3 1015 89 10000 2.24 202 21:53 26.12.2020
4422 Clouds 3 1015 89 10000 2.68 180 21:26 26.12.2020
4423 Clouds 4 1010 84 10000 11.4 213 20:45 26.12.2020
4424 Clouds 4 1011 85 10000 11.31 216 20:24 26.12.2020
4425 Clouds 4 1011 85 10000 11.31 216 19:42 26.12.2020
4426 Clouds 4 1012 91 10000 10.74 222 19:20 26.12.2020
4427 Clouds 4 1012 88 10000 10.43 219 18:35 26.12.2020
4428 Clouds 4 1013 86 10000 10.63 224 17:48 26.12.2020
4429 Clouds 4 1013 86 10000 10.96 224 17:29 26.12.2020
4430 Clouds 4 1013 86 10000 10.96 224 16:40 26.12.2020
4431 Clouds 4 1014 86 10000 9.8 217 16:21 26.12.2020
4432 Clouds 4 1014 87 10000 9.25 220 15:24 26.12.2020
4433 Clouds 4 1014 87 10000 9.25 220 14:46 26.12.2020
4434 Clouds 4 1015 87 10000 8.08 222 14:22 26.12.2020
4435 Clouds 4 1015 87 10000 8.08 222 13:43 26.12.2020
4436 Clouds 3 1016 87 10000 8.33 230 13:24 26.12.2020
4437 Clouds 3 1016 86 10000 8.7 229 12:44 26.12.2020
4438 Clouds 3 1017 83 10000 8.37 232 12:22 26.12.2020
4439 Clouds 3 1017 83 10000 8.37 232 11:51 26.12.2020
4440 Clouds 3 1018 81 10000 8.07 231 11:22 26.12.2020
4441 Clouds 3 1018 81 10000 8.07 231 10:54 26.12.2020
4442 Clouds 4 1018 79 10000 7.79 236 10:27 26.12.2020
4443 Clouds 4 1018 79 10000 7.79 236 09:51 26.12.2020
4444 Clouds 4 1018 77 10000 7.58 241 09:29 26.12.2020
4445 Clouds 4 1018 77 10000 7.58 241 08:35 26.12.2020
4446 Clouds 4 1017 74 10000 6.71 249 07:55 26.12.2020
4447 Clouds 4 1018 71 10000 5.13 283 06:47 26.12.2020
4448 Clouds 4 1018 74 10000 7.9 303 03:46 26.12.2020
4449 Clouds 4 1018 74 10000 7.96 310 01:44 26.12.2020
4450 Clouds 4 1019 73 10000 8.19 319 00:27 26.12.2020
4451 Clouds 4 1019 73 10000 8.19 319 23:41 25.12.2020
4452 Clouds 4 1019 73 10000 7.98 319 23:23 25.12.2020
4453 Clouds 4 1019 73 10000 7.98 319 22:48 25.12.2020
4454 Clouds 4 1019 73 10000 7.62 322 22:23 25.12.2020
4455 Clouds 4 1019 73 10000 7.62 322 21:35 25.12.2020
4456 Clouds 4 1018 73 10000 7.33 331 20:59 25.12.2020
4457 Clouds 4 1018 73 10000 7.33 331 20:37 25.12.2020
4458 Clouds 4 1018 73 10000 7.93 334 19:50 25.12.2020
4459 Clouds 4 1018 73 10000 7.93 334 19:30 25.12.2020
4460 Clouds 4 1018 72 10000 8.65 330 18:39 25.12.2020
4461 Clouds 4 1018 72 10000 8.65 330 18:39 25.12.2020
4462 Clouds 4 1018 73 10000 8.97 331 17:57 25.12.2020
4463 Clouds 4 1018 73 10000 8.97 331 17:35 25.12.2020
4464 Clouds 4 1018 73 10000 8.77 330 16:48 25.12.2020
4465 Clouds 4 1018 73 10000 8.4 328 16:20 25.12.2020
4466 Clouds 4 1018 73 10000 8.4 328 15:46 25.12.2020
4467 Clouds 4 1017 73 10000 8.13 328 15:22 25.12.2020
4468 Clouds 4 1017 73 10000 8.13 328 14:32 25.12.2020
4469 Clear 4 1018 73 10000 7.7 329 13:48 25.12.2020
4470 Clear 4 1018 73 10000 7.76 336 13:26 25.12.2020
4471 Clear 4 1018 73 10000 7.76 336 12:56 25.12.2020
4472 Clear 4 1018 72 10000 7.51 343 12:27 25.12.2020
4473 Clear 4 1018 72 10000 7.51 343 11:46 25.12.2020
4474 Clear 4 1017 72 10000 7.2 347 11:23 25.12.2020
4475 Clear 4 1017 72 10000 7.2 347 10:43 25.12.2020
4476 Clear 4 1017 73 10000 6.89 356 09:49 25.12.2020
4477 Clear 4 1016 73 10000 7.48 0 09:26 25.12.2020
4478 Clear 4 1016 73 10000 7.48 0 08:37 25.12.2020
4479 Clear 4 1016 73 10000 8.02 0 06:52 25.12.2020
4480 Clear 4 1015 73 10000 7.87 1 06:21 25.12.2020
4481 Clear 5 1014 72 10000 8.19 358 02:36 25.12.2020
4482 Clouds 4 1012 72 10000 8.57 358 00:35 25.12.2020
4483 Clouds 4 1012 73 10000 8.26 3 23:32 24.12.2020
4484 Clouds 4 1011 76 10000 8.26 9 22:56 24.12.2020
4485 Clouds 4 1011 76 10000 8.66 11 22:26 24.12.2020
4486 Clouds 4 1011 76 10000 8.66 11 21:53 24.12.2020
4487 Clouds 5 1010 74 10000 8.54 10 21:27 24.12.2020
4488 Clouds 5 1009 73 10000 8.17 10 20:18 24.12.2020
4489 Clouds 5 1008 74 10000 7.94 9 18:22 24.12.2020
4490 Clouds 5 1008 74 10000 7.94 9 17:58 24.12.2020
4491 Clouds 5 1008 74 10000 7.94 9 17:36 24.12.2020
4492 Clouds 5 1006 82 10000 8.07 7 16:27 24.12.2020
4493 Clouds 5 1006 82 10000 8.07 7 15:58 24.12.2020
4494 Clouds 5 1006 82 10000 8.07 7 15:40 24.12.2020
4495 Clouds 5 1005 83 10000 8.25 6 15:18 24.12.2020
4496 Clouds 5 1005 83 10000 8.25 6 14:42 24.12.2020
4497 Clouds 5 1005 85 10000 8.59 6 14:23 24.12.2020
4498 Clouds 5 1005 85 10000 8.59 6 13:39 24.12.2020
4499 Clouds 5 1004 85 10000 8.54 5 13:20 24.12.2020
4500 Clouds 5 1003 86 10000 7.65 5 12:41 24.12.2020
4501 Clouds 5 1003 91 10000 6.34 7 12:20 24.12.2020
4502 Rain 5 1003 91 10000 6.34 7 11:39 24.12.2020
4503 Rain 4 1002 92 10000 7.36 19 11:20 24.12.2020
4504 Rain 4 1002 92 10000 7.36 19 10:51 24.12.2020
4505 Rain 4 1002 92 10000 7.36 19 10:32 24.12.2020
4506 Rain 5 1002 92 9022 8.04 26 09:52 24.12.2020
4507 Rain 5 1002 93 10000 8.51 36 09:24 24.12.2020
4508 Rain 5 1001 92 10000 9.25 42 08:18 24.12.2020
4509 Rain 5 1001 92 10000 9.25 42 07:39 24.12.2020
4510 Rain 5 1001 93 10000 8.67 45 06:55 24.12.2020
4511 Clouds 3 1007 94 10000 8.43 61 04:28 24.12.2020
4512 Clouds 3 1008 93 10000 7.7 78 01:54 24.12.2020
4513 Rain 3 1008 93 10000 0.89 67 01:32 24.12.2020
4514 Rain 3 1008 93 10000 6.41 71 00:56 24.12.2020
4515 Rain 3 1008 94 10000 5.78 87 00:21 24.12.2020
4516 Rain 3 1010 94 10000 0.89 67 23:44 23.12.2020
4517 Rain 4 1010 94 10000 6.16 107 23:23 23.12.2020
4518 Rain 4 1010 94 10000 0.45 67 22:53 23.12.2020
4519 Rain 4 1010 94 9391 4.33 116 22:29 23.12.2020
4520 Rain 3 1011 93 9391 4.33 116 21:52 23.12.2020
4521 Rain 3 1011 93 10000 5.2 131 21:27 23.12.2020
4522 Rain 3 1012 93 10000 0.89 135 20:54 23.12.2020
4523 Rain 3 1012 93 10000 0.89 135 20:36 23.12.2020
4524 Rain 3 1012 93 10000 0.89 135 20:18 23.12.2020
4525 Rain 3 1013 93 10000 0.89 135 19:39 23.12.2020
4526 Rain 3 1013 92 10000 0.45 135 19:20 23.12.2020
4527 Rain 3 1014 92 10000 4.22 118 18:47 23.12.2020
4528 Clouds 3 1014 92 10000 0.45 135 18:24 23.12.2020
4529 Clouds 3 1015 91 10000 0.45 157 17:39 23.12.2020
4530 Clouds 3 1015 91 10000 0.45 157 17:39 23.12.2020
4531 Clouds 3 1015 91 10000 0.45 157 17:39 23.12.2020
4532 Clouds 2 1015 91 10000 0.45 180 17:20 23.12.2020
4533 Clouds 3 1016 91 10000 0.45 202 16:47 23.12.2020
4534 Clouds 3 1016 91 10000 2.28 192 16:29 23.12.2020
4535 Clouds 4 1016 91 10000 2.28 192 15:56 23.12.2020
4536 Clouds 4 1016 91 10000 0.45 225 15:37 23.12.2020
4537 Clouds 4 1017 91 10000 3.43 222 15:19 23.12.2020
4538 Clouds 5 1017 91 10000 3.43 222 14:40 23.12.2020
4539 Clouds 5 1017 91 10000 3.75 228 14:21 23.12.2020
4540 Clouds 6 1017 91 10000 3.75 228 13:44 23.12.2020
4541 Clouds 6 1017 91 10000 4.83 238 13:20 23.12.2020
4542 Clouds 6 1018 92 10000 0.45 225 12:54 23.12.2020
4543 Clouds 6 1018 92 10000 0.89 225 12:30 23.12.2020
4544 Clouds 6 1018 92 10000 0.45 225 11:56 23.12.2020
4545 Clouds 6 1018 92 10000 0.45 202 11:31 23.12.2020
4546 Clouds 4 1019 92 10000 0.45 225 10:56 23.12.2020
4547 Clouds 4 1019 92 10000 0.45 225 10:37 23.12.2020
4548 Clouds 3 1019 92 10000 0.45 247 09:38 23.12.2020
4549 Clouds 3 1019 91 10000 0.45 247 08:57 23.12.2020
4550 Clouds 3 1019 91 10000 0.45 247 08:33 23.12.2020
4551 Clouds 2 1019 91 10000 5.31 253 07:49 23.12.2020
4552 Clouds 2 1019 90 10000 0.45 247 06:42 23.12.2020
4553 Clouds 2 1019 90 10000 5.84 258 05:58 23.12.2020
4554 Clouds 2 1018 90 10000 6.09 266 05:24 23.12.2020
4555 Clouds 4 1018 89 10000 0.45 270 01:59 23.12.2020
4556 Clouds 5 1018 86 10000 7.52 277 00:33 23.12.2020
4557 Clouds 5 1018 86 10000 0.45 292 23:45 22.12.2020
4558 Clouds 6 1018 85 10000 0.45 315 23:25 22.12.2020
4559 Clouds 6 1018 86 10000 0.89 315 22:43 22.12.2020
4560 Clouds 6 1018 85 10000 1.79 315 22:25 22.12.2020
4561 Clouds 6 1018 85 10000 1.79 315 22:25 22.12.2020
4562 Clouds 6 1017 85 10000 0.89 292 21:54 22.12.2020
4563 Clouds 6 1016 85 10000 1.34 315 21:22 22.12.2020
4564 Clouds 6 1016 85 10000 1.79 315 20:57 22.12.2020
4565 Clouds 6 1016 85 10000 0.89 315 20:38 22.12.2020
4566 Clouds 6 1016 84 10000 2.68 315 20:20 22.12.2020
4567 Clouds 7 1015 85 10000 2.68 315 19:42 22.12.2020
4568 Clouds 7 1015 87 10000 4.02 315 19:20 22.12.2020
4569 Clouds 7 1009 81 10000 10.54 287 18:47 22.12.2020
4570 Clouds 8 1008 82 10000 11.64 287 18:27 22.12.2020
4571 Clouds 8 1008 82 10000 11.64 287 17:50 22.12.2020
4572 Clouds 8 1007 87 10000 11.49 275 17:23 22.12.2020
4573 Clouds 8 1007 87 10000 11.49 275 16:55 22.12.2020
4574 Clouds 8 1007 87 10000 11.49 275 16:36 22.12.2020
4575 Clouds 8 1006 88 10000 10.79 276 16:18 22.12.2020
4576 Clouds 8 1006 88 10000 10.79 276 15:42 22.12.2020
4577 Clouds 8 1004 90 10000 10.8 275 15:20 22.12.2020
4578 Clouds 8 1004 90 10000 10.8 275 14:43 22.12.2020
4579 Clouds 8 1003 93 10000 10.95 273 14:25 22.12.2020
4580 Clouds 9 1008 95 10000 10.95 273 13:47 22.12.2020
4581 Clouds 9 1008 95 10000 10.89 269 13:19 22.12.2020
4582 Clouds 9 1008 95 10000 10.89 269 12:57 22.12.2020
4583 Clouds 9 1008 95 10000 10.34 265 12:38 22.12.2020
4584 Clouds 9 1008 95 10000 8.19 246 12:19 22.12.2020
4585 Rain 9 1001 96 10000 8.19 246 11:42 22.12.2020
4586 Rain 8 1001 96 10000 6.76 210 11:22 22.12.2020
4587 Rain 8 1001 96 10000 6.76 210 10:55 22.12.2020
4588 Rain 5 1008 95 10000 0.89 180 10:27 22.12.2020
4589 Rain 5 1008 95 10000 0.89 180 09:58 22.12.2020
4590 Rain 5 1008 95 10000 0.89 180 09:30 22.12.2020
4591 Rain 5 1008 95 7868 0.89 180 08:57 22.12.2020
4592 Rain 5 1008 94 7868 1.34 180 08:38 22.12.2020
4593 Rain 5 1008 94 4772 1.34 180 07:57 22.12.2020
4594 Rain 4 1009 94 6806 1.79 180 07:27 22.12.2020
4595 Rain 4 1010 94 6806 1.79 180 06:32 22.12.2020
4596 Clouds 4 1011 94 10000 2.24 180 05:30 22.12.2020
4597 Rain 3 1015 93 10000 1.34 157 02:24 22.12.2020
4598 Clouds 4 1018 94 10000 0.89 157 00:26 22.12.2020
4599 Rain 3 1018 94 10000 1.34 157 23:50 21.12.2020
4600 Rain 4 1019 94 10000 0.89 135 23:22 21.12.2020
4601 Clouds 3 1020 94 10000 0.89 157 22:37 21.12.2020
4602 Clouds 3 1020 94 10000 1.34 157 22:19 21.12.2020
4603 Clouds 3 1020 94 10000 1.34 157 22:19 21.12.2020
4604 Clouds 3 1021 94 10000 0.89 135 21:48 21.12.2020
4605 Clouds 3 1021 94 10000 0.89 157 21:30 21.12.2020
4606 Clouds 3 1021 94 10000 0.89 157 20:45 21.12.2020
4607 Clouds 4 1022 94 10000 0.89 157 20:21 21.12.2020
4608 Clouds 4 1022 94 10000 0.89 157 19:55 21.12.2020
4609 Clouds 4 1023 94 10000 1.34 180 19:36 21.12.2020
4610 Clouds 4 1023 94 10000 1.34 180 19:18 21.12.2020
4611 Clouds 3 1023 93 10000 1.34 157 18:45 21.12.2020
4612 Clouds 3 1023 93 10000 1.34 157 18:27 21.12.2020
4613 Clouds 4 1023 93 10000 0.89 157 17:43 21.12.2020
4614 Clouds 4 1024 93 10000 0.89 180 17:23 21.12.2020
4615 Clouds 4 1024 92 10000 0.45 157 16:45 21.12.2020
4616 Clouds 5 1024 93 10000 0.45 180 16:24 21.12.2020
4617 Clouds 6 1024 93 10000 5.34 193 15:45 21.12.2020
4618 Clouds 6 1024 93 10000 0.45 180 15:26 21.12.2020
4619 Clouds 6 1025 94 10000 1.34 225 14:56 21.12.2020
4620 Clouds 6 1019 86 10000 6.11 225 14:20 21.12.2020
4621 Clouds 6 1019 86 10000 6.11 225 13:42 21.12.2020
4622 Clouds 6 1019 88 10000 6.59 230 13:22 21.12.2020
4623 Clouds 6 1025 94 10000 0.89 202 12:43 21.12.2020
4624 Clouds 6 1025 94 10000 0.89 202 12:24 21.12.2020
4625 Clouds 6 1025 94 10000 0.89 202 11:55 21.12.2020
4626 Clouds 6 1025 94 10000 0.89 202 11:37 21.12.2020
4627 Clouds 6 1025 94 10000 0.89 202 11:18 21.12.2020
4628 Clouds 6 1026 94 10000 1.34 225 10:40 21.12.2020
4629 Clouds 5 1025 94 10000 0.89 225 10:21 21.12.2020
4630 Clouds 5 1025 94 10000 0.89 225 09:43 21.12.2020
4631 Clouds 4 1025 94 10000 1.34 202 09:24 21.12.2020
4632 Clouds 4 1025 94 10000 0.89 180 08:50 21.12.2020
4633 Clouds 3 1025 94 10000 0.45 202 07:51 21.12.2020
4634 Clouds 4 1025 94 10000 0.45 202 06:43 21.12.2020
4635 Clouds 4 1025 94 10000 0.89 202 04:46 21.12.2020
4636 Clouds 4 1025 94 10000 6.37 214 01:26 21.12.2020
4637 Clouds 4 1025 94 10000 0.89 202 00:32 21.12.2020
4638 Clouds 4 1025 93 10000 0.89 202 23:36 20.12.2020
4639 Rain 3 1024 93 10000 0.89 202 22:59 20.12.2020
4640 Rain 3 1024 93 10000 0.89 202 22:59 20.12.2020
4641 Rain 3 1025 93 10000 0.89 180 22:41 20.12.2020
4642 Rain 3 1025 93 10000 0.45 180 22:22 20.12.2020
4643 Rain 3 1025 93 10000 1.34 180 21:40 20.12.2020
4644 Rain 3 1025 93 10000 1.34 180 21:21 20.12.2020
4645 Rain 3 1024 93 10000 1.34 180 20:51 20.12.2020
4646 Rain 3 1024 93 10000 0.89 180 20:25 20.12.2020
4647 Rain 3 1024 92 10000 1.34 180 19:49 20.12.2020
4648 Rain 3 1024 92 10000 1.34 180 19:31 20.12.2020
4649 Rain 3 1024 92 10000 1.79 180 18:59 20.12.2020
4650 Rain 3 1024 92 10000 1.34 180 18:40 20.12.2020
4651 Rain 3 1024 91 7963 0.89 180 18:22 20.12.2020
4652 Rain 3 1024 91 7963 1.34 180 17:44 20.12.2020
4653 Rain 3 1024 91 10000 1.34 180 17:23 20.12.2020
4654 Rain 3 1024 91 10000 0.45 157 16:45 20.12.2020
4655 Rain 3 1024 91 10000 0.45 157 16:27 20.12.2020
4656 Rain 3 1024 91 10000 0.45 180 15:49 20.12.2020
4657 Rain 3 1024 91 10000 0.89 157 15:25 20.12.2020
4658 Clouds 3 1024 91 10000 0.89 157 14:54 20.12.2020
4659 Clouds 3 1024 91 10000 0.89 180 14:33 20.12.2020
4660 Clouds 3 1024 91 10000 0.89 157 13:47 20.12.2020
4661 Clouds 3 1024 91 10000 0.89 157 13:28 20.12.2020
4662 Clouds 3 1024 91 10000 1.34 135 12:58 20.12.2020
4663 Clouds 3 1024 91 10000 0.45 157 12:39 20.12.2020
4664 Clouds 4 1025 91 10000 0.89 157 12:21 20.12.2020
4665 Clouds 4 1025 92 10000 0.89 180 11:44 20.12.2020
4666 Clouds 3 1025 92 10000 0.89 157 11:19 20.12.2020
4667 Clouds 7 1019 81 10000 6.35 189 10:45 20.12.2020
4668 Clouds 7 1019 81 10000 6.02 183 10:20 20.12.2020
4669 Clouds 7 1019 81 10000 6.02 183 09:46 20.12.2020
4670 Clouds 2 1025 92 10000 0.45 157 09:27 20.12.2020
4671 Clouds 2 1025 92 10000 0.89 180 08:59 20.12.2020
4672 Clouds 2 1025 92 10000 0.89 157 08:39 20.12.2020
4673 Clouds 2 1025 92 10000 0.89 157 07:28 20.12.2020
4674 Clouds 2 1024 93 10000 0.45 180 06:18 20.12.2020
4675 Clouds 7 1018 83 10000 7.95 202 02:24 20.12.2020
4676 Clouds 2 1024 93 10000 1.34 180 00:41 20.12.2020
4677 Clouds 2 1024 94 10000 0.89 180 23:36 19.12.2020
4678 Clouds 2 1024 94 10000 0.89 180 23:18 19.12.2020
4679 Clouds 2 1023 94 10000 0.89 180 22:41 19.12.2020
4680 Clear 2 1023 94 10000 0.89 157 22:20 19.12.2020
4681 Clear 2 1023 94 10000 0.45 157 21:44 19.12.2020
4682 Clear 2 1023 94 10000 0.89 157 21:25 19.12.2020
4683 Clear 2 1023 94 10000 1.34 180 20:55 19.12.2020
4684 Clear 2 1023 94 10000 1.34 180 20:24 19.12.2020
4685 Clear 2 1023 94 10000 1.34 157 19:59 19.12.2020
4686 Clear 2 1023 94 10000 1.34 157 19:41 19.12.2020
4687 Clear 2 1023 94 10000 0.89 157 19:21 19.12.2020
4688 Clear 2 1022 93 10000 1.34 157 18:33 19.12.2020
4689 Clear 6 1017 82 10000 8.22 186 17:56 19.12.2020
4690 Clear 6 1017 82 10000 8.22 186 17:36 19.12.2020
4691 Clear 7 1017 82 10000 8.89 182 17:18 19.12.2020
4692 Clear 7 1017 82 10000 8.89 182 16:40 19.12.2020
4693 Clouds 7 1017 82 10000 8.86 177 16:22 19.12.2020
4694 Clouds 7 1017 82 10000 8.86 177 15:54 19.12.2020
4695 Clouds 7 1017 81 10000 8.68 172 15:21 19.12.2020
4696 Clouds 7 1017 81 10000 8.68 172 14:38 19.12.2020
4697 Clear 3 1022 91 10000 1.79 157 13:59 19.12.2020
4698 Clear 3 1023 91 10000 1.34 157 13:40 19.12.2020
4699 Clouds 3 1023 92 10000 1.79 135 13:18 19.12.2020
4700 Clouds 3 1023 92 10000 1.34 157 12:42 19.12.2020
4701 Clouds 4 1024 93 10000 1.34 157 12:24 19.12.2020
4702 Clouds 3 1024 93 10000 0.45 180 11:56 19.12.2020
4703 Clouds 3 1024 93 10000 0.89 157 11:35 19.12.2020
4704 Clouds 2 1025 94 10000 0.89 157 10:42 19.12.2020
4705 Clouds 2 1024 94 10000 0.45 157 10:21 19.12.2020
4706 Clouds 1 1024 93 10000 1.34 180 09:45 19.12.2020
4707 Clouds 1 1024 93 10000 0.89 180 09:27 19.12.2020
4708 Clouds 1 1024 93 10000 0.89 180 08:25 19.12.2020
4709 Clouds 1 1024 93 10000 0.45 157 07:24 19.12.2020
4710 Clouds 1 1024 93 10000 0.89 157 06:51 19.12.2020
4711 Clouds 1 1024 93 10000 0.89 157 06:19 19.12.2020
4712 Clouds 1 1025 93 10000 0.89 157 05:18 19.12.2020
4713 Clouds 2 1025 93 10000 0.89 135 03:19 19.12.2020
4714 Clouds 3 1026 93 10000 0.45 180 00:37 19.12.2020
4715 Clouds 3 1026 93 10000 0.89 180 00:18 19.12.2020
4716 Clouds 3 1026 93 10000 0.45 180 23:47 18.12.2020
4717 Clouds 3 1027 93 10000 0.45 180 23:23 18.12.2020
4718 Clouds 3 1026 93 10000 0.45 180 22:46 18.12.2020
4719 Clouds 3 1026 93 10000 0.45 180 22:22 18.12.2020
4720 Clouds 3 1026 93 10000 0.45 180 21:50 18.12.2020
4721 Clouds 3 1027 93 10000 0.45 180 21:31 18.12.2020
4722 Clouds 4 1026 92 10000 0.45 180 20:41 18.12.2020
4723 Clouds 4 1027 92 10000 0.89 180 20:21 18.12.2020
4724 Clouds 4 1026 92 10000 0.89 180 19:44 18.12.2020
4725 Clouds 4 1026 92 10000 1.34 180 19:20 18.12.2020
4726 Clouds 4 1026 92 10000 0.89 180 18:42 18.12.2020
4727 Clouds 4 1026 92 10000 0.89 180 18:24 18.12.2020
4728 Clouds 5 1026 91 10000 0.89 180 17:24 18.12.2020
4729 Clouds 5 1026 91 10000 0.89 180 16:55 18.12.2020
4730 Clouds 6 1027 90 10000 0.45 180 16:37 18.12.2020
4731 Clouds 6 1027 90 10000 0.45 180 16:18 18.12.2020
4732 Clouds 7 1027 90 10000 0.89 180 15:41 18.12.2020
4733 Clouds 7 1027 90 10000 0.89 180 15:23 18.12.2020
4734 Clouds 7 1027 90 10000 0.89 202 14:55 18.12.2020
4735 Clouds 8 1027 91 10000 0.45 202 14:22 18.12.2020
4736 Clouds 8 1027 92 10000 0.89 202 13:51 18.12.2020
4737 Clouds 8 1027 92 10000 0.89 202 13:31 18.12.2020
4738 Clouds 7 1027 92 10000 0.89 202 12:50 18.12.2020
4739 Clouds 7 1027 92 10000 0.89 225 12:27 18.12.2020
4740 Clouds 6 1027 93 10000 0.45 202 11:26 18.12.2020
4741 Clouds 6 1027 93 10000 0.45 225 10:40 18.12.2020
4742 Clouds 5 1027 93 10000 0.45 225 10:21 18.12.2020
4743 Clouds 5 1027 93 10000 0.45 225 09:40 18.12.2020
4744 Clouds 5 1027 93 10000 0.45 225 09:22 18.12.2020
4745 Clouds 5 1027 93 10000 0.45 225 09:22 18.12.2020
4746 Clouds 5 1027 93 10000 0.45 225 08:57 18.12.2020
4747 Clouds 6 1027 93 10000 0.45 225 08:36 18.12.2020
4748 Clouds 6 1027 93 10000 0.45 225 07:52 18.12.2020
4749 Clouds 6 1027 93 10000 0.89 225 07:19 18.12.2020
4750 Clouds 6 1027 93 10000 0.89 225 06:58 18.12.2020
4751 Clouds 7 1026 93 10000 0.89 225 05:44 18.12.2020
4752 Clouds 7 1026 93 10000 0.89 225 04:51 18.12.2020
4753 Clouds 6 1025 93 10000 0.45 225 02:49 18.12.2020
4754 Clouds 6 1025 93 10000 0.89 225 01:43 18.12.2020
4755 Clouds 7 1025 93 10000 0.45 247 00:29 18.12.2020
4756 Clouds 7 1025 93 10000 1.34 247 23:52 17.12.2020
4757 Clouds 7 1024 93 10000 0.89 225 23:21 17.12.2020
4758 Clouds 7 1024 93 10000 0.89 247 22:48 17.12.2020
4759 Clouds 7 1024 93 10000 0.89 225 22:27 17.12.2020
4760 Rain 6 1024 93 10000 0.89 225 21:46 17.12.2020
4761 Clouds 6 1024 93 10000 0.89 225 21:22 17.12.2020
4762 Clouds 6 1024 92 10000 0.89 202 20:55 17.12.2020
4763 Clouds 6 1024 92 10000 0.45 225 20:36 17.12.2020
4764 Clouds 6 1023 92 10000 0.89 225 20:18 17.12.2020
4765 Clouds 6 1023 92 10000 0.89 225 19:39 17.12.2020
4766 Clouds 7 1023 92 10000 0.45 225 19:21 17.12.2020
4767 Clouds 7 1023 92 10000 0.45 247 18:40 17.12.2020
4768 Clouds 7 1023 92 10000 0.89 225 18:19 17.12.2020
4769 Clouds 7 1022 91 10000 0.89 225 17:46 17.12.2020
4770 Clouds 7 1022 91 10000 0.89 202 17:27 17.12.2020
4771 Clouds 6 1022 90 10000 0.89 180 16:41 17.12.2020
4772 Rain 6 1021 89 10000 1.34 180 16:22 17.12.2020
4773 Rain 6 1021 89 10000 0.89 180 15:51 17.12.2020
4774 Clouds 6 1021 89 10000 1.79 202 15:30 17.12.2020
4775 Clouds 6 1021 89 10000 1.79 180 14:54 17.12.2020
4776 Rain 6 1021 89 10000 1.34 180 14:29 17.12.2020
4777 Rain 6 1021 89 10000 1.79 180 13:51 17.12.2020
4778 Rain 7 1021 89 10000 0.89 180 13:27 17.12.2020
4779 Rain 6 1021 89 10000 1.79 180 12:44 17.12.2020
4780 Clouds 6 1021 90 10000 1.79 157 12:25 17.12.2020
4781 Clouds 6 1022 90 10000 1.79 157 11:45 17.12.2020
4782 Clouds 6 1022 91 10000 1.34 180 11:24 17.12.2020
4783 Rain 6 1022 91 10000 1.34 135 10:49 17.12.2020
4784 Clouds 6 1023 91 10000 2.24 180 10:18 17.12.2020
4785 Clouds 6 1023 91 10000 1.34 180 09:26 17.12.2020
4786 Clouds 5 1022 92 10000 1.34 157 07:54 17.12.2020
4787 Clouds 6 1022 92 10000 1.79 157 07:34 17.12.2020
4788 Clouds 6 1022 92 10000 1.79 157 06:54 17.12.2020
4789 Clouds 6 1023 92 10000 1.34 180 06:32 17.12.2020
4790 Clouds 6 1023 92 10000 2.24 157 05:58 17.12.2020
4791 Clouds 6 1025 93 10000 1.34 135 00:38 17.12.2020
4792 Clouds 6 1026 93 10000 0.89 135 23:52 16.12.2020
4793 Clouds 5 1026 92 10000 0.45 135 23:21 16.12.2020
4794 Clouds 5 1026 92 10000 0.45 157 22:56 16.12.2020
4795 Clouds 5 1026 92 10000 0.45 135 22:35 16.12.2020
4796 Clouds 6 1026 92 10000 0.89 157 21:52 16.12.2020
4797 Clouds 6 1026 92 10000 0.89 135 21:34 16.12.2020
4798 Clouds 6 1026 92 10000 1.34 157 20:56 16.12.2020
4799 Clouds 6 1026 92 10000 1.79 157 20:37 16.12.2020
4800 Clouds 6 1026 92 10000 1.79 157 20:18 16.12.2020
4801 Clouds 6 1026 92 10000 1.34 157 19:20 16.12.2020
4802 Clouds 6 1026 92 10000 0.89 157 18:56 16.12.2020
4803 Clouds 6 1026 92 10000 0.45 157 18:31 16.12.2020
4804 Clouds 6 1026 92 10000 0.45 157 17:57 16.12.2020
4805 Clouds 6 1026 92 10000 0.89 157 17:31 16.12.2020
4806 Clouds 6 1026 92 10000 0.89 157 16:42 16.12.2020
4807 Clouds 6 1026 92 10000 0.45 180 16:22 16.12.2020
4808 Clouds 6 1026 92 10000 0.45 180 16:22 16.12.2020
4809 Clouds 6 1026 92 10000 0.45 180 16:22 16.12.2020
4810 Clouds 6 1026 92 10000 2.58 216 15:51 16.12.2020
4811 Clouds 6 1026 92 10000 0.45 180 15:30 16.12.2020
4812 Clouds 7 1026 92 10000 0.45 180 14:55 16.12.2020
4813 Clouds 8 1026 93 10000 0.45 180 14:37 16.12.2020
4814 Clouds 8 1026 93 10000 0.45 202 14:19 16.12.2020
4815 Clouds 9 1025 94 10000 0.89 202 13:37 16.12.2020
4816 Clouds 9 1025 94 10000 0.45 202 13:18 16.12.2020
4817 Clouds 9 1025 94 10000 0.45 202 12:42 16.12.2020
4818 Clouds 7 1020 93 10000 5.68 239 11:43 16.12.2020
4819 Clouds 7 1019 95 10000 6.31 241 11:23 16.12.2020
4820 Clouds 7 1019 95 10000 6.31 241 10:52 16.12.2020
4821 Clouds 7 1019 96 5006 6.47 237 10:27 16.12.2020
4822 Clouds 7 1019 96 5006 6.47 237 09:50 16.12.2020
4823 Clouds 7 1018 96 5115 6.62 243 09:23 16.12.2020
4824 Clear 7 1018 95 10000 6.34 246 08:22 16.12.2020
4825 Clear 7 1022 95 10000 0.89 292 07:42 16.12.2020
4826 Clouds 7 1022 95 10000 0.89 292 07:19 16.12.2020
4827 Clouds 7 1020 94 10000 0.45 292 03:35 16.12.2020
4828 Clouds 6 1018 93 10000 6.77 279 01:34 16.12.2020
4829 Clouds 6 1018 93 10000 0.45 225 23:46 15.12.2020
4830 Clouds 6 1017 92 10000 0.89 225 23:18 15.12.2020
4831 Clouds 6 1017 92 10000 0.89 225 22:40 15.12.2020
4832 Clouds 6 1017 92 10000 0.45 225 22:20 15.12.2020
4833 Rain 6 1017 91 10000 0.89 225 21:45 15.12.2020
4834 Rain 5 1016 91 10000 0.89 202 21:22 15.12.2020
4835 Rain 6 1016 91 10000 0.89 202 20:45 15.12.2020
4836 Rain 6 1016 91 10000 0.89 202 20:26 15.12.2020
4837 Rain 5 1016 91 10000 0.89 180 19:55 15.12.2020
4838 Rain 5 1016 91 10000 0.89 180 19:30 15.12.2020
4839 Clouds 5 1016 91 10000 0.45 180 18:40 15.12.2020
4840 Clouds 5 1016 91 10000 0.45 180 18:22 15.12.2020
4841 Clouds 5 1016 91 10000 0.45 180 17:58 15.12.2020
4842 Clouds 5 1016 91 10000 0.89 180 17:40 15.12.2020
4843 Clouds 4 1016 90 10000 0.89 202 17:19 15.12.2020
4844 Clouds 4 1016 90 10000 0.89 180 16:32 15.12.2020
4845 Clouds 4 1016 90 10000 0.45 180 15:51 15.12.2020
4846 Clouds 4 1016 89 10000 0.89 180 15:30 15.12.2020
4847 Clouds 5 1015 89 10000 0.89 180 14:47 15.12.2020
4848 Clouds 6 1015 89 10000 0.89 157 14:21 15.12.2020
4849 Clouds 6 1016 89 10000 0.45 157 13:52 15.12.2020
4850 Clouds 6 1015 89 10000 0.89 180 13:32 15.12.2020
4851 Clouds 6 1015 90 10000 1.34 202 12:47 15.12.2020
4852 Clouds 5 1015 90 10000 1.79 135 12:22 15.12.2020
4853 Clouds 5 1016 91 10000 0.45 180 11:56 15.12.2020
4854 Clouds 5 1015 91 10000 0.89 135 11:26 15.12.2020
4855 Clouds 4 1015 92 10000 0.89 157 10:57 15.12.2020
4856 Rain 4 1015 92 10000 1.34 135 10:35 15.12.2020
4857 Rain 4 1016 93 10000 0.89 135 09:53 15.12.2020
4858 Rain 4 1016 93 10000 0.89 135 09:32 15.12.2020
4859 Rain 4 1016 93 10000 0.89 135 09:32 15.12.2020
4860 Rain 4 1016 93 10000 0.89 135 09:32 15.12.2020
4861 Rain 4 1016 93 10000 0.89 157 08:58 15.12.2020
4862 Clouds 4 1016 93 10000 0.89 180 08:30 15.12.2020
4863 Clouds 4 1016 93 10000 0.89 180 08:30 15.12.2020
4864 Clouds 3 1016 93 10000 0.45 157 07:54 15.12.2020
4865 Clouds 3 1016 93 10000 0.89 157 07:33 15.12.2020
4866 Clouds 4 1016 93 10000 0.89 135 06:37 15.12.2020
4867 Clouds 4 1016 93 10000 0.89 157 04:22 15.12.2020
4868 Clouds 5 1017 94 10000 0.45 180 00:37 15.12.2020
4869 Clouds 5 1017 93 10000 0.45 180 23:47 14.12.2020
4870 Clouds 6 1017 93 10000 0.45 180 23:19 14.12.2020
4871 Clouds 6 1017 93 10000 0.89 180 22:39 14.12.2020
4872 Clouds 6 1017 93 10000 0.45 180 21:56 14.12.2020
4873 Clouds 6 1017 93 10000 0.89 180 21:36 14.12.2020
4874 Clouds 6 1017 93 10000 0.89 180 20:57 14.12.2020
4875 Clouds 6 1016 93 10000 0.89 180 20:39 14.12.2020
4876 Clouds 6 1016 93 10000 0.89 180 20:18 14.12.2020
4877 Clouds 6 1016 93 10000 0.89 180 19:39 14.12.2020
4878 Clouds 6 1016 93 10000 1.34 180 19:21 14.12.2020
4879 Clouds 6 1016 93 10000 1.34 180 18:42 14.12.2020
4880 Clouds 6 1016 93 10000 0.89 180 18:22 14.12.2020
4881 Clouds 6 1016 93 10000 1.34 157 17:38 14.12.2020
4882 Clouds 6 1016 93 10000 1.79 157 17:19 14.12.2020
4883 Clouds 6 1016 92 10000 1.34 180 16:40 14.12.2020
4884 Rain 6 1016 92 10000 1.34 180 16:22 14.12.2020
4885 Rain 6 1016 93 10000 1.34 180 15:33 14.12.2020
4886 Clouds 6 1016 93 10000 0.89 157 14:50 14.12.2020
4887 Clouds 6 1016 93 10000 1.34 157 14:29 14.12.2020
4888 Clouds 6 1016 94 10000 1.34 157 13:56 14.12.2020
4889 Clouds 5 1017 95 10000 1.34 157 13:34 14.12.2020
4890 Clouds 5 1017 94 10000 1.34 157 12:56 14.12.2020
4891 Clouds 4 1017 94 10000 1.34 157 12:32 14.12.2020
4892 Clouds 4 1018 94 10000 1.34 157 11:58 14.12.2020
4893 Clouds 4 1018 94 10000 0.89 157 11:25 14.12.2020
4894 Clouds 3 1018 94 10000 1.34 157 10:28 14.12.2020
4895 Clouds 3 1018 94 10000 1.34 157 09:53 14.12.2020
4896 Clouds 3 1018 94 10000 1.34 157 09:25 14.12.2020
4897 Clouds 2 1019 94 10000 0.89 157 08:45 14.12.2020
4898 Clouds 2 1019 94 10000 0.89 157 08:25 14.12.2020
4899 Clouds 2 1019 94 10000 0.89 157 07:22 14.12.2020
4900 Clouds 2 1019 94 10000 0.89 135 06:44 14.12.2020
4901 Clouds 1 1019 93 10000 0.89 157 04:27 14.12.2020
4902 Clouds 1 1019 93 10000 0.89 135 02:25 14.12.2020
4903 Clouds 0 1020 93 10000 4.73 166 00:52 14.12.2020
4904 Clouds 0 1020 93 10000 4.53 167 00:30 14.12.2020
4905 Clear 0 1020 93 10000 4.29 174 23:46 13.12.2020
4906 Clear 0 1020 92 10000 4.45 169 23:24 13.12.2020
4907 Clear 0 1019 93 10000 4.45 169 22:45 13.12.2020
4908 Clear 0 1019 92 10000 4.2 179 22:18 13.12.2020
4909 Clear 0 1019 92 10000 4.2 179 21:42 13.12.2020
4910 Clear 0 1019 92 10000 0.89 180 21:22 13.12.2020
4911 Clear 0 1019 92 10000 0.45 180 20:35 13.12.2020
4912 Clear 1 1019 91 10000 0.45 180 19:51 13.12.2020
4913 Clear 1 1019 91 10000 0.45 225 19:30 13.12.2020
4914 Clouds 1 1019 91 10000 0.45 180 18:58 13.12.2020
4915 Clouds 1 1019 91 10000 0.45 180 18:39 13.12.2020
4916 Clouds 1 1019 91 10000 3.59 201 18:19 13.12.2020
4917 Clouds 1 1018 91 10000 3.59 201 17:46 13.12.2020
4918 Clouds 1 1018 91 10000 3.17 197 17:21 13.12.2020
4919 Clouds 2 1018 91 10000 3.17 197 16:54 13.12.2020
4920 Clouds 2 1018 91 10000 3.17 197 16:36 13.12.2020
4921 Clouds 2 1018 91 10000 2.35 189 15:58 13.12.2020
4922 Clouds 2 1018 91 10000 0.45 225 15:38 13.12.2020
4923 Clouds 2 1017 90 10000 0.45 180 15:20 13.12.2020
4924 Clouds 2 1017 90 10000 0.45 202 14:43 13.12.2020
4925 Clouds 3 1017 91 10000 0.45 202 14:20 13.12.2020
4926 Clouds 3 1017 91 10000 1.65 199 13:43 13.12.2020
4927 Clouds 3 1017 91 10000 1.12 213 13:24 13.12.2020
4928 Clouds 3 1017 91 10000 1.65 182 12:42 13.12.2020
4929 Clouds 3 1016 91 10000 1.6 193 12:22 13.12.2020
4930 Clouds 3 1016 91 10000 1.6 193 11:40 13.12.2020
4931 Clouds 2 1016 91 10000 1.39 175 10:55 13.12.2020
4932 Clouds 2 1016 91 10000 0.45 157 10:37 13.12.2020
4933 Clouds 2 1016 91 10000 1.5 151 09:55 13.12.2020
4934 Clouds 2 1016 91 10000 2.18 143 09:26 13.12.2020
4935 Clouds 1 1015 91 10000 2.18 143 08:34 13.12.2020
4936 Clouds 1 1015 91 10000 2.68 137 07:47 13.12.2020
4937 Clouds 3 1014 91 10000 3.02 100 04:48 13.12.2020
4938 Clouds 3 1013 91 10000 2.45 113 02:41 13.12.2020
4939 Clouds 3 1013 91 10000 2.31 117 01:58 13.12.2020
4940 Clouds 3 1012 91 10000 2.47 114 00:50 13.12.2020
4941 Clouds 3 1012 91 10000 4.02 118 00:28 13.12.2020
4942 Clouds 2 1012 91 10000 4.02 118 23:32 12.12.2020
4943 Clouds 2 1012 91 10000 4.45 133 22:53 12.12.2020
4944 Clouds 2 1012 91 10000 5.39 135 22:20 12.12.2020
4945 Clouds 2 1012 91 10000 5.39 135 21:42 12.12.2020
4946 Clouds 2 1011 91 10000 6.08 132 21:18 12.12.2020
4947 Clouds 2 1011 90 10000 6.08 132 20:41 12.12.2020
4948 Clouds 2 1011 90 10000 6.1 132 20:19 12.12.2020
4949 Clouds 2 1011 90 10000 0.45 135 19:46 12.12.2020
4950 Clouds 2 1011 90 10000 0.89 135 19:28 12.12.2020
4951 Clear 2 1011 90 10000 0.45 135 18:47 12.12.2020
4952 Clear 2 1011 90 10000 0.45 135 18:29 12.12.2020
4953 Clear 2 1010 90 10000 0.89 135 17:47 12.12.2020
4954 Clear 2 1010 90 10000 0.45 135 17:28 12.12.2020
4955 Clear 2 1010 90 10000 0.89 135 16:24 12.12.2020
4956 Clear 2 1009 90 10000 0.89 135 15:52 12.12.2020
4957 Clear 2 1009 90 10000 1.34 135 15:34 12.12.2020
4958 Clear 2 1009 90 10000 1.34 135 14:50 12.12.2020
4959 Clear 2 1009 90 10000 0.89 135 13:58 12.12.2020
4960 Clear 3 1008 90 10000 1.34 157 13:38 12.12.2020
4961 Clouds 3 1008 90 10000 1.34 157 13:19 12.12.2020
4962 Clouds 3 1008 91 10000 0.89 135 12:31 12.12.2020
4963 Clouds 2 1008 92 10000 1.34 135 11:18 12.12.2020
4964 Clouds 2 1008 92 10000 1.79 157 10:42 12.12.2020
4965 Clouds 2 1007 92 10000 1.34 135 09:20 12.12.2020
4966 Clouds 1 1007 93 10000 9 116 03:39 12.12.2020
4967 Clouds 0 1007 93 10000 7.02 127 00:50 12.12.2020
4968 Clouds 0 1007 93 10000 1.34 135 23:19 11.12.2020
4969 Clouds 0 1007 93 10000 0.89 157 20:55 11.12.2020
4970 Clouds -1 1008 93 10000 2.24 157 19:31 11.12.2020
4971 Clouds -1 1009 91 10000 0.89 157 16:49 11.12.2020
4972 Clear -1 1009 90 10000 1.34 135 14:29 11.12.2020
4973 Clouds -1 1009 90 10000 1.34 157 13:26 11.12.2020
4974 Clouds -1 1010 91 10000 1.34 135 12:22 11.12.2020
4975 Clouds -1 1011 91 10000 0.45 135 11:52 11.12.2020
4976 Clouds -1 1010 91 10000 0.45 157 11:30 11.12.2020
4977 Clouds -1 1011 91 10000 1.34 157 10:34 11.12.2020
4978 Clouds -1 1011 92 10000 0.89 157 07:28 11.12.2020
4979 Clouds -1 1012 92 10000 0.89 135 05:36 11.12.2020
4980 Clouds -1 1013 92 10000 0.89 157 02:58 11.12.2020
4981 Clouds -1 1014 92 10000 0.89 157 00:42 11.12.2020
4982 Clouds -1 1014 92 10000 4.62 142 23:27 10.12.2020
4983 Clouds -1 1014 92 10000 0.45 157 21:37 10.12.2020
4984 Clouds -1 1014 92 10000 4.05 150 20:51 10.12.2020
4985 Clouds -1 1014 92 10000 0.45 157 20:26 10.12.2020
4986 Clouds -1 1015 92 10000 0.45 135 19:29 10.12.2020
4987 Clouds -1 1014 92 10000 5.02 135 18:48 10.12.2020
4988 Clouds -1 1015 92 10000 0.45 135 17:29 10.12.2020
4989 Clouds -1 1015 92 10000 0.45 135 15:58 10.12.2020
4990 Clouds -1 1015 92 10000 0.45 135 15:21 10.12.2020
4991 Clouds -1 1015 92 10000 0.45 135 14:43 10.12.2020
4992 Clouds -1 1015 92 10000 0.89 135 13:42 10.12.2020
4993 Clouds -1 1015 93 10000 5.74 108 12:21 10.12.2020
4994 Clouds -1 1016 93 10000 0.89 135 10:54 10.12.2020
4995 Clouds -1 1017 93 10000 0.45 135 08:27 10.12.2020
4996 Clouds -1 1016 93 10000 0.89 135 07:28 10.12.2020
4997 Clouds -1 1016 92 10000 0.89 135 05:51 10.12.2020
4998 Clouds 0 1017 92 10000 0.89 135 02:43 10.12.2020
4999 Clouds 0 1018 91 10000 1.34 157 01:33 10.12.2020
5000 Clouds 1 1018 90 10000 0.45 157 23:44 09.12.2020
5001 Clouds 1 1018 89 10000 0.89 135 20:39 09.12.2020
5002 Clouds 1 1018 89 10000 1.34 157 19:46 09.12.2020
5003 Clouds 1 1018 88 10000 1.34 157 18:42 09.12.2020
5004 Clouds 2 1017 88 10000 0.45 157 17:35 09.12.2020
5005 Clouds 2 1017 88 10000 0.45 135 16:40 09.12.2020
5006 Clouds 2 1017 88 10000 0.89 135 16:20 09.12.2020
5007 Clouds 2 1017 88 10000 1.34 135 14:51 09.12.2020
5008 Clouds 2 1017 88 10000 0.89 135 14:27 09.12.2020
5009 Clouds 2 1017 88 10000 0.89 135 13:46 09.12.2020
5010 Clouds 2 1017 88 10000 1.79 135 13:18 09.12.2020
5011 Clouds 3 1017 89 10000 0.89 157 12:36 09.12.2020
5012 Clouds 2 1017 90 10000 1.79 135 11:43 09.12.2020
5013 Clouds 1 1017 90 10000 0.45 135 09:54 09.12.2020
5014 Clouds 1 1017 90 10000 0.45 135 08:42 09.12.2020
5015 Clouds 1 1017 89 10000 1.34 135 06:56 09.12.2020
5016 Clouds 1 1016 89 10000 0.45 135 05:42 09.12.2020
5017 Snow 2 1017 90 10000 0.45 135 02:57 09.12.2020
5018 Clouds 2 1016 90 10000 0.45 135 00:56 09.12.2020
5019 Clouds 2 1016 90 10000 0.89 135 23:37 08.12.2020
5020 Clouds 2 1016 90 10000 0.89 157 22:43 08.12.2020
5021 Clouds 2 1016 90 10000 0.89 157 20:49 08.12.2020
5022 Clouds 2 1015 90 10000 0.89 135 19:31 08.12.2020
5023 Clouds 2 1015 89 10000 1.34 135 18:41 08.12.2020
5024 Clouds 3 1015 89 10000 0.89 157 17:28 08.12.2020
5025 Clouds 3 1014 88 10000 0.45 135 15:27 08.12.2020
5026 Clouds 4 1013 87 10000 0.89 157 13:53 08.12.2020
5027 Clouds 4 1013 87 10000 0.89 157 12:54 08.12.2020
5028 Clouds 4 1013 88 10000 0.89 157 12:23 08.12.2020
5029 Clouds 4 1013 88 10000 0.45 135 11:28 08.12.2020
5030 Clouds 3 1013 88 10000 0.89 135 10:42 08.12.2020
5031 Clouds 3 1013 88 10000 0.89 135 09:47 08.12.2020
5032 Clouds 3 1012 88 10000 0.89 157 07:50 08.12.2020
5033 Clouds 4 1012 87 10000 0.89 135 06:33 08.12.2020
5034 Clouds 4 1012 89 10000 6.27 133 03:23 08.12.2020
5035 Clouds 4 1012 89 10000 4.35 116 00:46 08.12.2020
5036 Clouds 4 1012 89 10000 0.45 157 23:50 07.12.2020
5037 Clouds 4 1011 89 10000 0.45 157 22:33 07.12.2020
5038 Clouds 4 1011 88 10000 0.45 157 21:50 07.12.2020
5039 Clouds 6 1010 87 10000 0.89 180 19:51 07.12.2020
5040 Clouds 6 1009 87 10000 1.79 157 18:40 07.12.2020
5041 Clouds 6 1008 87 10000 1.34 157 17:26 07.12.2020
5042 Clouds 6 1008 86 10000 1.34 157 16:53 07.12.2020
5043 Clouds 6 1007 86 10000 1.34 157 15:26 07.12.2020
5044 Clouds 6 1007 86 10000 1.34 157 14:46 07.12.2020
5045 Clouds 6 1006 85 10000 0.89 135 13:45 07.12.2020
5046 Clouds 6 1006 85 10000 2.24 157 13:20 07.12.2020
5047 Clouds 6 1006 85 10000 2.24 135 11:43 07.12.2020
5048 Clouds 6 1006 86 10000 1.79 135 11:18 07.12.2020
5049 Clouds 4 1006 88 10000 1.79 157 09:40 07.12.2020
5050 Clouds 4 1005 88 10000 2.24 135 08:21 07.12.2020
5051 Clouds 8 1001 82 10000 11.43 127 06:29 07.12.2020
5052 Clouds 4 1005 89 10000 2.24 157 04:48 07.12.2020
5053 Clouds 6 1006 87 10000 2.24 135 01:54 07.12.2020
5054 Clouds 6 1006 89 10000 2.24 135 23:50 06.12.2020
5055 Clouds 7 1006 89 10000 2.24 135 22:24 06.12.2020
5056 Clouds 7 1007 89 10000 2.24 135 20:56 06.12.2020
5057 Clouds 7 1007 89 10000 1.79 135 20:34 06.12.2020
5058 Clouds 7 1007 88 10000 1.79 135 19:54 06.12.2020
5059 Clouds 7 1007 89 10000 2.24 157 18:33 06.12.2020
5060 Clouds 6 1007 89 10000 7.59 120 16:52 06.12.2020
5061 Clouds 7 1007 89 10000 7.21 117 14:58 06.12.2020
5062 Clouds 8 1007 89 10000 0.45 135 13:45 06.12.2020
5063 Clouds 8 1008 90 10000 6.26 108 12:52 06.12.2020
5064 Clouds 7 1008 90 10000 5.63 115 11:59 06.12.2020
5065 Clouds 7 1008 91 10000 0.45 135 11:34 06.12.2020
5066 Clouds 6 1008 92 10000 0.45 112 10:51 06.12.2020
5067 Clouds 6 1009 93 10000 0.45 135 09:59 06.12.2020
5068 Clouds 4 1009 92 10000 0.45 112 08:37 06.12.2020
5069 Clouds 6 1009 92 10000 0.45 112 06:50 06.12.2020
5070 Clouds 3 1011 90 10000 5.28 84 01:50 06.12.2020
5071 Clouds 2 1011 89 10000 2.85 68 00:42 06.12.2020
5072 Clouds 2 1011 89 10000 2.85 68 00:42 06.12.2020
5073 Clouds 2 1011 88 10000 2.14 112 00:23 06.12.2020
5074 Clouds 3 1011 88 10000 0.45 180 22:50 05.12.2020
5075 Clouds 3 1011 88 10000 2.1 172 22:20 05.12.2020
5076 Clouds 3 1011 87 10000 2.1 172 21:51 05.12.2020
5077 Clouds 3 1010 87 10000 0.45 270 21:26 05.12.2020
5078 Clouds 4 1010 88 10000 0.45 225 19:48 05.12.2020
5079 Rain 4 1010 89 10000 0.89 225 18:41 05.12.2020
5080 Clouds 3 1009 89 10000 0.89 202 17:34 05.12.2020
5081 Clouds 4 1008 90 10000 0.45 180 16:42 05.12.2020
5082 Clouds 4 1008 90 10000 0.45 180 16:20 05.12.2020
5083 Clouds 4 1006 90 10000 0.89 180 14:28 05.12.2020
5084 Clouds 5 1004 92 10000 0.89 180 12:32 05.12.2020
5085 Clouds 4 1004 93 10000 0.89 157 11:48 05.12.2020
5086 Clouds 3 1004 93 10000 0.89 135 10:32 05.12.2020
5087 Clouds 1 1003 93 10000 1.34 157 07:49 05.12.2020
5088 Clouds 2 1002 94 10000 0.89 135 07:25 05.12.2020
5089 Clouds 1 1003 93 10000 0.89 135 04:44 05.12.2020
5090 Clouds 1 1003 93 10000 0.45 135 23:56 04.12.2020
5091 Clouds 1 1003 92 10000 0.45 135 22:39 04.12.2020
5092 Clear 1 1002 91 10000 0.45 135 20:29 04.12.2020
5093 Clouds 1 1002 91 10000 0.45 135 18:53 04.12.2020
5094 Clouds 1 1001 91 10000 0.89 157 18:20 04.12.2020
5095 Clouds 1 1001 90 10000 0.89 157 17:41 04.12.2020
5096 Clouds 2 1001 90 10000 1.34 157 15:54 04.12.2020
5097 Snow 2 1000 90 10000 1.79 157 15:18 04.12.2020
5098 Clouds 2 1000 89 10000 0.89 112 13:35 04.12.2020
5099 Clouds 2 1000 89 10000 1.34 135 12:55 04.12.2020
5100 Clouds 1 1000 90 10000 1.34 135 11:41 04.12.2020
5101 Clouds 1 1001 91 10000 0.89 157 10:30 04.12.2020
5102 Clouds -2 1001 91 10000 1.34 157 07:53 04.12.2020
5103 Clear -2 1002 89 10000 1.34 135 06:40 04.12.2020
5104 Clear -2 1003 89 10000 1.34 135 04:50 04.12.2020
5105 Clouds -1 1004 88 10000 0.89 157 00:24 04.12.2020
5106 Clouds 0 1005 89 10000 1.34 157 22:47 03.12.2020
5107 Clouds 0 1005 89 10000 2.24 180 21:20 03.12.2020
5108 Clouds 0 1006 89 10000 1.34 157 20:39 03.12.2020
5109 Clouds -1 1006 89 10000 1.34 135 19:21 03.12.2020
5110 Clouds -1 1006 89 10000 1.79 157 18:40 03.12.2020
5111 Clouds -1 1007 88 10000 1.79 157 17:21 03.12.2020
5112 Clouds -1 1008 87 10000 0.89 157 15:59 03.12.2020
5113 Snow -1 1009 87 10000 0.89 157 15:32 03.12.2020
5114 Snow -1 1009 86 10000 1.79 157 14:48 03.12.2020
5115 Snow 0 1010 86 10000 1.79 135 13:55 03.12.2020
5116 Clouds -1 1011 86 10000 1.34 135 12:44 03.12.2020
5117 Clouds -1 1011 86 10000 1.79 135 12:22 03.12.2020
5118 Clouds -1 1013 87 10000 1.79 157 10:54 03.12.2020
5119 Clear -1 1014 87 10000 0.89 157 08:41 03.12.2020
5120 Clear -1 1016 89 10000 1.79 180 04:21 03.12.2020
5121 Clear -1 1018 88 10000 0.45 157 01:57 03.12.2020
5122 Clouds 0 1019 88 10000 1.34 180 00:28 03.12.2020
5123 Clouds 1 1020 89 10000 0.89 180 22:46 02.12.2020
5124 Clouds 1 1020 89 10000 0.89 157 21:55 02.12.2020
5125 Clouds 1 1021 89 10000 0.89 157 20:51 02.12.2020
5126 Clouds 1 1021 89 10000 0.89 157 20:33 02.12.2020
5127 Clouds 1 1021 89 10000 0.45 157 19:54 02.12.2020
5128 Clouds 1 1022 89 10000 0.89 157 17:51 02.12.2020
5129 Clouds 1 1022 88 10000 0.45 157 17:33 02.12.2020
5130 Clouds 2 1023 88 10000 0.89 157 16:49 02.12.2020
5131 Clouds 3 1023 87 10000 0.89 157 14:33 02.12.2020
5132 Clouds 3 1026 91 10000 0.45 157 11:34 02.12.2020
5133 Clouds 3 1027 92 10000 4.83 154 10:28 02.12.2020
5134 Clouds 2 1028 91 10000 5.14 154 08:24 02.12.2020
5135 Clouds 3 1029 90 10000 5.06 114 00:57 02.12.2020
5136 Clouds 3 1028 89 10000 4.39 126 22:21 01.12.2020
5137 Clouds 3 1028 89 10000 5.14 127 20:36 01.12.2020
5138 Clouds 3 1027 89 10000 0.45 135 19:34 01.12.2020
5139 Clouds 3 1025 89 10000 4.86 107 17:34 01.12.2020
5140 Clouds 3 1024 88 10000 4.08 117 15:40 01.12.2020
5141 Clouds 3 1022 89 10000 0.45 157 13:37 01.12.2020
5142 Clouds 2 1022 89 10000 0.45 135 11:44 01.12.2020
5143 Clouds 2 1022 89 10000 0.45 135 11:26 01.12.2020
5144 Clouds 2 1021 89 10000 0.45 135 10:38 01.12.2020
5145 Rain 2 1019 90 10000 1.34 135 08:21 01.12.2020
5146 Clouds 2 1019 90 10000 0.89 157 06:47 01.12.2020
5147 Rain 1 1019 89 10000 0.89 157 01:52 01.12.2020
5148 Clouds 1 1019 88 10000 1.34 157 00:55 01.12.2020
5149 Clouds 1 1020 88 10000 1.34 157 23:21 30.11.2020
5150 Clouds 1 1021 88 10000 0.89 157 22:44 30.11.2020
5151 Clouds 1 1021 88 10000 1.34 157 22:25 30.11.2020
5152 Clouds 1 1022 89 10000 0.45 180 20:47 30.11.2020
5153 Clouds 1 1022 88 10000 0.45 180 19:42 30.11.2020
5154 Clouds 1 1022 88 10000 0.45 180 19:42 30.11.2020
5155 Clouds 2 1024 88 10000 0.89 180 18:23 30.11.2020
5156 Clouds 2 1024 87 10000 0.45 180 17:47 30.11.2020
5157 Clouds 3 1019 80 10000 7.54 213 16:55 30.11.2020
5158 Clouds 4 1019 79 10000 7.52 224 15:59 30.11.2020
5159 Clouds 5 1020 80 10000 7.04 243 14:46 30.11.2020
5160 Clouds 4 1021 83 10000 5.58 247 13:52 30.11.2020
5161 Clouds 4 1023 81 10000 5.74 229 12:26 30.11.2020
5162 Clouds 4 1023 81 10000 5.74 229 11:58 30.11.2020
5163 Clouds 4 1024 76 10000 4.34 281 10:26 30.11.2020
5164 Clouds 4 1024 76 10000 4.34 281 10:26 30.11.2020
5165 Clouds 4 1024 76 10000 4.34 281 09:49 30.11.2020
5166 Clouds 3 1024 80 10000 3.98 297 07:18 30.11.2020
5167 Clouds 4 1025 74 10000 3.63 308 00:41 30.11.2020
5168 Clouds 4 1025 77 10000 2.57 345 21:52 29.11.2020
5169 Clouds 4 1025 77 10000 2.57 345 21:31 29.11.2020
5170 Clouds 4 1026 78 10000 3.11 356 19:58 29.11.2020
5171 Clouds 4 1026 75 10000 4.12 351 17:47 29.11.2020
5172 Clouds 4 1026 75 10000 4.07 352 16:27 29.11.2020
5173 Clouds 4 1027 74 10000 4.61 355 13:24 29.11.2020
5174 Clouds 4 1027 74 10000 4.61 355 13:24 29.11.2020
5175 Clouds 5 1027 71 10000 4.63 1 11:49 29.11.2020
5176 Clouds 5 1027 71 10000 4.5 9 10:53 29.11.2020
5177 Clouds 5 1027 72 10000 5 16 08:39 29.11.2020
5178 Clouds 6 1027 74 10000 5.71 19 06:33 29.11.2020
5179 Clouds 7 1027 70 10000 5.96 45 00:30 29.11.2020
5180 Clouds 4 1032 91 10000 5.62 51 22:57 28.11.2020
5181 Clouds 7 1027 64 10000 4.61 56 20:56 28.11.2020
5182 Clouds 4 1032 90 10000 4.78 56 19:53 28.11.2020
5183 Clouds 4 1032 90 10000 4.78 51 19:25 28.11.2020
5184 Clouds 4 1032 90 10000 4.78 51 18:52 28.11.2020
5185 Clouds 5 1031 90 10000 4.62 47 17:48 28.11.2020
5186 Clouds 4 1031 88 10000 3.86 43 16:52 28.11.2020
5187 Clouds 6 1031 84 10000 2.7 72 14:58 28.11.2020
5188 Clouds 6 1031 79 10000 3.25 72 13:30 28.11.2020
5189 Clear 5 1031 92 10000 4.79 78 11:24 28.11.2020
5190 Clear 7 1025 73 10000 4.92 61 08:18 28.11.2020
5191 Clear 7 1024 70 10000 3.62 53 03:34 28.11.2020
5192 Clear 7 1024 69 10000 3.68 59 01:52 28.11.2020
5193 Clear 7 1024 64 10000 2.11 33 23:19 27.11.2020
5194 Clear 7 1023 67 10000 2.61 28 22:23 27.11.2020
5195 Clear 7 1023 69 10000 2.47 9 20:39 27.11.2020
5196 Clear 7 1023 72 10000 2.22 356 19:33 27.11.2020
5197 Clouds 7 1022 75 10000 2.28 353 18:57 27.11.2020
5198 Clear 4 1027 92 10000 3.15 335 15:50 27.11.2020
5199 Clear 6 1026 93 10000 3.51 322 14:23 27.11.2020
5200 Clear 6 1027 93 10000 3.73 322 13:18 27.11.2020
5201 Clear 5 1027 94 10000 3.73 322 12:46 27.11.2020
5202 Clouds 5 1027 95 10000 4.08 322 11:34 27.11.2020
5203 Clouds 4 1027 94 10000 4.31 318 10:43 27.11.2020
5204 Clouds 3 1026 95 10000 4.72 317 09:31 27.11.2020
5205 Clear 4 1024 94 10000 6.83 301 23:39 26.11.2020
5206 Clear 4 1024 93 10000 7.62 303 22:25 26.11.2020
5207 Clear 4 1024 93 10000 7.62 303 21:46 26.11.2020
5208 Clear 4 1023 93 10000 7.98 302 20:43 26.11.2020
5209 Clouds 7 1023 94 10000 0.45 292 18:37 26.11.2020
5210 Clouds 7 1022 94 10000 0.45 292 17:34 26.11.2020
5211 Clouds 7 1021 94 10000 0.45 292 14:24 26.11.2020
5212 Clouds 6 1021 94 10000 0.89 247 12:58 26.11.2020
5213 Clouds 6 1022 93 10000 0.45 292 12:40 26.11.2020
5214 Rain 5 1022 93 10000 10.14 243 11:29 26.11.2020
5215 Clouds 4 1022 93 10000 0.89 225 10:25 26.11.2020
5216 Clouds 4 1022 94 10000 0.89 225 09:39 26.11.2020
5217 Clouds 4 1022 94 10000 0.89 225 09:18 26.11.2020
5218 Clouds 4 1022 94 10000 0.89 202 08:34 26.11.2020
5219 Clouds 3 1023 93 10000 0.89 225 02:19 26.11.2020
5220 Clouds 2 1023 93 10000 0.45 247 22:31 25.11.2020
5221 Clouds 2 1023 93 10000 1.34 202 20:38 25.11.2020
5222 Clouds 1 1023 93 10000 0.89 202 19:29 25.11.2020
5223 Clouds 6 1017 78 10000 6.63 208 18:23 25.11.2020
5224 Clouds 2 1023 92 10000 0.89 225 15:56 25.11.2020
5225 Clouds 3 1022 92 10000 0.89 225 15:35 25.11.2020
5226 Clouds 7 1017 76 10000 5.4 205 13:56 25.11.2020
5227 Clouds 7 1017 76 10000 5.4 205 13:37 25.11.2020
5228 Clouds 7 1017 80 10000 5.61 205 11:44 25.11.2020
5229 Clouds 3 1023 93 10000 0.89 180 11:18 25.11.2020
5230 Clouds 2 1024 92 10000 0.89 180 09:18 25.11.2020
5231 Clouds 2 1023 92 10000 0.89 180 08:41 25.11.2020
5232 Clouds 2 1024 90 10000 0.45 202 03:59 25.11.2020
5233 Clouds 4 1024 90 10000 6.43 219 01:52 25.11.2020
5234 Clouds 5 1025 90 10000 0.45 225 00:22 25.11.2020
5235 Clouds 6 1025 90 10000 0.89 225 23:37 24.11.2020
5236 Clouds 6 1025 89 10000 0.89 225 22:58 24.11.2020
5237 Clouds 7 1025 90 10000 0.89 225 21:51 24.11.2020
5238 Clouds 7 1025 90 10000 0.89 225 21:29 24.11.2020
5239 Clouds 7 1025 90 10000 0.45 225 20:40 24.11.2020
5240 Clouds 7 1026 90 10000 0.89 225 18:56 24.11.2020
5241 Clouds 7 1025 89 10000 0.89 225 17:31 24.11.2020
5242 Clouds 7 1025 89 10000 0.89 225 16:54 24.11.2020
5243 Clouds 7 1025 89 10000 0.89 247 16:35 24.11.2020
5244 Clouds 7 1025 89 10000 1.79 225 15:54 24.11.2020
5245 Clouds 7 1025 89 10000 0.89 225 15:19 24.11.2020
5246 Clouds 7 1026 89 10000 0.45 225 14:43 24.11.2020
5247 Clouds 7 1026 91 10000 1.34 225 12:55 24.11.2020
5248 Clouds 6 1027 91 10000 0.89 225 12:22 24.11.2020
5249 Clouds 6 1027 91 10000 1.34 247 11:58 24.11.2020
5250 Clouds 5 1027 92 10000 1.34 225 10:48 24.11.2020
5251 Clouds 4 1027 92 10000 1.79 225 10:25 24.11.2020
5252 Clouds 4 1028 92 10000 1.79 225 09:36 24.11.2020
5253 Clouds 3 1028 92 10000 1.79 225 08:27 24.11.2020
5254 Clouds 3 1028 91 10000 0.45 225 04:49 24.11.2020
5255 Clouds 5 1030 92 10000 10.32 260 23:32 23.11.2020
5256 Clouds 5 1030 91 10000 0.89 247 21:47 23.11.2020
5257 Clouds 5 1030 91 10000 10.56 279 21:20 23.11.2020
5258 Clear 6 1029 91 10000 10.86 285 20:28 23.11.2020
5259 Clear 6 1029 90 10000 10.86 285 19:36 23.11.2020
5260 Clear 6 1028 89 10000 11.76 287 17:28 23.11.2020
5261 Clear 6 1028 88 10000 0.89 270 16:54 23.11.2020
5262 Clear 8 1027 85 10000 1.79 292 14:50 23.11.2020
5263 Clear 8 1026 87 10000 0.89 270 13:56 23.11.2020
5264 Clouds 8 1025 87 10000 0.89 292 12:40 23.11.2020
5265 Clouds 7 1025 88 10000 0.89 270 11:57 23.11.2020
5266 Clouds 7 1025 89 10000 0.45 292 11:38 23.11.2020
5267 Clouds 6 1024 91 10000 0.89 292 09:47 23.11.2020
5268 Clouds 5 1024 92 10000 2.24 270 08:58 23.11.2020
5269 Clouds 4 1023 92 10000 0.45 270 07:58 23.11.2020
5270 Clouds 5 1023 91 10000 12.21 272 03:32 23.11.2020
5271 Clouds 5 1024 90 10000 0.45 292 23:54 22.11.2020
5272 Clouds 6 1024 89 10000 0.89 247 22:32 22.11.2020
5273 Clear 6 1024 89 10000 11.99 277 21:25 22.11.2020
5274 Clear 6 1023 89 10000 0.45 270 20:35 22.11.2020
5275 Clear 6 1023 87 10000 0.45 270 19:36 22.11.2020
5276 Clear 6 1023 86 10000 13.24 278 18:39 22.11.2020
5277 Clear 8 1023 83 10000 1.34 270 16:36 22.11.2020
5278 Clouds 8 1023 84 10000 2.24 315 15:28 22.11.2020
5279 Clear 9 1022 84 10000 1.79 315 13:44 22.11.2020
5280 Clouds 8 1022 89 10000 13.51 283 12:43 22.11.2020
5281 Clouds 8 1022 88 10000 1.34 315 11:55 22.11.2020
5282 Clouds 8 1022 88 10000 1.34 315 11:55 22.11.2020
5283 Clouds 8 1021 93 10000 13.52 278 10:55 22.11.2020
5284 Clouds 8 1021 93 10000 0.89 292 10:36 22.11.2020
5285 Rain 8 1021 93 10000 0.45 315 08:26 22.11.2020
5286 Clouds 7 1023 92 10000 1.34 225 01:47 22.11.2020
5287 Clouds 7 1024 91 10000 0.89 225 22:52 21.11.2020
5288 Clouds 7 1025 92 10000 0.89 247 21:39 21.11.2020
5289 Clouds 7 1025 92 10000 0.45 225 20:55 21.11.2020
5290 Clouds 6 1025 92 10000 2.24 247 20:31 21.11.2020
5291 Clouds 6 1025 91 10000 1.79 225 19:52 21.11.2020
5292 Rain 6 1025 91 10000 2.24 225 19:25 21.11.2020
5293 Clouds 6 1026 91 10000 1.79 225 17:57 21.11.2020
5294 Clouds 5 1026 91 10000 2.68 247 16:48 21.11.2020
5295 Clouds 5 1027 90 10000 1.79 225 15:51 21.11.2020
5296 Clouds 4 1028 90 10000 2.24 225 15:21 21.11.2020
5297 Clouds 4 1028 90 10000 1.34 247 14:42 21.11.2020
5298 Clouds 4 1028 87 10000 2.68 202 13:48 21.11.2020
5299 Rain 5 1030 83 10000 2.68 202 12:26 21.11.2020
5300 Clouds 5 1030 83 10000 1.79 225 11:56 21.11.2020
5301 Clouds 4 1031 86 10000 2.24 202 10:39 21.11.2020
5302 Clouds 3 1032 90 10000 1.79 202 09:32 21.11.2020
5303 Clouds 3 1033 91 10000 1.79 180 08:51 21.11.2020
5304 Clouds 2 1035 90 10000 0.89 202 05:47 21.11.2020
5305 Clouds 3 1035 91 10000 0.89 225 04:27 21.11.2020
5306 Clouds 3 1037 90 10000 0.45 225 00:27 21.11.2020
5307 Clouds 3 1037 90 10000 0.45 270 23:25 20.11.2020
5308 Clouds 3 1037 89 10000 6.4 284 21:56 20.11.2020
5309 Clouds 2 1037 88 10000 6.4 284 21:38 20.11.2020
5310 Clouds 2 1037 88 10000 6.4 284 21:38 20.11.2020
5311 Clouds 2 1037 88 10000 0.45 270 21:18 20.11.2020
5312 Clouds 2 1036 88 10000 7.02 294 19:44 20.11.2020
5313 Clear 3 1036 87 10000 6.58 297 18:32 20.11.2020
5314 Clear 3 1036 87 10000 7.41 297 17:47 20.11.2020
5315 Clear 3 1036 87 10000 7.43 293 17:23 20.11.2020
5316 Clear 4 1035 86 10000 7.43 293 16:38 20.11.2020
5317 Clear 4 1034 85 10000 0.45 247 15:56 20.11.2020
5318 Clear 6 1034 83 10000 7.39 290 14:49 20.11.2020
5319 Clear 6 1033 83 10000 0.89 292 13:44 20.11.2020
5320 Clouds 6 1034 83 10000 0.89 247 13:18 20.11.2020
5321 Clouds 6 1033 84 10000 0.89 292 12:33 20.11.2020
5322 Clouds 6 1033 86 10000 1.34 270 11:43 20.11.2020
5323 Clouds 4 1032 88 10000 0.89 225 10:53 20.11.2020
5324 Clouds 7 1025 68 10000 9.3 295 08:53 20.11.2020
5325 Clouds 2 1031 87 10000 0.45 247 08:24 20.11.2020
5326 Clouds 2 1029 86 10000 2.68 315 07:32 20.11.2020
5327 Clouds 2 1027 88 10000 0.89 292 03:44 20.11.2020
5328 Clouds 4 1024 74 10000 0.89 315 22:35 19.11.2020
5329 Clouds 4 1023 74 10000 1.79 292 21:55 19.11.2020
5330 Clouds 5 1023 74 10000 2.24 292 21:36 19.11.2020
5331 Clouds 5 1022 74 10000 0.89 315 20:32 19.11.2020
5332 Clouds 6 1021 74 10000 3.58 315 19:49 19.11.2020
5333 Clouds 6 1020 74 10000 1.79 315 19:23 19.11.2020
5334 Clouds 7 1018 74 10000 1.34 292 17:40 19.11.2020
5335 Clouds 7 1016 79 10000 1.79 292 16:54 19.11.2020
5336 Clouds 9 1012 80 10000 2.24 270 15:36 19.11.2020
5337 Rain 9 1012 77 10000 0.45 202 15:18 19.11.2020
5338 Clouds 10 1012 76 10000 0.45 247 13:46 19.11.2020
5339 Clouds 10 1012 74 10000 0.45 225 13:18 19.11.2020
5340 Clouds 10 1013 74 10000 0.89 247 12:35 19.11.2020
5341 Clouds 11 1013 76 10000 15.51 243 11:50 19.11.2020
5342 Clouds 10 1013 76 10000 0.45 225 11:32 19.11.2020
5343 Clouds 9 1014 81 10000 0.89 247 10:53 19.11.2020
5344 Clouds 9 1013 82 10000 1.34 337 10:19 19.11.2020
5345 Clouds 10 1014 83 10000 0.89 337 09:44 19.11.2020
5346 Clouds 10 1013 85 10000 1.79 292 09:24 19.11.2020
5347 Clouds 11 1013 87 10000 0.89 292 08:19 19.11.2020
5348 Rain 10 1012 87 10000 1.79 225 05:41 19.11.2020
5349 Clouds 9 1014 91 10000 1.79 202 01:45 19.11.2020
5350 Clear 8 1016 91 10000 2.24 180 00:28 19.11.2020
5351 Clear 8 1017 91 10000 0.89 180 23:25 18.11.2020
5352 Clear 8 1018 90 10000 2.24 180 22:36 18.11.2020
5353 Clear 9 1018 90 10000 1.79 180 22:18 18.11.2020
5354 Clear 9 1019 89 10000 2.24 180 21:39 18.11.2020
5355 Clear 9 1019 88 10000 1.79 202 21:20 18.11.2020
5356 Clear 9 1021 86 10000 1.34 202 19:49 18.11.2020
5357 Clouds 9 1021 85 10000 0.89 202 19:28 18.11.2020
5358 Clouds 10 1022 85 10000 2.24 225 18:56 18.11.2020
5359 Clouds 10 1022 84 10000 1.79 180 18:37 18.11.2020
5360 Clouds 11 1023 87 10000 1.34 180 17:37 18.11.2020
5361 Clouds 11 1024 88 10000 1.79 225 16:25 18.11.2020
5362 Clouds 11 1024 89 10000 1.34 247 15:57 18.11.2020
5363 Clouds 11 1025 89 10000 0.89 225 14:41 18.11.2020
5364 Clouds 12 1026 90 10000 0.89 225 13:46 18.11.2020
5365 Clouds 12 1026 90 10000 1.34 247 13:20 18.11.2020
5366 Clouds 12 1026 90 10000 1.79 247 12:42 18.11.2020
5367 Clouds 12 1027 91 10000 0.89 225 11:41 18.11.2020
5368 Clouds 12 1027 92 10000 0.45 225 10:36 18.11.2020
5369 Clouds 11 1027 92 10000 0.89 247 10:18 18.11.2020
5370 Clouds 11 1027 92 10000 0.89 225 07:58 18.11.2020
5371 Clouds 11 1027 92 10000 0.89 247 06:35 18.11.2020
5372 Clouds 11 1026 92 10000 0.89 225 00:58 18.11.2020
5373 Clouds 11 1026 93 10000 10.45 246 23:47 17.11.2020
5374 Clouds 11 1025 93 10000 10.87 249 22:53 17.11.2020
5375 Clouds 11 1025 93 10000 0.89 247 22:29 17.11.2020
5376 Clouds 11 1025 93 10000 0.45 247 21:52 17.11.2020
5377 Clouds 11 1025 93 10000 0.89 225 21:31 17.11.2020
5378 Clouds 11 1025 93 10000 0.45 247 20:50 17.11.2020
5379 Clouds 11 1025 93 10000 0.45 225 20:27 17.11.2020
5380 Clouds 11 1024 93 10000 1.79 247 19:56 17.11.2020
5381 Clouds 11 1024 93 10000 0.89 225 18:35 17.11.2020
5382 Clouds 10 1024 93 10000 1.34 247 17:44 17.11.2020
5383 Clouds 10 1024 92 10000 0.45 247 16:55 17.11.2020
5384 Rain 9 1024 92 10000 0.89 225 16:20 17.11.2020
5385 Clouds 9 1023 92 10000 1.34 225 15:42 17.11.2020
5386 Rain 9 1023 91 10000 1.34 225 15:23 17.11.2020
5387 Rain 9 1023 91 10000 1.79 225 14:56 17.11.2020
5388 Rain 9 1023 91 10000 1.79 225 14:28 17.11.2020
5389 Rain 10 1023 90 10000 1.34 225 13:38 17.11.2020
5390 Clouds 10 1023 89 10000 2.24 225 12:57 17.11.2020
5391 Clouds 10 1023 89 10000 1.79 225 12:38 17.11.2020
5392 Clouds 9 1024 90 10000 1.79 225 11:43 17.11.2020
5393 Clouds 9 1024 91 10000 1.34 225 10:49 17.11.2020
5394 Clouds 9 1024 91 10000 0.89 225 10:23 17.11.2020
5395 Clouds 8 1024 91 10000 0.89 225 09:50 17.11.2020
5396 Clouds 8 1024 91 10000 1.34 225 09:27 17.11.2020
5397 Clouds 7 1023 90 10000 0.45 202 08:22 17.11.2020
5398 Clouds 7 1023 90 10000 0.45 225 07:44 17.11.2020
5399 Clouds 8 1023 90 10000 0.45 270 06:34 17.11.2020
5400 Clouds 9 1022 92 10000 0.45 247 03:31 17.11.2020
5401 Clouds 9 1022 92 10000 0.45 247 02:53 17.11.2020
5402 Clouds 9 1021 92 10000 1.34 247 01:23 17.11.2020
5403 Clouds 9 1021 92 10000 0.89 247 00:53 17.11.2020
5404 Clouds 10 1020 91 10000 0.45 247 23:48 16.11.2020
5405 Clouds 10 1020 90 10000 0.45 270 23:29 16.11.2020
5406 Clouds 10 1020 90 10000 10.38 253 22:47 16.11.2020
5407 Rain 10 1019 90 10000 0.45 270 22:20 16.11.2020
5408 Clouds 9 1019 90 10000 0.89 247 21:46 16.11.2020
5409 Rain 9 1019 90 10000 0.89 225 21:24 16.11.2020
5410 Clouds 9 1018 90 10000 0.89 225 20:50 16.11.2020
5411 Rain 9 1018 89 10000 0.89 225 20:24 16.11.2020
5412 Clouds 9 1017 88 10000 0.89 225 19:38 16.11.2020
5413 Clouds 9 1017 87 10000 1.34 202 19:19 16.11.2020
5414 Clouds 9 1017 87 10000 0.89 225 18:39 16.11.2020
5415 Clouds 9 1017 87 10000 0.89 225 17:51 16.11.2020
5416 Clouds 9 1017 87 10000 0.89 225 17:22 16.11.2020
5417 Clouds 9 1017 86 10000 0.45 225 16:54 16.11.2020
5418 Clouds 9 1016 85 10000 0.45 225 16:29 16.11.2020
5419 Clouds 10 1016 84 10000 0.45 202 15:57 16.11.2020
5420 Clouds 11 1016 83 10000 1.34 247 15:37 16.11.2020
5421 Clouds 11 1015 83 10000 1.34 225 15:19 16.11.2020
5422 Clouds 11 1015 83 10000 1.34 225 14:28 16.11.2020
5423 Clouds 11 1014 82 10000 0.89 247 13:33 16.11.2020
5424 Clouds 11 1014 81 10000 1.34 247 12:34 16.11.2020
5425 Clouds 11 1013 86 10000 1.34 225 11:44 16.11.2020
5426 Clouds 11 1013 87 10000 1.34 225 11:25 16.11.2020
5427 Clouds 9 1013 90 10000 1.34 202 10:51 16.11.2020
5428 Clouds 9 1013 91 10000 1.34 202 10:27 16.11.2020
5429 Clouds 8 1013 91 10000 0.89 180 09:59 16.11.2020
5430 Clouds 8 1013 91 10000 0.89 180 09:40 16.11.2020
5431 Clouds 8 1012 92 10000 0.89 202 08:53 16.11.2020
5432 Clouds 7 1012 92 10000 0.89 180 08:34 16.11.2020
5433 Clouds 7 1012 91 10000 0.45 180 07:43 16.11.2020
5434 Clouds 7 1012 91 10000 0.45 180 07:43 16.11.2020
5435 Clouds 7 1011 91 10000 0.89 180 06:47 16.11.2020
5436 Clouds 7 1011 90 10000 0.89 180 05:53 16.11.2020
5437 Rain 11 1004 88 10000 7.54 210 04:36 16.11.2020
5438 Clouds 7 1010 88 10000 2.24 180 01:49 16.11.2020
5439 Clouds 7 1010 88 10000 2.24 157 01:27 16.11.2020
5440 Clouds 8 1010 87 10000 1.34 180 23:49 15.11.2020
5441 Clouds 8 1010 87 10000 2.68 202 23:22 15.11.2020
5442 Clouds 8 1010 87 10000 2.68 202 23:22 15.11.2020
5443 Rain 8 1010 88 10000 1.79 180 22:45 15.11.2020
5444 Clouds 8 1010 88 10000 1.34 180 22:20 15.11.2020
5445 Clouds 9 1010 88 10000 1.79 135 21:43 15.11.2020
5446 Clouds 9 1011 88 10000 1.34 157 21:24 15.11.2020
5447 Clouds 9 1011 88 10000 0.89 157 20:41 15.11.2020
5448 Clouds 10 1011 88 10000 1.34 180 20:19 15.11.2020
5449 Clouds 10 1011 88 10000 1.79 157 19:48 15.11.2020
5450 Clouds 10 1012 88 10000 0.89 180 19:22 15.11.2020
5451 Clouds 10 1012 88 10000 1.34 180 18:57 15.11.2020
5452 Clouds 10 1012 89 10000 1.34 180 18:39 15.11.2020
5453 Clouds 10 1012 89 10000 1.34 180 18:19 15.11.2020
5454 Clouds 11 1012 89 10000 1.34 135 17:45 15.11.2020
5455 Clouds 11 1013 89 10000 1.79 157 17:24 15.11.2020
5456 Clouds 11 1013 90 10000 0.89 135 16:48 15.11.2020
5457 Clouds 11 1014 89 10000 0.89 157 16:21 15.11.2020
5458 Clouds 11 1014 89 10000 1.34 180 15:54 15.11.2020
5459 Clouds 11 1014 89 10000 1.34 157 15:29 15.11.2020
5460 Clouds 11 1015 89 10000 0.89 180 14:58 15.11.2020
5461 Clouds 11 1015 90 10000 0.89 180 14:31 15.11.2020
5462 Clouds 11 1015 90 10000 1.34 180 13:57 15.11.2020
5463 Clouds 11 1015 91 10000 0.89 157 13:36 15.11.2020
5464 Clouds 11 1015 92 10000 0.89 180 12:52 15.11.2020
5465 Clouds 11 1015 92 10000 0.89 180 12:25 15.11.2020
5466 Clouds 11 1016 93 10000 0.89 180 11:47 15.11.2020
5467 Clouds 9 1016 93 10000 0.89 157 11:21 15.11.2020
5468 Clouds 9 1016 93 10000 0.45 180 10:59 15.11.2020
5469 Clouds 9 1016 93 10000 0.45 180 10:41 15.11.2020
5470 Clouds 9 1016 93 10000 0.89 180 10:23 15.11.2020
5471 Clouds 9 1017 93 10000 0.89 180 09:41 15.11.2020
5472 Clouds 9 1017 94 10000 0.89 180 09:19 15.11.2020
5473 Clouds 8 1017 93 10000 0.89 180 08:51 15.11.2020
5474 Rain 8 1017 93 10000 0.89 180 08:22 15.11.2020
5475 Clouds 8 1017 93 10000 0.89 180 07:38 15.11.2020
5476 Clouds 8 1017 93 10000 0.89 157 04:58 15.11.2020
5477 Clouds 9 1017 94 10000 0.89 180 03:40 15.11.2020
5478 Clouds 9 1019 94 10000 0.45 157 00:49 15.11.2020
5479 Clouds 9 1019 94 10000 0.45 157 00:27 15.11.2020
5480 Clouds 9 1019 93 10000 0.45 157 23:37 14.11.2020
5481 Clouds 9 1020 93 10000 0.45 180 22:50 14.11.2020
5482 Clouds 9 1020 93 10000 0.45 157 22:30 14.11.2020
5483 Clouds 9 1020 93 10000 0.45 157 21:43 14.11.2020
5484 Clouds 9 1020 93 10000 0.45 157 21:22 14.11.2020
5485 Clouds 9 1020 93 10000 0.45 157 20:57 14.11.2020
5486 Clouds 9 1020 93 10000 0.45 157 20:28 14.11.2020
5487 Clouds 9 1020 93 10000 0.45 157 19:52 14.11.2020
5488 Clouds 9 1020 93 10000 0.45 157 19:32 14.11.2020
5489 Clouds 9 1021 92 10000 3.94 183 18:44 14.11.2020
5490 Clouds 9 1021 92 10000 2.96 219 18:25 14.11.2020
5491 Clouds 9 1021 92 10000 2.96 219 17:58 14.11.2020
5492 Clouds 9 1020 92 10000 2.96 219 17:40 14.11.2020
5493 Clouds 10 1020 93 10000 0.45 180 17:19 14.11.2020
5494 Clouds 10 1021 92 10000 3.79 245 16:43 14.11.2020
5495 Clouds 11 1021 93 10000 0.45 202 16:20 14.11.2020
5496 Clouds 11 1021 92 10000 4.47 243 15:52 14.11.2020
5497 Clouds 11 1021 92 10000 0.45 202 15:27 14.11.2020
5498 Clouds 11 1021 93 10000 4.73 236 14:47 14.11.2020
5499 Rain 11 1021 93 10000 0.45 225 14:24 14.11.2020
5500 Clouds 11 1021 93 10000 0.45 225 13:45 14.11.2020
5501 Clouds 11 1021 93 10000 0.45 247 13:24 14.11.2020
5502 Clouds 11 1021 93 10000 0.89 225 12:48 14.11.2020
5503 Clouds 11 1021 94 10000 0.45 225 12:29 14.11.2020
5504 Clouds 11 1021 93 10000 0.89 202 11:46 14.11.2020
5505 Clouds 11 1021 93 10000 0.45 225 11:25 14.11.2020
5506 Clouds 10 1022 94 10000 0.45 225 10:49 14.11.2020
5507 Clouds 10 1021 94 10000 0.89 225 10:26 14.11.2020
5508 Clouds 9 1022 94 10000 0.45 225 09:51 14.11.2020
5509 Clouds 9 1021 94 10000 0.45 225 09:28 14.11.2020
5510 Clouds 9 1021 94 10000 0.45 225 09:28 14.11.2020
5511 Clouds 9 1021 94 10000 0.45 225 08:59 14.11.2020
5512 Clouds 8 1021 93 10000 0.45 225 08:38 14.11.2020
5513 Clouds 8 1021 93 10000 0.45 225 07:52 14.11.2020
5514 Clouds 8 1021 93 10000 0.45 225 07:31 14.11.2020
5515 Clouds 8 1021 93 10000 0.89 225 06:36 14.11.2020
5516 Clouds 8 1021 93 10000 0.89 225 06:36 14.11.2020
5517 Rain 8 1021 93 10000 0.45 202 05:52 14.11.2020
5518 Clouds 8 1020 93 10000 0.45 225 04:30 14.11.2020
5519 Clouds 7 1021 92 10000 0.45 180 01:25 14.11.2020
5520 Clouds 6 1021 92 10000 0.45 180 23:54 13.11.2020
5521 Clouds 6 1021 92 10000 0.45 180 23:54 13.11.2020
5522 Clouds 6 1021 92 10000 0.45 157 23:33 13.11.2020
5523 Clouds 6 1021 92 10000 0.45 180 22:58 13.11.2020
5524 Clouds 6 1021 92 10000 0.45 180 22:39 13.11.2020
5525 Clouds 6 1021 92 10000 0.45 180 22:19 13.11.2020
5526 Clouds 6 1021 92 10000 0.45 157 21:43 13.11.2020
5527 Clouds 6 1021 91 10000 0.45 157 21:22 13.11.2020
5528 Clouds 6 1021 91 10000 0.45 157 20:51 13.11.2020
5529 Clouds 6 1021 91 10000 6.02 194 20:29 13.11.2020
5530 Clouds 6 1021 91 10000 6.02 194 19:54 13.11.2020
5531 Clouds 6 1021 91 10000 0.45 157 19:36 13.11.2020
5532 Clouds 6 1021 91 10000 0.45 157 19:18 13.11.2020
5533 Clouds 6 1021 90 10000 0.89 157 18:32 13.11.2020
5534 Clouds 7 1021 90 10000 5.33 183 17:43 13.11.2020
5535 Clouds 8 1021 89 10000 0.45 180 17:21 13.11.2020
5536 Clouds 8 1021 89 10000 4.92 198 16:57 13.11.2020
5537 Clouds 8 1021 89 10000 4.92 198 16:38 13.11.2020
5538 Clouds 8 1021 89 10000 4.62 198 16:18 13.11.2020
5539 Clouds 10 1022 89 10000 4.62 198 15:39 13.11.2020
5540 Clouds 10 1021 89 10000 5.08 207 15:21 13.11.2020
5541 Clouds 10 1022 89 10000 0.45 270 14:37 13.11.2020
5542 Clouds 11 1022 90 10000 4.98 220 14:18 13.11.2020
5543 Clouds 11 1022 91 10000 4.98 220 13:32 13.11.2020
5544 Clouds 10 1022 92 10000 0.45 225 12:57 13.11.2020
5545 Clouds 10 1022 92 10000 0.45 225 12:39 13.11.2020
5546 Clouds 10 1022 92 10000 0.45 225 12:20 13.11.2020
5547 Clouds 9 1022 92 10000 5.94 243 11:46 13.11.2020
5548 Clouds 9 1022 92 10000 0.45 225 11:22 13.11.2020
5549 Clouds 9 1023 93 10000 6.96 241 10:51 13.11.2020
5550 Clouds 9 1023 93 10000 6.96 241 10:32 13.11.2020
5551 Clouds 8 1023 93 10000 0.45 225 09:52 13.11.2020
5552 Clouds 8 1023 93 10000 0.45 225 09:31 13.11.2020
5553 Rain 8 1023 93 10000 7.83 234 08:54 13.11.2020
5554 Rain 8 1023 93 10000 0.45 225 08:29 13.11.2020
5555 Rain 8 1023 93 10000 0.45 225 07:51 13.11.2020
5556 Rain 8 1023 93 10000 0.45 225 07:27 13.11.2020
5557 Rain 7 1022 93 10000 0.45 225 06:57 13.11.2020
5558 Rain 7 1022 92 10000 0.45 225 06:37 13.11.2020
5559 Clouds 7 1022 92 10000 6.04 245 05:42 13.11.2020
5560 Rain 7 1022 92 10000 0.45 225 04:20 13.11.2020
5561 Clouds 7 1023 92 10000 0.45 180 01:43 13.11.2020
5562 Clouds 7 1023 91 10000 0.89 180 00:37 13.11.2020
5563 Clouds 7 1023 91 10000 0.89 180 23:55 12.11.2020
5564 Rain 7 1023 91 10000 0.89 180 23:36 12.11.2020
5565 Rain 7 1023 91 10000 0.89 180 23:18 12.11.2020
5566 Clouds 7 1023 90 10000 0.45 180 22:40 12.11.2020
5567 Clouds 7 1023 90 10000 0.89 180 21:59 12.11.2020
5568 Clouds 7 1023 90 10000 0.89 180 21:41 12.11.2020
5569 Rain 8 1023 90 10000 1.34 180 21:22 12.11.2020
5570 Rain 8 1023 90 10000 1.34 180 20:42 12.11.2020
5571 Rain 8 1023 90 9443 1.34 180 20:24 12.11.2020
5572 Clouds 8 1023 91 9443 0.89 180 19:58 12.11.2020
5573 Clouds 8 1023 91 9443 1.79 180 19:40 12.11.2020
5574 Clouds 8 1023 91 10000 1.34 180 19:21 12.11.2020
5575 Clouds 8 1023 91 10000 1.34 180 18:48 12.11.2020
5576 Clouds 8 1023 92 10000 1.34 157 18:20 12.11.2020
5577 Clouds 8 1023 92 10000 0.45 157 17:43 12.11.2020
5578 Clouds 8 1023 92 10000 0.45 157 17:25 12.11.2020
5579 Clouds 8 1023 92 10000 0.89 157 16:46 12.11.2020
5580 Clouds 8 1023 92 10000 0.89 157 16:46 12.11.2020
5581 Clouds 8 1023 91 10000 0.45 157 16:24 12.11.2020
5582 Clouds 8 1023 91 10000 0.89 157 15:56 12.11.2020
5583 Clouds 8 1023 91 10000 0.45 157 15:31 12.11.2020
5584 Clouds 8 1023 91 10000 0.89 157 14:59 12.11.2020
5585 Clouds 8 1023 91 10000 0.45 157 14:41 12.11.2020
5586 Clouds 8 1023 91 10000 0.45 157 14:21 12.11.2020
5587 Clouds 8 1023 91 10000 0.89 157 13:46 12.11.2020
5588 Clouds 8 1024 91 10000 0.45 157 13:21 12.11.2020
5589 Clouds 8 1024 91 10000 0.45 157 12:59 12.11.2020
5590 Clouds 8 1024 91 10000 0.45 157 12:38 12.11.2020
5591 Clouds 8 1024 91 10000 0.89 157 12:18 12.11.2020
5592 Clouds 8 1024 91 10000 0.89 135 11:41 12.11.2020
5593 Clouds 7 1024 91 10000 1.34 135 11:22 12.11.2020
5594 Clouds 7 1025 91 10000 0.45 135 10:41 12.11.2020
5595 Clouds 6 1025 91 10000 0.45 135 10:23 12.11.2020
5596 Clouds 6 1025 91 10000 0.45 135 09:42 12.11.2020
5597 Clouds 6 1025 91 10000 0.45 135 09:22 12.11.2020
5598 Clouds 6 1025 91 10000 0.45 135 08:56 12.11.2020
5599 Clouds 5 1025 91 10000 5.64 148 08:37 12.11.2020
5600 Clouds 5 1026 90 10000 0.89 135 08:19 12.11.2020
5601 Clouds 5 1026 90 10000 5.43 153 07:42 12.11.2020
5602 Clouds 5 1026 90 10000 0.45 135 07:18 12.11.2020
5603 Clouds 5 1026 90 10000 0.45 157 06:47 12.11.2020
5604 Clouds 5 1026 90 10000 5.18 152 05:19 12.11.2020
5605 Clouds 5 1027 90 10000 5.13 158 03:21 12.11.2020
5606 Clouds 5 1028 90 10000 5.05 156 01:33 12.11.2020
5607 Clouds 5 1029 90 10000 0.45 157 23:58 11.11.2020
5608 Clouds 5 1029 90 10000 0.89 157 23:25 11.11.2020
5609 Clouds 5 1029 90 10000 0.45 135 22:58 11.11.2020
5610 Clouds 5 1029 90 10000 0.45 157 22:39 11.11.2020
5611 Clouds 5 1029 90 10000 0.45 135 22:19 11.11.2020
5612 Clouds 5 1029 90 10000 0.45 157 21:41 11.11.2020
5613 Clouds 5 1029 90 10000 0.45 157 21:41 11.11.2020
5614 Clouds 5 1030 90 10000 5.08 152 21:23 11.11.2020
5615 Clouds 5 1030 90 10000 5.08 152 20:58 11.11.2020
5616 Clouds 6 1030 90 10000 5.08 152 20:40 11.11.2020
5617 Clouds 6 1030 90 10000 0.45 157 20:21 11.11.2020
5618 Clouds 6 1030 90 10000 0.89 157 19:49 11.11.2020
5619 Clouds 6 1030 90 10000 0.45 157 19:30 11.11.2020
5620 Clouds 6 1031 90 10000 0.45 157 18:53 11.11.2020
5621 Clouds 6 1031 90 10000 0.89 157 18:33 11.11.2020
5622 Clouds 6 1030 90 10000 3.93 161 17:42 11.11.2020
5623 Clouds 6 1030 90 10000 0.45 157 17:23 11.11.2020
5624 Clouds 6 1030 90 10000 0.45 157 16:55 11.11.2020
5625 Clouds 6 1030 90 10000 0.89 180 16:33 11.11.2020
5626 Clouds 6 1030 90 10000 0.45 157 15:52 11.11.2020
5627 Clouds 6 1030 90 10000 0.89 157 15:27 11.11.2020
5628 Clouds 6 1031 91 10000 0.45 135 14:59 11.11.2020
5629 Clouds 6 1031 91 10000 0.89 135 14:38 11.11.2020
5630 Clouds 6 1031 91 10000 0.45 157 13:57 11.11.2020
5631 Clouds 6 1031 91 10000 0.45 157 13:57 11.11.2020
5632 Clouds 6 1032 91 10000 0.45 157 13:38 11.11.2020
5633 Clouds 6 1032 92 10000 0.45 157 12:52 11.11.2020
5634 Clouds 6 1032 92 10000 2.24 156 12:21 11.11.2020
5635 Clouds 5 1033 92 10000 0.45 180 11:50 11.11.2020
5636 Clouds 5 1033 92 10000 0.45 180 11:50 11.11.2020
5637 Clouds 5 1033 92 10000 0.45 157 11:30 11.11.2020
5638 Clouds 5 1033 92 10000 0.45 157 10:43 11.11.2020
5639 Clouds 5 1033 93 10000 4.2 161 10:25 11.11.2020
5640 Clouds 5 1033 93 10000 0.89 157 09:55 11.11.2020
5641 Clouds 5 1033 93 10000 0.45 157 09:37 11.11.2020
5642 Clouds 5 1033 93 10000 0.45 157 09:19 11.11.2020
5643 Clouds 5 1034 93 10000 0.45 180 08:41 11.11.2020
5644 Clouds 5 1033 93 10000 0.45 157 08:22 11.11.2020
5645 Clouds 5 1033 93 10000 0.45 157 07:41 11.11.2020
5646 Clouds 5 1033 93 10000 0.45 157 06:30 11.11.2020
5647 Clouds 5 1034 93 10000 0.45 157 04:49 11.11.2020
5648 Clouds 5 1035 93 10000 0.45 157 01:37 11.11.2020
5649 Clouds 5 1035 93 10000 0.45 157 00:56 11.11.2020
5650 Clouds 5 1035 93 10000 0.45 157 00:24 11.11.2020
5651 Clouds 5 1035 93 10000 0.45 157 23:37 10.11.2020
5652 Clouds 5 1035 93 10000 0.45 157 23:18 10.11.2020
5653 Clouds 5 1035 92 10000 0.89 157 22:43 10.11.2020
5654 Clouds 5 1035 92 10000 0.45 180 22:24 10.11.2020
5655 Clouds 5 1035 92 10000 0.45 157 21:41 10.11.2020
5656 Clouds 5 1035 92 10000 0.45 157 21:23 10.11.2020
5657 Clouds 5 1035 92 10000 0.89 135 20:56 10.11.2020
5658 Clouds 5 1035 92 10000 1.34 157 20:38 10.11.2020
5659 Clouds 5 1035 92 10000 1.34 135 20:19 10.11.2020
5660 Clouds 5 1035 92 10000 0.89 157 19:44 10.11.2020
5661 Clouds 6 1035 92 10000 0.89 157 19:24 10.11.2020
5662 Clouds 6 1035 92 10000 0.45 180 18:55 10.11.2020
5663 Clouds 6 1035 92 10000 0.89 157 18:37 10.11.2020
5664 Clouds 6 1035 92 10000 0.89 157 18:18 10.11.2020
5665 Clouds 6 1035 92 10000 0.45 157 17:41 10.11.2020
5666 Clouds 6 1035 92 10000 0.89 135 17:23 10.11.2020
5667 Clouds 6 1035 92 10000 0.89 135 16:42 10.11.2020
5668 Clouds 6 1035 92 10000 0.89 157 16:22 10.11.2020
5669 Clouds 6 1035 91 10000 0.45 157 15:55 10.11.2020
5670 Clouds 6 1035 91 10000 0.45 157 15:37 10.11.2020
5671 Clouds 6 1035 91 10000 0.45 157 15:18 10.11.2020
5672 Clouds 6 1035 91 10000 0.45 157 14:40 10.11.2020
5673 Clouds 6 1035 91 10000 1.34 135 14:19 10.11.2020
5674 Clouds 6 1035 91 10000 0.89 135 13:40 10.11.2020
5675 Clouds 6 1035 91 10000 0.89 135 13:21 10.11.2020
5676 Clouds 6 1035 91 10000 0.89 135 12:56 10.11.2020
5677 Clouds 6 1035 91 10000 0.45 157 12:38 10.11.2020
5678 Clouds 6 1035 91 10000 0.89 157 12:19 10.11.2020
5679 Clouds 6 1035 92 10000 0.45 135 11:38 10.11.2020
5680 Clouds 6 1035 92 10000 0.45 157 11:19 10.11.2020
5681 Clouds 6 1035 92 10000 0.45 157 10:42 10.11.2020
5682 Clouds 6 1035 92 10000 0.89 157 10:23 10.11.2020
5683 Clouds 6 1035 92 10000 0.45 135 09:48 10.11.2020
5684 Clouds 6 1035 92 10000 0.45 157 09:26 10.11.2020
5685 Clouds 5 1035 92 10000 0.89 157 08:57 10.11.2020
5686 Clouds 5 1035 92 10000 0.89 135 08:30 10.11.2020
5687 Clouds 6 1035 92 10000 0.45 157 07:47 10.11.2020
5688 Clouds 6 1035 91 10000 0.45 157 07:26 10.11.2020
5689 Clouds 6 1034 91 10000 1.34 157 06:58 10.11.2020
5690 Clouds 6 1034 91 10000 0.89 157 06:37 10.11.2020
5691 Clouds 6 1034 91 10000 1.34 157 05:27 10.11.2020
5692 Clouds 6 1034 91 10000 0.45 157 02:57 10.11.2020
5693 Clouds 6 1034 91 10000 0.89 157 01:38 10.11.2020
5694 Clouds 6 1034 91 10000 1.34 135 00:30 10.11.2020
5695 Clouds 6 1034 91 10000 0.89 135 23:42 09.11.2020
5696 Clouds 6 1034 91 10000 0.89 135 22:58 09.11.2020
5697 Clouds 6 1034 91 10000 1.34 135 22:40 09.11.2020
5698 Clouds 6 1034 91 10000 0.45 135 22:19 09.11.2020
5699 Clouds 6 1034 90 10000 0.89 157 21:40 09.11.2020
5700 Clouds 7 1034 90 10000 0.89 157 21:21 09.11.2020
5701 Clouds 7 1034 90 10000 0.89 135 20:41 09.11.2020
5702 Clouds 7 1034 90 10000 0.45 135 20:21 09.11.2020
5703 Clouds 7 1034 90 10000 0.89 157 19:46 09.11.2020
5704 Clouds 7 1034 90 10000 1.79 135 19:23 09.11.2020
5705 Clouds 7 1034 90 10000 0.89 135 18:58 09.11.2020
5706 Clear 7 1034 90 10000 1.34 135 18:39 09.11.2020
5707 Clear 7 1034 90 10000 0.45 135 18:19 09.11.2020
5708 Clear 7 1034 90 10000 0.45 135 17:43 09.11.2020
5709 Clear 7 1034 90 10000 0.45 135 17:25 09.11.2020
5710 Clear 7 1034 90 10000 0.45 135 16:44 09.11.2020
5711 Clear 7 1034 89 10000 0.89 135 16:23 09.11.2020
5712 Clear 7 1033 89 10000 0.45 157 15:45 09.11.2020
5713 Clear 7 1033 89 10000 0.45 135 15:25 09.11.2020
5714 Clear 7 1033 89 10000 0.45 135 14:49 09.11.2020
5715 Clear 7 1033 89 10000 1.34 135 14:28 09.11.2020
5716 Clear 7 1033 89 10000 0.89 135 13:57 09.11.2020
5717 Clear 7 1033 90 10000 1.34 112 13:37 09.11.2020
5718 Clouds 7 1033 90 10000 0.89 157 13:18 09.11.2020
5719 Clear 7 1033 91 10000 0.45 157 12:41 09.11.2020
5720 Clear 7 1033 91 10000 0.89 157 12:21 09.11.2020
5721 Clear 7 1034 91 10000 0.89 135 11:43 09.11.2020
5722 Clear 7 1034 92 10000 0.45 135 11:24 09.11.2020
5723 Clear 7 1034 92 10000 0.89 135 10:58 09.11.2020
5724 Clear 7 1034 92 10000 0.89 135 10:39 09.11.2020
5725 Clear 6 1034 92 10000 0.89 135 10:21 09.11.2020
5726 Clear 6 1034 92 10000 0.45 135 09:30 09.11.2020
5727 Clear 6 1034 92 10000 0.89 135 08:54 09.11.2020
5728 Clear 6 1033 92 10000 0.45 135 08:28 09.11.2020
5729 Clear 6 1033 92 10000 0.45 135 07:57 09.11.2020
5730 Clear 6 1033 92 10000 0.89 135 07:23 09.11.2020
5731 Clear 6 1033 92 10000 0.45 135 06:55 09.11.2020
5732 Clear 6 1032 92 10000 0.45 135 05:38 09.11.2020
5733 Clear 6 1033 91 10000 0.89 135 01:59 09.11.2020
5734 Clear 6 1033 91 10000 0.89 135 01:41 09.11.2020
5735 Clear 6 1033 91 10000 0.89 157 00:56 09.11.2020
5736 Clear 7 1033 91 10000 0.45 157 23:48 08.11.2020
5737 Clear 7 1033 91 10000 0.89 135 23:28 08.11.2020
5738 Clear 7 1032 91 10000 1.34 135 22:43 08.11.2020
5739 Clear 7 1033 91 10000 0.89 135 22:22 08.11.2020
5740 Clear 7 1033 91 10000 0.45 157 21:48 08.11.2020
5741 Clear 7 1032 90 10000 0.45 135 21:24 08.11.2020
5742 Clear 7 1032 91 10000 1.34 135 20:57 08.11.2020
5743 Clear 8 1032 91 10000 0.89 157 20:38 08.11.2020
5744 Clear 8 1032 91 10000 0.89 135 20:20 08.11.2020
5745 Clear 8 1032 91 10000 0.45 135 19:46 08.11.2020
5746 Clear 8 1032 91 10000 0.89 157 19:24 08.11.2020
5747 Clear 8 1032 91 10000 0.45 135 18:59 08.11.2020
5748 Clear 8 1032 91 10000 0.45 135 18:41 08.11.2020
5749 Clear 8 1032 91 10000 4.42 111 18:21 08.11.2020
5750 Clear 8 1032 91 10000 0.89 135 17:57 08.11.2020
5751 Clear 8 1031 91 10000 0.45 135 17:36 08.11.2020
5752 Clear 8 1031 90 10000 0.45 135 17:18 08.11.2020
5753 Clear 8 1031 90 10000 4.1 100 16:39 08.11.2020
5754 Clear 8 1031 90 10000 0.45 135 16:21 08.11.2020
5755 Clear 8 1031 90 10000 0.45 135 15:50 08.11.2020
5756 Clear 8 1031 90 10000 0.45 135 15:28 08.11.2020
5757 Clear 9 1031 89 10000 0.45 135 14:59 08.11.2020
5758 Clear 9 1031 90 10000 0.45 135 14:38 08.11.2020
5759 Clear 9 1031 90 10000 0.45 135 14:20 08.11.2020
5760 Clear 10 1031 91 10000 0.45 135 13:41 08.11.2020
5761 Clear 9 1031 92 10000 0.89 135 13:20 08.11.2020
5762 Clear 9 1031 92 10000 0.45 157 12:42 08.11.2020
5763 Clear 9 1031 92 10000 2.08 112 12:23 08.11.2020
5764 Clear 9 1031 92 10000 2.08 112 11:57 08.11.2020
5765 Clear 8 1031 93 10000 2.08 112 11:38 08.11.2020
5766 Clear 8 1031 92 10000 2.13 100 11:20 08.11.2020
5767 Clear 8 1031 93 10000 2.13 100 10:49 08.11.2020
5768 Clear 10 1025 76 10000 2.46 101 10:18 08.11.2020
5769 Clear 10 1025 76 10000 2.46 101 09:42 08.11.2020
5770 Clear 10 1025 77 10000 2.43 92 09:24 08.11.2020
5771 Clear 10 1025 77 10000 2.43 92 08:55 08.11.2020
5772 Clear 10 1025 77 10000 2.43 92 08:36 08.11.2020
5773 Clear 10 1025 77 10000 2.46 68 08:18 08.11.2020
5774 Clear 10 1025 77 10000 2.46 68 07:46 08.11.2020
5775 Clouds 10 1025 78 10000 2.6 58 07:19 08.11.2020
5776 Clouds 10 1024 79 10000 3.29 25 05:55 08.11.2020
5777 Clouds 10 1024 80 10000 3.56 6 05:29 08.11.2020
5778 Clouds 10 1024 83 10000 3.92 357 04:18 08.11.2020
5779 Clouds 10 1024 83 10000 3.62 332 01:50 08.11.2020
5780 Clouds 10 1024 82 10000 3.81 326 01:18 08.11.2020
5781 Clouds 4 1029 91 10000 4.61 306 00:27 08.11.2020
5782 Clouds 4 1029 91 10000 4.61 306 00:27 08.11.2020
5783 Clouds 4 1029 91 10000 4.61 306 23:46 07.11.2020
5784 Clouds 4 1029 91 10000 4.64 283 23:28 07.11.2020
5785 Clouds 4 1029 91 10000 4.64 283 22:43 07.11.2020
5786 Clear 5 1029 91 10000 4.95 271 22:25 07.11.2020
5787 Clear 5 1029 91 10000 4.95 271 21:46 07.11.2020
5788 Clear 6 1029 92 10000 5.17 259 21:23 07.11.2020
5789 Clear 5 1029 92 10000 5.17 259 20:55 07.11.2020
5790 Clear 6 1029 91 10000 5.17 259 20:37 07.11.2020
5791 Clear 6 1029 91 10000 5.34 247 20:19 07.11.2020
5792 Clear 6 1029 91 10000 5.34 247 19:41 07.11.2020
5793 Clear 6 1029 91 10000 0.45 180 19:22 07.11.2020
5794 Clear 6 1029 91 10000 0.45 180 18:40 07.11.2020
5795 Clear 6 1029 90 10000 0.89 180 18:21 07.11.2020
5796 Clear 7 1029 90 10000 5.54 226 17:46 07.11.2020
5797 Clear 7 1029 90 10000 5.27 215 17:26 07.11.2020
5798 Clear 8 1029 90 10000 0.45 157 16:44 07.11.2020
5799 Clear 8 1029 89 10000 0.89 157 16:24 07.11.2020
5800 Clear 9 1030 89 10000 0.45 180 15:48 07.11.2020
5801 Clear 9 1030 89 10000 0.45 180 15:25 07.11.2020
5802 Clear 10 1030 89 10000 0.89 180 14:59 07.11.2020
5803 Clear 10 1030 89 10000 0.89 180 14:40 07.11.2020
5804 Clear 11 1030 90 10000 0.45 157 14:20 07.11.2020
5805 Clear 11 1031 91 10000 0.89 135 13:43 07.11.2020
5806 Clouds 10 1031 91 10000 0.89 180 13:23 07.11.2020
5807 Clouds 9 1031 92 10000 0.89 180 12:37 07.11.2020
5808 Clouds 9 1032 93 10000 0.89 202 11:54 07.11.2020
5809 Clouds 9 1032 93 10000 0.89 202 11:36 07.11.2020
5810 Clouds 8 1032 93 10000 0.89 202 11:18 07.11.2020
5811 Clouds 8 1033 93 10000 0.89 180 10:42 07.11.2020
5812 Clouds 8 1033 93 10000 0.89 180 10:23 07.11.2020
5813 Clouds 8 1033 93 10000 0.89 225 09:48 07.11.2020
5814 Clouds 9 1033 93 10000 0.89 225 09:24 07.11.2020
5815 Clouds 9 1033 93 10000 0.89 180 08:51 07.11.2020
5816 Clouds 9 1033 93 10000 1.34 180 08:31 07.11.2020
5817 Clouds 9 1033 93 10000 0.45 157 07:48 07.11.2020
5818 Clouds 9 1033 93 10000 0.89 202 06:58 07.11.2020
5819 Clouds 10 1033 93 10000 0.45 225 06:37 07.11.2020
5820 Clouds 10 1034 93 10000 4.87 204 04:32 07.11.2020
5821 Clouds 11 1034 93 10000 4.1 208 03:22 07.11.2020
5822 Clouds 11 1035 93 10000 2.7 214 01:28 07.11.2020
5823 Clouds 11 1035 93 10000 3.22 230 00:40 07.11.2020
5824 Clouds 11 1035 93 10000 2.45 234 23:45 06.11.2020
5825 Clouds 11 1035 93 10000 2.17 252 23:19 06.11.2020
5826 Clouds 11 1035 93 10000 2.17 252 22:41 06.11.2020
5827 Clouds 11 1036 93 10000 2.44 270 22:19 06.11.2020
5828 Clouds 11 1036 93 10000 2.44 270 21:44 06.11.2020
5829 Clouds 11 1036 93 10000 2.73 283 21:21 06.11.2020
5830 Clouds 11 1036 93 10000 2.73 283 20:51 06.11.2020
5831 Clouds 11 1036 93 10000 3.33 297 20:22 06.11.2020
5832 Clouds 11 1036 93 10000 3.33 297 19:56 06.11.2020
5833 Clouds 11 1036 93 10000 0.45 315 19:38 06.11.2020
5834 Clouds 11 1036 93 10000 0.45 292 19:19 06.11.2020
5835 Clouds 11 1036 93 10000 4.56 282 18:45 06.11.2020
5836 Clouds 11 1036 93 10000 5.14 281 18:23 06.11.2020
5837 Clouds 11 1036 93 10000 0.45 292 17:51 06.11.2020
5838 Clouds 11 1036 93 10000 1.34 292 17:25 06.11.2020
5839 Clouds 11 1036 93 10000 0.45 292 16:50 06.11.2020
5840 Clouds 11 1036 93 10000 0.89 292 16:27 06.11.2020
5841 Clouds 11 1036 92 10000 1.34 315 15:53 06.11.2020
5842 Clouds 11 1036 92 10000 0.89 315 15:33 06.11.2020
5843 Clouds 11 1036 92 10000 0.89 292 14:54 06.11.2020
5844 Clouds 11 1036 92 10000 1.79 292 14:27 06.11.2020
5845 Clouds 11 1036 92 10000 1.34 315 13:49 06.11.2020
5846 Clouds 11 1036 91 10000 0.89 292 13:25 06.11.2020
5847 Clouds 12 1036 91 10000 0.89 292 12:47 06.11.2020
5848 Clouds 12 1036 91 10000 0.45 292 12:25 06.11.2020
5849 Clouds 12 1036 92 10000 2.24 337 11:59 06.11.2020
5850 Clouds 11 1036 92 10000 0.45 315 11:36 06.11.2020
5851 Clouds 11 1036 92 10000 0.89 315 10:52 06.11.2020
5852 Clouds 11 1036 92 10000 1.34 315 10:32 06.11.2020
5853 Clouds 11 1036 93 10000 0.89 315 09:50 06.11.2020
5854 Clouds 11 1036 93 10000 0.45 315 09:28 06.11.2020
5855 Clouds 11 1036 93 10000 1.34 292 08:58 06.11.2020
5856 Clouds 11 1036 92 10000 0.45 315 08:40 06.11.2020
5857 Clouds 11 1036 92 10000 1.79 292 08:18 06.11.2020
5858 Clouds 11 1035 91 10000 1.34 292 07:40 06.11.2020
5859 Clear 11 1035 91 10000 0.89 315 07:18 06.11.2020
5860 Clear 11 1035 91 10000 0.89 315 07:18 06.11.2020
5861 Clouds 11 1035 91 10000 1.79 315 06:40 06.11.2020
5862 Clouds 10 1035 93 10000 1.34 315 05:37 06.11.2020
5863 Clouds 10 1035 93 10000 1.34 292 01:56 06.11.2020
5864 Clouds 9 1035 93 10000 0.89 292 00:29 06.11.2020
5865 Clouds 9 1035 92 10000 0.45 247 23:51 05.11.2020
5866 Clouds 9 1035 91 10000 0.89 292 23:24 05.11.2020
5867 Clouds 9 1035 90 10000 0.45 247 22:45 05.11.2020
5868 Clouds 9 1035 90 10000 0.45 247 22:26 05.11.2020
5869 Clouds 9 1035 89 10000 1.79 247 21:57 05.11.2020
5870 Clouds 9 1035 89 10000 1.34 315 21:38 05.11.2020
5871 Clouds 9 1035 89 10000 0.45 292 21:19 05.11.2020
5872 Clouds 9 1035 89 10000 1.79 270 20:43 05.11.2020
5873 Clouds 9 1036 88 10000 1.34 292 20:24 05.11.2020
5874 Clouds 9 1036 88 10000 1.34 292 20:24 05.11.2020
5875 Clouds 9 1036 87 10000 0.45 292 19:44 05.11.2020
5876 Clouds 9 1036 86 10000 0.89 292 19:26 05.11.2020
5877 Clouds 9 1036 86 10000 0.89 292 19:26 05.11.2020
5878 Clouds 9 1036 86 10000 0.89 292 18:58 05.11.2020
5879 Clouds 10 1036 85 10000 1.34 270 18:39 05.11.2020
5880 Rain 10 1036 85 10000 1.79 270 18:21 05.11.2020
5881 Clouds 10 1036 85 10000 12.41 270 17:45 05.11.2020
5882 Rain 10 1036 85 10000 12.91 271 17:25 05.11.2020
5883 Clouds 9 1036 86 10000 12.91 271 16:49 05.11.2020
5884 Clouds 9 1036 86 10000 0.45 315 16:28 05.11.2020
5885 Clouds 10 1036 85 10000 0.45 247 15:55 05.11.2020
5886 Clouds 10 1036 85 10000 0.45 292 15:36 05.11.2020
5887 Clouds 10 1036 85 10000 0.45 270 15:18 05.11.2020
5888 Clouds 10 1036 84 10000 1.79 292 14:42 05.11.2020
5889 Clouds 10 1036 85 10000 0.89 315 14:23 05.11.2020
5890 Clouds 10 1036 85 10000 0.45 270 13:40 05.11.2020
5891 Clouds 11 1037 86 10000 0.45 292 13:18 05.11.2020
5892 Clouds 10 1037 87 10000 1.34 247 12:42 05.11.2020
5893 Clouds 10 1037 87 10000 0.89 247 12:23 05.11.2020
5894 Clouds 9 1037 88 10000 0.45 202 11:43 05.11.2020
5895 Clouds 9 1038 89 10000 12.46 270 11:23 05.11.2020
5896 Clouds 8 1038 90 10000 12.46 270 10:49 05.11.2020
5897 Clouds 8 1038 91 10000 0.45 247 10:28 05.11.2020
5898 Clouds 8 1038 91 10000 0.45 247 10:28 05.11.2020
5899 Clouds 7 1038 92 10000 0.45 292 09:50 05.11.2020
5900 Clouds 7 1038 92 10000 0.45 292 09:50 05.11.2020
5901 Clouds 7 1038 92 10000 0.45 247 09:25 05.11.2020
5902 Clouds 6 1038 93 10000 11.28 277 08:59 05.11.2020
5903 Clouds 6 1038 93 10000 0.45 225 08:41 05.11.2020
5904 Clouds 6 1038 93 10000 10.67 278 08:23 05.11.2020
5905 Clear 6 1038 93 10000 0.45 292 07:29 05.11.2020
5906 Clouds 5 1037 93 10000 0.45 247 06:51 05.11.2020
5907 Clouds 5 1037 92 10000 10.39 286 06:32 05.11.2020
5908 Clouds 6 1037 92 10000 1.34 315 03:45 05.11.2020
5909 Clear 6 1037 91 10000 10.09 278 00:45 05.11.2020
5910 Clouds 6 1037 90 10000 0.45 292 00:25 05.11.2020
5911 Clouds 7 1036 90 10000 0.45 270 23:43 04.11.2020
5912 Clouds 7 1036 90 10000 0.45 225 23:24 04.11.2020
5913 Clouds 7 1036 90 10000 0.45 315 22:44 04.11.2020
5914 Clear 7 1036 90 10000 0.45 247 22:23 04.11.2020
5915 Clear 7 1036 90 10000 11.65 270 21:48 04.11.2020
5916 Clear 7 1036 90 10000 11.3 261 21:28 04.11.2020
5917 Clear 7 1036 89 10000 0.45 225 20:56 04.11.2020
5918 Clear 7 1035 89 10000 11.3 261 20:37 04.11.2020
5919 Clear 7 1035 89 10000 0.45 270 20:18 04.11.2020
5920 Clear 7 1035 88 10000 10.73 259 19:42 04.11.2020
5921 Clear 7 1035 88 10000 10.73 259 19:42 04.11.2020
5922 Clear 7 1035 88 10000 10.09 265 19:24 04.11.2020
5923 Clear 7 1034 88 10000 0.45 225 18:43 04.11.2020
5924 Clear 8 1034 87 10000 0.45 247 18:24 04.11.2020
5925 Clear 7 1034 87 10000 10.02 271 17:56 04.11.2020
5926 Clear 8 1034 86 10000 10.02 271 17:38 04.11.2020
5927 Rain 8 1034 86 10000 10.57 275 17:19 04.11.2020
5928 Clear 9 1033 85 10000 10.57 275 16:38 04.11.2020
5929 Clear 9 1033 85 10000 10.51 271 16:19 04.11.2020
5930 Clear 9 1033 83 10000 0.45 292 15:44 04.11.2020
5931 Clear 10 1032 82 10000 10.77 269 15:24 04.11.2020
5932 Clear 11 1032 82 10000 1.34 315 14:47 04.11.2020
5933 Clear 11 1031 82 10000 0.45 247 14:26 04.11.2020
5934 Clear 11 1031 82 10000 0.89 292 13:57 04.11.2020
5935 Clear 11 1031 81 10000 0.89 292 13:39 04.11.2020
5936 Clouds 11 1031 82 10000 0.89 292 13:19 04.11.2020
5937 Clouds 10 1031 83 10000 11.25 272 12:48 04.11.2020
5938 Rain 9 1031 85 10000 0.89 247 12:24 04.11.2020
5939 Clouds 9 1031 85 10000 0.89 225 11:55 04.11.2020
5940 Clouds 9 1031 85 10000 0.89 225 11:55 04.11.2020
5941 Clouds 9 1030 86 10000 0.89 315 11:36 04.11.2020
5942 Rain 8 1030 86 10000 12.85 275 11:18 04.11.2020
5943 Clouds 8 1030 86 10000 1.34 247 10:41 04.11.2020
5944 Rain 8 1029 87 10000 1.34 292 10:22 04.11.2020
5945 Clouds 7 1029 88 10000 13.64 261 09:47 04.11.2020
5946 Clouds 7 1029 88 10000 0.89 270 09:22 04.11.2020
5947 Clouds 7 1028 89 10000 13.53 242 08:44 04.11.2020
5948 Clouds 6 1028 89 10000 0.89 225 08:19 04.11.2020
5949 Clouds 6 1028 89 10000 0.89 225 07:44 04.11.2020
5950 Clouds 6 1027 89 10000 1.34 225 07:26 04.11.2020
5951 Clouds 6 1027 89 10000 0.89 225 06:42 04.11.2020
5952 Clouds 6 1027 88 10000 0.89 225 06:18 04.11.2020
5953 Clouds 7 1026 88 10000 0.45 225 02:32 04.11.2020
5954 Clouds 7 1026 89 10000 0.45 225 01:42 04.11.2020
5955 Clouds 7 1025 89 10000 0.45 180 00:41 04.11.2020
5956 Clouds 7 1025 89 10000 9.6 216 23:40 03.11.2020
5957 Clouds 7 1025 89 10000 8.08 202 23:20 03.11.2020
5958 Clouds 7 1025 88 10000 8.08 202 22:41 03.11.2020
5959 Clouds 7 1025 88 10000 7.7 195 22:20 03.11.2020
5960 Clouds 7 1025 88 10000 7.7 195 21:56 03.11.2020
5961 Clouds 7 1025 88 10000 7.7 195 21:37 03.11.2020
5962 Clouds 7 1025 87 10000 6.73 195 21:19 03.11.2020
5963 Clouds 8 1025 87 10000 6.73 195 20:42 03.11.2020
5964 Clouds 8 1025 86 10000 5.83 206 20:22 03.11.2020
5965 Clouds 8 1025 86 10000 5.83 206 19:43 03.11.2020
5966 Clouds 8 1025 85 10000 5.25 221 19:20 03.11.2020
5967 Clouds 8 1025 84 10000 5.25 221 18:44 03.11.2020
5968 Clouds 9 1025 83 10000 6.03 236 18:21 03.11.2020
5969 Clouds 9 1025 83 10000 6.03 236 17:58 03.11.2020
5970 Clouds 9 1025 83 10000 6.03 236 17:40 03.11.2020
5971 Clouds 10 1025 82 10000 7.19 245 17:21 03.11.2020
5972 Clouds 11 1025 81 10000 7.19 245 16:44 03.11.2020
5973 Clouds 11 1025 80 10000 8.23 250 16:22 03.11.2020
5974 Clouds 11 1025 79 10000 8.23 250 15:43 03.11.2020
5975 Clouds 12 1025 78 10000 9.61 251 15:24 03.11.2020
5976 Clouds 12 1025 77 10000 0.45 270 14:52 03.11.2020
5977 Clouds 12 1025 76 10000 9.61 251 14:33 03.11.2020
5978 Clouds 12 1025 76 10000 0.45 292 13:46 03.11.2020
5979 Clear 12 1024 78 10000 0.89 315 13:23 03.11.2020
5980 Clear 12 1024 78 10000 0.89 315 12:59 03.11.2020
5981 Clear 12 1024 78 10000 0.45 247 12:37 03.11.2020
5982 Clear 12 1024 79 10000 11.36 251 12:19 03.11.2020
5983 Clear 12 1024 80 10000 0.45 270 11:41 03.11.2020
5984 Clear 12 1024 82 10000 0.89 225 11:20 03.11.2020
5985 Clear 11 1023 84 10000 0.45 247 10:39 03.11.2020
5986 Clear 11 1023 85 10000 12.05 251 10:21 03.11.2020
5987 Clear 10 1023 87 10000 0.45 225 09:52 03.11.2020
5988 Clear 10 1023 88 10000 0.45 247 09:33 03.11.2020
5989 Clear 10 1022 88 10000 11.82 248 08:56 03.11.2020
5990 Clear 9 1022 89 10000 11.82 248 08:35 03.11.2020
5991 Clear 9 1021 89 10000 0.45 247 07:54 03.11.2020
5992 Clear 9 1021 89 10000 0.45 225 07:35 03.11.2020
5993 Clear 9 1020 89 10000 11.91 249 06:51 03.11.2020
5994 Clear 9 1019 88 10000 0.45 225 05:49 03.11.2020
5995 Clear 9 1018 85 10000 10.4 254 03:26 03.11.2020
5996 Clouds 13 1015 85 10000 0.89 292 00:42 03.11.2020
5997 Clouds 14 1014 88 10000 0.89 292 23:59 02.11.2020
5998 Clouds 14 1014 92 10000 1.79 292 23:38 02.11.2020
5999 Clouds 14 1013 91 10000 9.57 254 22:56 02.11.2020
6000 Rain 15 1013 91 10000 9.57 254 22:37 02.11.2020
6001 Clouds 15 1012 91 10000 10.11 248 22:19 02.11.2020
6002 Rain 16 1012 90 10000 0.89 292 21:38 02.11.2020
6003 Rain 17 1011 88 10000 0.89 292 21:20 02.11.2020
6004 Clouds 16 1010 89 10000 1.34 225 20:41 02.11.2020
6005 Clouds 16 1010 89 10000 0.89 202 20:20 02.11.2020
6006 Clouds 16 1010 89 10000 1.79 202 19:59 02.11.2020
6007 Clouds 16 1010 89 10000 1.34 225 19:41 02.11.2020
6008 Clouds 16 1010 90 10000 1.79 180 19:21 02.11.2020
6009 Clouds 16 1010 90 10000 1.34 202 18:41 02.11.2020
6010 Clouds 16 1010 90 10000 1.34 180 18:21 02.11.2020
6011 Clouds 16 1010 90 10000 1.79 225 17:56 02.11.2020
6012 Clouds 17 1010 90 10000 1.34 225 17:38 02.11.2020
6013 Clouds 17 1010 90 10000 1.79 225 17:19 02.11.2020
6014 Clouds 17 1010 90 10000 0.89 202 16:40 02.11.2020
6015 Clouds 17 1010 90 10000 0.89 202 16:40 02.11.2020
6016 Clouds 17 1009 90 10000 1.34 225 16:22 02.11.2020
6017 Clouds 17 1009 90 10000 1.34 225 15:41 02.11.2020
6018 Clouds 18 1009 90 10000 1.34 225 15:22 02.11.2020
6019 Clouds 18 1009 91 10000 1.79 202 14:53 02.11.2020
6020 Clouds 18 1009 91 10000 1.79 202 14:53 02.11.2020
6021 Clouds 17 1009 91 10000 0.89 202 14:20 02.11.2020
6022 Clouds 17 1009 91 10000 0.89 225 13:56 02.11.2020
6023 Clouds 17 1009 91 10000 1.34 225 13:38 02.11.2020
6024 Clouds 17 1009 90 10000 1.79 225 13:19 02.11.2020
6025 Clouds 18 1009 90 10000 1.79 247 12:31 02.11.2020
6026 Clouds 18 1009 91 10000 1.79 225 11:59 02.11.2020
6027 Clouds 17 1009 92 10000 1.79 202 11:38 02.11.2020
6028 Clouds 17 1009 93 10000 1.34 225 11:19 02.11.2020
6029 Clouds 16 1009 93 10000 1.34 225 10:43 02.11.2020
6030 Clouds 16 1009 93 10000 0.89 225 10:21 02.11.2020
6031 Clouds 16 1009 93 10000 1.34 225 09:51 02.11.2020
6032 Clouds 15 1009 93 10000 1.34 225 09:24 02.11.2020
6033 Clouds 15 1009 94 10000 1.34 247 08:45 02.11.2020
6034 Clouds 15 1009 94 10000 1.79 202 08:24 02.11.2020
6035 Clouds 14 1009 94 10000 1.34 202 07:50 02.11.2020
6036 Rain 14 1009 94 10000 1.79 202 07:22 02.11.2020
6037 Clouds 14 1009 94 10000 2.68 180 06:36 02.11.2020
6038 Clouds 13 1010 94 10000 1.79 225 03:35 02.11.2020
6039 Rain 13 1011 94 10000 1.34 180 01:25 02.11.2020
6040 Rain 13 1011 93 10000 1.34 202 00:36 02.11.2020
6041 Clouds 12 1012 93 10000 0.89 180 23:44 01.11.2020
6042 Clouds 12 1011 93 10000 1.34 180 23:25 01.11.2020
6043 Clouds 12 1012 93 10000 0.89 202 22:47 01.11.2020
6044 Rain 12 1012 93 10000 1.34 180 22:27 01.11.2020
6045 Clouds 12 1012 93 10000 1.79 180 21:59 01.11.2020
6046 Clouds 12 1012 93 10000 1.34 180 21:41 01.11.2020
6047 Rain 12 1012 93 10000 1.34 180 21:23 01.11.2020
6048 Clouds 12 1012 93 10000 0.89 180 20:43 01.11.2020
6049 Rain 12 1013 93 10000 0.89 180 20:25 01.11.2020
6050 Clouds 12 1013 93 10000 0.89 180 19:45 01.11.2020
6051 Clouds 12 1013 93 10000 1.34 157 19:26 01.11.2020
6052 Clouds 12 1013 93 10000 1.34 202 18:55 01.11.2020
6053 Clouds 12 1013 92 10000 1.34 180 18:37 01.11.2020
6054 Clouds 12 1014 92 10000 0.89 180 18:18 01.11.2020
6055 Clouds 12 1014 92 10000 1.34 157 17:43 01.11.2020
6056 Clouds 12 1014 92 10000 0.89 157 17:25 01.11.2020
6057 Clouds 12 1014 92 10000 0.89 180 16:42 01.11.2020
6058 Clouds 12 1014 92 10000 0.89 180 16:24 01.11.2020
6059 Clouds 13 1015 92 10000 0.89 180 15:55 01.11.2020
6060 Clouds 13 1015 92 10000 0.45 157 15:37 01.11.2020
6061 Clouds 13 1015 92 10000 0.45 157 15:18 01.11.2020
6062 Clouds 13 1015 92 10000 0.89 180 14:45 01.11.2020
6063 Clouds 13 1016 92 10000 0.89 180 14:22 01.11.2020
6064 Clouds 13 1016 92 10000 0.89 180 13:56 01.11.2020
6065 Clouds 13 1016 93 10000 0.89 180 13:37 01.11.2020
6066 Clouds 13 1016 93 10000 0.89 180 13:19 01.11.2020
6067 Clouds 13 1016 93 10000 0.89 202 12:38 01.11.2020
6068 Clouds 13 1016 93 10000 0.89 202 12:18 01.11.2020
6069 Clouds 12 1017 93 10000 0.89 180 11:47 01.11.2020
6070 Rain 12 1017 93 10000 0.89 180 11:18 01.11.2020
6071 Clouds 12 1017 93 10000 1.34 202 10:42 01.11.2020
6072 Clouds 12 1018 94 10000 0.89 202 10:24 01.11.2020
6073 Clouds 12 1017 94 10000 0.45 202 09:49 01.11.2020
6074 Clouds 12 1018 94 10000 0.89 202 09:24 01.11.2020
6075 Clouds 11 1018 94 10000 0.89 202 08:40 01.11.2020
6076 Clouds 11 1017 94 10000 0.89 180 07:54 01.11.2020
6077 Clouds 11 1017 94 10000 0.89 202 06:48 01.11.2020
6078 Clouds 12 1019 94 10000 0.45 157 02:32 01.11.2020
6079 Clouds 12 1019 93 10000 1.34 157 01:42 01.11.2020
6080 Clouds 12 1020 93 10000 0.89 135 23:58 31.10.2020
6081 Clouds 12 1020 94 10000 1.79 135 23:24 31.10.2020
6082 Clouds 13 1020 93 10000 0.89 157 22:45 31.10.2020
6083 Clouds 12 1021 93 10000 0.45 157 22:24 31.10.2020
6084 Clouds 13 1021 93 10000 0.89 135 21:47 31.10.2020
6085 Clouds 12 1021 93 10000 1.79 157 21:23 31.10.2020
6086 Clouds 12 1021 93 10000 1.79 157 21:23 31.10.2020
6087 Clouds 12 1021 93 10000 0.89 135 20:59 31.10.2020
6088 Clouds 12 1022 93 10000 0.89 157 20:38 31.10.2020
6089 Clouds 12 1022 93 10000 0.89 157 20:18 31.10.2020
6090 Clouds 12 1022 92 10000 0.89 157 19:38 31.10.2020
6091 Clouds 12 1022 92 10000 0.89 157 19:19 31.10.2020
6092 Clouds 12 1022 92 10000 0.89 135 18:45 31.10.2020
6093 Clouds 13 1023 92 10000 0.45 135 17:58 31.10.2020
6094 Clouds 13 1023 91 10000 0.45 135 17:40 31.10.2020
6095 Clouds 13 1023 91 10000 0.45 157 17:19 31.10.2020
6096 Clouds 13 1023 91 10000 4.41 151 16:42 31.10.2020
6097 Clouds 13 1023 91 10000 0.45 180 16:20 31.10.2020
6098 Clouds 14 1023 91 10000 2.58 141 15:43 31.10.2020
6099 Clouds 14 1023 91 10000 1.25 187 15:23 31.10.2020
6100 Clouds 15 1024 91 10000 0.45 225 14:47 31.10.2020
6101 Clouds 15 1024 92 10000 0.45 270 14:28 31.10.2020
6102 Clouds 15 1024 92 10000 2.01 220 13:50 31.10.2020
6103 Clouds 15 1024 92 10000 2.89 208 13:26 31.10.2020
6104 Clouds 15 1024 93 10000 3.06 234 12:42 31.10.2020
6105 Clouds 15 1025 94 10000 3.02 212 11:48 31.10.2020
6106 Clouds 14 1025 94 10000 3.59 192 11:29 31.10.2020
6107 Clouds 13 1025 93 10000 3.59 192 10:59 31.10.2020
6108 Clouds 13 1025 93 10000 3.59 192 10:36 31.10.2020
6109 Clouds 13 1025 93 10000 4.1 176 09:47 31.10.2020
6110 Clouds 13 1025 93 10000 3.81 174 09:28 31.10.2020
6111 Clouds 12 1025 93 10000 3.81 174 08:47 31.10.2020
6112 Clouds 12 1025 93 10000 3.05 184 08:18 31.10.2020
6113 Clouds 11 1024 93 10000 2.06 207 07:28 31.10.2020
6114 Clouds 11 1024 93 10000 2.76 247 06:42 31.10.2020
6115 Clouds 11 1024 94 10000 2.57 260 06:20 31.10.2020
6116 Clouds 11 1023 93 10000 2.93 277 03:46 31.10.2020
6117 Clouds 11 1023 93 10000 3.9 286 01:44 31.10.2020
6118 Clouds 10 1022 93 10000 6.14 278 00:49 31.10.2020
6119 Rain 10 1022 93 10000 5.47 283 23:53 30.10.2020
6120 Clouds 10 1022 93 10000 7.14 282 23:28 30.10.2020
6121 Clouds 10 1022 93 10000 7.14 282 22:56 30.10.2020
6122 Clouds 10 1021 93 10000 7.14 282 22:37 30.10.2020
6123 Clouds 10 1021 93 10000 6.05 282 22:18 30.10.2020
6124 Clouds 10 1021 93 10000 6.05 282 22:18 30.10.2020
6125 Clouds 10 1020 93 10000 6.05 282 21:42 30.10.2020
6126 Clouds 10 1020 93 10000 5.81 283 21:22 30.10.2020
6127 Clouds 10 1020 93 10000 5.81 283 20:45 30.10.2020
6128 Rain 10 1020 93 10000 3.56 276 20:26 30.10.2020
6129 Clouds 9 1019 93 10000 3.56 276 19:54 30.10.2020
6130 Rain 9 1019 93 10000 1.69 269 19:22 30.10.2020
6131 Clouds 9 1019 93 10000 1.69 269 18:59 30.10.2020
6132 Clouds 9 1019 93 10000 1.69 269 18:59 30.10.2020
6133 Clouds 9 1019 93 10000 4.18 283 18:41 30.10.2020
6134 Rain 9 1018 93 10000 4 286 18:22 30.10.2020
6135 Clouds 9 1018 93 10000 4 286 17:43 30.10.2020
6136 Rain 9 1018 93 10000 4.34 277 17:20 30.10.2020
6137 Clouds 9 1018 93 10000 0.45 135 16:50 30.10.2020
6138 Rain 10 1017 93 10000 3.08 233 16:24 30.10.2020
6139 Clouds 10 1017 93 10000 3.08 233 15:42 30.10.2020
6140 Rain 10 1017 93 10000 0.45 135 15:24 30.10.2020
6141 Clouds 10 1017 93 10000 0.45 135 14:58 30.10.2020
6142 Clouds 10 1017 93 10000 0.45 135 14:39 30.10.2020
6143 Rain 10 1017 93 10000 0.45 135 14:21 30.10.2020
6144 Rain 10 1017 93 10000 0.45 135 14:21 30.10.2020
6145 Rain 10 1017 93 10000 0.45 135 14:21 30.10.2020
6146 Rain 10 1017 93 10000 0.45 135 14:21 30.10.2020
6147 Clouds 10 1017 93 10000 0.89 135 13:41 30.10.2020
6148 Rain 10 1017 93 10000 0.89 135 13:20 30.10.2020
6149 Rain 9 1016 93 10000 0.89 157 12:46 30.10.2020
6150 Rain 9 1016 93 10000 0.89 157 12:22 30.10.2020
6151 Rain 9 1017 93 10000 0.45 157 11:54 30.10.2020
6152 Rain 9 1017 93 10000 0.89 157 11:21 30.10.2020
6153 Rain 9 1017 93 10000 0.89 157 10:50 30.10.2020
6154 Rain 8 1017 93 7522 0.89 157 10:25 30.10.2020
6155 Rain 8 1017 93 7522 0.89 157 09:48 30.10.2020
6156 Rain 8 1017 93 10000 0.89 135 09:25 30.10.2020
6157 Rain 8 1017 93 10000 0.89 157 08:59 30.10.2020
6158 Rain 8 1017 93 10000 0.45 157 08:31 30.10.2020
6159 Rain 7 1017 93 10000 0.45 157 07:54 30.10.2020
6160 Rain 7 1017 92 10000 0.89 157 07:36 30.10.2020
6161 Rain 7 1017 92 10000 0.45 180 06:59 30.10.2020
6162 Rain 7 1017 92 10000 0.45 180 05:59 30.10.2020
6163 Clouds 7 1018 91 10000 0.45 202 03:47 30.10.2020
6164 Clouds 7 1018 91 10000 8.06 247 01:24 30.10.2020
6165 Clouds 8 1018 91 10000 8.9 254 00:26 30.10.2020
6166 Clouds 8 1018 91 10000 8.9 254 23:43 29.10.2020
6167 Clouds 8 1018 91 10000 9.06 265 23:25 29.10.2020
6168 Clouds 7 1018 90 10000 9.06 265 22:45 29.10.2020
6169 Rain 7 1018 90 10000 9.28 269 22:26 29.10.2020
6170 Clear 7 1018 90 10000 9.28 269 21:49 29.10.2020
6171 Rain 8 1018 90 10000 9.28 272 21:24 29.10.2020
6172 Clear 8 1017 90 10000 9.28 272 20:43 29.10.2020
6173 Clear 8 1017 89 10000 9.57 276 20:24 29.10.2020
6174 Clear 8 1017 89 10000 9.57 276 19:57 29.10.2020
6175 Clear 8 1017 88 10000 9.57 276 19:38 29.10.2020
6176 Clouds 8 1016 88 10000 10.4 278 19:18 29.10.2020
6177 Clouds 8 1016 88 10000 10.43 276 18:45 29.10.2020
6178 Rain 8 1016 87 10000 11.23 278 18:25 29.10.2020
6179 Clouds 8 1016 86 10000 0.45 270 17:42 29.10.2020
6180 Rain 9 1015 86 10000 0.45 292 17:23 29.10.2020
6181 Clouds 9 1015 86 10000 0.45 270 16:54 29.10.2020
6182 Rain 10 1014 85 10000 0.45 270 16:23 29.10.2020
6183 Clouds 10 1014 85 10000 12.03 272 15:59 29.10.2020
6184 Clouds 10 1014 85 10000 0.45 315 15:40 29.10.2020
6185 Rain 10 1014 87 10000 11.87 269 15:22 29.10.2020
6186 Clouds 9 1014 86 10000 0.45 270 14:58 29.10.2020
6187 Clouds 11 1013 82 10000 0.45 270 14:40 29.10.2020
6188 Rain 11 1013 81 10000 0.45 292 14:18 29.10.2020
6189 Rain 11 1013 82 10000 11.88 266 13:41 29.10.2020
6190 Rain 11 1013 83 10000 0.45 270 13:22 29.10.2020
6191 Rain 10 1012 83 10000 12.36 275 12:42 29.10.2020
6192 Rain 10 1012 83 10000 1.34 225 12:19 29.10.2020
6193 Rain 10 1012 85 10000 12.57 262 11:48 29.10.2020
6194 Rain 10 1012 83 8852 0.89 292 11:26 29.10.2020
6195 Clouds 10 1011 87 8852 13.04 258 10:57 29.10.2020
6196 Clouds 10 1011 90 8852 0.89 270 10:36 29.10.2020
6197 Rain 10 1011 90 10000 0.89 225 10:18 29.10.2020
6198 Clouds 9 1010 92 10000 0.45 270 09:42 29.10.2020
6199 Rain 9 1010 92 10000 10.09 241 09:19 29.10.2020
6200 Rain 9 1010 92 10000 10.09 241 08:40 29.10.2020
6201 Rain 9 1010 92 10000 9.66 239 08:19 29.10.2020
6202 Clouds 9 1009 92 10000 9.66 239 07:48 29.10.2020
6203 Rain 9 1009 92 10000 0.89 180 06:58 29.10.2020
6204 Rain 8 1009 92 10000 0.89 180 06:24 29.10.2020
6205 Rain 8 1009 92 10000 0.89 180 04:48 29.10.2020
6206 Clouds 8 1010 92 10000 0.89 180 02:18 29.10.2020
6207 Clouds 8 1011 92 10000 0.89 180 00:38 29.10.2020
6208 Clouds 8 1011 92 10000 1.34 180 00:18 29.10.2020
6209 Clouds 8 1012 91 10000 0.89 180 23:40 28.10.2020
6210 Clouds 8 1012 91 10000 0.89 180 23:19 28.10.2020
6211 Clouds 9 1012 91 10000 0.45 180 22:42 28.10.2020
6212 Clouds 9 1012 91 10000 0.89 180 22:23 28.10.2020
6213 Clouds 9 1012 91 10000 0.89 180 21:45 28.10.2020
6214 Clear 9 1012 91 10000 0.45 180 21:25 28.10.2020
6215 Clear 9 1012 90 10000 0.89 202 20:44 28.10.2020
6216 Clear 8 1012 89 10000 0.45 157 20:23 28.10.2020
6217 Clear 8 1012 89 10000 0.45 180 19:57 28.10.2020
6218 Clear 8 1012 89 10000 0.45 180 19:39 28.10.2020
6219 Clouds 9 1012 88 10000 0.45 180 19:20 28.10.2020
6220 Clouds 9 1012 87 10000 0.45 180 18:43 28.10.2020
6221 Clouds 9 1012 87 10000 0.45 180 18:20 28.10.2020
6222 Clouds 10 1012 87 10000 7.28 229 17:43 28.10.2020
6223 Rain 11 1012 86 10000 0.45 180 17:21 28.10.2020
6224 Clouds 11 1012 84 10000 0.45 180 16:47 28.10.2020
6225 Rain 11 1012 84 10000 5.8 205 16:28 28.10.2020
6226 Clouds 12 1012 84 10000 0.45 180 15:43 28.10.2020
6227 Clouds 12 1012 84 10000 0.45 202 15:20 28.10.2020
6228 Clouds 12 1011 83 10000 0.89 180 14:50 28.10.2020
6229 Clouds 12 1011 83 10000 1.34 180 14:32 28.10.2020
6230 Clouds 13 1011 82 10000 0.89 202 13:59 28.10.2020
6231 Clouds 13 1011 85 10000 0.89 202 12:38 28.10.2020
6232 Clouds 13 1011 86 10000 1.79 180 12:20 28.10.2020
6233 Clouds 12 1011 89 10000 0.45 202 11:43 28.10.2020
6234 Clouds 11 1011 90 10000 0.89 202 11:22 28.10.2020
6235 Clouds 11 1011 90 10000 0.89 202 10:57 28.10.2020
6236 Clouds 11 1011 90 10000 0.89 202 10:57 28.10.2020
6237 Clouds 10 1011 91 10000 0.45 202 10:39 28.10.2020
6238 Clouds 10 1011 90 10000 0.89 202 10:21 28.10.2020
6239 Clouds 9 1010 91 10000 1.34 202 09:38 28.10.2020
6240 Clouds 9 1010 91 10000 0.89 202 09:20 28.10.2020
6241 Clouds 9 1010 90 10000 0.89 180 08:47 28.10.2020
6242 Clouds 8 1010 90 10000 0.89 202 08:25 28.10.2020
6243 Clouds 8 1009 89 10000 1.34 202 07:48 28.10.2020
6244 Clouds 8 1009 89 10000 1.34 202 07:30 28.10.2020
6245 Rain 8 1009 88 10000 0.89 202 06:41 28.10.2020
6246 Clouds 8 1009 88 10000 1.34 202 05:51 28.10.2020
6247 Clouds 8 1009 89 10000 2.24 202 04:54 28.10.2020
6248 Clouds 8 1009 88 10000 2.24 180 04:25 28.10.2020
6249 Clouds 8 1010 89 10000 0.89 180 02:26 28.10.2020
6250 Clouds 7 1010 89 10000 0.89 180 01:50 28.10.2020
6251 Clouds 7 1010 90 10000 1.34 202 00:21 28.10.2020
6252 Clouds 7 1010 90 10000 0.89 180 23:38 27.10.2020
6253 Clouds 7 1010 90 10000 0.89 180 23:20 27.10.2020
6254 Clouds 8 1011 90 10000 0.89 180 22:42 27.10.2020
6255 Clouds 8 1011 90 10000 0.89 180 22:19 27.10.2020
6256 Clouds 8 1011 90 10000 0.89 157 21:56 27.10.2020
6257 Clouds 8 1011 89 10000 1.34 180 21:37 27.10.2020
6258 Clouds 8 1011 89 10000 1.34 180 21:37 27.10.2020
6259 Clouds 8 1011 89 10000 1.34 180 21:37 27.10.2020
6260 Clouds 8 1011 89 10000 1.34 180 21:37 27.10.2020
6261 Clouds 8 1011 89 10000 0.89 180 21:19 27.10.2020
6262 Clouds 8 1010 89 10000 0.89 180 20:45 27.10.2020
6263 Clouds 8 1011 89 10000 0.89 180 20:23 27.10.2020
6264 Clouds 9 1011 89 10000 1.34 180 19:55 27.10.2020
6265 Clouds 8 1011 89 10000 0.89 180 19:36 27.10.2020
6266 Clouds 9 1011 89 10000 0.45 180 19:18 27.10.2020
6267 Clouds 9 1011 89 10000 0.89 180 18:44 27.10.2020
6268 Clouds 9 1011 89 10000 0.45 292 18:21 27.10.2020
6269 Clouds 9 1011 89 10000 0.89 180 17:57 27.10.2020
6270 Clouds 9 1010 87 10000 0.89 180 17:36 27.10.2020
6271 Rain 9 1010 87 10000 0.45 180 17:18 27.10.2020
6272 Clouds 10 1010 86 10000 0.45 180 16:41 27.10.2020
6273 Rain 11 1010 85 10000 0.45 180 16:22 27.10.2020
6274 Clouds 11 1010 85 10000 0.45 202 15:41 27.10.2020
6275 Clouds 11 1010 85 10000 0.89 202 15:23 27.10.2020
6276 Clouds 12 1010 86 10000 0.89 202 14:49 27.10.2020
6277 Clouds 12 1010 86 10000 0.89 225 14:29 27.10.2020
6278 Clouds 11 1011 88 10000 0.89 180 13:58 27.10.2020
6279 Clouds 11 1010 88 10000 0.89 180 13:28 27.10.2020
6280 Clouds 11 1010 89 10000 0.89 180 12:44 27.10.2020
6281 Clouds 11 1010 90 10000 0.45 180 12:25 27.10.2020
6282 Clouds 11 1011 90 10000 1.34 180 11:59 27.10.2020
6283 Clouds 11 1010 91 10000 0.89 180 11:41 27.10.2020
6284 Clouds 10 1010 91 10000 0.89 202 11:21 27.10.2020
6285 Clouds 9 1011 92 10000 1.34 180 10:43 27.10.2020
6286 Clouds 9 1011 92 10000 0.89 180 10:20 27.10.2020
6287 Clouds 8 1010 92 10000 0.89 180 09:28 27.10.2020
6288 Clouds 8 1010 92 10000 0.45 180 08:59 27.10.2020
6289 Clouds 8 1010 93 10000 0.89 180 08:33 27.10.2020
6290 Clouds 7 1010 93 10000 0.45 180 07:57 27.10.2020
6291 Clouds 7 1010 92 10000 0.45 180 07:38 27.10.2020
6292 Clouds 7 1010 92 10000 0.89 180 07:19 27.10.2020
6293 Clouds 7 1009 93 10000 0.89 180 06:20 27.10.2020
6294 Clouds 7 1009 93 10000 0.45 180 05:46 27.10.2020
6295 Clouds 8 1009 92 10000 0.45 180 05:27 27.10.2020
6296 Clouds 8 1008 92 10000 0.89 180 03:38 27.10.2020
6297 Clouds 8 1008 92 10000 7.1 229 01:24 27.10.2020
6298 Clouds 8 1008 92 10000 7.13 230 00:44 27.10.2020
6299 Clouds 9 1007 92 10000 6.67 236 23:40 26.10.2020
6300 Clouds 10 1008 92 10000 7.33 236 23:19 26.10.2020
6301 Clouds 10 1007 92 10000 7.33 236 22:46 26.10.2020
6302 Clouds 10 1007 92 10000 7.11 236 22:21 26.10.2020
6303 Clouds 10 1007 92 10000 7.11 236 21:42 26.10.2020
6304 Clouds 11 1007 92 10000 6.7 229 21:19 26.10.2020
6305 Clouds 11 1007 91 10000 6.7 229 20:57 26.10.2020
6306 Clouds 11 1007 91 10000 6.7 229 20:38 26.10.2020
6307 Clouds 11 1007 91 10000 6.58 215 20:18 26.10.2020
6308 Clouds 11 1007 91 10000 6.58 215 19:46 26.10.2020
6309 Rain 11 1007 91 10000 5.23 192 19:22 26.10.2020
6310 Rain 11 1007 91 10000 4.63 196 18:44 26.10.2020
6311 Rain 11 1007 91 10000 5.13 200 18:23 26.10.2020
6312 Rain 11 1007 91 10000 5.13 200 17:56 26.10.2020
6313 Rain 11 1007 91 10000 5.13 200 17:37 26.10.2020
6314 Rain 11 1007 91 10000 4.44 205 17:19 26.10.2020
6315 Rain 11 1007 91 10000 4.44 205 16:40 26.10.2020
6316 Rain 11 1007 91 9687 4.77 212 16:21 26.10.2020
6317 Rain 11 1007 91 9687 4.77 212 15:42 26.10.2020
6318 Rain 12 1007 91 10000 5.02 202 15:22 26.10.2020
6319 Rain 12 1007 91 10000 0.45 135 14:53 26.10.2020
6320 Rain 12 1006 91 10000 0.45 135 14:32 26.10.2020
6321 Rain 12 1007 92 10000 0.45 135 13:44 26.10.2020
6322 Rain 11 1007 91 10000 0.45 135 13:24 26.10.2020
6323 Rain 11 1007 91 10000 0.45 157 12:53 26.10.2020
6324 Rain 11 1007 91 10000 4.04 209 12:31 26.10.2020
6325 Rain 11 1007 91 10000 4.65 197 11:57 26.10.2020
6326 Rain 11 1007 90 10000 4.65 197 11:39 26.10.2020
6327 Rain 11 1007 90 10000 5.95 196 11:21 26.10.2020
6328 Clouds 11 1007 91 10000 5.95 196 10:48 26.10.2020
6329 Rain 11 1007 91 10000 0.45 157 10:26 26.10.2020
6330 Clouds 11 1007 91 10000 6.66 196 09:55 26.10.2020
6331 Clouds 11 1007 91 10000 0.45 157 09:29 26.10.2020
6332 Clouds 10 1007 91 10000 0.45 157 08:54 26.10.2020
6333 Clouds 10 1007 91 10000 0.45 157 08:24 26.10.2020
6334 Rain 9 1007 90 10000 0.45 180 07:40 26.10.2020
6335 Clouds 9 1007 90 10000 0.45 180 07:21 26.10.2020
6336 Clouds 9 1007 89 10000 5.35 208 05:31 26.10.2020
6337 Clouds 9 1007 89 10000 0.45 157 04:19 26.10.2020
6338 Clouds 10 1007 88 10000 0.45 157 03:21 26.10.2020
6339 Clouds 10 1007 88 10000 0.45 157 03:21 26.10.2020
6340 Clouds 10 1007 88 10000 0.45 157 03:21 26.10.2020
6341 Clouds 11 1007 88 10000 7.09 213 01:34 26.10.2020
6342 Rain 11 1007 88 10000 0.45 180 00:36 26.10.2020
6343 Rain 11 1007 88 10000 0.45 180 23:51 25.10.2020
6344 Rain 11 1007 87 10000 0.45 180 23:30 25.10.2020
6345 Rain 12 1008 87 10000 0.45 180 22:48 25.10.2020
6346 Rain 12 1007 87 10000 0.45 157 22:30 25.10.2020
6347 Rain 12 1007 87 10000 0.45 157 22:30 25.10.2020
6348 Clouds 12 1008 86 10000 0.89 180 21:57 25.10.2020
6349 Rain 12 1008 86 10000 0.89 180 21:39 25.10.2020
6350 Rain 12 1008 86 10000 0.89 180 21:19 25.10.2020
6351 Rain 12 1008 85 10000 0.89 180 20:43 25.10.2020
6352 Rain 12 1008 85 10000 1.34 180 20:24 25.10.2020
6353 Rain 12 1008 85 10000 0.89 180 19:56 25.10.2020
6354 Rain 12 1008 85 10000 0.89 180 19:37 25.10.2020
6355 Rain 13 1008 85 10000 1.34 180 19:19 25.10.2020
6356 Clouds 13 1008 85 10000 0.89 180 18:41 25.10.2020
6357 Clouds 13 1009 86 10000 0.89 180 18:22 25.10.2020
6358 Clouds 13 1009 86 10000 0.89 180 18:22 25.10.2020
6359 Clouds 13 1009 85 10000 0.89 180 17:57 25.10.2020
6360 Clouds 13 1009 85 10000 0.89 180 17:38 25.10.2020
6361 Rain 13 1008 85 10000 0.89 157 17:19 25.10.2020
6362 Clouds 13 1009 85 10000 0.45 157 16:46 25.10.2020
6363 Rain 13 1009 85 10000 0.45 157 16:28 25.10.2020
6364 Clouds 14 1009 85 10000 0.89 180 15:50 25.10.2020
6365 Clouds 14 1009 84 10000 1.34 180 15:29 25.10.2020
6366 Clouds 14 1009 84 10000 1.34 157 14:55 25.10.2020
6367 Clouds 14 1009 84 10000 1.34 180 14:32 25.10.2020
6368 Clouds 14 1009 84 10000 0.89 180 13:58 25.10.2020
6369 Clouds 14 1010 83 10000 1.34 180 13:39 25.10.2020
6370 Clouds 14 1010 83 10000 1.79 180 13:18 25.10.2020
6371 Clouds 14 1010 84 10000 1.34 180 12:46 25.10.2020
6372 Clouds 14 1010 83 10000 1.79 180 12:25 25.10.2020
6373 Clouds 14 1010 83 10000 2.24 180 11:43 25.10.2020
6374 Clouds 14 1010 85 10000 1.79 202 11:21 25.10.2020
6375 Clouds 13 1010 86 10000 1.79 180 10:57 25.10.2020
6376 Clouds 13 1011 87 10000 1.34 180 10:38 25.10.2020
6377 Clouds 13 1011 87 10000 1.34 180 10:19 25.10.2020
6378 Clouds 12 1011 88 10000 1.79 180 09:40 25.10.2020
6379 Clouds 12 1011 89 10000 1.34 225 09:19 25.10.2020
6380 Clouds 11 1011 90 10000 1.34 180 08:41 25.10.2020
6381 Clouds 10 1011 90 10000 0.89 180 08:22 25.10.2020
6382 Clouds 10 1011 90 10000 0.89 180 07:47 25.10.2020
6383 Clouds 10 1011 89 10000 0.89 180 07:24 25.10.2020
6384 Clouds 11 1011 89 10000 0.89 180 06:46 25.10.2020
6385 Clouds 11 1012 89 10000 1.34 180 05:43 25.10.2020
6386 Clouds 11 1012 90 10000 1.34 180 04:52 25.10.2020
6387 Clouds 11 1013 91 10000 0.45 180 02:58 25.10.2020
6388 Clouds 11 1014 91 10000 0.45 180 01:20 25.10.2020
6389 Clouds 11 1014 90 10000 0.45 180 00:42 25.10.2020
6390 Clouds 11 1014 90 10000 0.89 180 00:18 25.10.2020
6391 Clouds 12 1014 90 10000 0.45 180 23:43 24.10.2020
6392 Clouds 12 1014 90 10000 0.89 180 23:24 24.10.2020
6393 Clouds 12 1014 90 10000 0.45 180 22:42 24.10.2020
6394 Clouds 12 1015 90 10000 0.45 180 22:23 24.10.2020
6395 Clouds 12 1015 89 10000 0.45 157 21:57 24.10.2020
6396 Clouds 12 1015 88 10000 0.45 180 21:38 24.10.2020
6397 Clouds 12 1015 88 10000 0.45 202 21:19 24.10.2020
6398 Clouds 12 1015 87 10000 0.45 180 20:46 24.10.2020
6399 Clouds 12 1015 86 10000 0.45 180 20:22 24.10.2020
6400 Clouds 12 1015 86 10000 0.45 202 19:47 24.10.2020
6401 Clouds 12 1015 85 10000 0.89 202 19:27 24.10.2020
6402 Clouds 12 1015 84 10000 0.45 202 18:56 24.10.2020
6403 Clouds 12 1015 83 10000 4.67 229 18:38 24.10.2020
6404 Clouds 12 1015 83 10000 5.93 246 18:19 24.10.2020
6405 Clouds 13 1015 81 10000 5.93 246 17:38 24.10.2020
6406 Clouds 13 1015 81 10000 7.69 254 17:20 24.10.2020
6407 Clouds 13 1015 80 10000 7.69 254 16:44 24.10.2020
6408 Clouds 14 1015 81 10000 0.45 247 16:21 24.10.2020
6409 Clouds 14 1015 83 10000 0.45 270 15:40 24.10.2020
6410 Clouds 14 1014 83 10000 9.47 247 15:19 24.10.2020
6411 Clouds 14 1015 85 10000 0.45 270 14:50 24.10.2020
6412 Rain 14 1015 86 10000 9.91 241 14:28 24.10.2020
6413 Rain 14 1015 86 10000 10.59 243 13:46 24.10.2020
6414 Rain 14 1014 87 10000 10.27 242 13:24 24.10.2020
6415 Clouds 14 1015 88 10000 0.45 247 12:55 24.10.2020
6416 Clouds 14 1014 89 10000 10.27 242 12:37 24.10.2020
6417 Clouds 14 1014 89 10000 0.45 247 12:19 24.10.2020
6418 Clouds 13 1014 91 10000 0.45 247 11:42 24.10.2020
6419 Clouds 13 1014 92 10000 0.89 247 10:59 24.10.2020
6420 Clouds 12 1014 92 10000 10.5 244 10:39 24.10.2020
6421 Clouds 12 1014 93 10000 10.24 245 09:58 24.10.2020
6422 Clouds 12 1014 93 10000 0.45 225 09:40 24.10.2020
6423 Clouds 12 1013 93 10000 0.45 202 09:21 24.10.2020
6424 Clouds 11 1013 92 10000 0.45 202 08:51 24.10.2020
6425 Clouds 11 1013 92 10000 0.45 225 08:18 24.10.2020
6426 Clouds 11 1013 92 10000 0.45 202 07:48 24.10.2020
6427 Clouds 11 1013 92 10000 0.45 225 07:19 24.10.2020
6428 Clouds 10 1013 92 10000 8.9 232 06:44 24.10.2020
6429 Clouds 9 1013 91 10000 0.45 202 04:45 24.10.2020
6430 Clouds 8 1014 89 10000 6.46 220 02:20 24.10.2020
6431 Clouds 12 1009 86 10000 5.41 206 00:44 24.10.2020
6432 Clouds 8 1014 89 10000 4.68 198 00:23 24.10.2020
6433 Clouds 8 1014 88 10000 4.68 198 23:59 23.10.2020
6434 Clouds 9 1014 88 10000 4.68 198 23:38 23.10.2020
6435 Clouds 9 1014 88 10000 3.72 208 23:19 23.10.2020
6436 Clouds 9 1013 88 10000 3.72 208 22:42 23.10.2020
6437 Clear 10 1014 88 10000 2.79 224 22:21 23.10.2020
6438 Clear 11 1013 88 10000 2.79 224 21:53 23.10.2020
6439 Clear 11 1013 88 10000 2.79 224 21:30 23.10.2020
6440 Clouds 11 1013 88 10000 2.82 240 20:59 23.10.2020
6441 Clouds 11 1014 88 10000 2.82 240 20:38 23.10.2020
6442 Clouds 11 1014 88 10000 3.22 250 20:19 23.10.2020
6443 Clouds 12 1014 87 10000 3.22 250 19:44 23.10.2020
6444 Clouds 12 1014 87 10000 3.57 243 19:26 23.10.2020
6445 Clouds 12 1014 87 10000 0.45 270 18:47 23.10.2020
6446 Rain 12 1014 87 10000 4.44 243 18:29 23.10.2020
6447 Rain 12 1014 85 10000 4.44 243 17:45 23.10.2020
6448 Rain 13 1014 84 10000 4.74 255 17:22 23.10.2020
6449 Clouds 13 1014 84 10000 4.74 255 16:50 23.10.2020
6450 Rain 13 1014 83 10000 4.74 255 16:31 23.10.2020
6451 Clouds 14 1014 83 10000 5.95 257 15:58 23.10.2020
6452 Clouds 14 1014 82 10000 5.95 257 15:39 23.10.2020
6453 Clouds 14 1014 82 10000 6.79 260 15:19 23.10.2020
6454 Clouds 14 1014 81 10000 6.79 260 14:47 23.10.2020
6455 Clouds 14 1014 82 10000 7.72 259 14:29 23.10.2020
6456 Clouds 14 1014 82 10000 0.45 292 13:42 23.10.2020
6457 Clouds 14 1015 83 10000 8.56 258 13:23 23.10.2020
6458 Clouds 14 1015 82 10000 0.89 270 12:51 23.10.2020
6459 Clouds 13 1015 82 10000 8.56 258 12:31 23.10.2020
6460 Clear 13 1015 86 10000 9.21 257 11:56 23.10.2020
6461 Clear 13 1015 88 10000 9.21 257 11:38 23.10.2020
6462 Clear 12 1015 89 10000 0.89 270 11:19 23.10.2020
6463 Clear 11 1014 91 10000 9.8 251 10:39 23.10.2020
6464 Clear 11 1014 92 10000 9.51 255 10:20 23.10.2020
6465 Clear 11 1015 92 10000 9.51 255 09:43 23.10.2020
6466 Clear 11 1014 92 10000 10.03 254 09:23 23.10.2020
6467 Clear 10 1014 92 10000 10.03 254 08:51 23.10.2020
6468 Clear 10 1014 91 10000 0.45 270 08:26 23.10.2020
6469 Clear 10 1013 91 10000 10.5 250 07:27 23.10.2020
6470 Clear 10 1013 90 10000 10.5 250 06:52 23.10.2020
6471 Clear 10 1013 90 10000 10.22 244 06:20 23.10.2020
6472 Clear 11 1013 91 10000 9.81 247 04:42 23.10.2020
6473 Clouds 12 1013 91 10000 9.42 237 02:28 23.10.2020
6474 Clouds 13 1013 90 10000 9.25 237 00:56 23.10.2020
6475 Clouds 13 1013 89 10000 9.25 237 00:33 23.10.2020
6476 Clouds 13 1013 88 10000 0.45 225 23:39 22.10.2020
6477 Clouds 14 1013 89 10000 0.89 225 23:19 22.10.2020
6478 Clouds 14 1013 89 10000 0.45 247 22:46 22.10.2020
6479 Clouds 14 1012 88 10000 7.3 218 22:26 22.10.2020
6480 Clouds 14 1012 87 10000 0.45 202 21:58 22.10.2020
6481 Rain 14 1012 87 10000 0.89 202 21:39 22.10.2020
6482 Rain 14 1012 87 10000 0.45 202 21:20 22.10.2020
6483 Clouds 14 1013 86 10000 0.45 202 20:44 22.10.2020
6484 Clear 14 1013 86 10000 0.89 202 20:25 22.10.2020
6485 Clear 14 1013 85 10000 0.45 180 19:44 22.10.2020
6486 Clouds 13 1013 84 10000 0.45 180 19:21 22.10.2020
6487 Clouds 13 1014 83 10000 0.45 180 18:59 22.10.2020
6488 Clouds 14 1014 82 10000 0.45 202 18:39 22.10.2020
6489 Clear 14 1013 81 10000 6.65 235 18:18 22.10.2020
6490 Clear 15 1013 81 10000 0.45 225 17:44 22.10.2020
6491 Clear 16 1013 80 10000 0.45 202 17:21 22.10.2020
6492 Clear 17 1013 79 10000 0.89 247 16:45 22.10.2020
6493 Clear 14 1008 78 10000 8.42 250 16:25 22.10.2020
6494 Clear 14 1008 78 10000 8.42 250 15:50 22.10.2020
6495 Clear 14 1009 78 10000 9.21 250 15:27 22.10.2020
6496 Clear 14 1009 78 10000 9.21 250 14:58 22.10.2020
6497 Clear 14 1009 78 10000 9.21 250 14:38 22.10.2020
6498 Clouds 14 1009 79 10000 9.48 246 14:20 22.10.2020
6499 Clouds 14 1009 79 10000 9.48 246 13:43 22.10.2020
6500 Clouds 14 1009 80 10000 10.27 241 13:22 22.10.2020
6501 Clouds 14 1009 80 10000 10.27 241 12:43 22.10.2020
6502 Clouds 14 1009 86 10000 10.53 241 12:22 22.10.2020
6503 Clouds 14 1009 86 10000 10.53 241 11:45 22.10.2020
6504 Clouds 14 1008 85 10000 10.7 241 11:19 22.10.2020
6505 Clouds 14 1008 85 10000 10.7 241 10:49 22.10.2020
6506 Clouds 14 1008 86 10000 11.2 247 10:25 22.10.2020
6507 Clouds 14 1011 83 10000 11.2 247 09:44 22.10.2020
6508 Clouds 14 1011 83 10000 12.87 250 09:22 22.10.2020
6509 Clouds 14 1011 83 10000 12.87 250 08:43 22.10.2020
6510 Clouds 14 1011 83 10000 13.56 254 08:25 22.10.2020
6511 Clouds 14 1010 83 10000 0.45 270 07:43 22.10.2020
6512 Rain 14 1010 82 10000 1.79 270 07:20 22.10.2020
6513 Clouds 14 1009 82 10000 0.89 270 06:46 22.10.2020
6514 Clouds 14 1008 82 10000 0.89 315 06:24 22.10.2020
6515 Clouds 15 1007 81 10000 0.45 292 05:39 22.10.2020
6516 Clouds 14 1006 81 10000 1.79 225 03:26 22.10.2020
6517 Clouds 13 1006 83 10000 0.89 225 01:34 22.10.2020
6518 Clouds 13 1006 83 10000 0.89 225 01:34 22.10.2020
6519 Clouds 12 1006 84 10000 1.34 202 00:24 22.10.2020
6520 Clouds 12 1006 84 10000 1.34 202 23:44 21.10.2020
6521 Clouds 12 1006 85 10000 1.34 202 23:22 21.10.2020
6522 Clouds 12 1006 87 10000 1.34 180 22:39 21.10.2020
6523 Clouds 12 1006 88 10000 0.89 180 22:19 21.10.2020
6524 Clouds 11 1007 89 10000 1.34 202 21:56 21.10.2020
6525 Clouds 11 1007 90 10000 1.79 180 21:37 21.10.2020
6526 Clouds 11 1007 90 10000 1.79 180 21:18 21.10.2020
6527 Clouds 11 1007 91 10000 2.24 180 20:45 21.10.2020
6528 Clouds 11 1007 91 10000 1.79 180 20:18 21.10.2020
6529 Clouds 11 1007 91 10000 0.89 180 19:43 21.10.2020
6530 Rain 11 1007 91 10000 1.79 157 19:25 21.10.2020
6531 Rain 11 1008 91 10000 1.34 157 18:54 21.10.2020
6532 Rain 11 1008 91 10000 1.79 180 18:32 21.10.2020
6533 Rain 11 1008 91 10000 0.89 180 17:54 21.10.2020
6534 Clouds 12 1008 91 10000 1.79 180 17:36 21.10.2020
6535 Rain 12 1008 91 10000 1.34 180 17:18 21.10.2020
6536 Rain 12 1009 91 10000 1.79 180 16:40 21.10.2020
6537 Rain 12 1009 91 10000 1.79 180 16:40 21.10.2020
6538 Rain 12 1009 91 10000 1.34 180 16:21 21.10.2020
6539 Rain 12 1010 91 10000 1.34 157 15:49 21.10.2020
6540 Rain 12 1010 92 10000 1.34 157 15:29 21.10.2020
6541 Rain 12 1010 92 10000 0.89 180 14:58 21.10.2020
6542 Rain 12 1010 91 10000 1.34 180 14:40 21.10.2020
6543 Rain 12 1011 91 10000 1.34 180 14:21 21.10.2020
6544 Rain 13 1011 92 10000 0.89 180 13:42 21.10.2020
6545 Clouds 12 1011 92 10000 1.79 180 13:23 21.10.2020
6546 Clouds 12 1011 92 10000 0.89 180 12:42 21.10.2020
6547 Rain 12 1012 93 10000 0.89 180 12:22 21.10.2020
6548 Clouds 12 1012 93 10000 1.34 180 11:48 21.10.2020
6549 Rain 12 1012 93 10000 0.89 180 11:22 21.10.2020
6550 Clouds 12 1012 93 10000 1.34 180 10:59 21.10.2020
6551 Rain 12 1012 93 10000 0.45 180 10:40 21.10.2020
6552 Clouds 11 1012 93 10000 0.89 180 10:21 21.10.2020
6553 Clouds 11 1012 93 10000 0.45 202 09:49 21.10.2020
6554 Rain 11 1012 93 10000 0.45 180 09:28 21.10.2020
6555 Clouds 11 1012 93 10000 0.45 202 08:42 21.10.2020
6556 Rain 11 1012 92 10000 0.45 202 08:23 21.10.2020
6557 Clouds 11 1012 92 10000 0.45 202 07:56 21.10.2020
6558 Clouds 11 1012 92 10000 0.45 202 07:56 21.10.2020
6559 Clouds 11 1012 92 10000 0.45 180 07:24 21.10.2020
6560 Clouds 11 1012 92 10000 0.45 202 06:47 21.10.2020
6561 Rain 11 1012 92 10000 0.45 202 06:25 21.10.2020
6562 Clouds 11 1012 92 10000 6.85 214 04:45 21.10.2020
6563 Rain 9 1013 91 10000 0.45 180 00:50 21.10.2020
6564 Clouds 9 1014 90 9658 0.45 202 23:37 20.10.2020
6565 Clouds 9 1013 89 10000 0.89 202 22:52 20.10.2020
6566 Rain 9 1014 89 10000 0.45 202 22:27 20.10.2020
6567 Rain 9 1014 89 10000 0.45 202 21:48 20.10.2020
6568 Rain 9 1014 89 10000 1.34 202 21:20 20.10.2020
6569 Rain 9 1014 89 10000 0.89 180 20:44 20.10.2020
6570 Rain 9 1014 88 10000 0.89 157 20:25 20.10.2020
6571 Rain 9 1014 88 10000 0.89 157 20:25 20.10.2020
6572 Rain 9 1014 88 10000 0.89 157 20:25 20.10.2020
6573 Rain 9 1014 87 10000 0.45 180 19:58 20.10.2020
6574 Rain 9 1015 87 10000 0.45 180 19:40 20.10.2020
6575 Clouds 9 1015 87 10000 0.45 180 19:21 20.10.2020
6576 Rain 9 1015 86 10000 0.89 180 18:47 20.10.2020
6577 Rain 9 1015 86 10000 0.89 180 18:27 20.10.2020
6578 Rain 9 1015 84 10000 0.89 157 17:43 20.10.2020
6579 Clouds 9 1015 83 10000 1.79 180 17:24 20.10.2020
6580 Clouds 10 1015 82 10000 1.79 180 16:48 20.10.2020
6581 Clouds 10 1015 82 10000 1.79 180 16:27 20.10.2020
6582 Clouds 11 1015 82 10000 1.34 135 15:56 20.10.2020
6583 Clouds 11 1016 82 10000 2.24 157 15:38 20.10.2020
6584 Clouds 10 1016 82 10000 9.55 163 15:19 20.10.2020
6585 Clouds 10 1017 82 10000 0.89 157 14:41 20.10.2020
6586 Clouds 10 1018 82 10000 1.79 135 14:22 20.10.2020
6587 Rain 9 1018 83 10000 0.89 135 13:44 20.10.2020
6588 Clouds 9 1019 83 10000 1.34 157 13:23 20.10.2020
6589 Clouds 9 1019 83 10000 1.34 135 12:58 20.10.2020
6590 Clouds 9 1019 83 10000 1.34 157 12:40 20.10.2020
6591 Clouds 9 1019 85 10000 1.34 180 12:21 20.10.2020
6592 Clouds 9 1020 86 10000 0.89 135 11:43 20.10.2020
6593 Clouds 9 1020 89 10000 1.34 157 11:25 20.10.2020
6594 Clouds 8 1021 90 10000 0.89 135 10:38 20.10.2020
6595 Clouds 7 1021 90 10000 1.34 135 10:19 20.10.2020
6596 Clouds 7 1021 90 10000 1.34 135 09:42 20.10.2020
6597 Clouds 7 1023 90 10000 0.89 157 09:18 20.10.2020
6598 Clouds 6 1022 90 10000 0.89 135 08:39 20.10.2020
6599 Clouds 6 1022 90 10000 0.89 135 07:53 20.10.2020
6600 Clouds 6 1022 90 10000 0.89 135 07:26 20.10.2020
6601 Clouds 6 1023 90 10000 0.89 157 06:32 20.10.2020
6602 Clouds 6 1023 89 10000 0.45 157 05:51 20.10.2020
6603 Clouds 6 1024 89 10000 6.49 189 03:58 20.10.2020
6604 Clouds 6 1024 88 10000 6.37 193 02:30 20.10.2020
6605 Clouds 7 1025 87 10000 6.16 206 01:20 20.10.2020
6606 Clouds 7 1025 88 10000 6.16 206 00:49 20.10.2020
6607 Clouds 8 1025 88 10000 5.51 210 00:22 20.10.2020
6608 Clouds 8 1025 88 10000 5.51 210 23:47 19.10.2020
6609 Clouds 8 1025 87 10000 5.11 214 23:24 19.10.2020
6610 Clouds 8 1025 87 10000 5.11 214 22:47 19.10.2020
6611 Clouds 8 1025 87 10000 5.47 223 22:25 19.10.2020
6612 Clouds 8 1025 87 10000 5.47 223 21:49 19.10.2020
6613 Clouds 8 1025 87 10000 5.62 223 21:23 19.10.2020
6614 Rain 7 1025 86 10000 5.62 223 20:52 19.10.2020
6615 Rain 7 1025 86 10000 5.62 223 20:33 19.10.2020
6616 Clouds 8 1024 86 10000 5.49 229 19:59 19.10.2020
6617 Rain 8 1024 86 10000 5.49 229 19:41 19.10.2020
6618 Rain 8 1025 85 10000 5.76 242 19:19 19.10.2020
6619 Clouds 8 1025 84 10000 5.76 242 18:43 19.10.2020
6620 Rain 8 1024 83 10000 6.18 252 18:19 19.10.2020
6621 Clouds 9 1024 83 10000 6.18 252 17:46 19.10.2020
6622 Rain 9 1024 83 10000 6.42 258 17:26 19.10.2020
6623 Rain 9 1024 82 10000 6.42 258 16:52 19.10.2020
6624 Clouds 9 1024 81 10000 6.83 261 16:28 19.10.2020
6625 Rain 10 1024 82 10000 0.89 292 15:46 19.10.2020
6626 Rain 10 1024 84 10000 7.94 274 15:25 19.10.2020
6627 Rain 10 1024 84 10000 7.94 274 15:25 19.10.2020
6628 Clouds 10 1024 85 10000 7.94 274 14:53 19.10.2020
6629 Rain 9 1024 86 10000 8.4 276 14:28 19.10.2020
6630 Clouds 9 1024 85 10000 8.4 276 13:59 19.10.2020
6631 Clouds 9 1024 84 10000 7.9 281 13:41 19.10.2020
6632 Clouds 9 1024 85 10000 7.79 278 13:22 19.10.2020
6633 Clouds 9 1025 87 10000 7.79 278 12:43 19.10.2020
6634 Clouds 9 1025 86 10000 7.99 283 12:25 19.10.2020
6635 Clouds 9 1024 88 10000 0.89 270 11:42 19.10.2020
6636 Clouds 8 1024 89 10000 8.69 286 11:21 19.10.2020
6637 Clouds 8 1024 91 10000 8.69 286 10:44 19.10.2020
6638 Clouds 7 1024 92 10000 0.45 315 10:23 19.10.2020
6639 Clouds 7 1024 92 10000 8.72 287 09:56 19.10.2020
6640 Clouds 6 1023 92 10000 8.73 288 09:25 19.10.2020
6641 Clouds 6 1023 92 10000 8.73 288 08:59 19.10.2020
6642 Clouds 6 1023 91 10000 8.73 288 08:41 19.10.2020
6643 Clouds 6 1023 91 10000 8.77 290 08:20 19.10.2020
6644 Clear 6 1022 91 10000 8.82 291 07:20 19.10.2020
6645 Clear 5 1022 91 10000 8.82 291 06:36 19.10.2020
6646 Clear 4 1022 91 10000 0.45 292 05:20 19.10.2020
6647 Clouds 4 1022 90 10000 9.57 291 03:45 19.10.2020
6648 Clouds 4 1021 89 10000 9.36 290 01:42 19.10.2020
6649 Clouds 10 1017 62 10000 9.06 291 00:38 19.10.2020
6650 Clouds 10 1016 62 10000 9.38 298 23:56 18.10.2020
6651 Clouds 5 1020 88 10000 9.38 298 23:37 18.10.2020
6652 Clouds 5 1020 87 10000 9.56 298 23:19 18.10.2020
6653 Clouds 6 1020 87 10000 9.56 298 22:44 18.10.2020
6654 Rain 6 1020 86 10000 9.78 299 22:19 18.10.2020
6655 Clouds 6 1020 86 10000